<?xml version="1.0" encoding="UTF-8" standalone="no" ?>
<gpx xmlns="http://www.topografix.com/GPX/1/1" xmlns:xsi="http://www.w3.org/2001/XMLSchema-instance" xsi:schemaLocation="http://www.topografix.com/GPX/1/1 http://www.topografix.com/GPX/1/1/gpx.xsd" version="1.1" creator="VisuGPX - https://www.visugpx.com">
  <metadata>
    <name>Chencey Buillon courte</name>
  </metadata>
  <trk>
    <name><![CDATA[Chencey Buillon courte]]></name>
    <trkseg>
      <trkpt lat="47.14032" lon="5.95953">
        <ele>281.9</ele>
        <extensions>
          <visugpx:TrkExtension xmlns:visugpx="https://www.visugpx.com/editgpx/">
            <visugpx:node>17</visugpx:node>
            </visugpx:TrkExtension>
        </extensions>
      </trkpt>
      <trkpt lat="47.14096" lon="5.95926">
        <ele>283.4</ele>
        <extensions>
          <visugpx:TrkExtension xmlns:visugpx="https://www.visugpx.com/editgpx/">
            <visugpx:node>14</visugpx:node>
            </visugpx:TrkExtension>
        </extensions>
      </trkpt>
      <trkpt lat="47.14104" lon="5.95923">
        <ele>283.8</ele>
      </trkpt>
      <trkpt lat="47.14117" lon="5.95921">
        <ele>284.4</ele>
      </trkpt>
      <trkpt lat="47.14147" lon="5.95928">
        <ele>285.5</ele>
      </trkpt>
      <trkpt lat="47.14158" lon="5.95936">
        <ele>286.4</ele>
      </trkpt>
      <trkpt lat="47.14177" lon="5.95952">
        <ele>288.1</ele>
      </trkpt>
      <trkpt lat="47.14183" lon="5.95949">
        <ele>287.8</ele>
      </trkpt>
      <trkpt lat="47.14248" lon="5.95904">
        <ele>282.7</ele>
      </trkpt>
      <trkpt lat="47.1427" lon="5.95894">
        <ele>280.8</ele>
      </trkpt>
      <trkpt lat="47.14293" lon="5.95889">
        <ele>279.5</ele>
      </trkpt>
      <trkpt lat="47.14297" lon="5.9589">
        <ele>279.4</ele>
        <extensions>
          <visugpx:TrkExtension xmlns:visugpx="https://www.visugpx.com/editgpx/">
            <visugpx:node>15</visugpx:node>
            </visugpx:TrkExtension>
        </extensions>
      </trkpt>
      <trkpt lat="47.14312" lon="5.95893">
        <ele>279.2</ele>
      </trkpt>
      <trkpt lat="47.14333" lon="5.95901">
        <ele>278.9</ele>
      </trkpt>
      <trkpt lat="47.14411" lon="5.95945">
        <ele>278.2</ele>
      </trkpt>
      <trkpt lat="47.14502" lon="5.96003">
        <ele>278</ele>
      </trkpt>
      <trkpt lat="47.14534" lon="5.96027">
        <ele>276.8</ele>
      </trkpt>
      <trkpt lat="47.14565" lon="5.96057">
        <ele>276.7</ele>
      </trkpt>
      <trkpt lat="47.14591" lon="5.96085">
        <ele>276.5</ele>
      </trkpt>
      <trkpt lat="47.14593" lon="5.96088">
        <ele>276.4</ele>
        <extensions>
          <visugpx:TrkExtension xmlns:visugpx="https://www.visugpx.com/editgpx/">
            <visugpx:node>16</visugpx:node>
            </visugpx:TrkExtension>
        </extensions>
      </trkpt>
      <trkpt lat="47.14594" lon="5.96092">
        <ele>283.8</ele>
        <time>2021-08-17T11:38:52Z</time>
      </trkpt>
      <trkpt lat="47.14595" lon="5.96097">
        <ele>283.8</ele>
        <time>2021-08-17T11:38:53Z</time>
      </trkpt>
      <trkpt lat="47.14597" lon="5.96101">
        <ele>283.8</ele>
        <time>2021-08-17T11:38:54Z</time>
      </trkpt>
      <trkpt lat="47.146" lon="5.96105">
        <ele>283.8</ele>
        <time>2021-08-17T11:38:55Z</time>
      </trkpt>
      <trkpt lat="47.14602" lon="5.9611">
        <ele>283.8</ele>
        <time>2021-08-17T11:38:56Z</time>
      </trkpt>
      <trkpt lat="47.14604" lon="5.96114">
        <ele>283.8</ele>
        <time>2021-08-17T11:38:57Z</time>
      </trkpt>
      <trkpt lat="47.14611" lon="5.96133">
        <ele>283.4</ele>
        <time>2021-08-17T11:39:01Z</time>
      </trkpt>
      <trkpt lat="47.14618" lon="5.96153">
        <ele>283.4</ele>
        <time>2021-08-17T11:39:05Z</time>
      </trkpt>
      <trkpt lat="47.14626" lon="5.96183">
        <ele>283.4</ele>
        <time>2021-08-17T11:39:11Z</time>
      </trkpt>
      <trkpt lat="47.14626" lon="5.96188">
        <ele>283.4</ele>
        <time>2021-08-17T11:39:12Z</time>
      </trkpt>
      <trkpt lat="47.14627" lon="5.96193">
        <ele>283.4</ele>
        <time>2021-08-17T11:39:13Z</time>
      </trkpt>
      <trkpt lat="47.14628" lon="5.96199">
        <ele>283.4</ele>
        <time>2021-08-17T11:39:14Z</time>
      </trkpt>
      <trkpt lat="47.14634" lon="5.96223">
        <ele>283.4</ele>
        <time>2021-08-17T11:39:19Z</time>
      </trkpt>
      <trkpt lat="47.14636" lon="5.96239">
        <ele>283.2</ele>
        <time>2021-08-17T11:39:22Z</time>
      </trkpt>
      <trkpt lat="47.1464" lon="5.96291">
        <ele>283</ele>
        <time>2021-08-17T11:39:31Z</time>
      </trkpt>
      <trkpt lat="47.14642" lon="5.96315">
        <ele>282.8</ele>
        <time>2021-08-17T11:39:35Z</time>
      </trkpt>
      <trkpt lat="47.14643" lon="5.96327">
        <ele>282.8</ele>
        <time>2021-08-17T11:39:37Z</time>
      </trkpt>
      <trkpt lat="47.14644" lon="5.96333">
        <ele>282.8</ele>
        <time>2021-08-17T11:39:38Z</time>
      </trkpt>
      <trkpt lat="47.14645" lon="5.96339">
        <ele>282.8</ele>
        <time>2021-08-17T11:39:39Z</time>
      </trkpt>
      <trkpt lat="47.14645" lon="5.96344">
        <ele>282.8</ele>
        <time>2021-08-17T11:39:40Z</time>
      </trkpt>
      <trkpt lat="47.14646" lon="5.9635">
        <ele>282.6</ele>
        <time>2021-08-17T11:39:41Z</time>
      </trkpt>
      <trkpt lat="47.14652" lon="5.96391">
        <ele>282.6</ele>
        <time>2021-08-17T11:39:48Z</time>
      </trkpt>
      <trkpt lat="47.14658" lon="5.96414">
        <ele>282.6</ele>
        <time>2021-08-17T11:39:52Z</time>
      </trkpt>
      <trkpt lat="47.14666" lon="5.96441">
        <ele>282.4</ele>
        <time>2021-08-17T11:39:57Z</time>
      </trkpt>
      <trkpt lat="47.14668" lon="5.96447">
        <ele>282.4</ele>
        <time>2021-08-17T11:39:58Z</time>
      </trkpt>
      <trkpt lat="47.14669" lon="5.96452">
        <ele>282.4</ele>
        <time>2021-08-17T11:39:59Z</time>
      </trkpt>
      <trkpt lat="47.14674" lon="5.96474">
        <ele>282.4</ele>
        <time>2021-08-17T11:40:03Z</time>
      </trkpt>
      <trkpt lat="47.14675" lon="5.9648">
        <ele>282.4</ele>
        <time>2021-08-17T11:40:04Z</time>
      </trkpt>
      <trkpt lat="47.14677" lon="5.96491">
        <ele>282.4</ele>
        <time>2021-08-17T11:40:06Z</time>
      </trkpt>
      <trkpt lat="47.14678" lon="5.96496">
        <ele>282.4</ele>
        <time>2021-08-17T11:40:07Z</time>
      </trkpt>
      <trkpt lat="47.14679" lon="5.96502">
        <ele>282.4</ele>
        <time>2021-08-17T11:40:08Z</time>
      </trkpt>
      <trkpt lat="47.14679" lon="5.96507">
        <ele>282.4</ele>
        <time>2021-08-17T11:40:09Z</time>
      </trkpt>
      <trkpt lat="47.14681" lon="5.96512">
        <ele>282.4</ele>
        <time>2021-08-17T11:40:10Z</time>
      </trkpt>
      <trkpt lat="47.14682" lon="5.96517">
        <ele>282.4</ele>
        <time>2021-08-17T11:40:11Z</time>
      </trkpt>
      <trkpt lat="47.14684" lon="5.96522">
        <ele>282.4</ele>
        <time>2021-08-17T11:40:12Z</time>
      </trkpt>
      <trkpt lat="47.14685" lon="5.96527">
        <ele>282.6</ele>
        <time>2021-08-17T11:40:13Z</time>
      </trkpt>
      <trkpt lat="47.14697" lon="5.96549">
        <ele>282.8</ele>
        <time>2021-08-17T11:40:18Z</time>
      </trkpt>
      <trkpt lat="47.14715" lon="5.9657">
        <ele>283</ele>
        <time>2021-08-17T11:40:24Z</time>
      </trkpt>
      <trkpt lat="47.14732" lon="5.96587">
        <ele>283</ele>
        <time>2021-08-17T11:40:29Z</time>
      </trkpt>
      <trkpt lat="47.14748" lon="5.96602">
        <ele>283.4</ele>
        <time>2021-08-17T11:40:33Z</time>
      </trkpt>
      <trkpt lat="47.14763" lon="5.9662">
        <ele>283.6</ele>
        <time>2021-08-17T11:40:37Z</time>
      </trkpt>
      <trkpt lat="47.14771" lon="5.96629">
        <ele>283.6</ele>
        <time>2021-08-17T11:40:39Z</time>
      </trkpt>
      <trkpt lat="47.14783" lon="5.96638">
        <ele>283.4</ele>
        <time>2021-08-17T11:40:42Z</time>
      </trkpt>
      <trkpt lat="47.1479" lon="5.96642">
        <ele>283.6</ele>
        <time>2021-08-17T11:40:44Z</time>
      </trkpt>
      <trkpt lat="47.14798" lon="5.96646">
        <ele>283.6</ele>
        <time>2021-08-17T11:40:46Z</time>
      </trkpt>
      <trkpt lat="47.14802" lon="5.96648">
        <ele>283.6</ele>
        <time>2021-08-17T11:40:47Z</time>
      </trkpt>
      <trkpt lat="47.14806" lon="5.9665">
        <ele>283.6</ele>
        <time>2021-08-17T11:40:48Z</time>
      </trkpt>
      <trkpt lat="47.14814" lon="5.96654">
        <ele>283.6</ele>
        <time>2021-08-17T11:40:50Z</time>
      </trkpt>
      <trkpt lat="47.14822" lon="5.96659">
        <ele>283.8</ele>
        <time>2021-08-17T11:40:52Z</time>
      </trkpt>
      <trkpt lat="47.14832" lon="5.96664">
        <ele>283.8</ele>
        <time>2021-08-17T11:40:54Z</time>
      </trkpt>
      <trkpt lat="47.14846" lon="5.96667">
        <ele>283.8</ele>
        <time>2021-08-17T11:40:57Z</time>
      </trkpt>
      <trkpt lat="47.14851" lon="5.96668">
        <ele>283.8</ele>
        <time>2021-08-17T11:40:58Z</time>
      </trkpt>
      <trkpt lat="47.14865" lon="5.96671">
        <ele>283.6</ele>
        <time>2021-08-17T11:41:01Z</time>
      </trkpt>
      <trkpt lat="47.1487" lon="5.96671">
        <ele>283.6</ele>
        <time>2021-08-17T11:41:02Z</time>
      </trkpt>
      <trkpt lat="47.14874" lon="5.96671">
        <ele>283.6</ele>
        <time>2021-08-17T11:41:03Z</time>
      </trkpt>
      <trkpt lat="47.14884" lon="5.96671">
        <ele>283.6</ele>
        <time>2021-08-17T11:41:05Z</time>
      </trkpt>
      <trkpt lat="47.14888" lon="5.96671">
        <ele>283.6</ele>
        <time>2021-08-17T11:41:06Z</time>
      </trkpt>
      <trkpt lat="47.14897" lon="5.96672">
        <ele>283.8</ele>
        <time>2021-08-17T11:41:08Z</time>
      </trkpt>
      <trkpt lat="47.14906" lon="5.96672">
        <ele>284</ele>
        <time>2021-08-17T11:41:10Z</time>
      </trkpt>
      <trkpt lat="47.14909" lon="5.96672">
        <ele>284</ele>
        <time>2021-08-17T11:41:11Z</time>
      </trkpt>
      <trkpt lat="47.14917" lon="5.96671">
        <ele>284.2</ele>
        <time>2021-08-17T11:41:13Z</time>
      </trkpt>
      <trkpt lat="47.1492" lon="5.9667">
        <ele>284.2</ele>
        <time>2021-08-17T11:41:14Z</time>
      </trkpt>
      <trkpt lat="47.14924" lon="5.96668">
        <ele>284.2</ele>
        <time>2021-08-17T11:41:15Z</time>
      </trkpt>
      <trkpt lat="47.14927" lon="5.96666">
        <ele>284.2</ele>
        <time>2021-08-17T11:41:16Z</time>
      </trkpt>
      <trkpt lat="47.14932" lon="5.96664">
        <ele>284.4</ele>
        <time>2021-08-17T11:41:17Z</time>
      </trkpt>
      <trkpt lat="47.14936" lon="5.96662">
        <ele>284.4</ele>
        <time>2021-08-17T11:41:18Z</time>
      </trkpt>
      <trkpt lat="47.14949" lon="5.96653">
        <ele>284.2</ele>
        <time>2021-08-17T11:41:21Z</time>
      </trkpt>
      <trkpt lat="47.14957" lon="5.96645">
        <ele>284.2</ele>
        <time>2021-08-17T11:41:23Z</time>
      </trkpt>
      <trkpt lat="47.14962" lon="5.9664">
        <ele>284.2</ele>
        <time>2021-08-17T11:41:24Z</time>
      </trkpt>
      <trkpt lat="47.14966" lon="5.96636">
        <ele>284.2</ele>
        <time>2021-08-17T11:41:25Z</time>
      </trkpt>
      <trkpt lat="47.14975" lon="5.96627">
        <ele>284</ele>
        <time>2021-08-17T11:41:27Z</time>
      </trkpt>
      <trkpt lat="47.14983" lon="5.96617">
        <ele>283.2</ele>
        <time>2021-08-17T11:41:29Z</time>
      </trkpt>
      <trkpt lat="47.14991" lon="5.96608">
        <ele>283</ele>
        <time>2021-08-17T11:41:31Z</time>
      </trkpt>
      <trkpt lat="47.14995" lon="5.96603">
        <ele>282.8</ele>
        <time>2021-08-17T11:41:32Z</time>
      </trkpt>
      <trkpt lat="47.15011" lon="5.96584">
        <ele>282.4</ele>
        <time>2021-08-17T11:41:36Z</time>
      </trkpt>
      <trkpt lat="47.15013" lon="5.9658">
        <ele>282.4</ele>
        <time>2021-08-17T11:41:37Z</time>
      </trkpt>
      <trkpt lat="47.15017" lon="5.96575">
        <ele>282.4</ele>
        <time>2021-08-17T11:41:38Z</time>
      </trkpt>
      <trkpt lat="47.15021" lon="5.96569">
        <ele>282.4</ele>
        <time>2021-08-17T11:41:39Z</time>
      </trkpt>
      <trkpt lat="47.15028" lon="5.9656">
        <ele>282.4</ele>
        <time>2021-08-17T11:41:41Z</time>
      </trkpt>
      <trkpt lat="47.15031" lon="5.96556">
        <ele>282.4</ele>
        <time>2021-08-17T11:41:42Z</time>
      </trkpt>
      <trkpt lat="47.15034" lon="5.96551">
        <ele>282.4</ele>
        <time>2021-08-17T11:41:43Z</time>
      </trkpt>
      <trkpt lat="47.15037" lon="5.96546">
        <ele>282.4</ele>
        <time>2021-08-17T11:41:44Z</time>
      </trkpt>
      <trkpt lat="47.15046" lon="5.9653">
        <ele>282.4</ele>
        <time>2021-08-17T11:41:47Z</time>
      </trkpt>
      <trkpt lat="47.15049" lon="5.96525">
        <ele>282.2</ele>
        <time>2021-08-17T11:41:48Z</time>
      </trkpt>
      <trkpt lat="47.15052" lon="5.96519">
        <ele>282.2</ele>
        <time>2021-08-17T11:41:49Z</time>
      </trkpt>
      <trkpt lat="47.15054" lon="5.96514">
        <ele>282.2</ele>
        <time>2021-08-17T11:41:50Z</time>
      </trkpt>
      <trkpt lat="47.15057" lon="5.96508">
        <ele>282.2</ele>
        <time>2021-08-17T11:41:51Z</time>
      </trkpt>
      <trkpt lat="47.15076" lon="5.96462">
        <ele>282.4</ele>
        <time>2021-08-17T11:41:59Z</time>
      </trkpt>
      <trkpt lat="47.15101" lon="5.96403">
        <ele>282.6</ele>
        <time>2021-08-17T11:42:09Z</time>
      </trkpt>
      <trkpt lat="47.15106" lon="5.96393">
        <ele>282.6</ele>
        <time>2021-08-17T11:42:11Z</time>
      </trkpt>
      <trkpt lat="47.15108" lon="5.96387">
        <ele>282.6</ele>
        <time>2021-08-17T11:42:12Z</time>
      </trkpt>
      <trkpt lat="47.1511" lon="5.96381">
        <ele>282.6</ele>
        <time>2021-08-17T11:42:13Z</time>
      </trkpt>
      <trkpt lat="47.15112" lon="5.96376">
        <ele>282.6</ele>
        <time>2021-08-17T11:42:14Z</time>
      </trkpt>
      <trkpt lat="47.15114" lon="5.9637">
        <ele>282.6</ele>
        <time>2021-08-17T11:42:15Z</time>
      </trkpt>
      <trkpt lat="47.15115" lon="5.96365">
        <ele>282.6</ele>
        <time>2021-08-17T11:42:16Z</time>
      </trkpt>
      <trkpt lat="47.15117" lon="5.96359">
        <ele>282.8</ele>
        <time>2021-08-17T11:42:17Z</time>
      </trkpt>
      <trkpt lat="47.15119" lon="5.96354">
        <ele>282.8</ele>
        <time>2021-08-17T11:42:18Z</time>
      </trkpt>
      <trkpt lat="47.15121" lon="5.96348">
        <ele>282.8</ele>
        <time>2021-08-17T11:42:19Z</time>
      </trkpt>
      <trkpt lat="47.15122" lon="5.96342">
        <ele>282.8</ele>
        <time>2021-08-17T11:42:20Z</time>
      </trkpt>
      <trkpt lat="47.15124" lon="5.96336">
        <ele>282.8</ele>
        <time>2021-08-17T11:42:21Z</time>
      </trkpt>
      <trkpt lat="47.15125" lon="5.96331">
        <ele>282.8</ele>
        <time>2021-08-17T11:42:22Z</time>
      </trkpt>
      <trkpt lat="47.15128" lon="5.96326">
        <ele>282.8</ele>
        <time>2021-08-17T11:42:23Z</time>
      </trkpt>
      <trkpt lat="47.15131" lon="5.96322">
        <ele>282.6</ele>
        <time>2021-08-17T11:42:24Z</time>
      </trkpt>
      <trkpt lat="47.15134" lon="5.96319">
        <ele>282.6</ele>
        <time>2021-08-17T11:42:25Z</time>
      </trkpt>
      <trkpt lat="47.15137" lon="5.96318">
        <ele>282.6</ele>
        <time>2021-08-17T11:42:26Z</time>
      </trkpt>
      <trkpt lat="47.15141" lon="5.96316">
        <ele>282.6</ele>
        <time>2021-08-17T11:42:27Z</time>
      </trkpt>
      <trkpt lat="47.15144" lon="5.96315">
        <ele>282.6</ele>
        <time>2021-08-17T11:42:28Z</time>
      </trkpt>
      <trkpt lat="47.15148" lon="5.96314">
        <ele>282.6</ele>
        <time>2021-08-17T11:42:29Z</time>
      </trkpt>
      <trkpt lat="47.15151" lon="5.96312">
        <ele>282.6</ele>
        <time>2021-08-17T11:42:30Z</time>
      </trkpt>
      <trkpt lat="47.15154" lon="5.9631">
        <ele>283</ele>
        <time>2021-08-17T11:42:31Z</time>
      </trkpt>
      <trkpt lat="47.15158" lon="5.96307">
        <ele>283</ele>
        <time>2021-08-17T11:42:32Z</time>
      </trkpt>
      <trkpt lat="47.15161" lon="5.96305">
        <ele>282.8</ele>
        <time>2021-08-17T11:42:33Z</time>
      </trkpt>
      <trkpt lat="47.15164" lon="5.96302">
        <ele>282.8</ele>
        <time>2021-08-17T11:42:34Z</time>
      </trkpt>
      <trkpt lat="47.15167" lon="5.96298">
        <ele>283</ele>
        <time>2021-08-17T11:42:35Z</time>
      </trkpt>
      <trkpt lat="47.15172" lon="5.96291">
        <ele>282.8</ele>
        <time>2021-08-17T11:42:37Z</time>
      </trkpt>
      <trkpt lat="47.15174" lon="5.96287">
        <ele>282.8</ele>
        <time>2021-08-17T11:42:38Z</time>
      </trkpt>
      <trkpt lat="47.15177" lon="5.96283">
        <ele>282.8</ele>
        <time>2021-08-17T11:42:39Z</time>
      </trkpt>
      <trkpt lat="47.15179" lon="5.9628">
        <ele>282.8</ele>
        <time>2021-08-17T11:42:40Z</time>
      </trkpt>
      <trkpt lat="47.15181" lon="5.96277">
        <ele>283</ele>
        <time>2021-08-17T11:42:41Z</time>
      </trkpt>
      <trkpt lat="47.15185" lon="5.9627">
        <ele>283</ele>
        <time>2021-08-17T11:42:43Z</time>
      </trkpt>
      <trkpt lat="47.15187" lon="5.96267">
        <ele>283</ele>
        <time>2021-08-17T11:42:44Z</time>
      </trkpt>
      <trkpt lat="47.15189" lon="5.96264">
        <ele>283.2</ele>
        <time>2021-08-17T11:42:45Z</time>
      </trkpt>
      <trkpt lat="47.15191" lon="5.96262">
        <ele>283.6</ele>
        <time>2021-08-17T11:42:46Z</time>
      </trkpt>
      <trkpt lat="47.15194" lon="5.9626">
        <ele>283.8</ele>
        <time>2021-08-17T11:42:47Z</time>
      </trkpt>
      <trkpt lat="47.15196" lon="5.96258">
        <ele>283.8</ele>
        <time>2021-08-17T11:42:48Z</time>
      </trkpt>
      <trkpt lat="47.15198" lon="5.96257">
        <ele>283.8</ele>
        <time>2021-08-17T11:42:49Z</time>
      </trkpt>
      <trkpt lat="47.152" lon="5.96255">
        <ele>284</ele>
        <time>2021-08-17T11:42:50Z</time>
      </trkpt>
      <trkpt lat="47.15201" lon="5.96253">
        <ele>284.2</ele>
        <time>2021-08-17T11:42:51Z</time>
      </trkpt>
      <trkpt lat="47.15203" lon="5.96252">
        <ele>284.2</ele>
        <time>2021-08-17T11:42:52Z</time>
      </trkpt>
      <trkpt lat="47.15205" lon="5.9625">
        <ele>284.4</ele>
        <time>2021-08-17T11:42:53Z</time>
      </trkpt>
      <trkpt lat="47.15207" lon="5.96249">
        <ele>284.6</ele>
        <time>2021-08-17T11:42:54Z</time>
      </trkpt>
      <trkpt lat="47.15209" lon="5.96247">
        <ele>284.8</ele>
        <time>2021-08-17T11:42:55Z</time>
      </trkpt>
      <trkpt lat="47.1521" lon="5.96245">
        <ele>285.2</ele>
        <time>2021-08-17T11:42:56Z</time>
      </trkpt>
      <trkpt lat="47.15211" lon="5.96244">
        <ele>285.4</ele>
        <time>2021-08-17T11:42:57Z</time>
      </trkpt>
      <trkpt lat="47.15212" lon="5.96242">
        <ele>285.8</ele>
        <time>2021-08-17T11:42:58Z</time>
      </trkpt>
      <trkpt lat="47.15212" lon="5.9624">
        <ele>286</ele>
        <time>2021-08-17T11:42:59Z</time>
      </trkpt>
      <trkpt lat="47.15213" lon="5.96237">
        <ele>286.6</ele>
        <time>2021-08-17T11:43:00Z</time>
      </trkpt>
      <trkpt lat="47.15215" lon="5.96234">
        <ele>286.8</ele>
        <time>2021-08-17T11:43:01Z</time>
      </trkpt>
      <trkpt lat="47.15216" lon="5.96231">
        <ele>287</ele>
        <time>2021-08-17T11:43:02Z</time>
      </trkpt>
      <trkpt lat="47.15217" lon="5.96228">
        <ele>287.2</ele>
        <time>2021-08-17T11:43:03Z</time>
      </trkpt>
      <trkpt lat="47.15218" lon="5.96225">
        <ele>287.4</ele>
        <time>2021-08-17T11:43:04Z</time>
      </trkpt>
      <trkpt lat="47.15219" lon="5.96222">
        <ele>287.6</ele>
        <time>2021-08-17T11:43:05Z</time>
      </trkpt>
      <trkpt lat="47.1522" lon="5.96219">
        <ele>287.8</ele>
        <time>2021-08-17T11:43:06Z</time>
      </trkpt>
      <trkpt lat="47.15221" lon="5.96216">
        <ele>288</ele>
        <time>2021-08-17T11:43:07Z</time>
      </trkpt>
      <trkpt lat="47.15222" lon="5.96214">
        <ele>288.2</ele>
        <time>2021-08-17T11:43:08Z</time>
      </trkpt>
      <trkpt lat="47.15223" lon="5.96211">
        <ele>288.6</ele>
        <time>2021-08-17T11:43:09Z</time>
      </trkpt>
      <trkpt lat="47.15223" lon="5.96209">
        <ele>288.6</ele>
        <time>2021-08-17T11:43:10Z</time>
      </trkpt>
      <trkpt lat="47.15224" lon="5.96206">
        <ele>289</ele>
        <time>2021-08-17T11:43:11Z</time>
      </trkpt>
      <trkpt lat="47.15225" lon="5.96202">
        <ele>289.2</ele>
        <time>2021-08-17T11:43:12Z</time>
      </trkpt>
      <trkpt lat="47.15225" lon="5.96199">
        <ele>289.4</ele>
        <time>2021-08-17T11:43:13Z</time>
      </trkpt>
      <trkpt lat="47.15226" lon="5.96197">
        <ele>289.6</ele>
        <time>2021-08-17T11:43:14Z</time>
      </trkpt>
      <trkpt lat="47.15228" lon="5.96194">
        <ele>289.6</ele>
        <time>2021-08-17T11:43:15Z</time>
      </trkpt>
      <trkpt lat="47.15229" lon="5.9619">
        <ele>289.8</ele>
        <time>2021-08-17T11:43:16Z</time>
      </trkpt>
      <trkpt lat="47.1523" lon="5.96187">
        <ele>290</ele>
        <time>2021-08-17T11:43:17Z</time>
      </trkpt>
      <trkpt lat="47.15232" lon="5.96184">
        <ele>290.2</ele>
        <time>2021-08-17T11:43:18Z</time>
      </trkpt>
      <trkpt lat="47.15233" lon="5.96182">
        <ele>290.2</ele>
        <time>2021-08-17T11:43:19Z</time>
      </trkpt>
      <trkpt lat="47.15234" lon="5.96179">
        <ele>290.2</ele>
        <time>2021-08-17T11:43:20Z</time>
      </trkpt>
      <trkpt lat="47.15235" lon="5.96176">
        <ele>290.4</ele>
        <time>2021-08-17T11:43:21Z</time>
      </trkpt>
      <trkpt lat="47.15235" lon="5.96173">
        <ele>290.6</ele>
        <time>2021-08-17T11:43:22Z</time>
      </trkpt>
      <trkpt lat="47.15235" lon="5.9617">
        <ele>290.8</ele>
        <time>2021-08-17T11:43:23Z</time>
      </trkpt>
      <trkpt lat="47.15236" lon="5.96166">
        <ele>291</ele>
        <time>2021-08-17T11:43:24Z</time>
      </trkpt>
      <trkpt lat="47.15236" lon="5.96164">
        <ele>291.6</ele>
        <time>2021-08-17T11:43:25Z</time>
      </trkpt>
      <trkpt lat="47.15237" lon="5.96162">
        <ele>292</ele>
        <time>2021-08-17T11:43:26Z</time>
      </trkpt>
      <trkpt lat="47.15237" lon="5.96159">
        <ele>292.4</ele>
        <time>2021-08-17T11:43:27Z</time>
      </trkpt>
      <trkpt lat="47.15237" lon="5.96156">
        <ele>292.4</ele>
        <time>2021-08-17T11:43:28Z</time>
      </trkpt>
      <trkpt lat="47.15238" lon="5.96152">
        <ele>292.4</ele>
        <time>2021-08-17T11:43:29Z</time>
      </trkpt>
      <trkpt lat="47.15238" lon="5.96149">
        <ele>292.8</ele>
        <time>2021-08-17T11:43:30Z</time>
      </trkpt>
      <trkpt lat="47.15239" lon="5.96146">
        <ele>292.8</ele>
        <time>2021-08-17T11:43:31Z</time>
      </trkpt>
      <trkpt lat="47.1524" lon="5.96143">
        <ele>293</ele>
        <time>2021-08-17T11:43:32Z</time>
      </trkpt>
      <trkpt lat="47.15241" lon="5.9614">
        <ele>293</ele>
        <time>2021-08-17T11:43:33Z</time>
      </trkpt>
      <trkpt lat="47.15243" lon="5.96138">
        <ele>293</ele>
        <time>2021-08-17T11:43:34Z</time>
      </trkpt>
      <trkpt lat="47.15243" lon="5.96137">
        <ele>293.2</ele>
        <time>2021-08-17T11:43:35Z</time>
      </trkpt>
      <trkpt lat="47.15243" lon="5.96135">
        <ele>293.4</ele>
        <time>2021-08-17T11:43:36Z</time>
      </trkpt>
      <trkpt lat="47.15244" lon="5.96133">
        <ele>293.8</ele>
        <time>2021-08-17T11:43:37Z</time>
      </trkpt>
      <trkpt lat="47.15244" lon="5.96131">
        <ele>294</ele>
        <time>2021-08-17T11:43:38Z</time>
      </trkpt>
      <trkpt lat="47.15244" lon="5.96129">
        <ele>294.2</ele>
        <time>2021-08-17T11:43:39Z</time>
      </trkpt>
      <trkpt lat="47.15245" lon="5.96126">
        <ele>294.4</ele>
        <time>2021-08-17T11:43:40Z</time>
      </trkpt>
      <trkpt lat="47.15245" lon="5.96123">
        <ele>294.6</ele>
        <time>2021-08-17T11:43:41Z</time>
      </trkpt>
      <trkpt lat="47.15246" lon="5.96121">
        <ele>294.8</ele>
        <time>2021-08-17T11:43:42Z</time>
      </trkpt>
      <trkpt lat="47.15246" lon="5.9612">
        <ele>295</ele>
        <time>2021-08-17T11:43:43Z</time>
      </trkpt>
      <trkpt lat="47.15246" lon="5.96117">
        <ele>295.2</ele>
        <time>2021-08-17T11:43:44Z</time>
      </trkpt>
      <trkpt lat="47.15247" lon="5.96115">
        <ele>295.2</ele>
        <time>2021-08-17T11:43:45Z</time>
      </trkpt>
      <trkpt lat="47.15247" lon="5.96113">
        <ele>295.6</ele>
        <time>2021-08-17T11:43:46Z</time>
      </trkpt>
      <trkpt lat="47.15248" lon="5.96111">
        <ele>295.6</ele>
        <time>2021-08-17T11:43:47Z</time>
      </trkpt>
      <trkpt lat="47.15248" lon="5.96109">
        <ele>296</ele>
        <time>2021-08-17T11:43:48Z</time>
      </trkpt>
      <trkpt lat="47.15249" lon="5.96106">
        <ele>296.2</ele>
        <time>2021-08-17T11:43:49Z</time>
      </trkpt>
      <trkpt lat="47.1525" lon="5.96103">
        <ele>296.4</ele>
        <time>2021-08-17T11:43:50Z</time>
      </trkpt>
      <trkpt lat="47.1525" lon="5.96101">
        <ele>296.4</ele>
        <time>2021-08-17T11:43:51Z</time>
      </trkpt>
      <trkpt lat="47.1525" lon="5.96097">
        <ele>296.8</ele>
        <time>2021-08-17T11:43:52Z</time>
      </trkpt>
      <trkpt lat="47.15251" lon="5.96094">
        <ele>297</ele>
        <time>2021-08-17T11:43:53Z</time>
      </trkpt>
      <trkpt lat="47.15251" lon="5.96092">
        <ele>297</ele>
        <time>2021-08-17T11:43:54Z</time>
      </trkpt>
      <trkpt lat="47.15251" lon="5.96089">
        <ele>297.2</ele>
        <time>2021-08-17T11:43:55Z</time>
      </trkpt>
      <trkpt lat="47.15251" lon="5.96085">
        <ele>297.4</ele>
        <time>2021-08-17T11:43:56Z</time>
      </trkpt>
      <trkpt lat="47.15252" lon="5.96082">
        <ele>297.6</ele>
        <time>2021-08-17T11:43:57Z</time>
      </trkpt>
      <trkpt lat="47.15252" lon="5.96079">
        <ele>297.6</ele>
        <time>2021-08-17T11:43:58Z</time>
      </trkpt>
      <trkpt lat="47.15253" lon="5.96075">
        <ele>297.8</ele>
        <time>2021-08-17T11:43:59Z</time>
      </trkpt>
      <trkpt lat="47.15254" lon="5.96071">
        <ele>297.8</ele>
        <time>2021-08-17T11:44:00Z</time>
      </trkpt>
      <trkpt lat="47.15255" lon="5.96068">
        <ele>298</ele>
        <time>2021-08-17T11:44:01Z</time>
      </trkpt>
      <trkpt lat="47.15256" lon="5.96065">
        <ele>298</ele>
        <time>2021-08-17T11:44:02Z</time>
      </trkpt>
      <trkpt lat="47.15257" lon="5.96061">
        <ele>298.2</ele>
        <time>2021-08-17T11:44:03Z</time>
      </trkpt>
      <trkpt lat="47.15258" lon="5.96057">
        <ele>298.4</ele>
        <time>2021-08-17T11:44:04Z</time>
      </trkpt>
      <trkpt lat="47.15259" lon="5.96054">
        <ele>298.6</ele>
        <time>2021-08-17T11:44:05Z</time>
      </trkpt>
      <trkpt lat="47.15259" lon="5.96051">
        <ele>299</ele>
        <time>2021-08-17T11:44:06Z</time>
      </trkpt>
      <trkpt lat="47.1526" lon="5.96048">
        <ele>299</ele>
        <time>2021-08-17T11:44:07Z</time>
      </trkpt>
      <trkpt lat="47.1526" lon="5.96044">
        <ele>299</ele>
        <time>2021-08-17T11:44:08Z</time>
      </trkpt>
      <trkpt lat="47.15261" lon="5.96041">
        <ele>299.2</ele>
        <time>2021-08-17T11:44:09Z</time>
      </trkpt>
      <trkpt lat="47.15262" lon="5.96038">
        <ele>299.4</ele>
        <time>2021-08-17T11:44:10Z</time>
      </trkpt>
      <trkpt lat="47.15262" lon="5.96036">
        <ele>299.4</ele>
        <time>2021-08-17T11:44:11Z</time>
      </trkpt>
      <trkpt lat="47.15263" lon="5.96033">
        <ele>299.4</ele>
        <time>2021-08-17T11:44:12Z</time>
      </trkpt>
      <trkpt lat="47.15263" lon="5.9603">
        <ele>299.6</ele>
        <time>2021-08-17T11:44:13Z</time>
      </trkpt>
      <trkpt lat="47.15263" lon="5.96027">
        <ele>299.6</ele>
        <time>2021-08-17T11:44:14Z</time>
      </trkpt>
      <trkpt lat="47.15263" lon="5.96023">
        <ele>299.8</ele>
        <time>2021-08-17T11:44:15Z</time>
      </trkpt>
      <trkpt lat="47.15263" lon="5.9602">
        <ele>300</ele>
        <time>2021-08-17T11:44:16Z</time>
      </trkpt>
      <trkpt lat="47.15263" lon="5.96016">
        <ele>300</ele>
        <time>2021-08-17T11:44:17Z</time>
      </trkpt>
      <trkpt lat="47.15264" lon="5.96012">
        <ele>300</ele>
        <time>2021-08-17T11:44:18Z</time>
      </trkpt>
      <trkpt lat="47.15265" lon="5.96008">
        <ele>300.2</ele>
        <time>2021-08-17T11:44:19Z</time>
      </trkpt>
      <trkpt lat="47.15265" lon="5.96003">
        <ele>300.2</ele>
        <time>2021-08-17T11:44:20Z</time>
      </trkpt>
      <trkpt lat="47.15266" lon="5.95998">
        <ele>300.2</ele>
        <time>2021-08-17T11:44:21Z</time>
      </trkpt>
      <trkpt lat="47.15267" lon="5.95994">
        <ele>300.2</ele>
        <time>2021-08-17T11:44:22Z</time>
      </trkpt>
      <trkpt lat="47.15267" lon="5.95988">
        <ele>300.2</ele>
        <time>2021-08-17T11:44:23Z</time>
      </trkpt>
      <trkpt lat="47.15268" lon="5.95983">
        <ele>300.2</ele>
        <time>2021-08-17T11:44:24Z</time>
      </trkpt>
      <trkpt lat="47.15268" lon="5.95978">
        <ele>300</ele>
        <time>2021-08-17T11:44:25Z</time>
      </trkpt>
      <trkpt lat="47.15269" lon="5.95972">
        <ele>300</ele>
        <time>2021-08-17T11:44:26Z</time>
      </trkpt>
      <trkpt lat="47.15269" lon="5.95966">
        <ele>299.8</ele>
        <time>2021-08-17T11:44:27Z</time>
      </trkpt>
      <trkpt lat="47.15271" lon="5.95939">
        <ele>299.8</ele>
        <time>2021-08-17T11:44:32Z</time>
      </trkpt>
      <trkpt lat="47.15273" lon="5.95925">
        <ele>299.8</ele>
        <time>2021-08-17T11:44:35Z</time>
      </trkpt>
      <trkpt lat="47.15273" lon="5.9592">
        <ele>299.8</ele>
        <time>2021-08-17T11:44:36Z</time>
      </trkpt>
      <trkpt lat="47.15273" lon="5.95916">
        <ele>299.8</ele>
        <time>2021-08-17T11:44:37Z</time>
      </trkpt>
      <trkpt lat="47.15273" lon="5.95912">
        <ele>299.8</ele>
        <time>2021-08-17T11:44:38Z</time>
      </trkpt>
      <trkpt lat="47.15274" lon="5.95908">
        <ele>299.8</ele>
        <time>2021-08-17T11:44:39Z</time>
      </trkpt>
      <trkpt lat="47.15274" lon="5.95904">
        <ele>299.8</ele>
        <time>2021-08-17T11:44:40Z</time>
      </trkpt>
      <trkpt lat="47.15274" lon="5.95901">
        <ele>300</ele>
        <time>2021-08-17T11:44:41Z</time>
      </trkpt>
      <trkpt lat="47.15276" lon="5.9589">
        <ele>300</ele>
        <time>2021-08-17T11:44:44Z</time>
      </trkpt>
      <trkpt lat="47.15279" lon="5.95882">
        <ele>300</ele>
        <time>2021-08-17T11:44:46Z</time>
      </trkpt>
      <trkpt lat="47.15282" lon="5.95878">
        <ele>300</ele>
        <time>2021-08-17T11:44:47Z</time>
      </trkpt>
      <trkpt lat="47.15284" lon="5.95876">
        <ele>300</ele>
        <time>2021-08-17T11:44:48Z</time>
      </trkpt>
      <trkpt lat="47.15287" lon="5.95874">
        <ele>300</ele>
        <time>2021-08-17T11:44:49Z</time>
      </trkpt>
      <trkpt lat="47.1529" lon="5.95873">
        <ele>300</ele>
        <time>2021-08-17T11:44:50Z</time>
      </trkpt>
      <trkpt lat="47.15293" lon="5.95872">
        <ele>300</ele>
        <time>2021-08-17T11:44:51Z</time>
      </trkpt>
      <trkpt lat="47.15298" lon="5.95867">
        <ele>300.2</ele>
        <time>2021-08-17T11:44:53Z</time>
      </trkpt>
      <trkpt lat="47.153" lon="5.95864">
        <ele>300.2</ele>
        <time>2021-08-17T11:44:54Z</time>
      </trkpt>
      <trkpt lat="47.15301" lon="5.9586">
        <ele>300.2</ele>
        <time>2021-08-17T11:44:55Z</time>
      </trkpt>
      <trkpt lat="47.15302" lon="5.95856">
        <ele>300.4</ele>
        <time>2021-08-17T11:44:56Z</time>
      </trkpt>
      <trkpt lat="47.15304" lon="5.95852">
        <ele>300.4</ele>
        <time>2021-08-17T11:44:57Z</time>
      </trkpt>
      <trkpt lat="47.15305" lon="5.95849">
        <ele>300.4</ele>
        <time>2021-08-17T11:44:58Z</time>
      </trkpt>
      <trkpt lat="47.15305" lon="5.95845">
        <ele>300.6</ele>
        <time>2021-08-17T11:44:59Z</time>
      </trkpt>
      <trkpt lat="47.15306" lon="5.95841">
        <ele>300.6</ele>
        <time>2021-08-17T11:45:00Z</time>
      </trkpt>
      <trkpt lat="47.15306" lon="5.95837">
        <ele>300.8</ele>
        <time>2021-08-17T11:45:01Z</time>
      </trkpt>
      <trkpt lat="47.15306" lon="5.95833">
        <ele>300.8</ele>
        <time>2021-08-17T11:45:02Z</time>
      </trkpt>
      <trkpt lat="47.15305" lon="5.9583">
        <ele>300.8</ele>
        <time>2021-08-17T11:45:03Z</time>
      </trkpt>
      <trkpt lat="47.15306" lon="5.95826">
        <ele>301</ele>
        <time>2021-08-17T11:45:04Z</time>
      </trkpt>
      <trkpt lat="47.15307" lon="5.95822">
        <ele>301</ele>
        <time>2021-08-17T11:45:05Z</time>
      </trkpt>
      <trkpt lat="47.15308" lon="5.95819">
        <ele>301</ele>
        <time>2021-08-17T11:45:06Z</time>
      </trkpt>
      <trkpt lat="47.15309" lon="5.95816">
        <ele>301</ele>
        <time>2021-08-17T11:45:07Z</time>
      </trkpt>
      <trkpt lat="47.1531" lon="5.95812">
        <ele>301</ele>
        <time>2021-08-17T11:45:08Z</time>
      </trkpt>
      <trkpt lat="47.1531" lon="5.95808">
        <ele>301.2</ele>
        <time>2021-08-17T11:45:09Z</time>
      </trkpt>
      <trkpt lat="47.15311" lon="5.95804">
        <ele>301.4</ele>
        <time>2021-08-17T11:45:10Z</time>
      </trkpt>
      <trkpt lat="47.15311" lon="5.95799">
        <ele>301.4</ele>
        <time>2021-08-17T11:45:11Z</time>
      </trkpt>
      <trkpt lat="47.15312" lon="5.95795">
        <ele>301.6</ele>
        <time>2021-08-17T11:45:12Z</time>
      </trkpt>
      <trkpt lat="47.15316" lon="5.95771">
        <ele>302.2</ele>
        <time>2021-08-17T11:45:18Z</time>
      </trkpt>
      <trkpt lat="47.15317" lon="5.95767">
        <ele>302.6</ele>
        <time>2021-08-17T11:45:19Z</time>
      </trkpt>
      <trkpt lat="47.15318" lon="5.95763">
        <ele>302.6</ele>
        <time>2021-08-17T11:45:20Z</time>
      </trkpt>
      <trkpt lat="47.15319" lon="5.95759">
        <ele>302.8</ele>
        <time>2021-08-17T11:45:21Z</time>
      </trkpt>
      <trkpt lat="47.15319" lon="5.95756">
        <ele>303</ele>
        <time>2021-08-17T11:45:22Z</time>
      </trkpt>
      <trkpt lat="47.1532" lon="5.95752">
        <ele>303</ele>
        <time>2021-08-17T11:45:23Z</time>
      </trkpt>
      <trkpt lat="47.15325" lon="5.95737">
        <ele>303.8</ele>
        <time>2021-08-17T11:45:26Z</time>
      </trkpt>
      <trkpt lat="47.15327" lon="5.95733">
        <ele>303.8</ele>
        <time>2021-08-17T11:45:27Z</time>
      </trkpt>
      <trkpt lat="47.15329" lon="5.9573">
        <ele>304</ele>
        <time>2021-08-17T11:45:28Z</time>
      </trkpt>
      <trkpt lat="47.1533" lon="5.95727">
        <ele>304</ele>
        <time>2021-08-17T11:45:29Z</time>
      </trkpt>
      <trkpt lat="47.15332" lon="5.95723">
        <ele>304.2</ele>
        <time>2021-08-17T11:45:30Z</time>
      </trkpt>
      <trkpt lat="47.15334" lon="5.9572">
        <ele>304.2</ele>
        <time>2021-08-17T11:45:31Z</time>
      </trkpt>
      <trkpt lat="47.15336" lon="5.95717">
        <ele>304.2</ele>
        <time>2021-08-17T11:45:32Z</time>
      </trkpt>
      <trkpt lat="47.15338" lon="5.95713">
        <ele>304.4</ele>
        <time>2021-08-17T11:45:33Z</time>
      </trkpt>
      <trkpt lat="47.1534" lon="5.95709">
        <ele>304.4</ele>
        <time>2021-08-17T11:45:34Z</time>
      </trkpt>
      <trkpt lat="47.15342" lon="5.95705">
        <ele>304.4</ele>
        <time>2021-08-17T11:45:35Z</time>
      </trkpt>
      <trkpt lat="47.15344" lon="5.95702">
        <ele>304.4</ele>
        <time>2021-08-17T11:45:36Z</time>
      </trkpt>
      <trkpt lat="47.15346" lon="5.95699">
        <ele>304.4</ele>
        <time>2021-08-17T11:45:37Z</time>
      </trkpt>
      <trkpt lat="47.15348" lon="5.95694">
        <ele>304.4</ele>
        <time>2021-08-17T11:45:38Z</time>
      </trkpt>
      <trkpt lat="47.1535" lon="5.9569">
        <ele>304.4</ele>
        <time>2021-08-17T11:45:39Z</time>
      </trkpt>
      <trkpt lat="47.15352" lon="5.95686">
        <ele>304.4</ele>
        <time>2021-08-17T11:45:40Z</time>
      </trkpt>
      <trkpt lat="47.15355" lon="5.95682">
        <ele>304.4</ele>
        <time>2021-08-17T11:45:41Z</time>
      </trkpt>
      <trkpt lat="47.15358" lon="5.95679">
        <ele>304.4</ele>
        <time>2021-08-17T11:45:42Z</time>
      </trkpt>
      <trkpt lat="47.1536" lon="5.95675">
        <ele>304.4</ele>
        <time>2021-08-17T11:45:43Z</time>
      </trkpt>
      <trkpt lat="47.15371" lon="5.95662">
        <ele>304.4</ele>
        <time>2021-08-17T11:45:47Z</time>
      </trkpt>
      <trkpt lat="47.15377" lon="5.95653">
        <ele>304.6</ele>
        <time>2021-08-17T11:45:50Z</time>
      </trkpt>
      <trkpt lat="47.15379" lon="5.95649">
        <ele>304.6</ele>
        <time>2021-08-17T11:45:51Z</time>
      </trkpt>
      <trkpt lat="47.15381" lon="5.95645">
        <ele>304.6</ele>
        <time>2021-08-17T11:45:52Z</time>
      </trkpt>
      <trkpt lat="47.15382" lon="5.95641">
        <ele>304.8</ele>
        <time>2021-08-17T11:45:53Z</time>
      </trkpt>
      <trkpt lat="47.15385" lon="5.95638">
        <ele>304.8</ele>
        <time>2021-08-17T11:45:54Z</time>
      </trkpt>
      <trkpt lat="47.1539" lon="5.95631">
        <ele>305</ele>
        <time>2021-08-17T11:45:56Z</time>
      </trkpt>
      <trkpt lat="47.15399" lon="5.95618">
        <ele>305.6</ele>
        <time>2021-08-17T11:46:00Z</time>
      </trkpt>
      <trkpt lat="47.15401" lon="5.95615">
        <ele>305.8</ele>
        <time>2021-08-17T11:46:01Z</time>
      </trkpt>
      <trkpt lat="47.15402" lon="5.95612">
        <ele>306</ele>
        <time>2021-08-17T11:46:02Z</time>
      </trkpt>
      <trkpt lat="47.15403" lon="5.95609">
        <ele>306.4</ele>
        <time>2021-08-17T11:46:03Z</time>
      </trkpt>
      <trkpt lat="47.15404" lon="5.95606">
        <ele>306.4</ele>
        <time>2021-08-17T11:46:04Z</time>
      </trkpt>
      <trkpt lat="47.15406" lon="5.95605">
        <ele>306.8</ele>
        <time>2021-08-17T11:46:05Z</time>
      </trkpt>
      <trkpt lat="47.15408" lon="5.95603">
        <ele>306.8</ele>
        <time>2021-08-17T11:46:06Z</time>
      </trkpt>
      <trkpt lat="47.1541" lon="5.956">
        <ele>306.8</ele>
        <time>2021-08-17T11:46:07Z</time>
      </trkpt>
      <trkpt lat="47.1541" lon="5.95597">
        <ele>307.2</ele>
        <time>2021-08-17T11:46:08Z</time>
      </trkpt>
      <trkpt lat="47.15411" lon="5.95595">
        <ele>307.6</ele>
        <time>2021-08-17T11:46:09Z</time>
      </trkpt>
      <trkpt lat="47.15413" lon="5.95591">
        <ele>307.6</ele>
        <time>2021-08-17T11:46:10Z</time>
      </trkpt>
      <trkpt lat="47.15416" lon="5.95589">
        <ele>308</ele>
        <time>2021-08-17T11:46:11Z</time>
      </trkpt>
      <trkpt lat="47.15418" lon="5.95586">
        <ele>308.4</ele>
        <time>2021-08-17T11:46:12Z</time>
      </trkpt>
      <trkpt lat="47.1542" lon="5.95584">
        <ele>308.4</ele>
        <time>2021-08-17T11:46:13Z</time>
      </trkpt>
      <trkpt lat="47.15424" lon="5.95581">
        <ele>308.8</ele>
        <time>2021-08-17T11:46:14Z</time>
      </trkpt>
      <trkpt lat="47.15426" lon="5.95576">
        <ele>309</ele>
        <time>2021-08-17T11:46:15Z</time>
      </trkpt>
      <trkpt lat="47.15427" lon="5.95573">
        <ele>309.2</ele>
        <time>2021-08-17T11:46:16Z</time>
      </trkpt>
      <trkpt lat="47.15428" lon="5.9557">
        <ele>309.2</ele>
        <time>2021-08-17T11:46:17Z</time>
      </trkpt>
      <trkpt lat="47.1543" lon="5.95568">
        <ele>309.6</ele>
        <time>2021-08-17T11:46:18Z</time>
      </trkpt>
      <trkpt lat="47.15432" lon="5.95566">
        <ele>309.6</ele>
        <time>2021-08-17T11:46:19Z</time>
      </trkpt>
      <trkpt lat="47.15434" lon="5.95563">
        <ele>309.8</ele>
        <time>2021-08-17T11:46:20Z</time>
      </trkpt>
      <trkpt lat="47.15436" lon="5.95561">
        <ele>310.4</ele>
        <time>2021-08-17T11:46:21Z</time>
      </trkpt>
      <trkpt lat="47.15438" lon="5.95559">
        <ele>310.4</ele>
        <time>2021-08-17T11:46:22Z</time>
      </trkpt>
      <trkpt lat="47.1544" lon="5.95557">
        <ele>310.6</ele>
        <time>2021-08-17T11:46:23Z</time>
      </trkpt>
      <trkpt lat="47.15443" lon="5.95556">
        <ele>311</ele>
        <time>2021-08-17T11:46:24Z</time>
      </trkpt>
      <trkpt lat="47.15445" lon="5.95555">
        <ele>311.2</ele>
        <time>2021-08-17T11:46:25Z</time>
      </trkpt>
      <trkpt lat="47.15447" lon="5.95554">
        <ele>311.2</ele>
        <time>2021-08-17T11:46:26Z</time>
      </trkpt>
      <trkpt lat="47.15449" lon="5.95553">
        <ele>311.4</ele>
        <time>2021-08-17T11:46:27Z</time>
      </trkpt>
      <trkpt lat="47.15451" lon="5.95553">
        <ele>311.6</ele>
        <time>2021-08-17T11:46:28Z</time>
      </trkpt>
      <trkpt lat="47.15453" lon="5.95552">
        <ele>311.8</ele>
        <time>2021-08-17T11:46:29Z</time>
      </trkpt>
      <trkpt lat="47.15455" lon="5.95552">
        <ele>312.2</ele>
        <time>2021-08-17T11:46:30Z</time>
      </trkpt>
      <trkpt lat="47.15457" lon="5.95551">
        <ele>312.6</ele>
        <time>2021-08-17T11:46:31Z</time>
      </trkpt>
      <trkpt lat="47.15459" lon="5.95551">
        <ele>312.6</ele>
        <time>2021-08-17T11:46:32Z</time>
      </trkpt>
      <trkpt lat="47.15461" lon="5.9555">
        <ele>313</ele>
        <time>2021-08-17T11:46:33Z</time>
      </trkpt>
      <trkpt lat="47.15463" lon="5.9555">
        <ele>313.2</ele>
        <time>2021-08-17T11:46:34Z</time>
      </trkpt>
      <trkpt lat="47.15464" lon="5.95549">
        <ele>313.4</ele>
        <time>2021-08-17T11:46:35Z</time>
      </trkpt>
      <trkpt lat="47.15466" lon="5.95548">
        <ele>313.4</ele>
        <time>2021-08-17T11:46:36Z</time>
      </trkpt>
      <trkpt lat="47.15468" lon="5.95547">
        <ele>313.6</ele>
        <time>2021-08-17T11:46:37Z</time>
      </trkpt>
      <trkpt lat="47.1547" lon="5.95546">
        <ele>313.6</ele>
        <time>2021-08-17T11:46:38Z</time>
      </trkpt>
      <trkpt lat="47.15472" lon="5.95545">
        <ele>314</ele>
        <time>2021-08-17T11:46:39Z</time>
      </trkpt>
      <trkpt lat="47.15473" lon="5.95544">
        <ele>314.2</ele>
        <time>2021-08-17T11:46:40Z</time>
      </trkpt>
      <trkpt lat="47.15475" lon="5.95543">
        <ele>314</ele>
        <time>2021-08-17T11:46:41Z</time>
      </trkpt>
      <trkpt lat="47.15477" lon="5.95541">
        <ele>314.4</ele>
        <time>2021-08-17T11:46:42Z</time>
      </trkpt>
      <trkpt lat="47.15479" lon="5.9554">
        <ele>314.6</ele>
        <time>2021-08-17T11:46:43Z</time>
      </trkpt>
      <trkpt lat="47.15481" lon="5.95538">
        <ele>314.8</ele>
        <time>2021-08-17T11:46:44Z</time>
      </trkpt>
      <trkpt lat="47.15482" lon="5.95536">
        <ele>314.8</ele>
        <time>2021-08-17T11:46:45Z</time>
      </trkpt>
      <trkpt lat="47.15483" lon="5.95534">
        <ele>314.8</ele>
        <time>2021-08-17T11:46:46Z</time>
      </trkpt>
      <trkpt lat="47.15485" lon="5.95532">
        <ele>315</ele>
        <time>2021-08-17T11:46:47Z</time>
      </trkpt>
      <trkpt lat="47.15487" lon="5.95529">
        <ele>315.4</ele>
        <time>2021-08-17T11:46:48Z</time>
      </trkpt>
      <trkpt lat="47.15488" lon="5.95528">
        <ele>315.2</ele>
        <time>2021-08-17T11:46:49Z</time>
      </trkpt>
      <trkpt lat="47.1549" lon="5.95526">
        <ele>315.6</ele>
        <time>2021-08-17T11:46:50Z</time>
      </trkpt>
      <trkpt lat="47.15492" lon="5.95525">
        <ele>315.6</ele>
        <time>2021-08-17T11:46:51Z</time>
      </trkpt>
      <trkpt lat="47.15494" lon="5.95523">
        <ele>315.8</ele>
        <time>2021-08-17T11:46:52Z</time>
      </trkpt>
      <trkpt lat="47.15496" lon="5.95521">
        <ele>316</ele>
        <time>2021-08-17T11:46:53Z</time>
      </trkpt>
      <trkpt lat="47.15497" lon="5.9552">
        <ele>316.2</ele>
        <time>2021-08-17T11:46:54Z</time>
      </trkpt>
      <trkpt lat="47.15499" lon="5.95519">
        <ele>316.4</ele>
        <time>2021-08-17T11:46:55Z</time>
      </trkpt>
      <trkpt lat="47.155" lon="5.95517">
        <ele>316.4</ele>
        <time>2021-08-17T11:46:56Z</time>
      </trkpt>
      <trkpt lat="47.15501" lon="5.95516">
        <ele>316.6</ele>
        <time>2021-08-17T11:46:57Z</time>
      </trkpt>
      <trkpt lat="47.15503" lon="5.95515">
        <ele>316.8</ele>
        <time>2021-08-17T11:46:58Z</time>
      </trkpt>
      <trkpt lat="47.15504" lon="5.95515">
        <ele>317</ele>
        <time>2021-08-17T11:46:59Z</time>
      </trkpt>
      <trkpt lat="47.15506" lon="5.95513">
        <ele>317.2</ele>
        <time>2021-08-17T11:47:00Z</time>
      </trkpt>
      <trkpt lat="47.15508" lon="5.95512">
        <ele>317.4</ele>
        <time>2021-08-17T11:47:01Z</time>
      </trkpt>
      <trkpt lat="47.15509" lon="5.9551">
        <ele>317.6</ele>
        <time>2021-08-17T11:47:02Z</time>
      </trkpt>
      <trkpt lat="47.1551" lon="5.95509">
        <ele>317.8</ele>
        <time>2021-08-17T11:47:03Z</time>
      </trkpt>
      <trkpt lat="47.15512" lon="5.95508">
        <ele>318.2</ele>
        <time>2021-08-17T11:47:04Z</time>
      </trkpt>
      <trkpt lat="47.15513" lon="5.95507">
        <ele>318.4</ele>
        <time>2021-08-17T11:47:05Z</time>
      </trkpt>
      <trkpt lat="47.15515" lon="5.95507">
        <ele>318.6</ele>
        <time>2021-08-17T11:47:06Z</time>
      </trkpt>
      <trkpt lat="47.15517" lon="5.95505">
        <ele>318.6</ele>
        <time>2021-08-17T11:47:07Z</time>
      </trkpt>
      <trkpt lat="47.15518" lon="5.95504">
        <ele>319</ele>
        <time>2021-08-17T11:47:08Z</time>
      </trkpt>
      <trkpt lat="47.1552" lon="5.95503">
        <ele>319.4</ele>
        <time>2021-08-17T11:47:09Z</time>
      </trkpt>
      <trkpt lat="47.15521" lon="5.95502">
        <ele>319.4</ele>
        <time>2021-08-17T11:47:10Z</time>
      </trkpt>
      <trkpt lat="47.15524" lon="5.955">
        <ele>319.8</ele>
        <time>2021-08-17T11:47:11Z</time>
      </trkpt>
      <trkpt lat="47.15525" lon="5.95499">
        <ele>319.8</ele>
        <time>2021-08-17T11:47:12Z</time>
      </trkpt>
      <trkpt lat="47.15527" lon="5.95497">
        <ele>320</ele>
        <time>2021-08-17T11:47:13Z</time>
      </trkpt>
      <trkpt lat="47.15528" lon="5.95496">
        <ele>320.2</ele>
        <time>2021-08-17T11:47:14Z</time>
      </trkpt>
      <trkpt lat="47.15529" lon="5.95496">
        <ele>320.4</ele>
        <time>2021-08-17T11:47:15Z</time>
      </trkpt>
      <trkpt lat="47.15531" lon="5.95494">
        <ele>320.6</ele>
        <time>2021-08-17T11:47:16Z</time>
      </trkpt>
      <trkpt lat="47.15533" lon="5.95493">
        <ele>320.8</ele>
        <time>2021-08-17T11:47:17Z</time>
      </trkpt>
      <trkpt lat="47.15535" lon="5.95492">
        <ele>321</ele>
        <time>2021-08-17T11:47:18Z</time>
      </trkpt>
      <trkpt lat="47.15537" lon="5.95491">
        <ele>321.2</ele>
        <time>2021-08-17T11:47:19Z</time>
      </trkpt>
      <trkpt lat="47.15539" lon="5.95491">
        <ele>321.4</ele>
        <time>2021-08-17T11:47:20Z</time>
      </trkpt>
      <trkpt lat="47.15541" lon="5.9549">
        <ele>321.4</ele>
        <time>2021-08-17T11:47:21Z</time>
      </trkpt>
      <trkpt lat="47.15543" lon="5.9549">
        <ele>321.6</ele>
        <time>2021-08-17T11:47:22Z</time>
      </trkpt>
      <trkpt lat="47.15544" lon="5.9549">
        <ele>321.8</ele>
        <time>2021-08-17T11:47:23Z</time>
      </trkpt>
      <trkpt lat="47.15546" lon="5.95489">
        <ele>322.2</ele>
        <time>2021-08-17T11:47:24Z</time>
      </trkpt>
      <trkpt lat="47.15549" lon="5.95488">
        <ele>322.2</ele>
        <time>2021-08-17T11:47:25Z</time>
      </trkpt>
      <trkpt lat="47.1555" lon="5.95487">
        <ele>322.2</ele>
        <time>2021-08-17T11:47:26Z</time>
      </trkpt>
      <trkpt lat="47.15552" lon="5.95486">
        <ele>322.4</ele>
        <time>2021-08-17T11:47:27Z</time>
      </trkpt>
      <trkpt lat="47.15554" lon="5.95484">
        <ele>322.6</ele>
        <time>2021-08-17T11:47:28Z</time>
      </trkpt>
      <trkpt lat="47.15556" lon="5.95483">
        <ele>322.8</ele>
        <time>2021-08-17T11:47:29Z</time>
      </trkpt>
      <trkpt lat="47.15557" lon="5.95481">
        <ele>322.8</ele>
        <time>2021-08-17T11:47:30Z</time>
      </trkpt>
      <trkpt lat="47.15558" lon="5.9548">
        <ele>323</ele>
        <time>2021-08-17T11:47:31Z</time>
      </trkpt>
      <trkpt lat="47.15559" lon="5.95479">
        <ele>323</ele>
        <time>2021-08-17T11:47:32Z</time>
      </trkpt>
      <trkpt lat="47.15561" lon="5.95478">
        <ele>323</ele>
        <time>2021-08-17T11:47:33Z</time>
      </trkpt>
      <trkpt lat="47.15563" lon="5.95478">
        <ele>323</ele>
        <time>2021-08-17T11:47:34Z</time>
      </trkpt>
      <trkpt lat="47.15564" lon="5.95477">
        <ele>323</ele>
        <time>2021-08-17T11:47:35Z</time>
      </trkpt>
      <trkpt lat="47.15566" lon="5.95477">
        <ele>323.4</ele>
        <time>2021-08-17T11:47:36Z</time>
      </trkpt>
      <trkpt lat="47.15568" lon="5.95476">
        <ele>323.4</ele>
        <time>2021-08-17T11:47:37Z</time>
      </trkpt>
      <trkpt lat="47.15569" lon="5.95476">
        <ele>323.6</ele>
        <time>2021-08-17T11:47:38Z</time>
      </trkpt>
      <trkpt lat="47.15571" lon="5.95475">
        <ele>323.6</ele>
        <time>2021-08-17T11:47:39Z</time>
      </trkpt>
      <trkpt lat="47.15573" lon="5.95474">
        <ele>323.6</ele>
        <time>2021-08-17T11:47:40Z</time>
      </trkpt>
      <trkpt lat="47.15574" lon="5.95474">
        <ele>323.6</ele>
        <time>2021-08-17T11:47:41Z</time>
      </trkpt>
      <trkpt lat="47.15576" lon="5.95473">
        <ele>324</ele>
        <time>2021-08-17T11:47:42Z</time>
      </trkpt>
      <trkpt lat="47.15578" lon="5.95472">
        <ele>324.2</ele>
        <time>2021-08-17T11:47:43Z</time>
      </trkpt>
      <trkpt lat="47.1558" lon="5.95472">
        <ele>324.2</ele>
        <time>2021-08-17T11:47:44Z</time>
      </trkpt>
      <trkpt lat="47.15582" lon="5.95471">
        <ele>324.4</ele>
        <time>2021-08-17T11:47:45Z</time>
      </trkpt>
      <trkpt lat="47.15584" lon="5.95469">
        <ele>324.4</ele>
        <time>2021-08-17T11:47:46Z</time>
      </trkpt>
      <trkpt lat="47.15586" lon="5.95469">
        <ele>324.6</ele>
        <time>2021-08-17T11:47:47Z</time>
      </trkpt>
      <trkpt lat="47.15588" lon="5.95468">
        <ele>324.6</ele>
        <time>2021-08-17T11:47:48Z</time>
      </trkpt>
      <trkpt lat="47.1559" lon="5.95468">
        <ele>324.8</ele>
        <time>2021-08-17T11:47:49Z</time>
      </trkpt>
      <trkpt lat="47.15592" lon="5.95468">
        <ele>324.8</ele>
        <time>2021-08-17T11:47:50Z</time>
      </trkpt>
      <trkpt lat="47.15594" lon="5.95467">
        <ele>325.2</ele>
        <time>2021-08-17T11:47:51Z</time>
      </trkpt>
      <trkpt lat="47.15596" lon="5.95466">
        <ele>325.4</ele>
        <time>2021-08-17T11:47:52Z</time>
      </trkpt>
      <trkpt lat="47.15598" lon="5.95466">
        <ele>325.4</ele>
        <time>2021-08-17T11:47:53Z</time>
      </trkpt>
      <trkpt lat="47.156" lon="5.95465">
        <ele>325.4</ele>
        <time>2021-08-17T11:47:54Z</time>
      </trkpt>
      <trkpt lat="47.15602" lon="5.95464">
        <ele>325.6</ele>
        <time>2021-08-17T11:47:55Z</time>
      </trkpt>
      <trkpt lat="47.15604" lon="5.95463">
        <ele>326</ele>
        <time>2021-08-17T11:47:56Z</time>
      </trkpt>
      <trkpt lat="47.15606" lon="5.95462">
        <ele>326.2</ele>
        <time>2021-08-17T11:47:57Z</time>
      </trkpt>
      <trkpt lat="47.15609" lon="5.95461">
        <ele>326.2</ele>
        <time>2021-08-17T11:47:58Z</time>
      </trkpt>
      <trkpt lat="47.15611" lon="5.9546">
        <ele>326.2</ele>
        <time>2021-08-17T11:47:59Z</time>
      </trkpt>
      <trkpt lat="47.15612" lon="5.9546">
        <ele>326.6</ele>
        <time>2021-08-17T11:48:00Z</time>
      </trkpt>
      <trkpt lat="47.15615" lon="5.95458">
        <ele>326.8</ele>
        <time>2021-08-17T11:48:01Z</time>
      </trkpt>
      <trkpt lat="47.15617" lon="5.95457">
        <ele>326.8</ele>
        <time>2021-08-17T11:48:02Z</time>
      </trkpt>
      <trkpt lat="47.15619" lon="5.95456">
        <ele>327.4</ele>
        <time>2021-08-17T11:48:03Z</time>
      </trkpt>
      <trkpt lat="47.15621" lon="5.95455">
        <ele>327.4</ele>
        <time>2021-08-17T11:48:04Z</time>
      </trkpt>
      <trkpt lat="47.15623" lon="5.95454">
        <ele>327.4</ele>
        <time>2021-08-17T11:48:05Z</time>
      </trkpt>
      <trkpt lat="47.15625" lon="5.95453">
        <ele>327.4</ele>
        <time>2021-08-17T11:48:06Z</time>
      </trkpt>
      <trkpt lat="47.15626" lon="5.95453">
        <ele>328</ele>
        <time>2021-08-17T11:48:07Z</time>
      </trkpt>
      <trkpt lat="47.15628" lon="5.95452">
        <ele>328</ele>
        <time>2021-08-17T11:48:08Z</time>
      </trkpt>
      <trkpt lat="47.15629" lon="5.95451">
        <ele>328.4</ele>
        <time>2021-08-17T11:48:09Z</time>
      </trkpt>
      <trkpt lat="47.15631" lon="5.95451">
        <ele>328.6</ele>
        <time>2021-08-17T11:48:10Z</time>
      </trkpt>
      <trkpt lat="47.15632" lon="5.9545">
        <ele>328.8</ele>
        <time>2021-08-17T11:48:11Z</time>
      </trkpt>
      <trkpt lat="47.15634" lon="5.95449">
        <ele>328.8</ele>
        <time>2021-08-17T11:48:12Z</time>
      </trkpt>
      <trkpt lat="47.15636" lon="5.95449">
        <ele>328.8</ele>
        <time>2021-08-17T11:48:13Z</time>
      </trkpt>
      <trkpt lat="47.15637" lon="5.95448">
        <ele>329.2</ele>
        <time>2021-08-17T11:48:14Z</time>
      </trkpt>
      <trkpt lat="47.15639" lon="5.95447">
        <ele>329.2</ele>
        <time>2021-08-17T11:48:15Z</time>
      </trkpt>
      <trkpt lat="47.15641" lon="5.95446">
        <ele>329.4</ele>
        <time>2021-08-17T11:48:16Z</time>
      </trkpt>
      <trkpt lat="47.15643" lon="5.95445">
        <ele>329.6</ele>
        <time>2021-08-17T11:48:17Z</time>
      </trkpt>
      <trkpt lat="47.15644" lon="5.95444">
        <ele>329.8</ele>
        <time>2021-08-17T11:48:18Z</time>
      </trkpt>
      <trkpt lat="47.15646" lon="5.95443">
        <ele>329.8</ele>
        <time>2021-08-17T11:48:19Z</time>
      </trkpt>
      <trkpt lat="47.15648" lon="5.95442">
        <ele>330</ele>
        <time>2021-08-17T11:48:20Z</time>
      </trkpt>
      <trkpt lat="47.15649" lon="5.95441">
        <ele>330</ele>
        <time>2021-08-17T11:48:21Z</time>
      </trkpt>
      <trkpt lat="47.15651" lon="5.9544">
        <ele>330.2</ele>
        <time>2021-08-17T11:48:22Z</time>
      </trkpt>
      <trkpt lat="47.15653" lon="5.9544">
        <ele>330</ele>
        <time>2021-08-17T11:48:23Z</time>
      </trkpt>
      <trkpt lat="47.15654" lon="5.95439">
        <ele>330.4</ele>
        <time>2021-08-17T11:48:24Z</time>
      </trkpt>
      <trkpt lat="47.15656" lon="5.95438">
        <ele>330.6</ele>
        <time>2021-08-17T11:48:25Z</time>
      </trkpt>
      <trkpt lat="47.15658" lon="5.95438">
        <ele>330.8</ele>
        <time>2021-08-17T11:48:26Z</time>
      </trkpt>
      <trkpt lat="47.1566" lon="5.95437">
        <ele>331</ele>
        <time>2021-08-17T11:48:27Z</time>
      </trkpt>
      <trkpt lat="47.15661" lon="5.95436">
        <ele>331.2</ele>
        <time>2021-08-17T11:48:28Z</time>
      </trkpt>
      <trkpt lat="47.15663" lon="5.95435">
        <ele>331.2</ele>
        <time>2021-08-17T11:48:29Z</time>
      </trkpt>
      <trkpt lat="47.15665" lon="5.95434">
        <ele>331.4</ele>
        <time>2021-08-17T11:48:30Z</time>
      </trkpt>
      <trkpt lat="47.15666" lon="5.95433">
        <ele>331.6</ele>
        <time>2021-08-17T11:48:31Z</time>
      </trkpt>
      <trkpt lat="47.15667" lon="5.95432">
        <ele>332</ele>
        <time>2021-08-17T11:48:32Z</time>
      </trkpt>
      <trkpt lat="47.15669" lon="5.95431">
        <ele>332</ele>
        <time>2021-08-17T11:48:33Z</time>
      </trkpt>
      <trkpt lat="47.1567" lon="5.95431">
        <ele>332.2</ele>
        <time>2021-08-17T11:48:34Z</time>
      </trkpt>
      <trkpt lat="47.15672" lon="5.9543">
        <ele>332.4</ele>
        <time>2021-08-17T11:48:35Z</time>
      </trkpt>
      <trkpt lat="47.15674" lon="5.9543">
        <ele>332.6</ele>
        <time>2021-08-17T11:48:36Z</time>
      </trkpt>
      <trkpt lat="47.15676" lon="5.9543">
        <ele>332.8</ele>
        <time>2021-08-17T11:48:37Z</time>
      </trkpt>
      <trkpt lat="47.15677" lon="5.95429">
        <ele>333</ele>
        <time>2021-08-17T11:48:38Z</time>
      </trkpt>
      <trkpt lat="47.15679" lon="5.95429">
        <ele>333.2</ele>
        <time>2021-08-17T11:48:39Z</time>
      </trkpt>
      <trkpt lat="47.1568" lon="5.95429">
        <ele>333.2</ele>
        <time>2021-08-17T11:48:40Z</time>
      </trkpt>
      <trkpt lat="47.15682" lon="5.95428">
        <ele>333.6</ele>
        <time>2021-08-17T11:48:41Z</time>
      </trkpt>
      <trkpt lat="47.15683" lon="5.95428">
        <ele>333.8</ele>
        <time>2021-08-17T11:48:42Z</time>
      </trkpt>
      <trkpt lat="47.15685" lon="5.95428">
        <ele>334</ele>
        <time>2021-08-17T11:48:43Z</time>
      </trkpt>
      <trkpt lat="47.15687" lon="5.95427">
        <ele>334.2</ele>
        <time>2021-08-17T11:48:44Z</time>
      </trkpt>
      <trkpt lat="47.15688" lon="5.95427">
        <ele>334.2</ele>
        <time>2021-08-17T11:48:45Z</time>
      </trkpt>
      <trkpt lat="47.15689" lon="5.95426">
        <ele>334.4</ele>
        <time>2021-08-17T11:48:46Z</time>
      </trkpt>
      <trkpt lat="47.15691" lon="5.95426">
        <ele>334.6</ele>
        <time>2021-08-17T11:48:47Z</time>
      </trkpt>
      <trkpt lat="47.15693" lon="5.95425">
        <ele>334.8</ele>
        <time>2021-08-17T11:48:48Z</time>
      </trkpt>
      <trkpt lat="47.15695" lon="5.95425">
        <ele>335</ele>
        <time>2021-08-17T11:48:49Z</time>
      </trkpt>
      <trkpt lat="47.15697" lon="5.95424">
        <ele>335.2</ele>
        <time>2021-08-17T11:48:50Z</time>
      </trkpt>
      <trkpt lat="47.15699" lon="5.95423">
        <ele>335.2</ele>
        <time>2021-08-17T11:48:51Z</time>
      </trkpt>
      <trkpt lat="47.157" lon="5.95422">
        <ele>335.4</ele>
        <time>2021-08-17T11:48:52Z</time>
      </trkpt>
      <trkpt lat="47.15702" lon="5.95422">
        <ele>335.6</ele>
        <time>2021-08-17T11:48:53Z</time>
      </trkpt>
      <trkpt lat="47.15704" lon="5.95421">
        <ele>335.8</ele>
        <time>2021-08-17T11:48:54Z</time>
      </trkpt>
      <trkpt lat="47.15706" lon="5.9542">
        <ele>336</ele>
        <time>2021-08-17T11:48:55Z</time>
      </trkpt>
      <trkpt lat="47.15708" lon="5.95419">
        <ele>336</ele>
        <time>2021-08-17T11:48:56Z</time>
      </trkpt>
      <trkpt lat="47.15709" lon="5.95418">
        <ele>336.2</ele>
        <time>2021-08-17T11:48:57Z</time>
      </trkpt>
      <trkpt lat="47.15711" lon="5.95417">
        <ele>336.4</ele>
        <time>2021-08-17T11:48:58Z</time>
      </trkpt>
      <trkpt lat="47.15713" lon="5.95417">
        <ele>336.8</ele>
        <time>2021-08-17T11:48:59Z</time>
      </trkpt>
      <trkpt lat="47.15714" lon="5.95416">
        <ele>337</ele>
        <time>2021-08-17T11:49:00Z</time>
      </trkpt>
      <trkpt lat="47.15716" lon="5.95416">
        <ele>337</ele>
        <time>2021-08-17T11:49:01Z</time>
      </trkpt>
      <trkpt lat="47.15718" lon="5.95415">
        <ele>337.4</ele>
        <time>2021-08-17T11:49:02Z</time>
      </trkpt>
      <trkpt lat="47.1572" lon="5.95414">
        <ele>337.4</ele>
        <time>2021-08-17T11:49:03Z</time>
      </trkpt>
      <trkpt lat="47.15721" lon="5.95413">
        <ele>337.6</ele>
        <time>2021-08-17T11:49:04Z</time>
      </trkpt>
      <trkpt lat="47.15723" lon="5.95412">
        <ele>337.8</ele>
        <time>2021-08-17T11:49:05Z</time>
      </trkpt>
      <trkpt lat="47.15724" lon="5.95411">
        <ele>338</ele>
        <time>2021-08-17T11:49:06Z</time>
      </trkpt>
      <trkpt lat="47.15725" lon="5.95409">
        <ele>338.4</ele>
        <time>2021-08-17T11:49:07Z</time>
      </trkpt>
      <trkpt lat="47.15727" lon="5.95408">
        <ele>338.4</ele>
        <time>2021-08-17T11:49:08Z</time>
      </trkpt>
      <trkpt lat="47.15729" lon="5.95407">
        <ele>338.6</ele>
        <time>2021-08-17T11:49:09Z</time>
      </trkpt>
      <trkpt lat="47.1573" lon="5.95406">
        <ele>338.6</ele>
        <time>2021-08-17T11:49:10Z</time>
      </trkpt>
      <trkpt lat="47.15731" lon="5.95405">
        <ele>338.8</ele>
        <time>2021-08-17T11:49:11Z</time>
      </trkpt>
      <trkpt lat="47.15733" lon="5.95403">
        <ele>339</ele>
        <time>2021-08-17T11:49:12Z</time>
      </trkpt>
      <trkpt lat="47.15734" lon="5.95402">
        <ele>339</ele>
        <time>2021-08-17T11:49:13Z</time>
      </trkpt>
      <trkpt lat="47.15736" lon="5.95401">
        <ele>339.2</ele>
        <time>2021-08-17T11:49:14Z</time>
      </trkpt>
      <trkpt lat="47.15737" lon="5.954">
        <ele>339.4</ele>
        <time>2021-08-17T11:49:15Z</time>
      </trkpt>
      <trkpt lat="47.15739" lon="5.954">
        <ele>339.6</ele>
        <time>2021-08-17T11:49:16Z</time>
      </trkpt>
      <trkpt lat="47.1574" lon="5.95399">
        <ele>339.6</ele>
        <time>2021-08-17T11:49:17Z</time>
      </trkpt>
      <trkpt lat="47.15741" lon="5.95398">
        <ele>339.8</ele>
        <time>2021-08-17T11:49:18Z</time>
      </trkpt>
      <trkpt lat="47.15743" lon="5.95398">
        <ele>340</ele>
        <time>2021-08-17T11:49:19Z</time>
      </trkpt>
      <trkpt lat="47.15744" lon="5.95397">
        <ele>340.2</ele>
        <time>2021-08-17T11:49:20Z</time>
      </trkpt>
      <trkpt lat="47.15746" lon="5.95395">
        <ele>340.4</ele>
        <time>2021-08-17T11:49:21Z</time>
      </trkpt>
      <trkpt lat="47.15747" lon="5.95394">
        <ele>340.6</ele>
        <time>2021-08-17T11:49:22Z</time>
      </trkpt>
      <trkpt lat="47.15749" lon="5.95393">
        <ele>340.8</ele>
        <time>2021-08-17T11:49:23Z</time>
      </trkpt>
      <trkpt lat="47.1575" lon="5.95392">
        <ele>341</ele>
        <time>2021-08-17T11:49:24Z</time>
      </trkpt>
      <trkpt lat="47.15751" lon="5.95391">
        <ele>341.2</ele>
        <time>2021-08-17T11:49:25Z</time>
      </trkpt>
      <trkpt lat="47.15753" lon="5.9539">
        <ele>341.4</ele>
        <time>2021-08-17T11:49:26Z</time>
      </trkpt>
      <trkpt lat="47.15754" lon="5.95389">
        <ele>341.6</ele>
        <time>2021-08-17T11:49:27Z</time>
      </trkpt>
      <trkpt lat="47.15756" lon="5.95388">
        <ele>341.8</ele>
        <time>2021-08-17T11:49:28Z</time>
      </trkpt>
      <trkpt lat="47.15757" lon="5.95387">
        <ele>342</ele>
        <time>2021-08-17T11:49:29Z</time>
      </trkpt>
      <trkpt lat="47.15759" lon="5.95387">
        <ele>342</ele>
        <time>2021-08-17T11:49:30Z</time>
      </trkpt>
      <trkpt lat="47.1576" lon="5.95386">
        <ele>342.2</ele>
        <time>2021-08-17T11:49:31Z</time>
      </trkpt>
      <trkpt lat="47.15762" lon="5.95386">
        <ele>342.4</ele>
        <time>2021-08-17T11:49:32Z</time>
      </trkpt>
      <trkpt lat="47.15764" lon="5.95386">
        <ele>342.4</ele>
        <time>2021-08-17T11:49:33Z</time>
      </trkpt>
      <trkpt lat="47.15765" lon="5.95385">
        <ele>342.6</ele>
        <time>2021-08-17T11:49:34Z</time>
      </trkpt>
      <trkpt lat="47.15766" lon="5.95385">
        <ele>342.8</ele>
        <time>2021-08-17T11:49:35Z</time>
      </trkpt>
      <trkpt lat="47.15768" lon="5.95385">
        <ele>343.2</ele>
        <time>2021-08-17T11:49:36Z</time>
      </trkpt>
      <trkpt lat="47.15769" lon="5.95384">
        <ele>343.4</ele>
        <time>2021-08-17T11:49:37Z</time>
      </trkpt>
      <trkpt lat="47.1577" lon="5.95384">
        <ele>343.6</ele>
        <time>2021-08-17T11:49:38Z</time>
      </trkpt>
      <trkpt lat="47.15771" lon="5.95383">
        <ele>343.6</ele>
        <time>2021-08-17T11:49:39Z</time>
      </trkpt>
      <trkpt lat="47.15772" lon="5.95382">
        <ele>343.8</ele>
        <time>2021-08-17T11:49:40Z</time>
      </trkpt>
      <trkpt lat="47.15774" lon="5.95382">
        <ele>344.2</ele>
        <time>2021-08-17T11:49:41Z</time>
      </trkpt>
      <trkpt lat="47.15776" lon="5.95381">
        <ele>344.2</ele>
        <time>2021-08-17T11:49:42Z</time>
      </trkpt>
      <trkpt lat="47.15777" lon="5.9538">
        <ele>344.4</ele>
        <time>2021-08-17T11:49:43Z</time>
      </trkpt>
      <trkpt lat="47.15778" lon="5.95379">
        <ele>344.6</ele>
        <time>2021-08-17T11:49:44Z</time>
      </trkpt>
      <trkpt lat="47.1578" lon="5.95378">
        <ele>345</ele>
        <time>2021-08-17T11:49:45Z</time>
      </trkpt>
      <trkpt lat="47.15781" lon="5.95378">
        <ele>345.2</ele>
        <time>2021-08-17T11:49:46Z</time>
      </trkpt>
      <trkpt lat="47.15783" lon="5.95377">
        <ele>345.4</ele>
        <time>2021-08-17T11:49:47Z</time>
      </trkpt>
      <trkpt lat="47.15784" lon="5.95376">
        <ele>345.6</ele>
        <time>2021-08-17T11:49:48Z</time>
      </trkpt>
      <trkpt lat="47.15785" lon="5.95375">
        <ele>345.8</ele>
        <time>2021-08-17T11:49:49Z</time>
      </trkpt>
      <trkpt lat="47.15787" lon="5.95374">
        <ele>346</ele>
        <time>2021-08-17T11:49:50Z</time>
      </trkpt>
      <trkpt lat="47.15788" lon="5.95373">
        <ele>346.2</ele>
        <time>2021-08-17T11:49:51Z</time>
      </trkpt>
      <trkpt lat="47.1579" lon="5.95372">
        <ele>346.4</ele>
        <time>2021-08-17T11:49:52Z</time>
      </trkpt>
      <trkpt lat="47.15791" lon="5.95371">
        <ele>346.6</ele>
        <time>2021-08-17T11:49:53Z</time>
      </trkpt>
      <trkpt lat="47.15793" lon="5.9537">
        <ele>346.8</ele>
        <time>2021-08-17T11:49:54Z</time>
      </trkpt>
      <trkpt lat="47.15794" lon="5.9537">
        <ele>346.8</ele>
        <time>2021-08-17T11:49:55Z</time>
      </trkpt>
      <trkpt lat="47.15795" lon="5.95369">
        <ele>347.2</ele>
        <time>2021-08-17T11:49:56Z</time>
      </trkpt>
      <trkpt lat="47.15797" lon="5.95369">
        <ele>347.6</ele>
        <time>2021-08-17T11:49:57Z</time>
      </trkpt>
      <trkpt lat="47.15798" lon="5.95368">
        <ele>347.6</ele>
        <time>2021-08-17T11:49:58Z</time>
      </trkpt>
      <trkpt lat="47.158" lon="5.95367">
        <ele>347.8</ele>
        <time>2021-08-17T11:49:59Z</time>
      </trkpt>
      <trkpt lat="47.15801" lon="5.95367">
        <ele>348</ele>
        <time>2021-08-17T11:50:00Z</time>
      </trkpt>
      <trkpt lat="47.15803" lon="5.95367">
        <ele>348.2</ele>
        <time>2021-08-17T11:50:01Z</time>
      </trkpt>
      <trkpt lat="47.15804" lon="5.95367">
        <ele>348.4</ele>
        <time>2021-08-17T11:50:02Z</time>
      </trkpt>
      <trkpt lat="47.15805" lon="5.95367">
        <ele>348.8</ele>
        <time>2021-08-17T11:50:03Z</time>
      </trkpt>
      <trkpt lat="47.15806" lon="5.95366">
        <ele>349</ele>
        <time>2021-08-17T11:50:04Z</time>
      </trkpt>
      <trkpt lat="47.15808" lon="5.95366">
        <ele>349.2</ele>
        <time>2021-08-17T11:50:05Z</time>
      </trkpt>
      <trkpt lat="47.15809" lon="5.95365">
        <ele>349.4</ele>
        <time>2021-08-17T11:50:06Z</time>
      </trkpt>
      <trkpt lat="47.1581" lon="5.95365">
        <ele>349.6</ele>
        <time>2021-08-17T11:50:07Z</time>
      </trkpt>
      <trkpt lat="47.15812" lon="5.95364">
        <ele>350</ele>
        <time>2021-08-17T11:50:08Z</time>
      </trkpt>
      <trkpt lat="47.15813" lon="5.95364">
        <ele>350.2</ele>
        <time>2021-08-17T11:50:09Z</time>
      </trkpt>
      <trkpt lat="47.15815" lon="5.95363">
        <ele>350.4</ele>
        <time>2021-08-17T11:50:10Z</time>
      </trkpt>
      <trkpt lat="47.15816" lon="5.95362">
        <ele>350.6</ele>
        <time>2021-08-17T11:50:11Z</time>
      </trkpt>
      <trkpt lat="47.15817" lon="5.95361">
        <ele>350.8</ele>
        <time>2021-08-17T11:50:12Z</time>
      </trkpt>
      <trkpt lat="47.15818" lon="5.9536">
        <ele>351</ele>
        <time>2021-08-17T11:50:13Z</time>
      </trkpt>
      <trkpt lat="47.1582" lon="5.95359">
        <ele>351.2</ele>
        <time>2021-08-17T11:50:14Z</time>
      </trkpt>
      <trkpt lat="47.15821" lon="5.95357">
        <ele>351.4</ele>
        <time>2021-08-17T11:50:15Z</time>
      </trkpt>
      <trkpt lat="47.15822" lon="5.95357">
        <ele>351.6</ele>
        <time>2021-08-17T11:50:16Z</time>
      </trkpt>
      <trkpt lat="47.15823" lon="5.95356">
        <ele>352</ele>
        <time>2021-08-17T11:50:17Z</time>
      </trkpt>
      <trkpt lat="47.15825" lon="5.95355">
        <ele>352</ele>
        <time>2021-08-17T11:50:18Z</time>
      </trkpt>
      <trkpt lat="47.15826" lon="5.95353">
        <ele>352.4</ele>
        <time>2021-08-17T11:50:19Z</time>
      </trkpt>
      <trkpt lat="47.15828" lon="5.95352">
        <ele>352.4</ele>
        <time>2021-08-17T11:50:20Z</time>
      </trkpt>
      <trkpt lat="47.15829" lon="5.95351">
        <ele>352.6</ele>
        <time>2021-08-17T11:50:21Z</time>
      </trkpt>
      <trkpt lat="47.1583" lon="5.9535">
        <ele>352.8</ele>
        <time>2021-08-17T11:50:22Z</time>
      </trkpt>
      <trkpt lat="47.15831" lon="5.95348">
        <ele>353</ele>
        <time>2021-08-17T11:50:23Z</time>
      </trkpt>
      <trkpt lat="47.15833" lon="5.95348">
        <ele>353.4</ele>
        <time>2021-08-17T11:50:24Z</time>
      </trkpt>
      <trkpt lat="47.15834" lon="5.95346">
        <ele>353.4</ele>
        <time>2021-08-17T11:50:25Z</time>
      </trkpt>
      <trkpt lat="47.15835" lon="5.95345">
        <ele>353.8</ele>
        <time>2021-08-17T11:50:26Z</time>
      </trkpt>
      <trkpt lat="47.15836" lon="5.95344">
        <ele>353.8</ele>
        <time>2021-08-17T11:50:27Z</time>
      </trkpt>
      <trkpt lat="47.15837" lon="5.95342">
        <ele>354</ele>
        <time>2021-08-17T11:50:28Z</time>
      </trkpt>
      <trkpt lat="47.15838" lon="5.95341">
        <ele>354</ele>
        <time>2021-08-17T11:50:29Z</time>
      </trkpt>
      <trkpt lat="47.15839" lon="5.9534">
        <ele>354.4</ele>
        <time>2021-08-17T11:50:30Z</time>
      </trkpt>
      <trkpt lat="47.1584" lon="5.95338">
        <ele>354.6</ele>
        <time>2021-08-17T11:50:31Z</time>
      </trkpt>
      <trkpt lat="47.15842" lon="5.95336">
        <ele>354.6</ele>
        <time>2021-08-17T11:50:32Z</time>
      </trkpt>
      <trkpt lat="47.15842" lon="5.95334">
        <ele>355</ele>
        <time>2021-08-17T11:50:33Z</time>
      </trkpt>
      <trkpt lat="47.15843" lon="5.95332">
        <ele>355</ele>
        <time>2021-08-17T11:50:34Z</time>
      </trkpt>
      <trkpt lat="47.15844" lon="5.9533">
        <ele>355.2</ele>
        <time>2021-08-17T11:50:35Z</time>
      </trkpt>
      <trkpt lat="47.15845" lon="5.95328">
        <ele>355.6</ele>
        <time>2021-08-17T11:50:36Z</time>
      </trkpt>
      <trkpt lat="47.15845" lon="5.95326">
        <ele>355.8</ele>
        <time>2021-08-17T11:50:37Z</time>
      </trkpt>
      <trkpt lat="47.15845" lon="5.95324">
        <ele>356</ele>
        <time>2021-08-17T11:50:38Z</time>
      </trkpt>
      <trkpt lat="47.15846" lon="5.95322">
        <ele>356</ele>
        <time>2021-08-17T11:50:39Z</time>
      </trkpt>
      <trkpt lat="47.15846" lon="5.9532">
        <ele>356.6</ele>
        <time>2021-08-17T11:50:40Z</time>
      </trkpt>
      <trkpt lat="47.15846" lon="5.95317">
        <ele>356.6</ele>
        <time>2021-08-17T11:50:41Z</time>
      </trkpt>
      <trkpt lat="47.15846" lon="5.95316">
        <ele>357.2</ele>
        <time>2021-08-17T11:50:42Z</time>
      </trkpt>
      <trkpt lat="47.15846" lon="5.95314">
        <ele>357.2</ele>
        <time>2021-08-17T11:50:43Z</time>
      </trkpt>
      <trkpt lat="47.15846" lon="5.95312">
        <ele>357.2</ele>
        <time>2021-08-17T11:50:44Z</time>
      </trkpt>
      <trkpt lat="47.15845" lon="5.9531">
        <ele>357.8</ele>
        <time>2021-08-17T11:50:45Z</time>
      </trkpt>
      <trkpt lat="47.15845" lon="5.95308">
        <ele>358.2</ele>
        <time>2021-08-17T11:50:46Z</time>
      </trkpt>
      <trkpt lat="47.15844" lon="5.95305">
        <ele>358.2</ele>
        <time>2021-08-17T11:50:47Z</time>
      </trkpt>
      <trkpt lat="47.15844" lon="5.95303">
        <ele>358.4</ele>
        <time>2021-08-17T11:50:48Z</time>
      </trkpt>
      <trkpt lat="47.15843" lon="5.953">
        <ele>358.6</ele>
        <time>2021-08-17T11:50:49Z</time>
      </trkpt>
      <trkpt lat="47.15842" lon="5.95299">
        <ele>358.6</ele>
        <time>2021-08-17T11:50:50Z</time>
      </trkpt>
      <trkpt lat="47.15841" lon="5.95297">
        <ele>359.2</ele>
        <time>2021-08-17T11:50:51Z</time>
      </trkpt>
      <trkpt lat="47.15841" lon="5.95295">
        <ele>359.6</ele>
        <time>2021-08-17T11:50:52Z</time>
      </trkpt>
      <trkpt lat="47.15839" lon="5.95293">
        <ele>359.8</ele>
        <time>2021-08-17T11:50:53Z</time>
      </trkpt>
      <trkpt lat="47.15838" lon="5.95292">
        <ele>359.8</ele>
        <time>2021-08-17T11:50:54Z</time>
      </trkpt>
      <trkpt lat="47.15838" lon="5.95289">
        <ele>359.8</ele>
        <time>2021-08-17T11:50:55Z</time>
      </trkpt>
      <trkpt lat="47.15837" lon="5.95287">
        <ele>360.2</ele>
        <time>2021-08-17T11:50:56Z</time>
      </trkpt>
      <trkpt lat="47.15837" lon="5.95285">
        <ele>360.2</ele>
        <time>2021-08-17T11:50:57Z</time>
      </trkpt>
      <trkpt lat="47.15836" lon="5.95283">
        <ele>360.4</ele>
        <time>2021-08-17T11:50:58Z</time>
      </trkpt>
      <trkpt lat="47.15834" lon="5.95281">
        <ele>360.4</ele>
        <time>2021-08-17T11:50:59Z</time>
      </trkpt>
      <trkpt lat="47.15833" lon="5.95279">
        <ele>360.8</ele>
        <time>2021-08-17T11:51:00Z</time>
      </trkpt>
      <trkpt lat="47.15832" lon="5.95277">
        <ele>361</ele>
        <time>2021-08-17T11:51:01Z</time>
      </trkpt>
      <trkpt lat="47.15831" lon="5.95274">
        <ele>361</ele>
        <time>2021-08-17T11:51:02Z</time>
      </trkpt>
      <trkpt lat="47.15829" lon="5.95272">
        <ele>361</ele>
        <time>2021-08-17T11:51:03Z</time>
      </trkpt>
      <trkpt lat="47.15828" lon="5.95269">
        <ele>361.2</ele>
        <time>2021-08-17T11:51:04Z</time>
      </trkpt>
      <trkpt lat="47.15828" lon="5.95267">
        <ele>361.2</ele>
        <time>2021-08-17T11:51:05Z</time>
      </trkpt>
      <trkpt lat="47.15826" lon="5.95265">
        <ele>361.6</ele>
        <time>2021-08-17T11:51:06Z</time>
      </trkpt>
      <trkpt lat="47.15825" lon="5.95263">
        <ele>361.8</ele>
        <time>2021-08-17T11:51:07Z</time>
      </trkpt>
      <trkpt lat="47.15824" lon="5.9526">
        <ele>361.8</ele>
        <time>2021-08-17T11:51:08Z</time>
      </trkpt>
      <trkpt lat="47.15823" lon="5.95258">
        <ele>361.8</ele>
        <time>2021-08-17T11:51:09Z</time>
      </trkpt>
      <trkpt lat="47.15822" lon="5.95254">
        <ele>362.2</ele>
        <time>2021-08-17T11:51:10Z</time>
      </trkpt>
      <trkpt lat="47.15822" lon="5.95251">
        <ele>362.2</ele>
        <time>2021-08-17T11:51:11Z</time>
      </trkpt>
      <trkpt lat="47.15822" lon="5.95248">
        <ele>362.4</ele>
        <time>2021-08-17T11:51:12Z</time>
      </trkpt>
      <trkpt lat="47.15822" lon="5.95246">
        <ele>362.4</ele>
        <time>2021-08-17T11:51:13Z</time>
      </trkpt>
      <trkpt lat="47.15823" lon="5.95243">
        <ele>362.8</ele>
        <time>2021-08-17T11:51:14Z</time>
      </trkpt>
      <trkpt lat="47.15823" lon="5.95241">
        <ele>362.8</ele>
        <time>2021-08-17T11:51:15Z</time>
      </trkpt>
      <trkpt lat="47.15825" lon="5.9524">
        <ele>363</ele>
        <time>2021-08-17T11:51:16Z</time>
      </trkpt>
      <trkpt lat="47.15826" lon="5.9524">
        <ele>363</ele>
        <time>2021-08-17T11:51:17Z</time>
      </trkpt>
      <trkpt lat="47.15827" lon="5.9524">
        <ele>363.4</ele>
        <time>2021-08-17T11:51:18Z</time>
      </trkpt>
      <trkpt lat="47.15829" lon="5.95239">
        <ele>363.6</ele>
        <time>2021-08-17T11:51:19Z</time>
      </trkpt>
      <trkpt lat="47.15831" lon="5.95239">
        <ele>363.8</ele>
        <time>2021-08-17T11:51:20Z</time>
      </trkpt>
      <trkpt lat="47.15833" lon="5.95238">
        <ele>364.2</ele>
        <time>2021-08-17T11:51:21Z</time>
      </trkpt>
      <trkpt lat="47.15834" lon="5.95238">
        <ele>364.2</ele>
        <time>2021-08-17T11:51:22Z</time>
      </trkpt>
      <trkpt lat="47.15836" lon="5.95237">
        <ele>364.4</ele>
        <time>2021-08-17T11:51:23Z</time>
      </trkpt>
      <trkpt lat="47.15838" lon="5.95238">
        <ele>364.4</ele>
        <time>2021-08-17T11:51:24Z</time>
      </trkpt>
      <trkpt lat="47.1584" lon="5.95238">
        <ele>364.4</ele>
        <time>2021-08-17T11:51:25Z</time>
      </trkpt>
      <trkpt lat="47.15842" lon="5.95239">
        <ele>364.8</ele>
        <time>2021-08-17T11:51:26Z</time>
      </trkpt>
      <trkpt lat="47.15844" lon="5.95241">
        <ele>364.8</ele>
        <time>2021-08-17T11:51:27Z</time>
      </trkpt>
      <trkpt lat="47.15846" lon="5.95242">
        <ele>365</ele>
        <time>2021-08-17T11:51:28Z</time>
      </trkpt>
      <trkpt lat="47.15848" lon="5.95243">
        <ele>365</ele>
        <time>2021-08-17T11:51:29Z</time>
      </trkpt>
      <trkpt lat="47.1585" lon="5.95244">
        <ele>365</ele>
        <time>2021-08-17T11:51:30Z</time>
      </trkpt>
      <trkpt lat="47.15852" lon="5.95246">
        <ele>365</ele>
        <time>2021-08-17T11:51:31Z</time>
      </trkpt>
      <trkpt lat="47.15854" lon="5.95248">
        <ele>365</ele>
        <time>2021-08-17T11:51:32Z</time>
      </trkpt>
      <trkpt lat="47.15857" lon="5.95249">
        <ele>365</ele>
        <time>2021-08-17T11:51:33Z</time>
      </trkpt>
      <trkpt lat="47.15859" lon="5.95251">
        <ele>365</ele>
        <time>2021-08-17T11:51:34Z</time>
      </trkpt>
      <trkpt lat="47.15862" lon="5.95253">
        <ele>365</ele>
        <time>2021-08-17T11:51:35Z</time>
      </trkpt>
      <trkpt lat="47.15865" lon="5.95255">
        <ele>365.2</ele>
        <time>2021-08-17T11:51:36Z</time>
      </trkpt>
      <trkpt lat="47.15867" lon="5.95257">
        <ele>365.2</ele>
        <time>2021-08-17T11:51:37Z</time>
      </trkpt>
      <trkpt lat="47.1587" lon="5.95258">
        <ele>365.2</ele>
        <time>2021-08-17T11:51:38Z</time>
      </trkpt>
      <trkpt lat="47.15873" lon="5.9526">
        <ele>365.2</ele>
        <time>2021-08-17T11:51:39Z</time>
      </trkpt>
      <trkpt lat="47.15875" lon="5.95261">
        <ele>365.2</ele>
        <time>2021-08-17T11:51:40Z</time>
      </trkpt>
      <trkpt lat="47.15878" lon="5.95263">
        <ele>365.2</ele>
        <time>2021-08-17T11:51:41Z</time>
      </trkpt>
      <trkpt lat="47.1588" lon="5.95265">
        <ele>365.2</ele>
        <time>2021-08-17T11:51:42Z</time>
      </trkpt>
      <trkpt lat="47.15883" lon="5.95268">
        <ele>365.4</ele>
        <time>2021-08-17T11:51:44Z</time>
      </trkpt>
      <trkpt lat="47.15885" lon="5.95269">
        <ele>365.4</ele>
        <time>2021-08-17T11:51:45Z</time>
      </trkpt>
      <trkpt lat="47.15887" lon="5.95271">
        <ele>365.4</ele>
        <time>2021-08-17T11:51:46Z</time>
      </trkpt>
      <trkpt lat="47.1589" lon="5.95273">
        <ele>365.4</ele>
        <time>2021-08-17T11:51:48Z</time>
      </trkpt>
      <trkpt lat="47.15891" lon="5.95274">
        <ele>365.6</ele>
        <time>2021-08-17T11:51:49Z</time>
      </trkpt>
      <trkpt lat="47.15893" lon="5.95276">
        <ele>365.6</ele>
        <time>2021-08-17T11:51:50Z</time>
      </trkpt>
      <trkpt lat="47.159" lon="5.95276">
        <ele>365</ele>
        <time>2021-08-17T11:53:04Z</time>
      </trkpt>
      <trkpt lat="47.15904" lon="5.95273">
        <ele>365</ele>
        <time>2021-08-17T11:53:06Z</time>
      </trkpt>
      <trkpt lat="47.15906" lon="5.95271">
        <ele>365</ele>
        <time>2021-08-17T11:53:07Z</time>
      </trkpt>
      <trkpt lat="47.15914" lon="5.95265">
        <ele>365</ele>
        <time>2021-08-17T11:53:10Z</time>
      </trkpt>
      <trkpt lat="47.15934" lon="5.95256">
        <ele>365.4</ele>
        <time>2021-08-17T11:53:18Z</time>
      </trkpt>
      <trkpt lat="47.1596" lon="5.9525">
        <ele>366.2</ele>
        <time>2021-08-17T11:53:27Z</time>
      </trkpt>
      <trkpt lat="47.15967" lon="5.95249">
        <ele>366.6</ele>
        <time>2021-08-17T11:53:29Z</time>
      </trkpt>
      <trkpt lat="47.1599" lon="5.95249">
        <ele>367.8</ele>
        <time>2021-08-17T11:53:37Z</time>
      </trkpt>
      <trkpt lat="47.15996" lon="5.9525">
        <ele>368</ele>
        <time>2021-08-17T11:53:39Z</time>
      </trkpt>
      <trkpt lat="47.15999" lon="5.9525">
        <ele>368.2</ele>
        <time>2021-08-17T11:53:40Z</time>
      </trkpt>
      <trkpt lat="47.16002" lon="5.9525">
        <ele>368.6</ele>
        <time>2021-08-17T11:53:41Z</time>
      </trkpt>
      <trkpt lat="47.16005" lon="5.95249">
        <ele>368.8</ele>
        <time>2021-08-17T11:53:42Z</time>
      </trkpt>
      <trkpt lat="47.16007" lon="5.95249">
        <ele>369</ele>
        <time>2021-08-17T11:53:43Z</time>
      </trkpt>
      <trkpt lat="47.16011" lon="5.95248">
        <ele>369.2</ele>
        <time>2021-08-17T11:53:44Z</time>
      </trkpt>
      <trkpt lat="47.16013" lon="5.95248">
        <ele>369.2</ele>
        <time>2021-08-17T11:53:45Z</time>
      </trkpt>
      <trkpt lat="47.16016" lon="5.95247">
        <ele>369.4</ele>
        <time>2021-08-17T11:53:46Z</time>
      </trkpt>
      <trkpt lat="47.16018" lon="5.95247">
        <ele>369.6</ele>
        <time>2021-08-17T11:53:47Z</time>
      </trkpt>
      <trkpt lat="47.16021" lon="5.95247">
        <ele>370</ele>
        <time>2021-08-17T11:53:48Z</time>
      </trkpt>
      <trkpt lat="47.16023" lon="5.95245">
        <ele>370</ele>
        <time>2021-08-17T11:53:49Z</time>
      </trkpt>
      <trkpt lat="47.16026" lon="5.95244">
        <ele>370.4</ele>
        <time>2021-08-17T11:53:50Z</time>
      </trkpt>
      <trkpt lat="47.16029" lon="5.95243">
        <ele>370.6</ele>
        <time>2021-08-17T11:53:51Z</time>
      </trkpt>
      <trkpt lat="47.1603" lon="5.95241">
        <ele>370.8</ele>
        <time>2021-08-17T11:53:52Z</time>
      </trkpt>
      <trkpt lat="47.16033" lon="5.95239">
        <ele>371</ele>
        <time>2021-08-17T11:53:53Z</time>
      </trkpt>
      <trkpt lat="47.16036" lon="5.95236">
        <ele>371.2</ele>
        <time>2021-08-17T11:53:54Z</time>
      </trkpt>
      <trkpt lat="47.16038" lon="5.95234">
        <ele>371.4</ele>
        <time>2021-08-17T11:53:55Z</time>
      </trkpt>
      <trkpt lat="47.1604" lon="5.95232">
        <ele>371.6</ele>
        <time>2021-08-17T11:53:56Z</time>
      </trkpt>
      <trkpt lat="47.16042" lon="5.95229">
        <ele>372</ele>
        <time>2021-08-17T11:53:57Z</time>
      </trkpt>
      <trkpt lat="47.16044" lon="5.95226">
        <ele>372.2</ele>
        <time>2021-08-17T11:53:58Z</time>
      </trkpt>
      <trkpt lat="47.16046" lon="5.95223">
        <ele>372.4</ele>
        <time>2021-08-17T11:53:59Z</time>
      </trkpt>
      <trkpt lat="47.16048" lon="5.95219">
        <ele>372.6</ele>
        <time>2021-08-17T11:54:00Z</time>
      </trkpt>
      <trkpt lat="47.1605" lon="5.95217">
        <ele>372.8</ele>
        <time>2021-08-17T11:54:01Z</time>
      </trkpt>
      <trkpt lat="47.16053" lon="5.95215">
        <ele>373</ele>
        <time>2021-08-17T11:54:02Z</time>
      </trkpt>
      <trkpt lat="47.16055" lon="5.95213">
        <ele>373</ele>
        <time>2021-08-17T11:54:03Z</time>
      </trkpt>
      <trkpt lat="47.16058" lon="5.95213">
        <ele>373.2</ele>
        <time>2021-08-17T11:54:04Z</time>
      </trkpt>
      <trkpt lat="47.16061" lon="5.95214">
        <ele>373.4</ele>
        <time>2021-08-17T11:54:05Z</time>
      </trkpt>
      <trkpt lat="47.16064" lon="5.95216">
        <ele>373.4</ele>
        <time>2021-08-17T11:54:06Z</time>
      </trkpt>
      <trkpt lat="47.16066" lon="5.95218">
        <ele>373.6</ele>
        <time>2021-08-17T11:54:07Z</time>
      </trkpt>
      <trkpt lat="47.1607" lon="5.95221">
        <ele>373.6</ele>
        <time>2021-08-17T11:54:08Z</time>
      </trkpt>
      <trkpt lat="47.16073" lon="5.95223">
        <ele>373.8</ele>
        <time>2021-08-17T11:54:09Z</time>
      </trkpt>
      <trkpt lat="47.16076" lon="5.95225">
        <ele>373.8</ele>
        <time>2021-08-17T11:54:10Z</time>
      </trkpt>
      <trkpt lat="47.16079" lon="5.95228">
        <ele>374</ele>
        <time>2021-08-17T11:54:11Z</time>
      </trkpt>
      <trkpt lat="47.16082" lon="5.95231">
        <ele>374</ele>
        <time>2021-08-17T11:54:12Z</time>
      </trkpt>
      <trkpt lat="47.16084" lon="5.95233">
        <ele>374</ele>
        <time>2021-08-17T11:54:13Z</time>
      </trkpt>
      <trkpt lat="47.16087" lon="5.95235">
        <ele>374.2</ele>
        <time>2021-08-17T11:54:14Z</time>
      </trkpt>
      <trkpt lat="47.1609" lon="5.95238">
        <ele>374.2</ele>
        <time>2021-08-17T11:54:15Z</time>
      </trkpt>
      <trkpt lat="47.16093" lon="5.95241">
        <ele>374.4</ele>
        <time>2021-08-17T11:54:16Z</time>
      </trkpt>
      <trkpt lat="47.16096" lon="5.95244">
        <ele>374.4</ele>
        <time>2021-08-17T11:54:17Z</time>
      </trkpt>
      <trkpt lat="47.16099" lon="5.95247">
        <ele>374.6</ele>
        <time>2021-08-17T11:54:18Z</time>
      </trkpt>
      <trkpt lat="47.16102" lon="5.9525">
        <ele>374.6</ele>
        <time>2021-08-17T11:54:19Z</time>
      </trkpt>
      <trkpt lat="47.16105" lon="5.95253">
        <ele>374.6</ele>
        <time>2021-08-17T11:54:20Z</time>
      </trkpt>
      <trkpt lat="47.16109" lon="5.95257">
        <ele>374.6</ele>
        <time>2021-08-17T11:54:21Z</time>
      </trkpt>
      <trkpt lat="47.16112" lon="5.9526">
        <ele>374.8</ele>
        <time>2021-08-17T11:54:22Z</time>
      </trkpt>
      <trkpt lat="47.16115" lon="5.95263">
        <ele>374.8</ele>
        <time>2021-08-17T11:54:23Z</time>
      </trkpt>
      <trkpt lat="47.16118" lon="5.95266">
        <ele>374.8</ele>
        <time>2021-08-17T11:54:24Z</time>
      </trkpt>
      <trkpt lat="47.16122" lon="5.95269">
        <ele>374.8</ele>
        <time>2021-08-17T11:54:25Z</time>
      </trkpt>
      <trkpt lat="47.16125" lon="5.95273">
        <ele>374.8</ele>
        <time>2021-08-17T11:54:26Z</time>
      </trkpt>
      <trkpt lat="47.16128" lon="5.95275">
        <ele>375</ele>
        <time>2021-08-17T11:54:27Z</time>
      </trkpt>
      <trkpt lat="47.16132" lon="5.95279">
        <ele>375</ele>
        <time>2021-08-17T11:54:28Z</time>
      </trkpt>
      <trkpt lat="47.16135" lon="5.95282">
        <ele>375</ele>
        <time>2021-08-17T11:54:29Z</time>
      </trkpt>
      <trkpt lat="47.16157" lon="5.95302">
        <ele>375.2</ele>
        <time>2021-08-17T11:54:35Z</time>
      </trkpt>
      <trkpt lat="47.16185" lon="5.95327">
        <ele>375.4</ele>
        <time>2021-08-17T11:54:43Z</time>
      </trkpt>
      <trkpt lat="47.16193" lon="5.95334">
        <ele>375.6</ele>
        <time>2021-08-17T11:54:45Z</time>
      </trkpt>
      <trkpt lat="47.16227" lon="5.95366">
        <ele>376.4</ele>
        <time>2021-08-17T11:54:54Z</time>
      </trkpt>
      <trkpt lat="47.16233" lon="5.95372">
        <ele>376.6</ele>
        <time>2021-08-17T11:54:56Z</time>
      </trkpt>
      <trkpt lat="47.16264" lon="5.95406">
        <ele>377</ele>
        <time>2021-08-17T11:55:05Z</time>
      </trkpt>
      <trkpt lat="47.16282" lon="5.95426">
        <ele>377.6</ele>
        <time>2021-08-17T11:55:10Z</time>
      </trkpt>
      <trkpt lat="47.163" lon="5.95444">
        <ele>377.8</ele>
        <time>2021-08-17T11:55:15Z</time>
      </trkpt>
      <trkpt lat="47.16343" lon="5.95481">
        <ele>378.4</ele>
        <time>2021-08-17T11:55:26Z</time>
      </trkpt>
      <trkpt lat="47.1635" lon="5.95486">
        <ele>378.6</ele>
        <time>2021-08-17T11:55:28Z</time>
      </trkpt>
      <trkpt lat="47.16379" lon="5.95504">
        <ele>378.8</ele>
        <time>2021-08-17T11:55:35Z</time>
      </trkpt>
      <trkpt lat="47.16421" lon="5.95523">
        <ele>379</ele>
        <time>2021-08-17T11:55:44Z</time>
      </trkpt>
      <trkpt lat="47.16439" lon="5.95529">
        <ele>379</ele>
        <time>2021-08-17T11:55:48Z</time>
      </trkpt>
      <trkpt lat="47.16457" lon="5.95537">
        <ele>379</ele>
        <time>2021-08-17T11:55:52Z</time>
      </trkpt>
      <trkpt lat="47.16509" lon="5.95566">
        <ele>379</ele>
        <time>2021-08-17T11:56:03Z</time>
      </trkpt>
      <trkpt lat="47.16513" lon="5.95569">
        <ele>379.2</ele>
        <time>2021-08-17T11:56:04Z</time>
      </trkpt>
      <trkpt lat="47.16517" lon="5.95572">
        <ele>379.4</ele>
        <time>2021-08-17T11:56:05Z</time>
      </trkpt>
      <trkpt lat="47.1652" lon="5.95574">
        <ele>379.4</ele>
        <time>2021-08-17T11:56:06Z</time>
      </trkpt>
      <trkpt lat="47.16524" lon="5.95577">
        <ele>379.4</ele>
        <time>2021-08-17T11:56:07Z</time>
      </trkpt>
      <trkpt lat="47.16531" lon="5.95582">
        <ele>379.6</ele>
        <time>2021-08-17T11:56:08Z</time>
      </trkpt>
      <trkpt lat="47.16534" lon="5.95585">
        <ele>379.6</ele>
        <time>2021-08-17T11:56:09Z</time>
      </trkpt>
      <trkpt lat="47.16555" lon="5.95603">
        <ele>379.8</ele>
        <time>2021-08-17T11:56:14Z</time>
      </trkpt>
      <trkpt lat="47.166" lon="5.95649">
        <ele>380.2</ele>
        <time>2021-08-17T11:56:25Z</time>
      </trkpt>
      <trkpt lat="47.16616" lon="5.95665">
        <ele>380.4</ele>
        <time>2021-08-17T11:56:29Z</time>
      </trkpt>
      <trkpt lat="47.16625" lon="5.95672">
        <ele>380.6</ele>
        <time>2021-08-17T11:56:31Z</time>
      </trkpt>
      <trkpt lat="47.16633" lon="5.95678">
        <ele>380.6</ele>
        <time>2021-08-17T11:56:33Z</time>
      </trkpt>
      <trkpt lat="47.16677" lon="5.95717">
        <ele>381.2</ele>
        <time>2021-08-17T11:56:43Z</time>
      </trkpt>
      <trkpt lat="47.16686" lon="5.95717">
        <ele>381.2</ele>
        <time>2021-08-17T11:56:45Z</time>
      </trkpt>
      <trkpt lat="47.1669" lon="5.95712">
        <ele>381.2</ele>
        <time>2021-08-17T11:56:46Z</time>
      </trkpt>
      <trkpt lat="47.16693" lon="5.95698">
        <ele>381.4</ele>
        <time>2021-08-17T11:56:48Z</time>
      </trkpt>
      <trkpt lat="47.16693" lon="5.95691">
        <ele>381.4</ele>
        <time>2021-08-17T11:56:49Z</time>
      </trkpt>
      <trkpt lat="47.16692" lon="5.95684">
        <ele>381.4</ele>
        <time>2021-08-17T11:56:50Z</time>
      </trkpt>
      <trkpt lat="47.1669" lon="5.95679">
        <ele>381.4</ele>
        <time>2021-08-17T11:56:51Z</time>
      </trkpt>
      <trkpt lat="47.16687" lon="5.95672">
        <ele>381.6</ele>
        <time>2021-08-17T11:56:52Z</time>
      </trkpt>
      <trkpt lat="47.16683" lon="5.95668">
        <ele>381.8</ele>
        <time>2021-08-17T11:56:53Z</time>
      </trkpt>
      <trkpt lat="47.16679" lon="5.95664">
        <ele>382.2</ele>
        <time>2021-08-17T11:56:54Z</time>
      </trkpt>
      <trkpt lat="47.16676" lon="5.95661">
        <ele>382.2</ele>
        <time>2021-08-17T11:56:55Z</time>
      </trkpt>
      <trkpt lat="47.16672" lon="5.95657">
        <ele>382.4</ele>
        <time>2021-08-17T11:56:56Z</time>
      </trkpt>
      <trkpt lat="47.16668" lon="5.95652">
        <ele>382.6</ele>
        <time>2021-08-17T11:56:57Z</time>
      </trkpt>
      <trkpt lat="47.16665" lon="5.95648">
        <ele>383</ele>
        <time>2021-08-17T11:56:58Z</time>
      </trkpt>
      <trkpt lat="47.16662" lon="5.95644">
        <ele>383.2</ele>
        <time>2021-08-17T11:56:59Z</time>
      </trkpt>
      <trkpt lat="47.16659" lon="5.95641">
        <ele>383.4</ele>
        <time>2021-08-17T11:57:00Z</time>
      </trkpt>
      <trkpt lat="47.16656" lon="5.95637">
        <ele>383.4</ele>
        <time>2021-08-17T11:57:01Z</time>
      </trkpt>
      <trkpt lat="47.16653" lon="5.95631">
        <ele>383.6</ele>
        <time>2021-08-17T11:57:02Z</time>
      </trkpt>
      <trkpt lat="47.16647" lon="5.95622">
        <ele>384</ele>
        <time>2021-08-17T11:57:04Z</time>
      </trkpt>
      <trkpt lat="47.16645" lon="5.95618">
        <ele>384</ele>
        <time>2021-08-17T11:57:05Z</time>
      </trkpt>
      <trkpt lat="47.16643" lon="5.95612">
        <ele>384.2</ele>
        <time>2021-08-17T11:57:06Z</time>
      </trkpt>
      <trkpt lat="47.16641" lon="5.95606">
        <ele>384.2</ele>
        <time>2021-08-17T11:57:07Z</time>
      </trkpt>
      <trkpt lat="47.16639" lon="5.956">
        <ele>384.4</ele>
        <time>2021-08-17T11:57:08Z</time>
      </trkpt>
      <trkpt lat="47.16638" lon="5.95595">
        <ele>384.4</ele>
        <time>2021-08-17T11:57:09Z</time>
      </trkpt>
      <trkpt lat="47.16637" lon="5.95589">
        <ele>384.6</ele>
        <time>2021-08-17T11:57:10Z</time>
      </trkpt>
      <trkpt lat="47.16636" lon="5.95583">
        <ele>384.6</ele>
        <time>2021-08-17T11:57:11Z</time>
      </trkpt>
      <trkpt lat="47.16636" lon="5.95577">
        <ele>384.8</ele>
        <time>2021-08-17T11:57:12Z</time>
      </trkpt>
      <trkpt lat="47.16636" lon="5.95573">
        <ele>385</ele>
        <time>2021-08-17T11:57:13Z</time>
      </trkpt>
      <trkpt lat="47.16636" lon="5.95569">
        <ele>385.2</ele>
        <time>2021-08-17T11:57:14Z</time>
      </trkpt>
      <trkpt lat="47.16636" lon="5.95565">
        <ele>385.4</ele>
        <time>2021-08-17T11:57:15Z</time>
      </trkpt>
      <trkpt lat="47.16636" lon="5.95562">
        <ele>385.6</ele>
        <time>2021-08-17T11:57:16Z</time>
      </trkpt>
      <trkpt lat="47.16636" lon="5.95556">
        <ele>385.6</ele>
        <time>2021-08-17T11:57:17Z</time>
      </trkpt>
      <trkpt lat="47.16637" lon="5.95551">
        <ele>385.8</ele>
        <time>2021-08-17T11:57:18Z</time>
      </trkpt>
      <trkpt lat="47.16635" lon="5.95544">
        <ele>385.8</ele>
        <time>2021-08-17T11:57:19Z</time>
      </trkpt>
      <trkpt lat="47.16633" lon="5.95535">
        <ele>386</ele>
        <time>2021-08-17T11:57:20Z</time>
      </trkpt>
      <trkpt lat="47.16632" lon="5.95528">
        <ele>386</ele>
        <time>2021-08-17T11:57:21Z</time>
      </trkpt>
      <trkpt lat="47.16629" lon="5.95518">
        <ele>386</ele>
        <time>2021-08-17T11:57:22Z</time>
      </trkpt>
      <trkpt lat="47.16626" lon="5.95505">
        <ele>386</ele>
        <time>2021-08-17T11:57:23Z</time>
      </trkpt>
      <trkpt lat="47.16624" lon="5.95494">
        <ele>385.8</ele>
        <time>2021-08-17T11:57:24Z</time>
      </trkpt>
      <trkpt lat="47.16621" lon="5.95483">
        <ele>385.2</ele>
        <time>2021-08-17T11:57:25Z</time>
      </trkpt>
      <trkpt lat="47.16616" lon="5.95462">
        <ele>384.6</ele>
        <time>2021-08-17T11:57:26Z</time>
      </trkpt>
      <trkpt lat="47.16611" lon="5.95446">
        <ele>383.8</ele>
        <time>2021-08-17T11:57:27Z</time>
      </trkpt>
      <trkpt lat="47.16606" lon="5.95432">
        <ele>383.2</ele>
        <time>2021-08-17T11:57:28Z</time>
      </trkpt>
      <trkpt lat="47.16598" lon="5.95412">
        <ele>381.4</ele>
        <time>2021-08-17T11:57:29Z</time>
      </trkpt>
      <trkpt lat="47.16583" lon="5.95379">
        <ele>378.6</ele>
        <time>2021-08-17T11:57:31Z</time>
      </trkpt>
      <trkpt lat="47.16576" lon="5.95362">
        <ele>377.2</ele>
        <time>2021-08-17T11:57:32Z</time>
      </trkpt>
      <trkpt lat="47.16569" lon="5.95345">
        <ele>374.2</ele>
        <time>2021-08-17T11:57:33Z</time>
      </trkpt>
      <trkpt lat="47.16562" lon="5.95327">
        <ele>371.4</ele>
        <time>2021-08-17T11:57:34Z</time>
      </trkpt>
      <trkpt lat="47.16556" lon="5.95308">
        <ele>370</ele>
        <time>2021-08-17T11:57:35Z</time>
      </trkpt>
      <trkpt lat="47.16551" lon="5.9529">
        <ele>367.2</ele>
        <time>2021-08-17T11:57:36Z</time>
      </trkpt>
      <trkpt lat="47.16548" lon="5.95276">
        <ele>366</ele>
        <time>2021-08-17T11:57:37Z</time>
      </trkpt>
      <trkpt lat="47.16546" lon="5.95255">
        <ele>363.8</ele>
        <time>2021-08-17T11:57:38Z</time>
      </trkpt>
      <trkpt lat="47.16545" lon="5.95238">
        <ele>362.6</ele>
        <time>2021-08-17T11:57:39Z</time>
      </trkpt>
      <trkpt lat="47.16545" lon="5.95222">
        <ele>360.2</ele>
        <time>2021-08-17T11:57:40Z</time>
      </trkpt>
      <trkpt lat="47.16547" lon="5.95207">
        <ele>358.8</ele>
        <time>2021-08-17T11:57:41Z</time>
      </trkpt>
      <trkpt lat="47.16552" lon="5.95191">
        <ele>356.2</ele>
        <time>2021-08-17T11:57:42Z</time>
      </trkpt>
      <trkpt lat="47.16559" lon="5.95177">
        <ele>353.8</ele>
        <time>2021-08-17T11:57:43Z</time>
      </trkpt>
      <trkpt lat="47.16568" lon="5.95162">
        <ele>352.6</ele>
        <time>2021-08-17T11:57:44Z</time>
      </trkpt>
      <trkpt lat="47.16578" lon="5.95148">
        <ele>350.6</ele>
        <time>2021-08-17T11:57:45Z</time>
      </trkpt>
      <trkpt lat="47.16586" lon="5.95138">
        <ele>349.2</ele>
        <time>2021-08-17T11:57:46Z</time>
      </trkpt>
      <trkpt lat="47.16595" lon="5.95125">
        <ele>346.6</ele>
        <time>2021-08-17T11:57:47Z</time>
      </trkpt>
      <trkpt lat="47.16603" lon="5.95112">
        <ele>345</ele>
        <time>2021-08-17T11:57:48Z</time>
      </trkpt>
      <trkpt lat="47.16611" lon="5.951">
        <ele>342</ele>
        <time>2021-08-17T11:57:49Z</time>
      </trkpt>
      <trkpt lat="47.16619" lon="5.95089">
        <ele>340.4</ele>
        <time>2021-08-17T11:57:50Z</time>
      </trkpt>
      <trkpt lat="47.16625" lon="5.95078">
        <ele>337.2</ele>
        <time>2021-08-17T11:57:51Z</time>
      </trkpt>
      <trkpt lat="47.16631" lon="5.95069">
        <ele>334</ele>
        <time>2021-08-17T11:57:52Z</time>
      </trkpt>
      <trkpt lat="47.16635" lon="5.95061">
        <ele>332.6</ele>
        <time>2021-08-17T11:57:53Z</time>
      </trkpt>
      <trkpt lat="47.16639" lon="5.95054">
        <ele>329.6</ele>
        <time>2021-08-17T11:57:54Z</time>
      </trkpt>
      <trkpt lat="47.16642" lon="5.95049">
        <ele>328</ele>
        <time>2021-08-17T11:57:55Z</time>
      </trkpt>
      <trkpt lat="47.16645" lon="5.95044">
        <ele>326.2</ele>
        <time>2021-08-17T11:57:56Z</time>
      </trkpt>
      <trkpt lat="47.16647" lon="5.9504">
        <ele>325</ele>
        <time>2021-08-17T11:57:57Z</time>
      </trkpt>
      <trkpt lat="47.1665" lon="5.95036">
        <ele>323.2</ele>
        <time>2021-08-17T11:57:58Z</time>
      </trkpt>
      <trkpt lat="47.16652" lon="5.95033">
        <ele>321.6</ele>
        <time>2021-08-17T11:57:59Z</time>
      </trkpt>
      <trkpt lat="47.16653" lon="5.95029">
        <ele>321</ele>
        <time>2021-08-17T11:58:00Z</time>
      </trkpt>
      <trkpt lat="47.16655" lon="5.95025">
        <ele>320</ele>
        <time>2021-08-17T11:58:01Z</time>
      </trkpt>
      <trkpt lat="47.16657" lon="5.9502">
        <ele>319.6</ele>
        <time>2021-08-17T11:58:02Z</time>
      </trkpt>
      <trkpt lat="47.1666" lon="5.95016">
        <ele>319</ele>
        <time>2021-08-17T11:58:03Z</time>
      </trkpt>
      <trkpt lat="47.16667" lon="5.95003">
        <ele>317.8</ele>
        <time>2021-08-17T11:58:06Z</time>
      </trkpt>
      <trkpt lat="47.16673" lon="5.94991">
        <ele>317.4</ele>
        <time>2021-08-17T11:58:07Z</time>
      </trkpt>
      <trkpt lat="47.16679" lon="5.94978">
        <ele>316.6</ele>
        <time>2021-08-17T11:58:08Z</time>
      </trkpt>
      <trkpt lat="47.1669" lon="5.94958">
        <ele>315.4</ele>
        <time>2021-08-17T11:58:10Z</time>
      </trkpt>
      <trkpt lat="47.16694" lon="5.94951">
        <ele>315</ele>
        <time>2021-08-17T11:58:11Z</time>
      </trkpt>
      <trkpt lat="47.16698" lon="5.94945">
        <ele>314.2</ele>
        <time>2021-08-17T11:58:12Z</time>
      </trkpt>
      <trkpt lat="47.16715" lon="5.94919">
        <ele>312</ele>
        <time>2021-08-17T11:58:14Z</time>
      </trkpt>
      <trkpt lat="47.16728" lon="5.949">
        <ele>310.2</ele>
        <time>2021-08-17T11:58:16Z</time>
      </trkpt>
      <trkpt lat="47.16734" lon="5.94892">
        <ele>308.8</ele>
        <time>2021-08-17T11:58:17Z</time>
      </trkpt>
      <trkpt lat="47.1674" lon="5.94885">
        <ele>307.4</ele>
        <time>2021-08-17T11:58:19Z</time>
      </trkpt>
      <trkpt lat="47.16751" lon="5.94872">
        <ele>307.2</ele>
        <time>2021-08-17T11:58:20Z</time>
      </trkpt>
      <trkpt lat="47.16755" lon="5.9487">
        <ele>306.6</ele>
        <time>2021-08-17T11:58:21Z</time>
      </trkpt>
      <trkpt lat="47.1676" lon="5.94872">
        <ele>306.6</ele>
        <time>2021-08-17T11:58:22Z</time>
      </trkpt>
      <trkpt lat="47.16764" lon="5.94876">
        <ele>306.4</ele>
        <time>2021-08-17T11:58:23Z</time>
      </trkpt>
      <trkpt lat="47.16768" lon="5.94879">
        <ele>306.4</ele>
        <time>2021-08-17T11:58:24Z</time>
      </trkpt>
      <trkpt lat="47.16772" lon="5.9488">
        <ele>306.4</ele>
        <time>2021-08-17T11:58:25Z</time>
      </trkpt>
      <trkpt lat="47.16777" lon="5.94879">
        <ele>306.4</ele>
        <time>2021-08-17T11:58:26Z</time>
      </trkpt>
      <trkpt lat="47.1678" lon="5.94877">
        <ele>306.6</ele>
        <time>2021-08-17T11:58:27Z</time>
      </trkpt>
      <trkpt lat="47.16783" lon="5.94874">
        <ele>306.6</ele>
        <time>2021-08-17T11:58:28Z</time>
      </trkpt>
      <trkpt lat="47.16786" lon="5.94872">
        <ele>306.8</ele>
        <time>2021-08-17T11:58:29Z</time>
      </trkpt>
      <trkpt lat="47.16789" lon="5.9487">
        <ele>306.8</ele>
        <time>2021-08-17T11:58:30Z</time>
      </trkpt>
      <trkpt lat="47.16792" lon="5.94869">
        <ele>307</ele>
        <time>2021-08-17T11:58:31Z</time>
      </trkpt>
      <trkpt lat="47.16794" lon="5.94868">
        <ele>307</ele>
        <time>2021-08-17T11:58:32Z</time>
      </trkpt>
      <trkpt lat="47.16797" lon="5.94867">
        <ele>307.2</ele>
        <time>2021-08-17T11:58:33Z</time>
      </trkpt>
      <trkpt lat="47.16799" lon="5.94866">
        <ele>307.4</ele>
        <time>2021-08-17T11:58:34Z</time>
      </trkpt>
      <trkpt lat="47.16801" lon="5.94865">
        <ele>307.8</ele>
        <time>2021-08-17T11:58:35Z</time>
      </trkpt>
      <trkpt lat="47.16804" lon="5.94864">
        <ele>308</ele>
        <time>2021-08-17T11:58:36Z</time>
      </trkpt>
      <trkpt lat="47.16806" lon="5.94863">
        <ele>308.4</ele>
        <time>2021-08-17T11:58:37Z</time>
      </trkpt>
      <trkpt lat="47.16809" lon="5.94862">
        <ele>308.4</ele>
        <time>2021-08-17T11:58:38Z</time>
      </trkpt>
      <trkpt lat="47.16813" lon="5.94859">
        <ele>308.8</ele>
        <time>2021-08-17T11:58:40Z</time>
      </trkpt>
      <trkpt lat="47.16816" lon="5.94857">
        <ele>309</ele>
        <time>2021-08-17T11:58:41Z</time>
      </trkpt>
      <trkpt lat="47.16818" lon="5.94855">
        <ele>309.4</ele>
        <time>2021-08-17T11:58:42Z</time>
      </trkpt>
      <trkpt lat="47.1682" lon="5.94854">
        <ele>309.4</ele>
        <time>2021-08-17T11:58:43Z</time>
      </trkpt>
      <trkpt lat="47.16823" lon="5.94852">
        <ele>309.6</ele>
        <time>2021-08-17T11:58:44Z</time>
      </trkpt>
      <trkpt lat="47.16831" lon="5.94845">
        <ele>310.2</ele>
        <time>2021-08-17T11:58:48Z</time>
      </trkpt>
      <trkpt lat="47.16833" lon="5.94842">
        <ele>310.4</ele>
        <time>2021-08-17T11:58:49Z</time>
      </trkpt>
      <trkpt lat="47.16835" lon="5.9484">
        <ele>310.6</ele>
        <time>2021-08-17T11:58:50Z</time>
      </trkpt>
      <trkpt lat="47.16843" lon="5.94829">
        <ele>311</ele>
        <time>2021-08-17T11:58:54Z</time>
      </trkpt>
      <trkpt lat="47.16849" lon="5.94823">
        <ele>311.4</ele>
        <time>2021-08-17T11:58:57Z</time>
      </trkpt>
      <trkpt lat="47.1685" lon="5.94822">
        <ele>311.8</ele>
        <time>2021-08-17T11:58:58Z</time>
      </trkpt>
      <trkpt lat="47.16852" lon="5.94822">
        <ele>311.8</ele>
        <time>2021-08-17T11:58:59Z</time>
      </trkpt>
      <trkpt lat="47.16854" lon="5.94823">
        <ele>312.2</ele>
        <time>2021-08-17T11:59:00Z</time>
      </trkpt>
      <trkpt lat="47.16856" lon="5.94824">
        <ele>312.2</ele>
        <time>2021-08-17T11:59:01Z</time>
      </trkpt>
      <trkpt lat="47.16859" lon="5.94826">
        <ele>312.4</ele>
        <time>2021-08-17T11:59:02Z</time>
      </trkpt>
      <trkpt lat="47.16862" lon="5.94828">
        <ele>312.4</ele>
        <time>2021-08-17T11:59:03Z</time>
      </trkpt>
      <trkpt lat="47.16864" lon="5.9483">
        <ele>312.6</ele>
        <time>2021-08-17T11:59:04Z</time>
      </trkpt>
      <trkpt lat="47.16867" lon="5.94832">
        <ele>312.8</ele>
        <time>2021-08-17T11:59:05Z</time>
      </trkpt>
      <trkpt lat="47.1687" lon="5.94834">
        <ele>312.8</ele>
        <time>2021-08-17T11:59:06Z</time>
      </trkpt>
      <trkpt lat="47.16873" lon="5.94837">
        <ele>313</ele>
        <time>2021-08-17T11:59:07Z</time>
      </trkpt>
      <trkpt lat="47.16876" lon="5.94839">
        <ele>313</ele>
        <time>2021-08-17T11:59:08Z</time>
      </trkpt>
      <trkpt lat="47.16879" lon="5.94842">
        <ele>313.2</ele>
        <time>2021-08-17T11:59:09Z</time>
      </trkpt>
      <trkpt lat="47.16882" lon="5.94843">
        <ele>313.2</ele>
        <time>2021-08-17T11:59:10Z</time>
      </trkpt>
      <trkpt lat="47.16884" lon="5.94845">
        <ele>313.4</ele>
        <time>2021-08-17T11:59:11Z</time>
      </trkpt>
      <trkpt lat="47.16887" lon="5.94845">
        <ele>313.4</ele>
        <time>2021-08-17T11:59:12Z</time>
      </trkpt>
      <trkpt lat="47.1689" lon="5.94844">
        <ele>313.4</ele>
        <time>2021-08-17T11:59:13Z</time>
      </trkpt>
      <trkpt lat="47.16892" lon="5.94842">
        <ele>313.4</ele>
        <time>2021-08-17T11:59:14Z</time>
      </trkpt>
      <trkpt lat="47.16894" lon="5.9484">
        <ele>313.4</ele>
        <time>2021-08-17T11:59:15Z</time>
      </trkpt>
      <trkpt lat="47.16896" lon="5.94838">
        <ele>313.6</ele>
        <time>2021-08-17T11:59:16Z</time>
      </trkpt>
      <trkpt lat="47.16898" lon="5.94836">
        <ele>313.6</ele>
        <time>2021-08-17T11:59:17Z</time>
      </trkpt>
      <trkpt lat="47.16899" lon="5.94833">
        <ele>313.8</ele>
        <time>2021-08-17T11:59:18Z</time>
      </trkpt>
      <trkpt lat="47.16901" lon="5.9483">
        <ele>313.8</ele>
        <time>2021-08-17T11:59:19Z</time>
      </trkpt>
      <trkpt lat="47.16903" lon="5.94828">
        <ele>313.8</ele>
        <time>2021-08-17T11:59:20Z</time>
      </trkpt>
      <trkpt lat="47.16905" lon="5.94824">
        <ele>313.8</ele>
        <time>2021-08-17T11:59:21Z</time>
      </trkpt>
      <trkpt lat="47.16907" lon="5.94821">
        <ele>314</ele>
        <time>2021-08-17T11:59:22Z</time>
      </trkpt>
      <trkpt lat="47.16909" lon="5.94819">
        <ele>314</ele>
        <time>2021-08-17T11:59:23Z</time>
      </trkpt>
      <trkpt lat="47.16912" lon="5.94815">
        <ele>314</ele>
        <time>2021-08-17T11:59:24Z</time>
      </trkpt>
      <trkpt lat="47.16914" lon="5.94811">
        <ele>314</ele>
        <time>2021-08-17T11:59:25Z</time>
      </trkpt>
      <trkpt lat="47.16916" lon="5.94807">
        <ele>314</ele>
        <time>2021-08-17T11:59:26Z</time>
      </trkpt>
      <trkpt lat="47.16921" lon="5.94793">
        <ele>314.2</ele>
        <time>2021-08-17T11:59:28Z</time>
      </trkpt>
      <trkpt lat="47.16923" lon="5.94788">
        <ele>314.2</ele>
        <time>2021-08-17T11:59:29Z</time>
      </trkpt>
      <trkpt lat="47.16925" lon="5.94782">
        <ele>314.2</ele>
        <time>2021-08-17T11:59:30Z</time>
      </trkpt>
      <trkpt lat="47.1693" lon="5.94771">
        <ele>314</ele>
        <time>2021-08-17T11:59:31Z</time>
      </trkpt>
      <trkpt lat="47.16942" lon="5.94751">
        <ele>313</ele>
        <time>2021-08-17T11:59:34Z</time>
      </trkpt>
      <trkpt lat="47.16946" lon="5.94743">
        <ele>312.8</ele>
        <time>2021-08-17T11:59:35Z</time>
      </trkpt>
      <trkpt lat="47.16954" lon="5.94728">
        <ele>312.2</ele>
        <time>2021-08-17T11:59:37Z</time>
      </trkpt>
      <trkpt lat="47.16957" lon="5.9472">
        <ele>311.6</ele>
        <time>2021-08-17T11:59:38Z</time>
      </trkpt>
      <trkpt lat="47.16968" lon="5.94696">
        <ele>310.4</ele>
        <time>2021-08-17T11:59:41Z</time>
      </trkpt>
      <trkpt lat="47.16976" lon="5.94683">
        <ele>309.4</ele>
        <time>2021-08-17T11:59:43Z</time>
      </trkpt>
      <trkpt lat="47.16979" lon="5.94678">
        <ele>309</ele>
        <time>2021-08-17T11:59:44Z</time>
      </trkpt>
      <trkpt lat="47.16981" lon="5.94674">
        <ele>308.8</ele>
        <time>2021-08-17T11:59:45Z</time>
      </trkpt>
      <trkpt lat="47.16983" lon="5.94671">
        <ele>308.4</ele>
        <time>2021-08-17T11:59:46Z</time>
      </trkpt>
      <trkpt lat="47.16985" lon="5.94668">
        <ele>307.6</ele>
        <time>2021-08-17T11:59:47Z</time>
      </trkpt>
      <trkpt lat="47.16987" lon="5.94666">
        <ele>307.4</ele>
        <time>2021-08-17T11:59:48Z</time>
      </trkpt>
      <trkpt lat="47.16988" lon="5.94664">
        <ele>306.8</ele>
        <time>2021-08-17T11:59:49Z</time>
      </trkpt>
      <trkpt lat="47.16989" lon="5.94662">
        <ele>306.2</ele>
        <time>2021-08-17T11:59:50Z</time>
      </trkpt>
      <trkpt lat="47.1699" lon="5.9466">
        <ele>305.8</ele>
        <time>2021-08-17T11:59:51Z</time>
      </trkpt>
      <trkpt lat="47.16993" lon="5.94657">
        <ele>305.4</ele>
        <time>2021-08-17T11:59:52Z</time>
      </trkpt>
      <trkpt lat="47.16999" lon="5.94648">
        <ele>304.8</ele>
        <time>2021-08-17T11:59:54Z</time>
      </trkpt>
      <trkpt lat="47.17015" lon="5.94634">
        <ele>303.2</ele>
        <time>2021-08-17T11:59:58Z</time>
      </trkpt>
      <trkpt lat="47.17022" lon="5.94628">
        <ele>302.6</ele>
        <time>2021-08-17T12:00:00Z</time>
      </trkpt>
      <trkpt lat="47.17025" lon="5.94626">
        <ele>301.2</ele>
        <time>2021-08-17T12:00:01Z</time>
      </trkpt>
      <trkpt lat="47.17029" lon="5.94625">
        <ele>300.6</ele>
        <time>2021-08-17T12:00:02Z</time>
      </trkpt>
      <trkpt lat="47.17034" lon="5.94625">
        <ele>299.8</ele>
        <time>2021-08-17T12:00:03Z</time>
      </trkpt>
      <trkpt lat="47.17039" lon="5.94625">
        <ele>299.2</ele>
        <time>2021-08-17T12:00:04Z</time>
      </trkpt>
      <trkpt lat="47.17046" lon="5.94624">
        <ele>298.4</ele>
        <time>2021-08-17T12:00:05Z</time>
      </trkpt>
      <trkpt lat="47.17064" lon="5.94624">
        <ele>297.2</ele>
        <time>2021-08-17T12:00:08Z</time>
      </trkpt>
      <trkpt lat="47.17078" lon="5.94622">
        <ele>294.6</ele>
        <time>2021-08-17T12:00:10Z</time>
      </trkpt>
      <trkpt lat="47.17092" lon="5.94622">
        <ele>293.2</ele>
        <time>2021-08-17T12:00:12Z</time>
      </trkpt>
      <trkpt lat="47.17108" lon="5.94622">
        <ele>292.2</ele>
        <time>2021-08-17T12:00:14Z</time>
      </trkpt>
      <trkpt lat="47.17117" lon="5.94625">
        <ele>291</ele>
        <time>2021-08-17T12:00:15Z</time>
      </trkpt>
      <trkpt lat="47.17136" lon="5.94632">
        <ele>288.8</ele>
        <time>2021-08-17T12:00:17Z</time>
      </trkpt>
      <trkpt lat="47.17146" lon="5.94637">
        <ele>288</ele>
        <time>2021-08-17T12:00:18Z</time>
      </trkpt>
      <trkpt lat="47.17156" lon="5.94643">
        <ele>286.8</ele>
        <time>2021-08-17T12:00:19Z</time>
      </trkpt>
      <trkpt lat="47.17173" lon="5.94654">
        <ele>284.2</ele>
        <time>2021-08-17T12:00:21Z</time>
      </trkpt>
      <trkpt lat="47.17181" lon="5.94659">
        <ele>283</ele>
        <time>2021-08-17T12:00:22Z</time>
      </trkpt>
      <trkpt lat="47.17189" lon="5.94664">
        <ele>281.4</ele>
        <time>2021-08-17T12:00:23Z</time>
      </trkpt>
      <trkpt lat="47.17196" lon="5.94668">
        <ele>279.2</ele>
        <time>2021-08-17T12:00:24Z</time>
      </trkpt>
      <trkpt lat="47.17204" lon="5.94671">
        <ele>278.4</ele>
        <time>2021-08-17T12:00:25Z</time>
      </trkpt>
      <trkpt lat="47.17212" lon="5.94673">
        <ele>277.2</ele>
        <time>2021-08-17T12:00:26Z</time>
      </trkpt>
      <trkpt lat="47.17218" lon="5.94675">
        <ele>276.8</ele>
        <time>2021-08-17T12:00:27Z</time>
      </trkpt>
      <trkpt lat="47.17224" lon="5.94676">
        <ele>275.4</ele>
        <time>2021-08-17T12:00:28Z</time>
      </trkpt>
      <trkpt lat="47.17229" lon="5.94677">
        <ele>274.8</ele>
        <time>2021-08-17T12:00:29Z</time>
      </trkpt>
      <trkpt lat="47.17234" lon="5.9468">
        <ele>273.4</ele>
        <time>2021-08-17T12:00:30Z</time>
      </trkpt>
      <trkpt lat="47.17238" lon="5.94684">
        <ele>272.6</ele>
        <time>2021-08-17T12:00:31Z</time>
      </trkpt>
      <trkpt lat="47.17259" lon="5.94703">
        <ele>270.8</ele>
        <time>2021-08-17T12:00:35Z</time>
      </trkpt>
      <trkpt lat="47.17265" lon="5.94707">
        <ele>270.4</ele>
        <time>2021-08-17T12:00:36Z</time>
      </trkpt>
      <trkpt lat="47.17279" lon="5.94714">
        <ele>269.4</ele>
        <time>2021-08-17T12:00:38Z</time>
      </trkpt>
      <trkpt lat="47.17286" lon="5.94718">
        <ele>269.2</ele>
        <time>2021-08-17T12:00:39Z</time>
      </trkpt>
      <trkpt lat="47.17291" lon="5.94721">
        <ele>268.2</ele>
        <time>2021-08-17T12:00:40Z</time>
      </trkpt>
      <trkpt lat="47.17297" lon="5.94724">
        <ele>267.8</ele>
        <time>2021-08-17T12:00:41Z</time>
      </trkpt>
      <trkpt lat="47.17308" lon="5.9473">
        <ele>267</ele>
        <time>2021-08-17T12:00:42Z</time>
      </trkpt>
      <trkpt lat="47.17325" lon="5.94737">
        <ele>265.8</ele>
        <time>2021-08-17T12:00:44Z</time>
      </trkpt>
      <trkpt lat="47.17342" lon="5.94743">
        <ele>264.8</ele>
        <time>2021-08-17T12:00:46Z</time>
      </trkpt>
      <trkpt lat="47.1735" lon="5.94747">
        <ele>264.4</ele>
        <time>2021-08-17T12:00:47Z</time>
      </trkpt>
      <trkpt lat="47.17357" lon="5.9475">
        <ele>263.8</ele>
        <time>2021-08-17T12:00:48Z</time>
      </trkpt>
      <trkpt lat="47.17365" lon="5.94752">
        <ele>263.4</ele>
        <time>2021-08-17T12:00:49Z</time>
      </trkpt>
      <trkpt lat="47.17372" lon="5.94754">
        <ele>263.2</ele>
        <time>2021-08-17T12:00:50Z</time>
      </trkpt>
      <trkpt lat="47.17379" lon="5.94756">
        <ele>262.6</ele>
        <time>2021-08-17T12:00:51Z</time>
      </trkpt>
      <trkpt lat="47.17385" lon="5.9476">
        <ele>262.4</ele>
        <time>2021-08-17T12:00:52Z</time>
      </trkpt>
      <trkpt lat="47.1739" lon="5.94763">
        <ele>262.2</ele>
        <time>2021-08-17T12:00:53Z</time>
      </trkpt>
      <trkpt lat="47.17394" lon="5.94765">
        <ele>262</ele>
        <time>2021-08-17T12:00:54Z</time>
      </trkpt>
      <trkpt lat="47.17396" lon="5.94766">
        <ele>262</ele>
        <time>2021-08-17T12:00:55Z</time>
      </trkpt>
      <trkpt lat="47.17399" lon="5.94763">
        <ele>262</ele>
        <time>2021-08-17T12:00:57Z</time>
      </trkpt>
      <trkpt lat="47.174" lon="5.94761">
        <ele>262.2</ele>
        <time>2021-08-17T12:00:58Z</time>
      </trkpt>
      <trkpt lat="47.17401" lon="5.94758">
        <ele>262.2</ele>
        <time>2021-08-17T12:00:59Z</time>
      </trkpt>
      <trkpt lat="47.17407" lon="5.94746">
        <ele>262.6</ele>
        <time>2021-08-17T12:01:03Z</time>
      </trkpt>
      <trkpt lat="47.17409" lon="5.94743">
        <ele>262.6</ele>
        <time>2021-08-17T12:01:04Z</time>
      </trkpt>
      <trkpt lat="47.17419" lon="5.94739">
        <ele>262.8</ele>
        <time>2021-08-17T12:01:07Z</time>
      </trkpt>
      <trkpt lat="47.17422" lon="5.94739">
        <ele>262.8</ele>
        <time>2021-08-17T12:01:08Z</time>
      </trkpt>
      <trkpt lat="47.17425" lon="5.94739">
        <ele>262.8</ele>
        <time>2021-08-17T12:01:09Z</time>
      </trkpt>
      <trkpt lat="47.17429" lon="5.94741">
        <ele>262.8</ele>
        <time>2021-08-17T12:01:10Z</time>
      </trkpt>
      <trkpt lat="47.17433" lon="5.94744">
        <ele>263</ele>
        <time>2021-08-17T12:01:11Z</time>
      </trkpt>
      <trkpt lat="47.17436" lon="5.94746">
        <ele>263</ele>
        <time>2021-08-17T12:01:12Z</time>
      </trkpt>
      <trkpt lat="47.17458" lon="5.94773">
        <ele>262.8</ele>
        <time>2021-08-17T12:01:20Z</time>
      </trkpt>
      <trkpt lat="47.17475" lon="5.94785">
        <ele>262.4</ele>
        <time>2021-08-17T12:01:25Z</time>
      </trkpt>
      <trkpt lat="47.17483" lon="5.94784">
        <ele>262.4</ele>
        <time>2021-08-17T12:01:27Z</time>
      </trkpt>
      <trkpt lat="47.17487" lon="5.94783">
        <ele>262.4</ele>
        <time>2021-08-17T12:01:28Z</time>
      </trkpt>
      <trkpt lat="47.17491" lon="5.94782">
        <ele>262.4</ele>
        <time>2021-08-17T12:01:29Z</time>
      </trkpt>
      <trkpt lat="47.17494" lon="5.9478">
        <ele>262.4</ele>
        <time>2021-08-17T12:01:30Z</time>
      </trkpt>
      <trkpt lat="47.17497" lon="5.94778">
        <ele>262.4</ele>
        <time>2021-08-17T12:01:31Z</time>
      </trkpt>
      <trkpt lat="47.1751" lon="5.94765">
        <ele>262.2</ele>
        <time>2021-08-17T12:01:35Z</time>
      </trkpt>
      <trkpt lat="47.17513" lon="5.94762">
        <ele>262.2</ele>
        <time>2021-08-17T12:01:36Z</time>
      </trkpt>
      <trkpt lat="47.17517" lon="5.94758">
        <ele>262.2</ele>
        <time>2021-08-17T12:01:37Z</time>
      </trkpt>
      <trkpt lat="47.17521" lon="5.94754">
        <ele>262</ele>
        <time>2021-08-17T12:01:38Z</time>
      </trkpt>
      <trkpt lat="47.17525" lon="5.94751">
        <ele>262</ele>
        <time>2021-08-17T12:01:39Z</time>
      </trkpt>
      <trkpt lat="47.17545" lon="5.94736">
        <ele>261.4</ele>
        <time>2021-08-17T12:01:44Z</time>
      </trkpt>
      <trkpt lat="47.17556" lon="5.94727">
        <ele>261.2</ele>
        <time>2021-08-17T12:01:45Z</time>
      </trkpt>
      <trkpt lat="47.17562" lon="5.94722">
        <ele>260.8</ele>
        <time>2021-08-17T12:01:46Z</time>
      </trkpt>
      <trkpt lat="47.17567" lon="5.94718">
        <ele>260.8</ele>
        <time>2021-08-17T12:01:47Z</time>
      </trkpt>
      <trkpt lat="47.17588" lon="5.94705">
        <ele>260</ele>
        <time>2021-08-17T12:01:50Z</time>
      </trkpt>
      <trkpt lat="47.17596" lon="5.94701">
        <ele>259.8</ele>
        <time>2021-08-17T12:01:51Z</time>
      </trkpt>
      <trkpt lat="47.17615" lon="5.94689">
        <ele>259.2</ele>
        <time>2021-08-17T12:01:54Z</time>
      </trkpt>
      <trkpt lat="47.17622" lon="5.94683">
        <ele>259</ele>
        <time>2021-08-17T12:01:55Z</time>
      </trkpt>
      <trkpt lat="47.17629" lon="5.94676">
        <ele>258.6</ele>
        <time>2021-08-17T12:01:56Z</time>
      </trkpt>
      <trkpt lat="47.17647" lon="5.94651">
        <ele>257.4</ele>
        <time>2021-08-17T12:01:59Z</time>
      </trkpt>
      <trkpt lat="47.17657" lon="5.94637">
        <ele>257</ele>
        <time>2021-08-17T12:02:01Z</time>
      </trkpt>
      <trkpt lat="47.17676" lon="5.94619">
        <ele>256.4</ele>
        <time>2021-08-17T12:02:04Z</time>
      </trkpt>
      <trkpt lat="47.17692" lon="5.94603">
        <ele>255.4</ele>
        <time>2021-08-17T12:02:07Z</time>
      </trkpt>
      <trkpt lat="47.17694" lon="5.94597">
        <ele>254.6</ele>
        <time>2021-08-17T12:02:08Z</time>
      </trkpt>
      <trkpt lat="47.17696" lon="5.9459">
        <ele>254.4</ele>
        <time>2021-08-17T12:02:09Z</time>
      </trkpt>
      <trkpt lat="47.17695" lon="5.94582">
        <ele>253.8</ele>
        <time>2021-08-17T12:02:10Z</time>
      </trkpt>
      <trkpt lat="47.17694" lon="5.94575">
        <ele>253.4</ele>
        <time>2021-08-17T12:02:11Z</time>
      </trkpt>
      <trkpt lat="47.17691" lon="5.94568">
        <ele>253.4</ele>
        <time>2021-08-17T12:02:12Z</time>
      </trkpt>
      <trkpt lat="47.17689" lon="5.9456">
        <ele>253.2</ele>
        <time>2021-08-17T12:02:13Z</time>
      </trkpt>
      <trkpt lat="47.17686" lon="5.94552">
        <ele>253.2</ele>
        <time>2021-08-17T12:02:14Z</time>
      </trkpt>
      <trkpt lat="47.17682" lon="5.94543">
        <ele>253</ele>
        <time>2021-08-17T12:02:15Z</time>
      </trkpt>
      <trkpt lat="47.17675" lon="5.94522">
        <ele>252.4</ele>
        <time>2021-08-17T12:02:18Z</time>
      </trkpt>
      <trkpt lat="47.17671" lon="5.94514">
        <ele>252.2</ele>
        <time>2021-08-17T12:02:19Z</time>
      </trkpt>
      <trkpt lat="47.17664" lon="5.94498">
        <ele>252</ele>
        <time>2021-08-17T12:02:21Z</time>
      </trkpt>
      <trkpt lat="47.17658" lon="5.9448">
        <ele>251.6</ele>
        <time>2021-08-17T12:02:23Z</time>
      </trkpt>
      <trkpt lat="47.17655" lon="5.94472">
        <ele>251.2</ele>
        <time>2021-08-17T12:02:24Z</time>
      </trkpt>
      <trkpt lat="47.17642" lon="5.94441">
        <ele>250</ele>
        <time>2021-08-17T12:02:28Z</time>
      </trkpt>
      <trkpt lat="47.17626" lon="5.9441">
        <ele>249.2</ele>
        <time>2021-08-17T12:02:32Z</time>
      </trkpt>
      <trkpt lat="47.17622" lon="5.94402">
        <ele>249</ele>
        <time>2021-08-17T12:02:33Z</time>
      </trkpt>
      <trkpt lat="47.17617" lon="5.94389">
        <ele>248.6</ele>
        <time>2021-08-17T12:02:34Z</time>
      </trkpt>
      <trkpt lat="47.17611" lon="5.94377">
        <ele>247.8</ele>
        <time>2021-08-17T12:02:36Z</time>
      </trkpt>
      <trkpt lat="47.17589" lon="5.94325">
        <ele>246.4</ele>
        <time>2021-08-17T12:02:42Z</time>
      </trkpt>
      <trkpt lat="47.17577" lon="5.94295">
        <ele>245.4</ele>
        <time>2021-08-17T12:02:45Z</time>
      </trkpt>
      <trkpt lat="47.17562" lon="5.94262">
        <ele>243.8</ele>
        <time>2021-08-17T12:02:49Z</time>
      </trkpt>
      <trkpt lat="47.17558" lon="5.94255">
        <ele>243.4</ele>
        <time>2021-08-17T12:02:50Z</time>
      </trkpt>
      <trkpt lat="47.17555" lon="5.94247">
        <ele>243</ele>
        <time>2021-08-17T12:02:51Z</time>
      </trkpt>
      <trkpt lat="47.17552" lon="5.94237">
        <ele>242.6</ele>
        <time>2021-08-17T12:02:52Z</time>
      </trkpt>
      <trkpt lat="47.17552" lon="5.94229">
        <ele>242.4</ele>
        <time>2021-08-17T12:02:53Z</time>
      </trkpt>
      <trkpt lat="47.17552" lon="5.94223">
        <ele>242.2</ele>
        <time>2021-08-17T12:02:54Z</time>
      </trkpt>
      <trkpt lat="47.17551" lon="5.94216">
        <ele>242</ele>
        <time>2021-08-17T12:02:55Z</time>
      </trkpt>
      <trkpt lat="47.1755" lon="5.94209">
        <ele>241.8</ele>
        <time>2021-08-17T12:02:56Z</time>
      </trkpt>
      <trkpt lat="47.17546" lon="5.94203">
        <ele>241.8</ele>
        <time>2021-08-17T12:02:57Z</time>
      </trkpt>
      <trkpt lat="47.17538" lon="5.94193">
        <ele>241.6</ele>
        <time>2021-08-17T12:02:59Z</time>
      </trkpt>
      <trkpt lat="47.17536" lon="5.9419">
        <ele>240.8</ele>
        <time>2021-08-17T12:03:00Z</time>
      </trkpt>
      <trkpt lat="47.17533" lon="5.94185">
        <ele>240.4</ele>
        <time>2021-08-17T12:03:01Z</time>
      </trkpt>
      <trkpt lat="47.17529" lon="5.94179">
        <ele>240.2</ele>
        <time>2021-08-17T12:03:02Z</time>
      </trkpt>
      <trkpt lat="47.17526" lon="5.94175">
        <ele>240</ele>
        <time>2021-08-17T12:03:03Z</time>
      </trkpt>
      <trkpt lat="47.17524" lon="5.94171">
        <ele>240</ele>
        <time>2021-08-17T12:03:04Z</time>
      </trkpt>
      <trkpt lat="47.17522" lon="5.94166">
        <ele>240</ele>
        <time>2021-08-17T12:03:05Z</time>
      </trkpt>
      <trkpt lat="47.17518" lon="5.94159">
        <ele>240</ele>
        <time>2021-08-17T12:03:06Z</time>
      </trkpt>
      <trkpt lat="47.17516" lon="5.94154">
        <ele>240</ele>
        <time>2021-08-17T12:03:07Z</time>
      </trkpt>
      <trkpt lat="47.17513" lon="5.9415">
        <ele>240</ele>
        <time>2021-08-17T12:03:08Z</time>
      </trkpt>
      <trkpt lat="47.1751" lon="5.94144">
        <ele>240</ele>
        <time>2021-08-17T12:03:09Z</time>
      </trkpt>
      <trkpt lat="47.17504" lon="5.94134">
        <ele>240</ele>
        <time>2021-08-17T12:03:11Z</time>
      </trkpt>
      <trkpt lat="47.17501" lon="5.9413">
        <ele>240</ele>
        <time>2021-08-17T12:03:12Z</time>
      </trkpt>
      <trkpt lat="47.17499" lon="5.94125">
        <ele>240</ele>
        <time>2021-08-17T12:03:13Z</time>
      </trkpt>
      <trkpt lat="47.17493" lon="5.94115">
        <ele>240</ele>
        <time>2021-08-17T12:03:15Z</time>
      </trkpt>
      <trkpt lat="47.17485" lon="5.94099">
        <ele>240</ele>
        <time>2021-08-17T12:03:18Z</time>
      </trkpt>
      <trkpt lat="47.17468" lon="5.94056">
        <ele>239.8</ele>
        <time>2021-08-17T12:03:25Z</time>
      </trkpt>
      <trkpt lat="47.17466" lon="5.94051">
        <ele>240</ele>
        <time>2021-08-17T12:03:26Z</time>
      </trkpt>
      <trkpt lat="47.17464" lon="5.94045">
        <ele>240</ele>
        <time>2021-08-17T12:03:27Z</time>
      </trkpt>
      <trkpt lat="47.17453" lon="5.94016">
        <ele>240</ele>
        <time>2021-08-17T12:03:32Z</time>
      </trkpt>
      <trkpt lat="47.1745" lon="5.9401">
        <ele>240</ele>
        <time>2021-08-17T12:03:33Z</time>
      </trkpt>
      <trkpt lat="47.17448" lon="5.94004">
        <ele>240</ele>
        <time>2021-08-17T12:03:34Z</time>
      </trkpt>
      <trkpt lat="47.17446" lon="5.93998">
        <ele>240</ele>
        <time>2021-08-17T12:03:35Z</time>
      </trkpt>
      <trkpt lat="47.17442" lon="5.93983">
        <ele>240</ele>
        <time>2021-08-17T12:03:37Z</time>
      </trkpt>
      <trkpt lat="47.17437" lon="5.93964">
        <ele>240</ele>
        <time>2021-08-17T12:03:40Z</time>
      </trkpt>
      <trkpt lat="47.1742" lon="5.93898">
        <ele>240</ele>
        <time>2021-08-17T12:03:49Z</time>
      </trkpt>
      <trkpt lat="47.17402" lon="5.93825">
        <ele>239.2</ele>
        <time>2021-08-17T12:03:59Z</time>
      </trkpt>
      <trkpt lat="47.17388" lon="5.93755">
        <ele>239</ele>
        <time>2021-08-17T12:04:08Z</time>
      </trkpt>
      <trkpt lat="47.17386" lon="5.93747">
        <ele>238.8</ele>
        <time>2021-08-17T12:04:09Z</time>
      </trkpt>
      <trkpt lat="47.17371" lon="5.93679">
        <ele>238.6</ele>
        <time>2021-08-17T12:04:18Z</time>
      </trkpt>
      <trkpt lat="47.17368" lon="5.93672">
        <ele>238.6</ele>
        <time>2021-08-17T12:04:19Z</time>
      </trkpt>
      <trkpt lat="47.17366" lon="5.93664">
        <ele>238.6</ele>
        <time>2021-08-17T12:04:20Z</time>
      </trkpt>
      <trkpt lat="47.17364" lon="5.93659">
        <ele>238.6</ele>
        <time>2021-08-17T12:04:21Z</time>
      </trkpt>
      <trkpt lat="47.17362" lon="5.93652">
        <ele>238.6</ele>
        <time>2021-08-17T12:04:22Z</time>
      </trkpt>
      <trkpt lat="47.17359" lon="5.93646">
        <ele>238.6</ele>
        <time>2021-08-17T12:04:23Z</time>
      </trkpt>
      <trkpt lat="47.17357" lon="5.93639">
        <ele>238.6</ele>
        <time>2021-08-17T12:04:24Z</time>
      </trkpt>
      <trkpt lat="47.17354" lon="5.93632">
        <ele>238.6</ele>
        <time>2021-08-17T12:04:25Z</time>
      </trkpt>
      <trkpt lat="47.17337" lon="5.93585">
        <ele>238.4</ele>
        <time>2021-08-17T12:04:32Z</time>
      </trkpt>
      <trkpt lat="47.17308" lon="5.93511">
        <ele>238</ele>
        <time>2021-08-17T12:04:43Z</time>
      </trkpt>
      <trkpt lat="47.17304" lon="5.935">
        <ele>238</ele>
        <time>2021-08-17T12:04:45Z</time>
      </trkpt>
      <trkpt lat="47.17302" lon="5.93494">
        <ele>238</ele>
        <time>2021-08-17T12:04:46Z</time>
      </trkpt>
      <trkpt lat="47.173" lon="5.93486">
        <ele>238</ele>
        <time>2021-08-17T12:04:47Z</time>
      </trkpt>
      <trkpt lat="47.17298" lon="5.9348">
        <ele>238</ele>
        <time>2021-08-17T12:04:48Z</time>
      </trkpt>
      <trkpt lat="47.17294" lon="5.93467">
        <ele>238.2</ele>
        <time>2021-08-17T12:04:50Z</time>
      </trkpt>
      <trkpt lat="47.17291" lon="5.93461">
        <ele>238.2</ele>
        <time>2021-08-17T12:04:51Z</time>
      </trkpt>
      <trkpt lat="47.17288" lon="5.93453">
        <ele>238.4</ele>
        <time>2021-08-17T12:04:52Z</time>
      </trkpt>
      <trkpt lat="47.17273" lon="5.93417">
        <ele>239</ele>
        <time>2021-08-17T12:04:59Z</time>
      </trkpt>
      <trkpt lat="47.17269" lon="5.93406">
        <ele>239</ele>
        <time>2021-08-17T12:05:00Z</time>
      </trkpt>
      <trkpt lat="47.17267" lon="5.934">
        <ele>239.2</ele>
        <time>2021-08-17T12:05:01Z</time>
      </trkpt>
      <trkpt lat="47.17262" lon="5.93388">
        <ele>239.2</ele>
        <time>2021-08-17T12:05:03Z</time>
      </trkpt>
      <trkpt lat="47.1725" lon="5.93356">
        <ele>239.4</ele>
        <time>2021-08-17T12:05:08Z</time>
      </trkpt>
      <trkpt lat="47.17244" lon="5.93337">
        <ele>240</ele>
        <time>2021-08-17T12:05:12Z</time>
      </trkpt>
      <trkpt lat="47.1724" lon="5.93326">
        <ele>240</ele>
        <time>2021-08-17T12:05:13Z</time>
      </trkpt>
      <trkpt lat="47.17238" lon="5.93319">
        <ele>240</ele>
        <time>2021-08-17T12:05:14Z</time>
      </trkpt>
      <trkpt lat="47.1723" lon="5.93294">
        <ele>240</ele>
        <time>2021-08-17T12:05:18Z</time>
      </trkpt>
      <trkpt lat="47.17212" lon="5.93235">
        <ele>239.8</ele>
        <time>2021-08-17T12:05:27Z</time>
      </trkpt>
      <trkpt lat="47.17199" lon="5.93191">
        <ele>240</ele>
        <time>2021-08-17T12:05:34Z</time>
      </trkpt>
      <trkpt lat="47.17194" lon="5.93171">
        <ele>240.2</ele>
        <time>2021-08-17T12:05:37Z</time>
      </trkpt>
      <trkpt lat="47.17186" lon="5.93145">
        <ele>240.4</ele>
        <time>2021-08-17T12:05:41Z</time>
      </trkpt>
      <trkpt lat="47.17182" lon="5.93133">
        <ele>240.6</ele>
        <time>2021-08-17T12:05:43Z</time>
      </trkpt>
      <trkpt lat="47.17181" lon="5.93127">
        <ele>240.6</ele>
        <time>2021-08-17T12:05:44Z</time>
      </trkpt>
      <trkpt lat="47.17175" lon="5.93106">
        <ele>241</ele>
        <time>2021-08-17T12:05:47Z</time>
      </trkpt>
      <trkpt lat="47.17168" lon="5.93076">
        <ele>241</ele>
        <time>2021-08-17T12:05:52Z</time>
      </trkpt>
      <trkpt lat="47.17166" lon="5.9307">
        <ele>241</ele>
        <time>2021-08-17T12:05:53Z</time>
      </trkpt>
      <trkpt lat="47.17165" lon="5.93064">
        <ele>241.2</ele>
        <time>2021-08-17T12:05:54Z</time>
      </trkpt>
      <trkpt lat="47.17162" lon="5.93051">
        <ele>241.2</ele>
        <time>2021-08-17T12:05:56Z</time>
      </trkpt>
      <trkpt lat="47.17161" lon="5.93046">
        <ele>241.2</ele>
        <time>2021-08-17T12:05:57Z</time>
      </trkpt>
      <trkpt lat="47.17155" lon="5.93019">
        <ele>241.2</ele>
        <time>2021-08-17T12:06:01Z</time>
      </trkpt>
      <trkpt lat="47.17145" lon="5.9297">
        <ele>241.2</ele>
        <time>2021-08-17T12:06:08Z</time>
      </trkpt>
      <trkpt lat="47.17132" lon="5.92899">
        <ele>241.4</ele>
        <time>2021-08-17T12:06:18Z</time>
      </trkpt>
      <trkpt lat="47.17123" lon="5.92837">
        <ele>241.4</ele>
        <time>2021-08-17T12:06:26Z</time>
      </trkpt>
      <trkpt lat="47.17118" lon="5.92799">
        <ele>241.6</ele>
        <time>2021-08-17T12:06:31Z</time>
      </trkpt>
      <trkpt lat="47.17113" lon="5.92761">
        <ele>241.6</ele>
        <time>2021-08-17T12:06:36Z</time>
      </trkpt>
      <trkpt lat="47.17103" lon="5.92683">
        <ele>241.2</ele>
        <time>2021-08-17T12:06:46Z</time>
      </trkpt>
      <trkpt lat="47.17102" lon="5.92666">
        <ele>241</ele>
        <time>2021-08-17T12:06:48Z</time>
      </trkpt>
      <trkpt lat="47.17093" lon="5.92584">
        <ele>240.8</ele>
        <time>2021-08-17T12:06:58Z</time>
      </trkpt>
      <trkpt lat="47.17092" lon="5.92567">
        <ele>240.6</ele>
        <time>2021-08-17T12:07:00Z</time>
      </trkpt>
      <trkpt lat="47.17088" lon="5.92525">
        <ele>240.4</ele>
        <time>2021-08-17T12:07:05Z</time>
      </trkpt>
      <trkpt lat="47.17086" lon="5.92501">
        <ele>240.2</ele>
        <time>2021-08-17T12:07:08Z</time>
      </trkpt>
      <trkpt lat="47.17086" lon="5.92493">
        <ele>240.2</ele>
        <time>2021-08-17T12:07:09Z</time>
      </trkpt>
      <trkpt lat="47.17086" lon="5.92486">
        <ele>240.2</ele>
        <time>2021-08-17T12:07:10Z</time>
      </trkpt>
      <trkpt lat="47.17085" lon="5.92478">
        <ele>240.2</ele>
        <time>2021-08-17T12:07:11Z</time>
      </trkpt>
      <trkpt lat="47.17084" lon="5.92471">
        <ele>240.2</ele>
        <time>2021-08-17T12:07:12Z</time>
      </trkpt>
      <trkpt lat="47.17084" lon="5.92463">
        <ele>240.2</ele>
        <time>2021-08-17T12:07:13Z</time>
      </trkpt>
      <trkpt lat="47.17083" lon="5.92456">
        <ele>240.2</ele>
        <time>2021-08-17T12:07:14Z</time>
      </trkpt>
      <trkpt lat="47.17082" lon="5.92448">
        <ele>240.2</ele>
        <time>2021-08-17T12:07:15Z</time>
      </trkpt>
      <trkpt lat="47.17082" lon="5.92441">
        <ele>240.4</ele>
        <time>2021-08-17T12:07:16Z</time>
      </trkpt>
      <trkpt lat="47.17081" lon="5.92434">
        <ele>240.4</ele>
        <time>2021-08-17T12:07:17Z</time>
      </trkpt>
      <trkpt lat="47.17081" lon="5.92427">
        <ele>240.4</ele>
        <time>2021-08-17T12:07:18Z</time>
      </trkpt>
      <trkpt lat="47.1708" lon="5.9242">
        <ele>240.4</ele>
        <time>2021-08-17T12:07:19Z</time>
      </trkpt>
      <trkpt lat="47.1708" lon="5.92412">
        <ele>240.4</ele>
        <time>2021-08-17T12:07:20Z</time>
      </trkpt>
      <trkpt lat="47.1708" lon="5.92405">
        <ele>240.4</ele>
        <time>2021-08-17T12:07:21Z</time>
      </trkpt>
      <trkpt lat="47.17079" lon="5.92398">
        <ele>240.4</ele>
        <time>2021-08-17T12:07:22Z</time>
      </trkpt>
      <trkpt lat="47.17078" lon="5.92384">
        <ele>240.4</ele>
        <time>2021-08-17T12:07:24Z</time>
      </trkpt>
      <trkpt lat="47.17077" lon="5.92377">
        <ele>240.4</ele>
        <time>2021-08-17T12:07:25Z</time>
      </trkpt>
      <trkpt lat="47.17077" lon="5.92369">
        <ele>240.4</ele>
        <time>2021-08-17T12:07:26Z</time>
      </trkpt>
      <trkpt lat="47.17073" lon="5.92326">
        <ele>240.6</ele>
        <time>2021-08-17T12:07:32Z</time>
      </trkpt>
      <trkpt lat="47.1707" lon="5.92276">
        <ele>240.6</ele>
        <time>2021-08-17T12:07:39Z</time>
      </trkpt>
      <trkpt lat="47.17069" lon="5.92256">
        <ele>240.8</ele>
        <time>2021-08-17T12:07:42Z</time>
      </trkpt>
      <trkpt lat="47.17068" lon="5.92247">
        <ele>241</ele>
        <time>2021-08-17T12:07:43Z</time>
      </trkpt>
      <trkpt lat="47.17068" lon="5.92241">
        <ele>241</ele>
        <time>2021-08-17T12:07:44Z</time>
      </trkpt>
      <trkpt lat="47.17069" lon="5.9222">
        <ele>241.2</ele>
        <time>2021-08-17T12:07:47Z</time>
      </trkpt>
      <trkpt lat="47.17065" lon="5.92141">
        <ele>241</ele>
        <time>2021-08-17T12:07:58Z</time>
      </trkpt>
      <trkpt lat="47.17064" lon="5.92125">
        <ele>241</ele>
        <time>2021-08-17T12:08:00Z</time>
      </trkpt>
      <trkpt lat="47.17064" lon="5.9212">
        <ele>241</ele>
        <time>2021-08-17T12:08:01Z</time>
      </trkpt>
      <trkpt lat="47.17063" lon="5.92111">
        <ele>241</ele>
        <time>2021-08-17T12:08:02Z</time>
      </trkpt>
      <trkpt lat="47.17063" lon="5.92106">
        <ele>241</ele>
        <time>2021-08-17T12:08:03Z</time>
      </trkpt>
      <trkpt lat="47.17062" lon="5.92091">
        <ele>241.2</ele>
        <time>2021-08-17T12:08:05Z</time>
      </trkpt>
      <trkpt lat="47.17058" lon="5.92052">
        <ele>241</ele>
        <time>2021-08-17T12:08:11Z</time>
      </trkpt>
      <trkpt lat="47.17056" lon="5.92011">
        <ele>240.8</ele>
        <time>2021-08-17T12:08:16Z</time>
      </trkpt>
      <trkpt lat="47.17055" lon="5.92009">
        <ele>240.8</ele>
        <time>2021-08-17T12:08:17Z</time>
      </trkpt>
      <trkpt lat="47.17052" lon="5.92008">
        <ele>240.8</ele>
        <time>2021-08-17T12:08:18Z</time>
      </trkpt>
      <trkpt lat="47.1705" lon="5.92009">
        <ele>240.8</ele>
        <time>2021-08-17T12:08:19Z</time>
      </trkpt>
      <trkpt lat="47.17048" lon="5.9201">
        <ele>240.8</ele>
        <time>2021-08-17T12:08:20Z</time>
      </trkpt>
      <trkpt lat="47.17046" lon="5.92012">
        <ele>240.6</ele>
        <time>2021-08-17T12:08:21Z</time>
      </trkpt>
      <trkpt lat="47.17044" lon="5.92014">
        <ele>240.6</ele>
        <time>2021-08-17T12:08:22Z</time>
      </trkpt>
      <trkpt lat="47.1704" lon="5.92016">
        <ele>240.6</ele>
        <time>2021-08-17T12:08:23Z</time>
      </trkpt>
      <trkpt lat="47.1703" lon="5.92019">
        <ele>240.6</ele>
        <time>2021-08-17T12:08:26Z</time>
      </trkpt>
      <trkpt lat="47.17016" lon="5.92023">
        <ele>240.4</ele>
        <time>2021-08-17T12:08:30Z</time>
      </trkpt>
      <trkpt lat="47.17004" lon="5.92027">
        <ele>240.2</ele>
        <time>2021-08-17T12:08:33Z</time>
      </trkpt>
      <trkpt lat="47.16977" lon="5.92036">
        <ele>240.4</ele>
        <time>2021-08-17T12:08:40Z</time>
      </trkpt>
      <trkpt lat="47.16957" lon="5.92041">
        <ele>240.6</ele>
        <time>2021-08-17T12:08:45Z</time>
      </trkpt>
      <trkpt lat="47.16949" lon="5.92043">
        <ele>240.6</ele>
        <time>2021-08-17T12:08:47Z</time>
      </trkpt>
      <trkpt lat="47.1692" lon="5.92053">
        <ele>241</ele>
        <time>2021-08-17T12:08:54Z</time>
      </trkpt>
      <trkpt lat="47.16909" lon="5.92062">
        <ele>241.2</ele>
        <time>2021-08-17T12:08:57Z</time>
      </trkpt>
      <trkpt lat="47.16899" lon="5.92075">
        <ele>241.2</ele>
        <time>2021-08-17T12:09:00Z</time>
      </trkpt>
      <trkpt lat="47.16897" lon="5.92079">
        <ele>241.2</ele>
        <time>2021-08-17T12:09:01Z</time>
      </trkpt>
      <trkpt lat="47.16894" lon="5.92083">
        <ele>241.2</ele>
        <time>2021-08-17T12:09:02Z</time>
      </trkpt>
      <trkpt lat="47.16891" lon="5.92087">
        <ele>241.2</ele>
        <time>2021-08-17T12:09:03Z</time>
      </trkpt>
      <trkpt lat="47.16888" lon="5.92091">
        <ele>241.2</ele>
        <time>2021-08-17T12:09:04Z</time>
      </trkpt>
      <trkpt lat="47.16885" lon="5.92096">
        <ele>241.4</ele>
        <time>2021-08-17T12:09:05Z</time>
      </trkpt>
      <trkpt lat="47.16882" lon="5.921">
        <ele>241.4</ele>
        <time>2021-08-17T12:09:06Z</time>
      </trkpt>
      <trkpt lat="47.1688" lon="5.92104">
        <ele>241.2</ele>
        <time>2021-08-17T12:09:07Z</time>
      </trkpt>
      <trkpt lat="47.16877" lon="5.92109">
        <ele>241.2</ele>
        <time>2021-08-17T12:09:08Z</time>
      </trkpt>
      <trkpt lat="47.16875" lon="5.92113">
        <ele>241.4</ele>
        <time>2021-08-17T12:09:09Z</time>
      </trkpt>
      <trkpt lat="47.16861" lon="5.92151">
        <ele>241.8</ele>
        <time>2021-08-17T12:09:17Z</time>
      </trkpt>
      <trkpt lat="47.16857" lon="5.92167">
        <ele>241.8</ele>
        <time>2021-08-17T12:09:19Z</time>
      </trkpt>
      <trkpt lat="47.16855" lon="5.92172">
        <ele>241.8</ele>
        <time>2021-08-17T12:09:20Z</time>
      </trkpt>
      <trkpt lat="47.16854" lon="5.92177">
        <ele>242</ele>
        <time>2021-08-17T12:09:21Z</time>
      </trkpt>
      <trkpt lat="47.16853" lon="5.92182">
        <ele>242</ele>
        <time>2021-08-17T12:09:22Z</time>
      </trkpt>
      <trkpt lat="47.16851" lon="5.92188">
        <ele>242.2</ele>
        <time>2021-08-17T12:09:23Z</time>
      </trkpt>
      <trkpt lat="47.1685" lon="5.92193">
        <ele>242.4</ele>
        <time>2021-08-17T12:09:24Z</time>
      </trkpt>
      <trkpt lat="47.16844" lon="5.92214">
        <ele>242.6</ele>
        <time>2021-08-17T12:09:28Z</time>
      </trkpt>
      <trkpt lat="47.16838" lon="5.92235">
        <ele>242.8</ele>
        <time>2021-08-17T12:09:32Z</time>
      </trkpt>
      <trkpt lat="47.1683" lon="5.92265">
        <ele>243</ele>
        <time>2021-08-17T12:09:38Z</time>
      </trkpt>
      <trkpt lat="47.16823" lon="5.92285">
        <ele>243.4</ele>
        <time>2021-08-17T12:09:42Z</time>
      </trkpt>
      <trkpt lat="47.1682" lon="5.92294">
        <ele>243.8</ele>
        <time>2021-08-17T12:09:44Z</time>
      </trkpt>
      <trkpt lat="47.16819" lon="5.92299">
        <ele>243.8</ele>
        <time>2021-08-17T12:09:45Z</time>
      </trkpt>
      <trkpt lat="47.16814" lon="5.92314">
        <ele>244</ele>
        <time>2021-08-17T12:09:48Z</time>
      </trkpt>
      <trkpt lat="47.16813" lon="5.92318">
        <ele>244.2</ele>
        <time>2021-08-17T12:09:49Z</time>
      </trkpt>
      <trkpt lat="47.16803" lon="5.92345">
        <ele>244.6</ele>
        <time>2021-08-17T12:09:55Z</time>
      </trkpt>
      <trkpt lat="47.16801" lon="5.9235">
        <ele>244.8</ele>
        <time>2021-08-17T12:09:56Z</time>
      </trkpt>
      <trkpt lat="47.16798" lon="5.92359">
        <ele>244.8</ele>
        <time>2021-08-17T12:09:58Z</time>
      </trkpt>
      <trkpt lat="47.16793" lon="5.92378">
        <ele>245.2</ele>
        <time>2021-08-17T12:10:02Z</time>
      </trkpt>
      <trkpt lat="47.1678" lon="5.92409">
        <ele>246</ele>
        <time>2021-08-17T12:10:09Z</time>
      </trkpt>
      <trkpt lat="47.16762" lon="5.92451">
        <ele>246.2</ele>
        <time>2021-08-17T12:10:19Z</time>
      </trkpt>
      <trkpt lat="47.16761" lon="5.92456">
        <ele>246.4</ele>
        <time>2021-08-17T12:10:20Z</time>
      </trkpt>
      <trkpt lat="47.1676" lon="5.9246">
        <ele>246.6</ele>
        <time>2021-08-17T12:10:21Z</time>
      </trkpt>
      <trkpt lat="47.16758" lon="5.92464">
        <ele>246.8</ele>
        <time>2021-08-17T12:10:22Z</time>
      </trkpt>
      <trkpt lat="47.16754" lon="5.92471">
        <ele>247</ele>
        <time>2021-08-17T12:10:24Z</time>
      </trkpt>
      <trkpt lat="47.16752" lon="5.92474">
        <ele>247.2</ele>
        <time>2021-08-17T12:10:25Z</time>
      </trkpt>
      <trkpt lat="47.1675" lon="5.92477">
        <ele>247.2</ele>
        <time>2021-08-17T12:10:26Z</time>
      </trkpt>
      <trkpt lat="47.16748" lon="5.92479">
        <ele>247.4</ele>
        <time>2021-08-17T12:10:27Z</time>
      </trkpt>
      <trkpt lat="47.16744" lon="5.92482">
        <ele>247.4</ele>
        <time>2021-08-17T12:10:28Z</time>
      </trkpt>
      <trkpt lat="47.16736" lon="5.92487">
        <ele>248.2</ele>
        <time>2021-08-17T12:10:31Z</time>
      </trkpt>
      <trkpt lat="47.16734" lon="5.92489">
        <ele>248.2</ele>
        <time>2021-08-17T12:10:32Z</time>
      </trkpt>
      <trkpt lat="47.16732" lon="5.9249">
        <ele>248.4</ele>
        <time>2021-08-17T12:10:33Z</time>
      </trkpt>
      <trkpt lat="47.16729" lon="5.92493">
        <ele>248.4</ele>
        <time>2021-08-17T12:10:34Z</time>
      </trkpt>
      <trkpt lat="47.16727" lon="5.92496">
        <ele>248.6</ele>
        <time>2021-08-17T12:10:35Z</time>
      </trkpt>
      <trkpt lat="47.16724" lon="5.92498">
        <ele>248.8</ele>
        <time>2021-08-17T12:10:36Z</time>
      </trkpt>
      <trkpt lat="47.16722" lon="5.92501">
        <ele>248.8</ele>
        <time>2021-08-17T12:10:37Z</time>
      </trkpt>
      <trkpt lat="47.16719" lon="5.92503">
        <ele>249</ele>
        <time>2021-08-17T12:10:38Z</time>
      </trkpt>
      <trkpt lat="47.16717" lon="5.92505">
        <ele>249.2</ele>
        <time>2021-08-17T12:10:39Z</time>
      </trkpt>
      <trkpt lat="47.16714" lon="5.92508">
        <ele>249.4</ele>
        <time>2021-08-17T12:10:40Z</time>
      </trkpt>
      <trkpt lat="47.16711" lon="5.92511">
        <ele>249.4</ele>
        <time>2021-08-17T12:10:41Z</time>
      </trkpt>
      <trkpt lat="47.16708" lon="5.92514">
        <ele>249.4</ele>
        <time>2021-08-17T12:10:42Z</time>
      </trkpt>
      <trkpt lat="47.16705" lon="5.92516">
        <ele>249.6</ele>
        <time>2021-08-17T12:10:43Z</time>
      </trkpt>
      <trkpt lat="47.16702" lon="5.92518">
        <ele>249.6</ele>
        <time>2021-08-17T12:10:44Z</time>
      </trkpt>
      <trkpt lat="47.167" lon="5.92521">
        <ele>249.8</ele>
        <time>2021-08-17T12:10:45Z</time>
      </trkpt>
      <trkpt lat="47.16697" lon="5.92524">
        <ele>249.8</ele>
        <time>2021-08-17T12:10:46Z</time>
      </trkpt>
      <trkpt lat="47.16695" lon="5.92528">
        <ele>249.8</ele>
        <time>2021-08-17T12:10:47Z</time>
      </trkpt>
      <trkpt lat="47.16693" lon="5.9253">
        <ele>249.8</ele>
        <time>2021-08-17T12:10:48Z</time>
      </trkpt>
      <trkpt lat="47.16691" lon="5.92533">
        <ele>249.8</ele>
        <time>2021-08-17T12:10:49Z</time>
      </trkpt>
      <trkpt lat="47.16688" lon="5.92537">
        <ele>250</ele>
        <time>2021-08-17T12:10:50Z</time>
      </trkpt>
      <trkpt lat="47.16686" lon="5.92541">
        <ele>250</ele>
        <time>2021-08-17T12:10:51Z</time>
      </trkpt>
      <trkpt lat="47.16683" lon="5.92545">
        <ele>250.2</ele>
        <time>2021-08-17T12:10:52Z</time>
      </trkpt>
      <trkpt lat="47.16681" lon="5.9255">
        <ele>250.2</ele>
        <time>2021-08-17T12:10:53Z</time>
      </trkpt>
      <trkpt lat="47.16678" lon="5.92555">
        <ele>250.2</ele>
        <time>2021-08-17T12:10:54Z</time>
      </trkpt>
      <trkpt lat="47.16676" lon="5.9256">
        <ele>250.2</ele>
        <time>2021-08-17T12:10:55Z</time>
      </trkpt>
      <trkpt lat="47.16674" lon="5.92565">
        <ele>250.2</ele>
        <time>2021-08-17T12:10:56Z</time>
      </trkpt>
      <trkpt lat="47.1667" lon="5.9258">
        <ele>250.4</ele>
        <time>2021-08-17T12:10:59Z</time>
      </trkpt>
      <trkpt lat="47.16661" lon="5.92608">
        <ele>250.8</ele>
        <time>2021-08-17T12:11:05Z</time>
      </trkpt>
      <trkpt lat="47.16658" lon="5.92612">
        <ele>250.8</ele>
        <time>2021-08-17T12:11:06Z</time>
      </trkpt>
      <trkpt lat="47.16656" lon="5.92616">
        <ele>251</ele>
        <time>2021-08-17T12:11:07Z</time>
      </trkpt>
      <trkpt lat="47.16653" lon="5.92618">
        <ele>251</ele>
        <time>2021-08-17T12:11:08Z</time>
      </trkpt>
      <trkpt lat="47.16651" lon="5.9262">
        <ele>251</ele>
        <time>2021-08-17T12:11:09Z</time>
      </trkpt>
      <trkpt lat="47.16649" lon="5.92622">
        <ele>251.2</ele>
        <time>2021-08-17T12:11:10Z</time>
      </trkpt>
      <trkpt lat="47.16646" lon="5.92624">
        <ele>251.2</ele>
        <time>2021-08-17T12:11:11Z</time>
      </trkpt>
      <trkpt lat="47.16644" lon="5.92625">
        <ele>251.4</ele>
        <time>2021-08-17T12:11:12Z</time>
      </trkpt>
      <trkpt lat="47.16643" lon="5.92627">
        <ele>251.6</ele>
        <time>2021-08-17T12:11:13Z</time>
      </trkpt>
      <trkpt lat="47.16639" lon="5.92628">
        <ele>251.8</ele>
        <time>2021-08-17T12:11:15Z</time>
      </trkpt>
      <trkpt lat="47.16636" lon="5.92629">
        <ele>252</ele>
        <time>2021-08-17T12:11:16Z</time>
      </trkpt>
      <trkpt lat="47.16634" lon="5.9263">
        <ele>252.2</ele>
        <time>2021-08-17T12:11:17Z</time>
      </trkpt>
      <trkpt lat="47.1663" lon="5.92631">
        <ele>252.6</ele>
        <time>2021-08-17T12:11:19Z</time>
      </trkpt>
      <trkpt lat="47.16627" lon="5.92632">
        <ele>252.6</ele>
        <time>2021-08-17T12:11:20Z</time>
      </trkpt>
      <trkpt lat="47.16625" lon="5.92633">
        <ele>252.8</ele>
        <time>2021-08-17T12:11:21Z</time>
      </trkpt>
      <trkpt lat="47.16623" lon="5.92633">
        <ele>252.8</ele>
        <time>2021-08-17T12:11:22Z</time>
      </trkpt>
      <trkpt lat="47.16622" lon="5.92634">
        <ele>252.8</ele>
        <time>2021-08-17T12:11:23Z</time>
      </trkpt>
      <trkpt lat="47.1662" lon="5.92634">
        <ele>252.8</ele>
        <time>2021-08-17T12:11:24Z</time>
      </trkpt>
      <trkpt lat="47.16619" lon="5.92634">
        <ele>252.8</ele>
        <time>2021-08-17T12:11:25Z</time>
      </trkpt>
      <trkpt lat="47.16615" lon="5.9263">
        <ele>252.6</ele>
        <time>2021-08-17T12:12:12Z</time>
      </trkpt>
      <trkpt lat="47.16614" lon="5.92629">
        <ele>252.6</ele>
        <time>2021-08-17T12:12:13Z</time>
      </trkpt>
      <trkpt lat="47.1661" lon="5.92625">
        <ele>252.6</ele>
        <time>2021-08-17T12:12:16Z</time>
      </trkpt>
      <trkpt lat="47.16608" lon="5.92622">
        <ele>252.6</ele>
        <time>2021-08-17T12:12:18Z</time>
      </trkpt>
      <trkpt lat="47.16607" lon="5.9262">
        <ele>252.8</ele>
        <time>2021-08-17T12:12:19Z</time>
      </trkpt>
      <trkpt lat="47.166" lon="5.92607">
        <ele>253</ele>
        <time>2021-08-17T12:12:25Z</time>
      </trkpt>
      <trkpt lat="47.16597" lon="5.92602">
        <ele>253.2</ele>
        <time>2021-08-17T12:12:27Z</time>
      </trkpt>
      <trkpt lat="47.16595" lon="5.92598">
        <ele>253.4</ele>
        <time>2021-08-17T12:12:29Z</time>
      </trkpt>
      <trkpt lat="47.16594" lon="5.92595">
        <ele>253.6</ele>
        <time>2021-08-17T12:12:30Z</time>
      </trkpt>
      <trkpt lat="47.16588" lon="5.92586">
        <ele>254</ele>
        <time>2021-08-17T12:12:33Z</time>
      </trkpt>
      <trkpt lat="47.16587" lon="5.92584">
        <ele>254.2</ele>
        <time>2021-08-17T12:12:34Z</time>
      </trkpt>
      <trkpt lat="47.16584" lon="5.92579">
        <ele>254.4</ele>
        <time>2021-08-17T12:12:36Z</time>
      </trkpt>
      <trkpt lat="47.16582" lon="5.92577">
        <ele>254.6</ele>
        <time>2021-08-17T12:12:37Z</time>
      </trkpt>
      <trkpt lat="47.16581" lon="5.92573">
        <ele>254.6</ele>
        <time>2021-08-17T12:12:38Z</time>
      </trkpt>
      <trkpt lat="47.16578" lon="5.92563">
        <ele>254.6</ele>
        <time>2021-08-17T12:12:40Z</time>
      </trkpt>
      <trkpt lat="47.16572" lon="5.92551">
        <ele>255</ele>
        <time>2021-08-17T12:12:43Z</time>
      </trkpt>
      <trkpt lat="47.16565" lon="5.92545">
        <ele>255.2</ele>
        <time>2021-08-17T12:12:45Z</time>
      </trkpt>
      <trkpt lat="47.16561" lon="5.9254">
        <ele>255.4</ele>
        <time>2021-08-17T12:12:46Z</time>
      </trkpt>
      <trkpt lat="47.16559" lon="5.92537">
        <ele>255.4</ele>
        <time>2021-08-17T12:12:47Z</time>
      </trkpt>
      <trkpt lat="47.16556" lon="5.92533">
        <ele>255.6</ele>
        <time>2021-08-17T12:12:48Z</time>
      </trkpt>
      <trkpt lat="47.16555" lon="5.9253">
        <ele>255.6</ele>
        <time>2021-08-17T12:12:49Z</time>
      </trkpt>
      <trkpt lat="47.16553" lon="5.92524">
        <ele>255.8</ele>
        <time>2021-08-17T12:12:50Z</time>
      </trkpt>
      <trkpt lat="47.16549" lon="5.92519">
        <ele>256</ele>
        <time>2021-08-17T12:12:51Z</time>
      </trkpt>
      <trkpt lat="47.16548" lon="5.92516">
        <ele>256</ele>
        <time>2021-08-17T12:12:52Z</time>
      </trkpt>
      <trkpt lat="47.16545" lon="5.92512">
        <ele>256</ele>
        <time>2021-08-17T12:12:53Z</time>
      </trkpt>
      <trkpt lat="47.16544" lon="5.9251">
        <ele>256</ele>
        <time>2021-08-17T12:12:54Z</time>
      </trkpt>
      <trkpt lat="47.16543" lon="5.92508">
        <ele>256.2</ele>
        <time>2021-08-17T12:12:55Z</time>
      </trkpt>
      <trkpt lat="47.16542" lon="5.92507">
        <ele>256.2</ele>
        <time>2021-08-17T12:12:56Z</time>
      </trkpt>
      <trkpt lat="47.16541" lon="5.92505">
        <ele>256.4</ele>
        <time>2021-08-17T12:12:57Z</time>
      </trkpt>
      <trkpt lat="47.16539" lon="5.92503">
        <ele>256.4</ele>
        <time>2021-08-17T12:12:58Z</time>
      </trkpt>
      <trkpt lat="47.16538" lon="5.92502">
        <ele>256.4</ele>
        <time>2021-08-17T12:12:59Z</time>
      </trkpt>
      <trkpt lat="47.16537" lon="5.925">
        <ele>256.4</ele>
        <time>2021-08-17T12:13:00Z</time>
      </trkpt>
      <trkpt lat="47.16537" lon="5.92498">
        <ele>256.6</ele>
        <time>2021-08-17T12:13:01Z</time>
      </trkpt>
      <trkpt lat="47.16536" lon="5.92496">
        <ele>256.6</ele>
        <time>2021-08-17T12:13:02Z</time>
      </trkpt>
      <trkpt lat="47.16535" lon="5.92494">
        <ele>256.8</ele>
        <time>2021-08-17T12:13:03Z</time>
      </trkpt>
      <trkpt lat="47.16534" lon="5.92492">
        <ele>256.8</ele>
        <time>2021-08-17T12:13:04Z</time>
      </trkpt>
      <trkpt lat="47.16533" lon="5.9249">
        <ele>257</ele>
        <time>2021-08-17T12:13:05Z</time>
      </trkpt>
      <trkpt lat="47.16532" lon="5.92487">
        <ele>257</ele>
        <time>2021-08-17T12:13:06Z</time>
      </trkpt>
      <trkpt lat="47.16526" lon="5.9248">
        <ele>257</ele>
        <time>2021-08-17T12:13:09Z</time>
      </trkpt>
      <trkpt lat="47.16507" lon="5.92469">
        <ele>257.4</ele>
        <time>2021-08-17T12:13:16Z</time>
      </trkpt>
      <trkpt lat="47.16505" lon="5.92467">
        <ele>257.4</ele>
        <time>2021-08-17T12:13:17Z</time>
      </trkpt>
      <trkpt lat="47.16497" lon="5.92462">
        <ele>257.6</ele>
        <time>2021-08-17T12:13:20Z</time>
      </trkpt>
      <trkpt lat="47.16493" lon="5.92459">
        <ele>257.6</ele>
        <time>2021-08-17T12:13:22Z</time>
      </trkpt>
      <trkpt lat="47.16488" lon="5.92453">
        <ele>257.8</ele>
        <time>2021-08-17T12:13:24Z</time>
      </trkpt>
      <trkpt lat="47.16486" lon="5.9245">
        <ele>257.8</ele>
        <time>2021-08-17T12:13:25Z</time>
      </trkpt>
      <trkpt lat="47.16485" lon="5.92448">
        <ele>257.8</ele>
        <time>2021-08-17T12:13:26Z</time>
      </trkpt>
      <trkpt lat="47.16482" lon="5.92446">
        <ele>258</ele>
        <time>2021-08-17T12:13:27Z</time>
      </trkpt>
      <trkpt lat="47.16479" lon="5.92444">
        <ele>258</ele>
        <time>2021-08-17T12:13:28Z</time>
      </trkpt>
      <trkpt lat="47.16477" lon="5.92442">
        <ele>258</ele>
        <time>2021-08-17T12:13:29Z</time>
      </trkpt>
      <trkpt lat="47.16473" lon="5.9244">
        <ele>258</ele>
        <time>2021-08-17T12:13:30Z</time>
      </trkpt>
      <trkpt lat="47.1647" lon="5.92437">
        <ele>258</ele>
        <time>2021-08-17T12:13:31Z</time>
      </trkpt>
      <trkpt lat="47.16456" lon="5.92424">
        <ele>258.2</ele>
        <time>2021-08-17T12:13:36Z</time>
      </trkpt>
      <trkpt lat="47.16454" lon="5.92422">
        <ele>258.2</ele>
        <time>2021-08-17T12:13:37Z</time>
      </trkpt>
      <trkpt lat="47.16444" lon="5.92414">
        <ele>258.4</ele>
        <time>2021-08-17T12:13:40Z</time>
      </trkpt>
      <trkpt lat="47.16438" lon="5.92412">
        <ele>258.4</ele>
        <time>2021-08-17T12:13:42Z</time>
      </trkpt>
      <trkpt lat="47.16436" lon="5.92409">
        <ele>258.2</ele>
        <time>2021-08-17T12:13:43Z</time>
      </trkpt>
      <trkpt lat="47.16434" lon="5.92407">
        <ele>258.4</ele>
        <time>2021-08-17T12:13:44Z</time>
      </trkpt>
      <trkpt lat="47.16432" lon="5.92407">
        <ele>258.6</ele>
        <time>2021-08-17T12:13:45Z</time>
      </trkpt>
      <trkpt lat="47.16429" lon="5.92405">
        <ele>258.8</ele>
        <time>2021-08-17T12:13:46Z</time>
      </trkpt>
      <trkpt lat="47.16425" lon="5.92402">
        <ele>258.8</ele>
        <time>2021-08-17T12:13:48Z</time>
      </trkpt>
      <trkpt lat="47.16422" lon="5.92399">
        <ele>258.8</ele>
        <time>2021-08-17T12:13:49Z</time>
      </trkpt>
      <trkpt lat="47.16419" lon="5.92396">
        <ele>258.8</ele>
        <time>2021-08-17T12:13:50Z</time>
      </trkpt>
      <trkpt lat="47.16414" lon="5.92395">
        <ele>259</ele>
        <time>2021-08-17T12:13:51Z</time>
      </trkpt>
      <trkpt lat="47.16411" lon="5.92395">
        <ele>258.6</ele>
        <time>2021-08-17T12:13:52Z</time>
      </trkpt>
      <trkpt lat="47.16407" lon="5.92392">
        <ele>258.8</ele>
        <time>2021-08-17T12:13:53Z</time>
      </trkpt>
      <trkpt lat="47.16403" lon="5.92391">
        <ele>259</ele>
        <time>2021-08-17T12:13:54Z</time>
      </trkpt>
      <trkpt lat="47.16397" lon="5.92387">
        <ele>259.2</ele>
        <time>2021-08-17T12:13:57Z</time>
      </trkpt>
      <trkpt lat="47.16394" lon="5.92385">
        <ele>259.2</ele>
        <time>2021-08-17T12:13:58Z</time>
      </trkpt>
      <trkpt lat="47.1639" lon="5.9238">
        <ele>259.4</ele>
        <time>2021-08-17T12:14:00Z</time>
      </trkpt>
      <trkpt lat="47.16383" lon="5.92374">
        <ele>259.6</ele>
        <time>2021-08-17T12:14:03Z</time>
      </trkpt>
      <trkpt lat="47.16374" lon="5.92367">
        <ele>259.8</ele>
        <time>2021-08-17T12:14:07Z</time>
      </trkpt>
      <trkpt lat="47.16372" lon="5.92366">
        <ele>260.2</ele>
        <time>2021-08-17T12:14:08Z</time>
      </trkpt>
      <trkpt lat="47.16371" lon="5.92365">
        <ele>260.2</ele>
        <time>2021-08-17T12:14:09Z</time>
      </trkpt>
      <trkpt lat="47.16369" lon="5.92364">
        <ele>260.4</ele>
        <time>2021-08-17T12:14:10Z</time>
      </trkpt>
      <trkpt lat="47.16366" lon="5.92363">
        <ele>260.4</ele>
        <time>2021-08-17T12:14:11Z</time>
      </trkpt>
      <trkpt lat="47.16363" lon="5.92361">
        <ele>260.4</ele>
        <time>2021-08-17T12:14:12Z</time>
      </trkpt>
      <trkpt lat="47.1636" lon="5.92358">
        <ele>260.6</ele>
        <time>2021-08-17T12:14:13Z</time>
      </trkpt>
      <trkpt lat="47.16348" lon="5.9235">
        <ele>260.8</ele>
        <time>2021-08-17T12:14:17Z</time>
      </trkpt>
      <trkpt lat="47.16343" lon="5.92348">
        <ele>261</ele>
        <time>2021-08-17T12:14:19Z</time>
      </trkpt>
      <trkpt lat="47.16328" lon="5.92339">
        <ele>261.8</ele>
        <time>2021-08-17T12:14:24Z</time>
      </trkpt>
      <trkpt lat="47.16325" lon="5.92338">
        <ele>261.8</ele>
        <time>2021-08-17T12:14:25Z</time>
      </trkpt>
      <trkpt lat="47.16315" lon="5.92333">
        <ele>261.8</ele>
        <time>2021-08-17T12:14:27Z</time>
      </trkpt>
      <trkpt lat="47.16311" lon="5.92332">
        <ele>262</ele>
        <time>2021-08-17T12:14:28Z</time>
      </trkpt>
      <trkpt lat="47.16308" lon="5.9233">
        <ele>262</ele>
        <time>2021-08-17T12:14:29Z</time>
      </trkpt>
      <trkpt lat="47.16304" lon="5.92325">
        <ele>262.4</ele>
        <time>2021-08-17T12:14:31Z</time>
      </trkpt>
      <trkpt lat="47.16297" lon="5.92318">
        <ele>262.8</ele>
        <time>2021-08-17T12:14:33Z</time>
      </trkpt>
      <trkpt lat="47.16293" lon="5.92316">
        <ele>262.8</ele>
        <time>2021-08-17T12:14:34Z</time>
      </trkpt>
      <trkpt lat="47.16291" lon="5.92315">
        <ele>262.8</ele>
        <time>2021-08-17T12:14:35Z</time>
      </trkpt>
      <trkpt lat="47.16288" lon="5.92311">
        <ele>262.8</ele>
        <time>2021-08-17T12:14:36Z</time>
      </trkpt>
      <trkpt lat="47.16286" lon="5.9231">
        <ele>263</ele>
        <time>2021-08-17T12:14:37Z</time>
      </trkpt>
      <trkpt lat="47.16282" lon="5.92308">
        <ele>263</ele>
        <time>2021-08-17T12:14:38Z</time>
      </trkpt>
      <trkpt lat="47.16279" lon="5.92307">
        <ele>263</ele>
        <time>2021-08-17T12:14:39Z</time>
      </trkpt>
      <trkpt lat="47.16275" lon="5.92303">
        <ele>263.2</ele>
        <time>2021-08-17T12:14:40Z</time>
      </trkpt>
      <trkpt lat="47.16272" lon="5.923">
        <ele>263.2</ele>
        <time>2021-08-17T12:14:41Z</time>
      </trkpt>
      <trkpt lat="47.16271" lon="5.92298">
        <ele>263.2</ele>
        <time>2021-08-17T12:14:42Z</time>
      </trkpt>
      <trkpt lat="47.16269" lon="5.92295">
        <ele>263.4</ele>
        <time>2021-08-17T12:14:43Z</time>
      </trkpt>
      <trkpt lat="47.16267" lon="5.92294">
        <ele>263.4</ele>
        <time>2021-08-17T12:14:44Z</time>
      </trkpt>
      <trkpt lat="47.16265" lon="5.92291">
        <ele>263.6</ele>
        <time>2021-08-17T12:14:45Z</time>
      </trkpt>
      <trkpt lat="47.16262" lon="5.92287">
        <ele>263.8</ele>
        <time>2021-08-17T12:14:47Z</time>
      </trkpt>
      <trkpt lat="47.16257" lon="5.92282">
        <ele>264</ele>
        <time>2021-08-17T12:14:49Z</time>
      </trkpt>
      <trkpt lat="47.16254" lon="5.92279">
        <ele>264</ele>
        <time>2021-08-17T12:14:50Z</time>
      </trkpt>
      <trkpt lat="47.16248" lon="5.92271">
        <ele>264.2</ele>
        <time>2021-08-17T12:14:53Z</time>
      </trkpt>
      <trkpt lat="47.16246" lon="5.92268">
        <ele>264.4</ele>
        <time>2021-08-17T12:14:54Z</time>
      </trkpt>
      <trkpt lat="47.16244" lon="5.92266">
        <ele>264.4</ele>
        <time>2021-08-17T12:14:55Z</time>
      </trkpt>
      <trkpt lat="47.16239" lon="5.92263">
        <ele>264.6</ele>
        <time>2021-08-17T12:14:57Z</time>
      </trkpt>
      <trkpt lat="47.16237" lon="5.92262">
        <ele>264.8</ele>
        <time>2021-08-17T12:14:58Z</time>
      </trkpt>
      <trkpt lat="47.16235" lon="5.9226">
        <ele>264.8</ele>
        <time>2021-08-17T12:14:59Z</time>
      </trkpt>
      <trkpt lat="47.16233" lon="5.92256">
        <ele>265</ele>
        <time>2021-08-17T12:15:01Z</time>
      </trkpt>
      <trkpt lat="47.16229" lon="5.92253">
        <ele>265.2</ele>
        <time>2021-08-17T12:15:02Z</time>
      </trkpt>
      <trkpt lat="47.16227" lon="5.92251">
        <ele>265.2</ele>
        <time>2021-08-17T12:15:03Z</time>
      </trkpt>
      <trkpt lat="47.16221" lon="5.92246">
        <ele>265.4</ele>
        <time>2021-08-17T12:15:05Z</time>
      </trkpt>
      <trkpt lat="47.16219" lon="5.92242">
        <ele>265.4</ele>
        <time>2021-08-17T12:15:06Z</time>
      </trkpt>
      <trkpt lat="47.16216" lon="5.9224">
        <ele>265.4</ele>
        <time>2021-08-17T12:15:07Z</time>
      </trkpt>
      <trkpt lat="47.16214" lon="5.92237">
        <ele>265.4</ele>
        <time>2021-08-17T12:15:08Z</time>
      </trkpt>
      <trkpt lat="47.1621" lon="5.92235">
        <ele>265.4</ele>
        <time>2021-08-17T12:15:09Z</time>
      </trkpt>
      <trkpt lat="47.16207" lon="5.92233">
        <ele>265.4</ele>
        <time>2021-08-17T12:15:10Z</time>
      </trkpt>
      <trkpt lat="47.16204" lon="5.9223">
        <ele>265.2</ele>
        <time>2021-08-17T12:15:11Z</time>
      </trkpt>
      <trkpt lat="47.16203" lon="5.92228">
        <ele>265.4</ele>
        <time>2021-08-17T12:15:12Z</time>
      </trkpt>
      <trkpt lat="47.16201" lon="5.92221">
        <ele>265.6</ele>
        <time>2021-08-17T12:15:14Z</time>
      </trkpt>
      <trkpt lat="47.16199" lon="5.92217">
        <ele>265.8</ele>
        <time>2021-08-17T12:15:15Z</time>
      </trkpt>
      <trkpt lat="47.16197" lon="5.92215">
        <ele>266</ele>
        <time>2021-08-17T12:15:16Z</time>
      </trkpt>
      <trkpt lat="47.16195" lon="5.92212">
        <ele>266</ele>
        <time>2021-08-17T12:15:17Z</time>
      </trkpt>
      <trkpt lat="47.16193" lon="5.9221">
        <ele>266.2</ele>
        <time>2021-08-17T12:15:18Z</time>
      </trkpt>
      <trkpt lat="47.16191" lon="5.92208">
        <ele>266.2</ele>
        <time>2021-08-17T12:15:19Z</time>
      </trkpt>
      <trkpt lat="47.16189" lon="5.92204">
        <ele>266.2</ele>
        <time>2021-08-17T12:15:20Z</time>
      </trkpt>
      <trkpt lat="47.16184" lon="5.922">
        <ele>266.4</ele>
        <time>2021-08-17T12:15:21Z</time>
      </trkpt>
      <trkpt lat="47.16179" lon="5.92197">
        <ele>266.4</ele>
        <time>2021-08-17T12:15:22Z</time>
      </trkpt>
      <trkpt lat="47.16177" lon="5.92195">
        <ele>266.6</ele>
        <time>2021-08-17T12:15:23Z</time>
      </trkpt>
      <trkpt lat="47.16174" lon="5.9219">
        <ele>266.8</ele>
        <time>2021-08-17T12:15:25Z</time>
      </trkpt>
      <trkpt lat="47.16168" lon="5.92183">
        <ele>267</ele>
        <time>2021-08-17T12:15:28Z</time>
      </trkpt>
      <trkpt lat="47.16167" lon="5.92181">
        <ele>267</ele>
        <time>2021-08-17T12:15:29Z</time>
      </trkpt>
      <trkpt lat="47.16166" lon="5.92179">
        <ele>267.2</ele>
        <time>2021-08-17T12:15:30Z</time>
      </trkpt>
      <trkpt lat="47.16161" lon="5.92173">
        <ele>267.6</ele>
        <time>2021-08-17T12:15:33Z</time>
      </trkpt>
      <trkpt lat="47.16159" lon="5.92171">
        <ele>267.8</ele>
        <time>2021-08-17T12:15:34Z</time>
      </trkpt>
      <trkpt lat="47.16158" lon="5.92168">
        <ele>267.8</ele>
        <time>2021-08-17T12:15:35Z</time>
      </trkpt>
      <trkpt lat="47.16157" lon="5.92167">
        <ele>268</ele>
        <time>2021-08-17T12:15:36Z</time>
      </trkpt>
      <trkpt lat="47.16156" lon="5.92165">
        <ele>268.2</ele>
        <time>2021-08-17T12:15:37Z</time>
      </trkpt>
      <trkpt lat="47.16154" lon="5.92163">
        <ele>268.2</ele>
        <time>2021-08-17T12:15:38Z</time>
      </trkpt>
      <trkpt lat="47.16153" lon="5.92161">
        <ele>268.4</ele>
        <time>2021-08-17T12:15:39Z</time>
      </trkpt>
      <trkpt lat="47.16151" lon="5.9216">
        <ele>268.4</ele>
        <time>2021-08-17T12:15:40Z</time>
      </trkpt>
      <trkpt lat="47.16149" lon="5.92158">
        <ele>268.6</ele>
        <time>2021-08-17T12:15:41Z</time>
      </trkpt>
      <trkpt lat="47.16147" lon="5.92155">
        <ele>268.8</ele>
        <time>2021-08-17T12:15:42Z</time>
      </trkpt>
      <trkpt lat="47.16144" lon="5.92153">
        <ele>268.8</ele>
        <time>2021-08-17T12:15:43Z</time>
      </trkpt>
      <trkpt lat="47.16143" lon="5.92151">
        <ele>268.8</ele>
        <time>2021-08-17T12:15:44Z</time>
      </trkpt>
      <trkpt lat="47.16141" lon="5.9215">
        <ele>269</ele>
        <time>2021-08-17T12:15:45Z</time>
      </trkpt>
      <trkpt lat="47.16139" lon="5.92147">
        <ele>269</ele>
        <time>2021-08-17T12:15:46Z</time>
      </trkpt>
      <trkpt lat="47.16137" lon="5.92146">
        <ele>269</ele>
        <time>2021-08-17T12:15:47Z</time>
      </trkpt>
      <trkpt lat="47.16134" lon="5.92143">
        <ele>269.2</ele>
        <time>2021-08-17T12:15:48Z</time>
      </trkpt>
      <trkpt lat="47.1613" lon="5.9214">
        <ele>269.2</ele>
        <time>2021-08-17T12:15:49Z</time>
      </trkpt>
      <trkpt lat="47.16127" lon="5.92136">
        <ele>269.4</ele>
        <time>2021-08-17T12:15:50Z</time>
      </trkpt>
      <trkpt lat="47.16125" lon="5.92135">
        <ele>269.4</ele>
        <time>2021-08-17T12:15:51Z</time>
      </trkpt>
      <trkpt lat="47.16123" lon="5.92133">
        <ele>269.4</ele>
        <time>2021-08-17T12:15:52Z</time>
      </trkpt>
      <trkpt lat="47.1612" lon="5.92132">
        <ele>269.6</ele>
        <time>2021-08-17T12:15:53Z</time>
      </trkpt>
      <trkpt lat="47.16118" lon="5.9213">
        <ele>269.6</ele>
        <time>2021-08-17T12:15:54Z</time>
      </trkpt>
      <trkpt lat="47.16115" lon="5.92128">
        <ele>270</ele>
        <time>2021-08-17T12:15:55Z</time>
      </trkpt>
      <trkpt lat="47.1611" lon="5.92122">
        <ele>270</ele>
        <time>2021-08-17T12:15:57Z</time>
      </trkpt>
      <trkpt lat="47.16107" lon="5.92119">
        <ele>270.2</ele>
        <time>2021-08-17T12:15:58Z</time>
      </trkpt>
      <trkpt lat="47.16103" lon="5.92116">
        <ele>270.2</ele>
        <time>2021-08-17T12:15:59Z</time>
      </trkpt>
      <trkpt lat="47.16102" lon="5.92112">
        <ele>270.4</ele>
        <time>2021-08-17T12:16:00Z</time>
      </trkpt>
      <trkpt lat="47.16096" lon="5.92105">
        <ele>270.6</ele>
        <time>2021-08-17T12:16:03Z</time>
      </trkpt>
      <trkpt lat="47.16091" lon="5.921">
        <ele>270.8</ele>
        <time>2021-08-17T12:16:05Z</time>
      </trkpt>
      <trkpt lat="47.16086" lon="5.92099">
        <ele>271</ele>
        <time>2021-08-17T12:16:06Z</time>
      </trkpt>
      <trkpt lat="47.16082" lon="5.92099">
        <ele>271.2</ele>
        <time>2021-08-17T12:16:07Z</time>
      </trkpt>
      <trkpt lat="47.16079" lon="5.92096">
        <ele>271.4</ele>
        <time>2021-08-17T12:16:08Z</time>
      </trkpt>
      <trkpt lat="47.16076" lon="5.92096">
        <ele>271.6</ele>
        <time>2021-08-17T12:16:09Z</time>
      </trkpt>
      <trkpt lat="47.16074" lon="5.92096">
        <ele>271.6</ele>
        <time>2021-08-17T12:16:10Z</time>
      </trkpt>
      <trkpt lat="47.16073" lon="5.92095">
        <ele>271.8</ele>
        <time>2021-08-17T12:16:11Z</time>
      </trkpt>
      <trkpt lat="47.1607" lon="5.92094">
        <ele>271.8</ele>
        <time>2021-08-17T12:16:12Z</time>
      </trkpt>
      <trkpt lat="47.16068" lon="5.92093">
        <ele>272</ele>
        <time>2021-08-17T12:16:13Z</time>
      </trkpt>
      <trkpt lat="47.16067" lon="5.92092">
        <ele>272</ele>
        <time>2021-08-17T12:16:14Z</time>
      </trkpt>
      <trkpt lat="47.16066" lon="5.92091">
        <ele>272.2</ele>
        <time>2021-08-17T12:16:15Z</time>
      </trkpt>
      <trkpt lat="47.16064" lon="5.92091">
        <ele>272.2</ele>
        <time>2021-08-17T12:16:16Z</time>
      </trkpt>
      <trkpt lat="47.16062" lon="5.9209">
        <ele>272.4</ele>
        <time>2021-08-17T12:16:17Z</time>
      </trkpt>
      <trkpt lat="47.1606" lon="5.92088">
        <ele>272.4</ele>
        <time>2021-08-17T12:16:18Z</time>
      </trkpt>
      <trkpt lat="47.16057" lon="5.92086">
        <ele>272.4</ele>
        <time>2021-08-17T12:16:19Z</time>
      </trkpt>
      <trkpt lat="47.16055" lon="5.92084">
        <ele>272.6</ele>
        <time>2021-08-17T12:16:20Z</time>
      </trkpt>
      <trkpt lat="47.16053" lon="5.92082">
        <ele>273</ele>
        <time>2021-08-17T12:16:21Z</time>
      </trkpt>
      <trkpt lat="47.16051" lon="5.92079">
        <ele>273</ele>
        <time>2021-08-17T12:16:22Z</time>
      </trkpt>
      <trkpt lat="47.16049" lon="5.92077">
        <ele>272.8</ele>
        <time>2021-08-17T12:16:23Z</time>
      </trkpt>
      <trkpt lat="47.16047" lon="5.92075">
        <ele>273.2</ele>
        <time>2021-08-17T12:16:24Z</time>
      </trkpt>
      <trkpt lat="47.16045" lon="5.92073">
        <ele>273.2</ele>
        <time>2021-08-17T12:16:25Z</time>
      </trkpt>
      <trkpt lat="47.16042" lon="5.9207">
        <ele>273.4</ele>
        <time>2021-08-17T12:16:26Z</time>
      </trkpt>
      <trkpt lat="47.1604" lon="5.92067">
        <ele>273.6</ele>
        <time>2021-08-17T12:16:27Z</time>
      </trkpt>
      <trkpt lat="47.16038" lon="5.92065">
        <ele>273.6</ele>
        <time>2021-08-17T12:16:28Z</time>
      </trkpt>
      <trkpt lat="47.16036" lon="5.92063">
        <ele>273.8</ele>
        <time>2021-08-17T12:16:29Z</time>
      </trkpt>
      <trkpt lat="47.16035" lon="5.92062">
        <ele>274</ele>
        <time>2021-08-17T12:16:30Z</time>
      </trkpt>
      <trkpt lat="47.16034" lon="5.9206">
        <ele>274.2</ele>
        <time>2021-08-17T12:16:31Z</time>
      </trkpt>
      <trkpt lat="47.16032" lon="5.92059">
        <ele>274.2</ele>
        <time>2021-08-17T12:16:32Z</time>
      </trkpt>
      <trkpt lat="47.16029" lon="5.92057">
        <ele>274.4</ele>
        <time>2021-08-17T12:16:33Z</time>
      </trkpt>
      <trkpt lat="47.16027" lon="5.92055">
        <ele>274.4</ele>
        <time>2021-08-17T12:16:34Z</time>
      </trkpt>
      <trkpt lat="47.16023" lon="5.92052">
        <ele>274.6</ele>
        <time>2021-08-17T12:16:35Z</time>
      </trkpt>
      <trkpt lat="47.16022" lon="5.9205">
        <ele>274.8</ele>
        <time>2021-08-17T12:16:36Z</time>
      </trkpt>
      <trkpt lat="47.16019" lon="5.92047">
        <ele>275</ele>
        <time>2021-08-17T12:16:37Z</time>
      </trkpt>
      <trkpt lat="47.16016" lon="5.92044">
        <ele>275</ele>
        <time>2021-08-17T12:16:38Z</time>
      </trkpt>
      <trkpt lat="47.16013" lon="5.92042">
        <ele>275.2</ele>
        <time>2021-08-17T12:16:39Z</time>
      </trkpt>
      <trkpt lat="47.1601" lon="5.9204">
        <ele>275.6</ele>
        <time>2021-08-17T12:16:40Z</time>
      </trkpt>
      <trkpt lat="47.16007" lon="5.92037">
        <ele>275.6</ele>
        <time>2021-08-17T12:16:41Z</time>
      </trkpt>
      <trkpt lat="47.16005" lon="5.92034">
        <ele>275.8</ele>
        <time>2021-08-17T12:16:42Z</time>
      </trkpt>
      <trkpt lat="47.16003" lon="5.92033">
        <ele>276</ele>
        <time>2021-08-17T12:16:43Z</time>
      </trkpt>
      <trkpt lat="47.16" lon="5.92031">
        <ele>276.2</ele>
        <time>2021-08-17T12:16:44Z</time>
      </trkpt>
      <trkpt lat="47.15998" lon="5.92029">
        <ele>276.2</ele>
        <time>2021-08-17T12:16:45Z</time>
      </trkpt>
      <trkpt lat="47.15996" lon="5.92028">
        <ele>276.4</ele>
        <time>2021-08-17T12:16:46Z</time>
      </trkpt>
      <trkpt lat="47.15995" lon="5.92027">
        <ele>276.6</ele>
        <time>2021-08-17T12:16:47Z</time>
      </trkpt>
      <trkpt lat="47.15993" lon="5.92026">
        <ele>276.6</ele>
        <time>2021-08-17T12:16:48Z</time>
      </trkpt>
      <trkpt lat="47.15991" lon="5.92023">
        <ele>276.6</ele>
        <time>2021-08-17T12:16:49Z</time>
      </trkpt>
      <trkpt lat="47.15988" lon="5.9202">
        <ele>276.8</ele>
        <time>2021-08-17T12:16:50Z</time>
      </trkpt>
      <trkpt lat="47.15987" lon="5.92017">
        <ele>276.8</ele>
        <time>2021-08-17T12:16:51Z</time>
      </trkpt>
      <trkpt lat="47.15986" lon="5.92016">
        <ele>277</ele>
        <time>2021-08-17T12:16:52Z</time>
      </trkpt>
      <trkpt lat="47.15985" lon="5.92015">
        <ele>277.4</ele>
        <time>2021-08-17T12:16:53Z</time>
      </trkpt>
      <trkpt lat="47.15983" lon="5.92014">
        <ele>277.4</ele>
        <time>2021-08-17T12:16:54Z</time>
      </trkpt>
      <trkpt lat="47.15981" lon="5.92011">
        <ele>277.6</ele>
        <time>2021-08-17T12:16:55Z</time>
      </trkpt>
      <trkpt lat="47.15979" lon="5.92008">
        <ele>277.4</ele>
        <time>2021-08-17T12:16:56Z</time>
      </trkpt>
      <trkpt lat="47.15977" lon="5.92005">
        <ele>277.4</ele>
        <time>2021-08-17T12:16:57Z</time>
      </trkpt>
      <trkpt lat="47.15974" lon="5.92003">
        <ele>277.6</ele>
        <time>2021-08-17T12:16:58Z</time>
      </trkpt>
      <trkpt lat="47.15971" lon="5.92">
        <ele>277.6</ele>
        <time>2021-08-17T12:16:59Z</time>
      </trkpt>
      <trkpt lat="47.15969" lon="5.91997">
        <ele>278</ele>
        <time>2021-08-17T12:17:00Z</time>
      </trkpt>
      <trkpt lat="47.15967" lon="5.91995">
        <ele>278</ele>
        <time>2021-08-17T12:17:01Z</time>
      </trkpt>
      <trkpt lat="47.15965" lon="5.91992">
        <ele>277.8</ele>
        <time>2021-08-17T12:17:02Z</time>
      </trkpt>
      <trkpt lat="47.15962" lon="5.91989">
        <ele>278</ele>
        <time>2021-08-17T12:17:03Z</time>
      </trkpt>
      <trkpt lat="47.15959" lon="5.91986">
        <ele>278</ele>
        <time>2021-08-17T12:17:04Z</time>
      </trkpt>
      <trkpt lat="47.15957" lon="5.91983">
        <ele>278</ele>
        <time>2021-08-17T12:17:05Z</time>
      </trkpt>
      <trkpt lat="47.15955" lon="5.91981">
        <ele>278</ele>
        <time>2021-08-17T12:17:06Z</time>
      </trkpt>
      <trkpt lat="47.15954" lon="5.91979">
        <ele>278</ele>
        <time>2021-08-17T12:17:07Z</time>
      </trkpt>
      <trkpt lat="47.15954" lon="5.91978">
        <ele>278</ele>
        <time>2021-08-17T12:17:08Z</time>
      </trkpt>
      <trkpt lat="47.15952" lon="5.91977">
        <ele>278</ele>
        <time>2021-08-17T12:17:09Z</time>
      </trkpt>
      <trkpt lat="47.15949" lon="5.91975">
        <ele>278.2</ele>
        <time>2021-08-17T12:17:10Z</time>
      </trkpt>
      <trkpt lat="47.15947" lon="5.91972">
        <ele>278.2</ele>
        <time>2021-08-17T12:17:11Z</time>
      </trkpt>
      <trkpt lat="47.15946" lon="5.91971">
        <ele>278.4</ele>
        <time>2021-08-17T12:17:12Z</time>
      </trkpt>
      <trkpt lat="47.15943" lon="5.91967">
        <ele>278.6</ele>
        <time>2021-08-17T12:17:14Z</time>
      </trkpt>
      <trkpt lat="47.15941" lon="5.91965">
        <ele>278.8</ele>
        <time>2021-08-17T12:17:15Z</time>
      </trkpt>
      <trkpt lat="47.15939" lon="5.91963">
        <ele>278.8</ele>
        <time>2021-08-17T12:17:16Z</time>
      </trkpt>
      <trkpt lat="47.15937" lon="5.91961">
        <ele>278.8</ele>
        <time>2021-08-17T12:17:17Z</time>
      </trkpt>
      <trkpt lat="47.15936" lon="5.91959">
        <ele>279</ele>
        <time>2021-08-17T12:17:18Z</time>
      </trkpt>
      <trkpt lat="47.15931" lon="5.91952">
        <ele>279</ele>
        <time>2021-08-17T12:17:21Z</time>
      </trkpt>
      <trkpt lat="47.15929" lon="5.9195">
        <ele>279.2</ele>
        <time>2021-08-17T12:17:22Z</time>
      </trkpt>
      <trkpt lat="47.15927" lon="5.91947">
        <ele>279.2</ele>
        <time>2021-08-17T12:17:23Z</time>
      </trkpt>
      <trkpt lat="47.15925" lon="5.91944">
        <ele>279.2</ele>
        <time>2021-08-17T12:17:24Z</time>
      </trkpt>
      <trkpt lat="47.15923" lon="5.91941">
        <ele>279.2</ele>
        <time>2021-08-17T12:17:25Z</time>
      </trkpt>
      <trkpt lat="47.15915" lon="5.91929">
        <ele>279.2</ele>
        <time>2021-08-17T12:17:28Z</time>
      </trkpt>
      <trkpt lat="47.15899" lon="5.91903">
        <ele>279.2</ele>
        <time>2021-08-17T12:17:34Z</time>
      </trkpt>
      <trkpt lat="47.15886" lon="5.91884">
        <ele>280</ele>
        <time>2021-08-17T12:17:40Z</time>
      </trkpt>
      <trkpt lat="47.15884" lon="5.91881">
        <ele>280</ele>
        <time>2021-08-17T12:17:41Z</time>
      </trkpt>
      <trkpt lat="47.15882" lon="5.91879">
        <ele>280</ele>
        <time>2021-08-17T12:17:42Z</time>
      </trkpt>
      <trkpt lat="47.15878" lon="5.91877">
        <ele>280.4</ele>
        <time>2021-08-17T12:17:43Z</time>
      </trkpt>
      <trkpt lat="47.15867" lon="5.9187">
        <ele>280.6</ele>
        <time>2021-08-17T12:17:46Z</time>
      </trkpt>
      <trkpt lat="47.15849" lon="5.91862">
        <ele>281</ele>
        <time>2021-08-17T12:17:52Z</time>
      </trkpt>
      <trkpt lat="47.15847" lon="5.91862">
        <ele>281.2</ele>
        <time>2021-08-17T12:17:53Z</time>
      </trkpt>
      <trkpt lat="47.15829" lon="5.91855">
        <ele>281.6</ele>
        <time>2021-08-17T12:18:00Z</time>
      </trkpt>
      <trkpt lat="47.15818" lon="5.91851">
        <ele>282</ele>
        <time>2021-08-17T12:18:04Z</time>
      </trkpt>
      <trkpt lat="47.15811" lon="5.91848">
        <ele>282.2</ele>
        <time>2021-08-17T12:18:07Z</time>
      </trkpt>
      <trkpt lat="47.15809" lon="5.91848">
        <ele>282.2</ele>
        <time>2021-08-17T12:18:08Z</time>
      </trkpt>
      <trkpt lat="47.15808" lon="5.91849">
        <ele>282.4</ele>
        <time>2021-08-17T12:18:09Z</time>
      </trkpt>
      <trkpt lat="47.15806" lon="5.9185">
        <ele>282.4</ele>
        <time>2021-08-17T12:18:10Z</time>
      </trkpt>
      <trkpt lat="47.15805" lon="5.9185">
        <ele>282.4</ele>
        <time>2021-08-17T12:18:11Z</time>
      </trkpt>
      <trkpt lat="47.15803" lon="5.9185">
        <ele>282.6</ele>
        <time>2021-08-17T12:18:12Z</time>
      </trkpt>
      <trkpt lat="47.15801" lon="5.91848">
        <ele>282.6</ele>
        <time>2021-08-17T12:18:13Z</time>
      </trkpt>
      <trkpt lat="47.15798" lon="5.91846">
        <ele>282.6</ele>
        <time>2021-08-17T12:18:14Z</time>
      </trkpt>
      <trkpt lat="47.15794" lon="5.91841">
        <ele>282.8</ele>
        <time>2021-08-17T12:18:16Z</time>
      </trkpt>
      <trkpt lat="47.15792" lon="5.91839">
        <ele>282.8</ele>
        <time>2021-08-17T12:18:17Z</time>
      </trkpt>
      <trkpt lat="47.15785" lon="5.91834">
        <ele>283</ele>
        <time>2021-08-17T12:18:20Z</time>
      </trkpt>
      <trkpt lat="47.15782" lon="5.91832">
        <ele>283.2</ele>
        <time>2021-08-17T12:18:21Z</time>
      </trkpt>
      <trkpt lat="47.15777" lon="5.91827">
        <ele>283.2</ele>
        <time>2021-08-17T12:18:23Z</time>
      </trkpt>
      <trkpt lat="47.1577" lon="5.91819">
        <ele>283.2</ele>
        <time>2021-08-17T12:18:27Z</time>
      </trkpt>
      <trkpt lat="47.15768" lon="5.91818">
        <ele>283.2</ele>
        <time>2021-08-17T12:18:28Z</time>
      </trkpt>
      <trkpt lat="47.15766" lon="5.91816">
        <ele>283.4</ele>
        <time>2021-08-17T12:18:29Z</time>
      </trkpt>
      <trkpt lat="47.15763" lon="5.91815">
        <ele>283.6</ele>
        <time>2021-08-17T12:18:31Z</time>
      </trkpt>
      <trkpt lat="47.15762" lon="5.91813">
        <ele>283.6</ele>
        <time>2021-08-17T12:18:32Z</time>
      </trkpt>
      <trkpt lat="47.1576" lon="5.91811">
        <ele>283.8</ele>
        <time>2021-08-17T12:18:33Z</time>
      </trkpt>
      <trkpt lat="47.15756" lon="5.91805">
        <ele>284.4</ele>
        <time>2021-08-17T12:18:37Z</time>
      </trkpt>
      <trkpt lat="47.15755" lon="5.91803">
        <ele>284.6</ele>
        <time>2021-08-17T12:18:38Z</time>
      </trkpt>
      <trkpt lat="47.15752" lon="5.91801">
        <ele>284.6</ele>
        <time>2021-08-17T12:18:39Z</time>
      </trkpt>
      <trkpt lat="47.15748" lon="5.91796">
        <ele>284.8</ele>
        <time>2021-08-17T12:18:40Z</time>
      </trkpt>
      <trkpt lat="47.15744" lon="5.91793">
        <ele>285</ele>
        <time>2021-08-17T12:18:41Z</time>
      </trkpt>
      <trkpt lat="47.15738" lon="5.91788">
        <ele>285.2</ele>
        <time>2021-08-17T12:18:43Z</time>
      </trkpt>
      <trkpt lat="47.15733" lon="5.91783">
        <ele>285.4</ele>
        <time>2021-08-17T12:18:45Z</time>
      </trkpt>
      <trkpt lat="47.15731" lon="5.91781">
        <ele>285.4</ele>
        <time>2021-08-17T12:18:46Z</time>
      </trkpt>
      <trkpt lat="47.15722" lon="5.91774">
        <ele>285.8</ele>
        <time>2021-08-17T12:18:50Z</time>
      </trkpt>
      <trkpt lat="47.1572" lon="5.91772">
        <ele>286</ele>
        <time>2021-08-17T12:18:51Z</time>
      </trkpt>
      <trkpt lat="47.15718" lon="5.9177">
        <ele>286</ele>
        <time>2021-08-17T12:18:52Z</time>
      </trkpt>
      <trkpt lat="47.15716" lon="5.91769">
        <ele>286.2</ele>
        <time>2021-08-17T12:18:53Z</time>
      </trkpt>
      <trkpt lat="47.15714" lon="5.91767">
        <ele>286.4</ele>
        <time>2021-08-17T12:18:54Z</time>
      </trkpt>
      <trkpt lat="47.15711" lon="5.91766">
        <ele>286.4</ele>
        <time>2021-08-17T12:18:55Z</time>
      </trkpt>
      <trkpt lat="47.15708" lon="5.91764">
        <ele>286.6</ele>
        <time>2021-08-17T12:18:56Z</time>
      </trkpt>
      <trkpt lat="47.15706" lon="5.91763">
        <ele>286.6</ele>
        <time>2021-08-17T12:18:57Z</time>
      </trkpt>
      <trkpt lat="47.15704" lon="5.91761">
        <ele>286.8</ele>
        <time>2021-08-17T12:18:58Z</time>
      </trkpt>
      <trkpt lat="47.15702" lon="5.9176">
        <ele>286.8</ele>
        <time>2021-08-17T12:18:59Z</time>
      </trkpt>
      <trkpt lat="47.157" lon="5.91759">
        <ele>287</ele>
        <time>2021-08-17T12:19:00Z</time>
      </trkpt>
      <trkpt lat="47.15697" lon="5.91759">
        <ele>287</ele>
        <time>2021-08-17T12:19:01Z</time>
      </trkpt>
      <trkpt lat="47.15695" lon="5.91758">
        <ele>287</ele>
        <time>2021-08-17T12:19:02Z</time>
      </trkpt>
      <trkpt lat="47.15692" lon="5.91758">
        <ele>287</ele>
        <time>2021-08-17T12:19:03Z</time>
      </trkpt>
      <trkpt lat="47.15691" lon="5.91757">
        <ele>287.2</ele>
        <time>2021-08-17T12:19:04Z</time>
      </trkpt>
      <trkpt lat="47.15688" lon="5.91756">
        <ele>287.4</ele>
        <time>2021-08-17T12:19:05Z</time>
      </trkpt>
      <trkpt lat="47.15685" lon="5.91754">
        <ele>287.4</ele>
        <time>2021-08-17T12:19:06Z</time>
      </trkpt>
      <trkpt lat="47.15683" lon="5.91754">
        <ele>287.6</ele>
        <time>2021-08-17T12:19:07Z</time>
      </trkpt>
      <trkpt lat="47.1568" lon="5.91755">
        <ele>287.6</ele>
        <time>2021-08-17T12:19:08Z</time>
      </trkpt>
      <trkpt lat="47.15677" lon="5.91755">
        <ele>287.6</ele>
        <time>2021-08-17T12:19:09Z</time>
      </trkpt>
      <trkpt lat="47.15675" lon="5.91755">
        <ele>287.6</ele>
        <time>2021-08-17T12:19:10Z</time>
      </trkpt>
      <trkpt lat="47.15671" lon="5.91755">
        <ele>287.8</ele>
        <time>2021-08-17T12:19:11Z</time>
      </trkpt>
      <trkpt lat="47.15666" lon="5.91755">
        <ele>287.8</ele>
        <time>2021-08-17T12:19:13Z</time>
      </trkpt>
      <trkpt lat="47.15663" lon="5.91756">
        <ele>288</ele>
        <time>2021-08-17T12:19:14Z</time>
      </trkpt>
      <trkpt lat="47.1566" lon="5.91756">
        <ele>288</ele>
        <time>2021-08-17T12:19:15Z</time>
      </trkpt>
      <trkpt lat="47.15646" lon="5.91759">
        <ele>288.4</ele>
        <time>2021-08-17T12:19:21Z</time>
      </trkpt>
      <trkpt lat="47.15643" lon="5.91759">
        <ele>288.4</ele>
        <time>2021-08-17T12:19:22Z</time>
      </trkpt>
      <trkpt lat="47.15627" lon="5.91764">
        <ele>289</ele>
        <time>2021-08-17T12:19:28Z</time>
      </trkpt>
      <trkpt lat="47.15613" lon="5.91771">
        <ele>289.4</ele>
        <time>2021-08-17T12:19:34Z</time>
      </trkpt>
      <trkpt lat="47.15608" lon="5.91773">
        <ele>289.8</ele>
        <time>2021-08-17T12:19:36Z</time>
      </trkpt>
      <trkpt lat="47.15591" lon="5.9178">
        <ele>290.2</ele>
        <time>2021-08-17T12:19:43Z</time>
      </trkpt>
      <trkpt lat="47.15587" lon="5.91783">
        <ele>290.6</ele>
        <time>2021-08-17T12:19:45Z</time>
      </trkpt>
      <trkpt lat="47.15582" lon="5.91787">
        <ele>290.6</ele>
        <time>2021-08-17T12:19:47Z</time>
      </trkpt>
      <trkpt lat="47.1558" lon="5.91789">
        <ele>290.8</ele>
        <time>2021-08-17T12:19:48Z</time>
      </trkpt>
      <trkpt lat="47.15578" lon="5.91791">
        <ele>290.8</ele>
        <time>2021-08-17T12:19:49Z</time>
      </trkpt>
      <trkpt lat="47.15577" lon="5.91793">
        <ele>290.8</ele>
        <time>2021-08-17T12:19:50Z</time>
      </trkpt>
      <trkpt lat="47.15575" lon="5.91794">
        <ele>291</ele>
        <time>2021-08-17T12:19:51Z</time>
      </trkpt>
      <trkpt lat="47.15573" lon="5.91797">
        <ele>291</ele>
        <time>2021-08-17T12:19:52Z</time>
      </trkpt>
      <trkpt lat="47.15571" lon="5.91799">
        <ele>291.2</ele>
        <time>2021-08-17T12:19:53Z</time>
      </trkpt>
      <trkpt lat="47.15568" lon="5.91802">
        <ele>291.2</ele>
        <time>2021-08-17T12:19:54Z</time>
      </trkpt>
      <trkpt lat="47.15566" lon="5.91805">
        <ele>291.4</ele>
        <time>2021-08-17T12:19:55Z</time>
      </trkpt>
      <trkpt lat="47.15562" lon="5.91807">
        <ele>291.4</ele>
        <time>2021-08-17T12:19:56Z</time>
      </trkpt>
      <trkpt lat="47.15554" lon="5.91812">
        <ele>291.8</ele>
        <time>2021-08-17T12:19:59Z</time>
      </trkpt>
      <trkpt lat="47.15551" lon="5.91813">
        <ele>291.8</ele>
        <time>2021-08-17T12:20:00Z</time>
      </trkpt>
      <trkpt lat="47.15547" lon="5.91815">
        <ele>292</ele>
        <time>2021-08-17T12:20:01Z</time>
      </trkpt>
      <trkpt lat="47.15542" lon="5.91817">
        <ele>292.6</ele>
        <time>2021-08-17T12:20:03Z</time>
      </trkpt>
      <trkpt lat="47.15536" lon="5.91821">
        <ele>292.8</ele>
        <time>2021-08-17T12:20:05Z</time>
      </trkpt>
      <trkpt lat="47.15533" lon="5.91823">
        <ele>293</ele>
        <time>2021-08-17T12:20:06Z</time>
      </trkpt>
      <trkpt lat="47.15531" lon="5.91826">
        <ele>293.2</ele>
        <time>2021-08-17T12:20:07Z</time>
      </trkpt>
      <trkpt lat="47.15528" lon="5.91828">
        <ele>293.2</ele>
        <time>2021-08-17T12:20:08Z</time>
      </trkpt>
      <trkpt lat="47.15525" lon="5.9183">
        <ele>293.4</ele>
        <time>2021-08-17T12:20:09Z</time>
      </trkpt>
      <trkpt lat="47.15523" lon="5.91832">
        <ele>293.4</ele>
        <time>2021-08-17T12:20:10Z</time>
      </trkpt>
      <trkpt lat="47.15521" lon="5.91833">
        <ele>293.6</ele>
        <time>2021-08-17T12:20:11Z</time>
      </trkpt>
      <trkpt lat="47.15518" lon="5.91835">
        <ele>293.6</ele>
        <time>2021-08-17T12:20:12Z</time>
      </trkpt>
      <trkpt lat="47.15516" lon="5.91838">
        <ele>293.6</ele>
        <time>2021-08-17T12:20:13Z</time>
      </trkpt>
      <trkpt lat="47.15514" lon="5.9184">
        <ele>293.6</ele>
        <time>2021-08-17T12:20:14Z</time>
      </trkpt>
      <trkpt lat="47.1551" lon="5.91842">
        <ele>293.8</ele>
        <time>2021-08-17T12:20:15Z</time>
      </trkpt>
      <trkpt lat="47.15507" lon="5.91845">
        <ele>293.6</ele>
        <time>2021-08-17T12:20:16Z</time>
      </trkpt>
      <trkpt lat="47.15504" lon="5.91847">
        <ele>294</ele>
        <time>2021-08-17T12:20:17Z</time>
      </trkpt>
      <trkpt lat="47.15501" lon="5.91848">
        <ele>294</ele>
        <time>2021-08-17T12:20:18Z</time>
      </trkpt>
      <trkpt lat="47.155" lon="5.9185">
        <ele>294</ele>
        <time>2021-08-17T12:20:19Z</time>
      </trkpt>
      <trkpt lat="47.15497" lon="5.91851">
        <ele>294</ele>
        <time>2021-08-17T12:20:20Z</time>
      </trkpt>
      <trkpt lat="47.15496" lon="5.91853">
        <ele>294</ele>
        <time>2021-08-17T12:20:21Z</time>
      </trkpt>
      <trkpt lat="47.15494" lon="5.91854">
        <ele>294.2</ele>
        <time>2021-08-17T12:20:22Z</time>
      </trkpt>
      <trkpt lat="47.15491" lon="5.91855">
        <ele>294.2</ele>
        <time>2021-08-17T12:20:23Z</time>
      </trkpt>
      <trkpt lat="47.15489" lon="5.91856">
        <ele>294.4</ele>
        <time>2021-08-17T12:20:24Z</time>
      </trkpt>
      <trkpt lat="47.15487" lon="5.91857">
        <ele>294.6</ele>
        <time>2021-08-17T12:20:25Z</time>
      </trkpt>
      <trkpt lat="47.15485" lon="5.91859">
        <ele>294.6</ele>
        <time>2021-08-17T12:20:26Z</time>
      </trkpt>
      <trkpt lat="47.15483" lon="5.9186">
        <ele>294.6</ele>
        <time>2021-08-17T12:20:27Z</time>
      </trkpt>
      <trkpt lat="47.1548" lon="5.91862">
        <ele>294.8</ele>
        <time>2021-08-17T12:20:28Z</time>
      </trkpt>
      <trkpt lat="47.15478" lon="5.91863">
        <ele>294.8</ele>
        <time>2021-08-17T12:20:29Z</time>
      </trkpt>
      <trkpt lat="47.15477" lon="5.91864">
        <ele>294.8</ele>
        <time>2021-08-17T12:20:30Z</time>
      </trkpt>
      <trkpt lat="47.15475" lon="5.91866">
        <ele>295</ele>
        <time>2021-08-17T12:20:31Z</time>
      </trkpt>
      <trkpt lat="47.15464" lon="5.91886">
        <ele>295.2</ele>
        <time>2021-08-17T12:20:37Z</time>
      </trkpt>
      <trkpt lat="47.15461" lon="5.91892">
        <ele>295.6</ele>
        <time>2021-08-17T12:20:39Z</time>
      </trkpt>
      <trkpt lat="47.15458" lon="5.91897">
        <ele>295.8</ele>
        <time>2021-08-17T12:20:41Z</time>
      </trkpt>
      <trkpt lat="47.15455" lon="5.91903">
        <ele>296</ele>
        <time>2021-08-17T12:20:44Z</time>
      </trkpt>
      <trkpt lat="47.15452" lon="5.91905">
        <ele>296</ele>
        <time>2021-08-17T12:20:45Z</time>
      </trkpt>
      <trkpt lat="47.1545" lon="5.91909">
        <ele>296</ele>
        <time>2021-08-17T12:20:46Z</time>
      </trkpt>
      <trkpt lat="47.15448" lon="5.91911">
        <ele>296.2</ele>
        <time>2021-08-17T12:20:47Z</time>
      </trkpt>
      <trkpt lat="47.15439" lon="5.91914">
        <ele>296.2</ele>
        <time>2021-08-17T12:20:49Z</time>
      </trkpt>
      <trkpt lat="47.15435" lon="5.9192">
        <ele>296.4</ele>
        <time>2021-08-17T12:20:51Z</time>
      </trkpt>
      <trkpt lat="47.15433" lon="5.91923">
        <ele>296.4</ele>
        <time>2021-08-17T12:20:52Z</time>
      </trkpt>
      <trkpt lat="47.1543" lon="5.91927">
        <ele>296.4</ele>
        <time>2021-08-17T12:20:53Z</time>
      </trkpt>
      <trkpt lat="47.15421" lon="5.9194">
        <ele>297</ele>
        <time>2021-08-17T12:20:57Z</time>
      </trkpt>
      <trkpt lat="47.15419" lon="5.91942">
        <ele>296.8</ele>
        <time>2021-08-17T12:20:58Z</time>
      </trkpt>
      <trkpt lat="47.15416" lon="5.91945">
        <ele>297</ele>
        <time>2021-08-17T12:20:59Z</time>
      </trkpt>
      <trkpt lat="47.15414" lon="5.9195">
        <ele>297</ele>
        <time>2021-08-17T12:21:00Z</time>
      </trkpt>
      <trkpt lat="47.15411" lon="5.91955">
        <ele>297</ele>
        <time>2021-08-17T12:21:01Z</time>
      </trkpt>
      <trkpt lat="47.15409" lon="5.91961">
        <ele>297</ele>
        <time>2021-08-17T12:21:02Z</time>
      </trkpt>
      <trkpt lat="47.15408" lon="5.91965">
        <ele>297</ele>
        <time>2021-08-17T12:21:03Z</time>
      </trkpt>
      <trkpt lat="47.15406" lon="5.91968">
        <ele>297.2</ele>
        <time>2021-08-17T12:21:04Z</time>
      </trkpt>
      <trkpt lat="47.15397" lon="5.91975">
        <ele>297.4</ele>
        <time>2021-08-17T12:21:07Z</time>
      </trkpt>
      <trkpt lat="47.15394" lon="5.91978">
        <ele>297.4</ele>
        <time>2021-08-17T12:21:08Z</time>
      </trkpt>
      <trkpt lat="47.15392" lon="5.91982">
        <ele>297.6</ele>
        <time>2021-08-17T12:21:09Z</time>
      </trkpt>
      <trkpt lat="47.15386" lon="5.91989">
        <ele>298</ele>
        <time>2021-08-17T12:21:12Z</time>
      </trkpt>
      <trkpt lat="47.15385" lon="5.91991">
        <ele>298</ele>
        <time>2021-08-17T12:21:13Z</time>
      </trkpt>
      <trkpt lat="47.15382" lon="5.91994">
        <ele>298</ele>
        <time>2021-08-17T12:21:14Z</time>
      </trkpt>
      <trkpt lat="47.1538" lon="5.91996">
        <ele>298.2</ele>
        <time>2021-08-17T12:21:15Z</time>
      </trkpt>
      <trkpt lat="47.15377" lon="5.91998">
        <ele>298.4</ele>
        <time>2021-08-17T12:21:16Z</time>
      </trkpt>
      <trkpt lat="47.15375" lon="5.92001">
        <ele>298.4</ele>
        <time>2021-08-17T12:21:17Z</time>
      </trkpt>
      <trkpt lat="47.15373" lon="5.92004">
        <ele>298.6</ele>
        <time>2021-08-17T12:21:18Z</time>
      </trkpt>
      <trkpt lat="47.15369" lon="5.92006">
        <ele>298.6</ele>
        <time>2021-08-17T12:21:19Z</time>
      </trkpt>
      <trkpt lat="47.15368" lon="5.92009">
        <ele>299</ele>
        <time>2021-08-17T12:21:21Z</time>
      </trkpt>
      <trkpt lat="47.15366" lon="5.92014">
        <ele>299</ele>
        <time>2021-08-17T12:21:22Z</time>
      </trkpt>
      <trkpt lat="47.15364" lon="5.9202">
        <ele>299.2</ele>
        <time>2021-08-17T12:21:23Z</time>
      </trkpt>
      <trkpt lat="47.15365" lon="5.92022">
        <ele>299.4</ele>
        <time>2021-08-17T12:21:24Z</time>
      </trkpt>
      <trkpt lat="47.15364" lon="5.92025">
        <ele>299.4</ele>
        <time>2021-08-17T12:21:25Z</time>
      </trkpt>
      <trkpt lat="47.15363" lon="5.92028">
        <ele>299.6</ele>
        <time>2021-08-17T12:21:26Z</time>
      </trkpt>
      <trkpt lat="47.15361" lon="5.92032">
        <ele>299.6</ele>
        <time>2021-08-17T12:21:27Z</time>
      </trkpt>
      <trkpt lat="47.1536" lon="5.92035">
        <ele>299.6</ele>
        <time>2021-08-17T12:21:28Z</time>
      </trkpt>
      <trkpt lat="47.15359" lon="5.9204">
        <ele>300</ele>
        <time>2021-08-17T12:21:29Z</time>
      </trkpt>
      <trkpt lat="47.15359" lon="5.92043">
        <ele>300.2</ele>
        <time>2021-08-17T12:21:30Z</time>
      </trkpt>
      <trkpt lat="47.15358" lon="5.92047">
        <ele>300.2</ele>
        <time>2021-08-17T12:21:31Z</time>
      </trkpt>
      <trkpt lat="47.15356" lon="5.92051">
        <ele>300.4</ele>
        <time>2021-08-17T12:21:32Z</time>
      </trkpt>
      <trkpt lat="47.15353" lon="5.92056">
        <ele>300.4</ele>
        <time>2021-08-17T12:21:33Z</time>
      </trkpt>
      <trkpt lat="47.15352" lon="5.9206">
        <ele>300.6</ele>
        <time>2021-08-17T12:21:34Z</time>
      </trkpt>
      <trkpt lat="47.15351" lon="5.92063">
        <ele>300.6</ele>
        <time>2021-08-17T12:21:35Z</time>
      </trkpt>
      <trkpt lat="47.1535" lon="5.92067">
        <ele>300.8</ele>
        <time>2021-08-17T12:21:36Z</time>
      </trkpt>
      <trkpt lat="47.1535" lon="5.92072">
        <ele>300.8</ele>
        <time>2021-08-17T12:21:37Z</time>
      </trkpt>
      <trkpt lat="47.15349" lon="5.92076">
        <ele>301</ele>
        <time>2021-08-17T12:21:38Z</time>
      </trkpt>
      <trkpt lat="47.15348" lon="5.9208">
        <ele>301</ele>
        <time>2021-08-17T12:21:39Z</time>
      </trkpt>
      <trkpt lat="47.15347" lon="5.92084">
        <ele>301</ele>
        <time>2021-08-17T12:21:40Z</time>
      </trkpt>
      <trkpt lat="47.15346" lon="5.92088">
        <ele>300.8</ele>
        <time>2021-08-17T12:21:41Z</time>
      </trkpt>
      <trkpt lat="47.15345" lon="5.92093">
        <ele>300.8</ele>
        <time>2021-08-17T12:21:42Z</time>
      </trkpt>
      <trkpt lat="47.15345" lon="5.92097">
        <ele>300.8</ele>
        <time>2021-08-17T12:21:43Z</time>
      </trkpt>
      <trkpt lat="47.15344" lon="5.92101">
        <ele>301</ele>
        <time>2021-08-17T12:21:44Z</time>
      </trkpt>
      <trkpt lat="47.15344" lon="5.92106">
        <ele>301</ele>
        <time>2021-08-17T12:21:45Z</time>
      </trkpt>
      <trkpt lat="47.15343" lon="5.9211">
        <ele>301</ele>
        <time>2021-08-17T12:21:46Z</time>
      </trkpt>
      <trkpt lat="47.15342" lon="5.92114">
        <ele>301.2</ele>
        <time>2021-08-17T12:21:47Z</time>
      </trkpt>
      <trkpt lat="47.15342" lon="5.92118">
        <ele>301.4</ele>
        <time>2021-08-17T12:21:48Z</time>
      </trkpt>
      <trkpt lat="47.15342" lon="5.92122">
        <ele>301.4</ele>
        <time>2021-08-17T12:21:49Z</time>
      </trkpt>
      <trkpt lat="47.15341" lon="5.92126">
        <ele>301.6</ele>
        <time>2021-08-17T12:21:50Z</time>
      </trkpt>
      <trkpt lat="47.15338" lon="5.92144">
        <ele>302.2</ele>
        <time>2021-08-17T12:21:54Z</time>
      </trkpt>
      <trkpt lat="47.15337" lon="5.92147">
        <ele>302.2</ele>
        <time>2021-08-17T12:21:55Z</time>
      </trkpt>
      <trkpt lat="47.15332" lon="5.92164">
        <ele>302.6</ele>
        <time>2021-08-17T12:21:59Z</time>
      </trkpt>
      <trkpt lat="47.1533" lon="5.92168">
        <ele>302.8</ele>
        <time>2021-08-17T12:22:00Z</time>
      </trkpt>
      <trkpt lat="47.15329" lon="5.92172">
        <ele>303</ele>
        <time>2021-08-17T12:22:01Z</time>
      </trkpt>
      <trkpt lat="47.15329" lon="5.92175">
        <ele>303.2</ele>
        <time>2021-08-17T12:22:02Z</time>
      </trkpt>
      <trkpt lat="47.15327" lon="5.92178">
        <ele>303.6</ele>
        <time>2021-08-17T12:22:03Z</time>
      </trkpt>
      <trkpt lat="47.15326" lon="5.92182">
        <ele>303.8</ele>
        <time>2021-08-17T12:22:04Z</time>
      </trkpt>
      <trkpt lat="47.15325" lon="5.92185">
        <ele>304</ele>
        <time>2021-08-17T12:22:05Z</time>
      </trkpt>
      <trkpt lat="47.15323" lon="5.92187">
        <ele>304.2</ele>
        <time>2021-08-17T12:22:06Z</time>
      </trkpt>
      <trkpt lat="47.15322" lon="5.9219">
        <ele>304.2</ele>
        <time>2021-08-17T12:22:07Z</time>
      </trkpt>
      <trkpt lat="47.15321" lon="5.92193">
        <ele>304.6</ele>
        <time>2021-08-17T12:22:08Z</time>
      </trkpt>
      <trkpt lat="47.15319" lon="5.92196">
        <ele>304.8</ele>
        <time>2021-08-17T12:22:09Z</time>
      </trkpt>
      <trkpt lat="47.15318" lon="5.92199">
        <ele>305.2</ele>
        <time>2021-08-17T12:22:10Z</time>
      </trkpt>
      <trkpt lat="47.15317" lon="5.92202">
        <ele>305.4</ele>
        <time>2021-08-17T12:22:11Z</time>
      </trkpt>
      <trkpt lat="47.15315" lon="5.92205">
        <ele>305.6</ele>
        <time>2021-08-17T12:22:12Z</time>
      </trkpt>
      <trkpt lat="47.15314" lon="5.92208">
        <ele>305.8</ele>
        <time>2021-08-17T12:22:13Z</time>
      </trkpt>
      <trkpt lat="47.15312" lon="5.92211">
        <ele>305.8</ele>
        <time>2021-08-17T12:22:14Z</time>
      </trkpt>
      <trkpt lat="47.1531" lon="5.92214">
        <ele>306</ele>
        <time>2021-08-17T12:22:15Z</time>
      </trkpt>
      <trkpt lat="47.15308" lon="5.92217">
        <ele>306</ele>
        <time>2021-08-17T12:22:16Z</time>
      </trkpt>
      <trkpt lat="47.15306" lon="5.9222">
        <ele>306</ele>
        <time>2021-08-17T12:22:17Z</time>
      </trkpt>
      <trkpt lat="47.15304" lon="5.92222">
        <ele>306.2</ele>
        <time>2021-08-17T12:22:18Z</time>
      </trkpt>
      <trkpt lat="47.15301" lon="5.92224">
        <ele>306.2</ele>
        <time>2021-08-17T12:22:19Z</time>
      </trkpt>
      <trkpt lat="47.15298" lon="5.92225">
        <ele>306.2</ele>
        <time>2021-08-17T12:22:20Z</time>
      </trkpt>
      <trkpt lat="47.15297" lon="5.92225">
        <ele>306.2</ele>
        <time>2021-08-17T12:22:21Z</time>
      </trkpt>
      <trkpt lat="47.15297" lon="5.92222">
        <ele>306.8</ele>
        <time>2021-08-17T12:23:48Z</time>
      </trkpt>
      <trkpt lat="47.15297" lon="5.9222">
        <ele>306.8</ele>
        <time>2021-08-17T12:23:49Z</time>
      </trkpt>
      <trkpt lat="47.15298" lon="5.92218">
        <ele>306.8</ele>
        <time>2021-08-17T12:23:50Z</time>
      </trkpt>
      <trkpt lat="47.15299" lon="5.92212">
        <ele>306.8</ele>
        <time>2021-08-17T12:23:52Z</time>
      </trkpt>
      <trkpt lat="47.15299" lon="5.9221">
        <ele>306.8</ele>
        <time>2021-08-17T12:23:53Z</time>
      </trkpt>
      <trkpt lat="47.15299" lon="5.92203">
        <ele>306.8</ele>
        <time>2021-08-17T12:23:55Z</time>
      </trkpt>
      <trkpt lat="47.15299" lon="5.92199">
        <ele>306.8</ele>
        <time>2021-08-17T12:23:56Z</time>
      </trkpt>
      <trkpt lat="47.15298" lon="5.92197">
        <ele>306.8</ele>
        <time>2021-08-17T12:23:57Z</time>
      </trkpt>
      <trkpt lat="47.15298" lon="5.9219">
        <ele>306.8</ele>
        <time>2021-08-17T12:23:59Z</time>
      </trkpt>
      <trkpt lat="47.15297" lon="5.92186">
        <ele>306.8</ele>
        <time>2021-08-17T12:24:00Z</time>
      </trkpt>
      <trkpt lat="47.15298" lon="5.92174">
        <ele>307</ele>
        <time>2021-08-17T12:24:03Z</time>
      </trkpt>
      <trkpt lat="47.15302" lon="5.92147">
        <ele>307.6</ele>
        <time>2021-08-17T12:24:11Z</time>
      </trkpt>
      <trkpt lat="47.15307" lon="5.92131">
        <ele>308</ele>
        <time>2021-08-17T12:24:16Z</time>
      </trkpt>
      <trkpt lat="47.15308" lon="5.92128">
        <ele>308.2</ele>
        <time>2021-08-17T12:24:17Z</time>
      </trkpt>
      <trkpt lat="47.15309" lon="5.92125">
        <ele>308.2</ele>
        <time>2021-08-17T12:24:18Z</time>
      </trkpt>
      <trkpt lat="47.15309" lon="5.92122">
        <ele>308.4</ele>
        <time>2021-08-17T12:24:19Z</time>
      </trkpt>
      <trkpt lat="47.1531" lon="5.92118">
        <ele>308.4</ele>
        <time>2021-08-17T12:24:20Z</time>
      </trkpt>
      <trkpt lat="47.15311" lon="5.92115">
        <ele>308.4</ele>
        <time>2021-08-17T12:24:21Z</time>
      </trkpt>
      <trkpt lat="47.15312" lon="5.92112">
        <ele>308.6</ele>
        <time>2021-08-17T12:24:22Z</time>
      </trkpt>
      <trkpt lat="47.15314" lon="5.92106">
        <ele>308.8</ele>
        <time>2021-08-17T12:24:24Z</time>
      </trkpt>
      <trkpt lat="47.15318" lon="5.92096">
        <ele>309</ele>
        <time>2021-08-17T12:24:27Z</time>
      </trkpt>
      <trkpt lat="47.15322" lon="5.92083">
        <ele>309.6</ele>
        <time>2021-08-17T12:24:31Z</time>
      </trkpt>
      <trkpt lat="47.15327" lon="5.92065">
        <ele>310.6</ele>
        <time>2021-08-17T12:24:36Z</time>
      </trkpt>
      <trkpt lat="47.15328" lon="5.92062">
        <ele>310.6</ele>
        <time>2021-08-17T12:24:37Z</time>
      </trkpt>
      <trkpt lat="47.15329" lon="5.92059">
        <ele>310.8</ele>
        <time>2021-08-17T12:24:38Z</time>
      </trkpt>
      <trkpt lat="47.1533" lon="5.92056">
        <ele>310.8</ele>
        <time>2021-08-17T12:24:39Z</time>
      </trkpt>
      <trkpt lat="47.15331" lon="5.92052">
        <ele>311</ele>
        <time>2021-08-17T12:24:40Z</time>
      </trkpt>
      <trkpt lat="47.15332" lon="5.92049">
        <ele>311</ele>
        <time>2021-08-17T12:24:41Z</time>
      </trkpt>
      <trkpt lat="47.15333" lon="5.92045">
        <ele>311</ele>
        <time>2021-08-17T12:24:42Z</time>
      </trkpt>
      <trkpt lat="47.15334" lon="5.92042">
        <ele>311.2</ele>
        <time>2021-08-17T12:24:43Z</time>
      </trkpt>
      <trkpt lat="47.15335" lon="5.92039">
        <ele>311.2</ele>
        <time>2021-08-17T12:24:44Z</time>
      </trkpt>
      <trkpt lat="47.15336" lon="5.92035">
        <ele>311.4</ele>
        <time>2021-08-17T12:24:45Z</time>
      </trkpt>
      <trkpt lat="47.15337" lon="5.92031">
        <ele>311.4</ele>
        <time>2021-08-17T12:24:46Z</time>
      </trkpt>
      <trkpt lat="47.15338" lon="5.92028">
        <ele>311.6</ele>
        <time>2021-08-17T12:24:47Z</time>
      </trkpt>
      <trkpt lat="47.15339" lon="5.92025">
        <ele>311.8</ele>
        <time>2021-08-17T12:24:48Z</time>
      </trkpt>
      <trkpt lat="47.1534" lon="5.92021">
        <ele>311.8</ele>
        <time>2021-08-17T12:24:49Z</time>
      </trkpt>
      <trkpt lat="47.15341" lon="5.92017">
        <ele>312.2</ele>
        <time>2021-08-17T12:24:50Z</time>
      </trkpt>
      <trkpt lat="47.15342" lon="5.92013">
        <ele>312.2</ele>
        <time>2021-08-17T12:24:51Z</time>
      </trkpt>
      <trkpt lat="47.15344" lon="5.9201">
        <ele>312.4</ele>
        <time>2021-08-17T12:24:52Z</time>
      </trkpt>
      <trkpt lat="47.15345" lon="5.92006">
        <ele>312.6</ele>
        <time>2021-08-17T12:24:53Z</time>
      </trkpt>
      <trkpt lat="47.15347" lon="5.92003">
        <ele>312.6</ele>
        <time>2021-08-17T12:24:54Z</time>
      </trkpt>
      <trkpt lat="47.15348" lon="5.92">
        <ele>312.6</ele>
        <time>2021-08-17T12:24:55Z</time>
      </trkpt>
      <trkpt lat="47.15349" lon="5.91997">
        <ele>312.8</ele>
        <time>2021-08-17T12:24:56Z</time>
      </trkpt>
      <trkpt lat="47.15351" lon="5.91994">
        <ele>313</ele>
        <time>2021-08-17T12:24:57Z</time>
      </trkpt>
      <trkpt lat="47.15352" lon="5.91991">
        <ele>313.2</ele>
        <time>2021-08-17T12:24:58Z</time>
      </trkpt>
      <trkpt lat="47.15354" lon="5.91988">
        <ele>313.4</ele>
        <time>2021-08-17T12:24:59Z</time>
      </trkpt>
      <trkpt lat="47.15355" lon="5.91985">
        <ele>313.4</ele>
        <time>2021-08-17T12:25:00Z</time>
      </trkpt>
      <trkpt lat="47.15357" lon="5.91982">
        <ele>313.6</ele>
        <time>2021-08-17T12:25:01Z</time>
      </trkpt>
      <trkpt lat="47.15357" lon="5.91979">
        <ele>313.4</ele>
        <time>2021-08-17T12:25:02Z</time>
      </trkpt>
      <trkpt lat="47.15358" lon="5.91976">
        <ele>313.6</ele>
        <time>2021-08-17T12:25:03Z</time>
      </trkpt>
      <trkpt lat="47.15359" lon="5.91973">
        <ele>313.8</ele>
        <time>2021-08-17T12:25:04Z</time>
      </trkpt>
      <trkpt lat="47.1536" lon="5.91969">
        <ele>314</ele>
        <time>2021-08-17T12:25:05Z</time>
      </trkpt>
      <trkpt lat="47.15362" lon="5.91966">
        <ele>314.2</ele>
        <time>2021-08-17T12:25:06Z</time>
      </trkpt>
      <trkpt lat="47.15363" lon="5.91962">
        <ele>314.4</ele>
        <time>2021-08-17T12:25:07Z</time>
      </trkpt>
      <trkpt lat="47.15365" lon="5.91958">
        <ele>314.6</ele>
        <time>2021-08-17T12:25:08Z</time>
      </trkpt>
      <trkpt lat="47.15366" lon="5.91955">
        <ele>314.6</ele>
        <time>2021-08-17T12:25:09Z</time>
      </trkpt>
      <trkpt lat="47.15367" lon="5.91951">
        <ele>314.8</ele>
        <time>2021-08-17T12:25:10Z</time>
      </trkpt>
      <trkpt lat="47.15369" lon="5.91948">
        <ele>315</ele>
        <time>2021-08-17T12:25:11Z</time>
      </trkpt>
      <trkpt lat="47.1537" lon="5.91945">
        <ele>315</ele>
        <time>2021-08-17T12:25:12Z</time>
      </trkpt>
      <trkpt lat="47.15372" lon="5.91942">
        <ele>315.2</ele>
        <time>2021-08-17T12:25:13Z</time>
      </trkpt>
      <trkpt lat="47.15374" lon="5.91939">
        <ele>315.2</ele>
        <time>2021-08-17T12:25:14Z</time>
      </trkpt>
      <trkpt lat="47.15375" lon="5.91936">
        <ele>315.4</ele>
        <time>2021-08-17T12:25:15Z</time>
      </trkpt>
      <trkpt lat="47.15377" lon="5.91933">
        <ele>315.4</ele>
        <time>2021-08-17T12:25:16Z</time>
      </trkpt>
      <trkpt lat="47.15378" lon="5.9193">
        <ele>315.6</ele>
        <time>2021-08-17T12:25:17Z</time>
      </trkpt>
      <trkpt lat="47.1538" lon="5.91927">
        <ele>315.6</ele>
        <time>2021-08-17T12:25:18Z</time>
      </trkpt>
      <trkpt lat="47.15382" lon="5.91925">
        <ele>315.8</ele>
        <time>2021-08-17T12:25:19Z</time>
      </trkpt>
      <trkpt lat="47.15384" lon="5.91921">
        <ele>316</ele>
        <time>2021-08-17T12:25:20Z</time>
      </trkpt>
      <trkpt lat="47.15386" lon="5.91918">
        <ele>316</ele>
        <time>2021-08-17T12:25:21Z</time>
      </trkpt>
      <trkpt lat="47.15388" lon="5.91915">
        <ele>316.2</ele>
        <time>2021-08-17T12:25:22Z</time>
      </trkpt>
      <trkpt lat="47.15389" lon="5.91912">
        <ele>316.2</ele>
        <time>2021-08-17T12:25:23Z</time>
      </trkpt>
      <trkpt lat="47.15391" lon="5.91908">
        <ele>316.2</ele>
        <time>2021-08-17T12:25:24Z</time>
      </trkpt>
      <trkpt lat="47.15392" lon="5.91906">
        <ele>316.4</ele>
        <time>2021-08-17T12:25:25Z</time>
      </trkpt>
      <trkpt lat="47.15393" lon="5.91902">
        <ele>316.4</ele>
        <time>2021-08-17T12:25:26Z</time>
      </trkpt>
      <trkpt lat="47.15395" lon="5.91899">
        <ele>316.6</ele>
        <time>2021-08-17T12:25:27Z</time>
      </trkpt>
      <trkpt lat="47.15397" lon="5.91896">
        <ele>316.6</ele>
        <time>2021-08-17T12:25:28Z</time>
      </trkpt>
      <trkpt lat="47.15399" lon="5.91894">
        <ele>316.8</ele>
        <time>2021-08-17T12:25:29Z</time>
      </trkpt>
      <trkpt lat="47.154" lon="5.91891">
        <ele>316.8</ele>
        <time>2021-08-17T12:25:30Z</time>
      </trkpt>
      <trkpt lat="47.15402" lon="5.91888">
        <ele>316.8</ele>
        <time>2021-08-17T12:25:31Z</time>
      </trkpt>
      <trkpt lat="47.15404" lon="5.91884">
        <ele>317</ele>
        <time>2021-08-17T12:25:32Z</time>
      </trkpt>
      <trkpt lat="47.15406" lon="5.91881">
        <ele>317</ele>
        <time>2021-08-17T12:25:33Z</time>
      </trkpt>
      <trkpt lat="47.15407" lon="5.91878">
        <ele>317.2</ele>
        <time>2021-08-17T12:25:34Z</time>
      </trkpt>
      <trkpt lat="47.15409" lon="5.91876">
        <ele>317.2</ele>
        <time>2021-08-17T12:25:35Z</time>
      </trkpt>
      <trkpt lat="47.1541" lon="5.91873">
        <ele>317.6</ele>
        <time>2021-08-17T12:25:36Z</time>
      </trkpt>
      <trkpt lat="47.15412" lon="5.9187">
        <ele>317.6</ele>
        <time>2021-08-17T12:25:37Z</time>
      </trkpt>
      <trkpt lat="47.15413" lon="5.91867">
        <ele>318</ele>
        <time>2021-08-17T12:25:38Z</time>
      </trkpt>
      <trkpt lat="47.15414" lon="5.91864">
        <ele>318</ele>
        <time>2021-08-17T12:25:39Z</time>
      </trkpt>
      <trkpt lat="47.15415" lon="5.91862">
        <ele>318.2</ele>
        <time>2021-08-17T12:25:40Z</time>
      </trkpt>
      <trkpt lat="47.15417" lon="5.9186">
        <ele>318.2</ele>
        <time>2021-08-17T12:25:41Z</time>
      </trkpt>
      <trkpt lat="47.15418" lon="5.91856">
        <ele>318.4</ele>
        <time>2021-08-17T12:25:42Z</time>
      </trkpt>
      <trkpt lat="47.1542" lon="5.91854">
        <ele>318.4</ele>
        <time>2021-08-17T12:25:43Z</time>
      </trkpt>
      <trkpt lat="47.15422" lon="5.91852">
        <ele>318.4</ele>
        <time>2021-08-17T12:25:44Z</time>
      </trkpt>
      <trkpt lat="47.15424" lon="5.9185">
        <ele>318.6</ele>
        <time>2021-08-17T12:25:45Z</time>
      </trkpt>
      <trkpt lat="47.15425" lon="5.91845">
        <ele>318.8</ele>
        <time>2021-08-17T12:25:46Z</time>
      </trkpt>
      <trkpt lat="47.15426" lon="5.91841">
        <ele>318.8</ele>
        <time>2021-08-17T12:25:47Z</time>
      </trkpt>
      <trkpt lat="47.15428" lon="5.91839">
        <ele>319</ele>
        <time>2021-08-17T12:25:48Z</time>
      </trkpt>
      <trkpt lat="47.1543" lon="5.91836">
        <ele>319.2</ele>
        <time>2021-08-17T12:25:49Z</time>
      </trkpt>
      <trkpt lat="47.15431" lon="5.91834">
        <ele>319.4</ele>
        <time>2021-08-17T12:25:50Z</time>
      </trkpt>
      <trkpt lat="47.15433" lon="5.91831">
        <ele>319.4</ele>
        <time>2021-08-17T12:25:51Z</time>
      </trkpt>
      <trkpt lat="47.15435" lon="5.91829">
        <ele>319.4</ele>
        <time>2021-08-17T12:25:52Z</time>
      </trkpt>
      <trkpt lat="47.15437" lon="5.91827">
        <ele>319.6</ele>
        <time>2021-08-17T12:25:53Z</time>
      </trkpt>
      <trkpt lat="47.15439" lon="5.91824">
        <ele>319.6</ele>
        <time>2021-08-17T12:25:54Z</time>
      </trkpt>
      <trkpt lat="47.15441" lon="5.91821">
        <ele>319.8</ele>
        <time>2021-08-17T12:25:55Z</time>
      </trkpt>
      <trkpt lat="47.15444" lon="5.91819">
        <ele>320</ele>
        <time>2021-08-17T12:25:56Z</time>
      </trkpt>
      <trkpt lat="47.15446" lon="5.91817">
        <ele>320</ele>
        <time>2021-08-17T12:25:57Z</time>
      </trkpt>
      <trkpt lat="47.15448" lon="5.91815">
        <ele>320.2</ele>
        <time>2021-08-17T12:25:58Z</time>
      </trkpt>
      <trkpt lat="47.1545" lon="5.91813">
        <ele>320.4</ele>
        <time>2021-08-17T12:25:59Z</time>
      </trkpt>
      <trkpt lat="47.15452" lon="5.91811">
        <ele>320.2</ele>
        <time>2021-08-17T12:26:00Z</time>
      </trkpt>
      <trkpt lat="47.15454" lon="5.91809">
        <ele>320.4</ele>
        <time>2021-08-17T12:26:01Z</time>
      </trkpt>
      <trkpt lat="47.15456" lon="5.91807">
        <ele>320.4</ele>
        <time>2021-08-17T12:26:02Z</time>
      </trkpt>
      <trkpt lat="47.15458" lon="5.91805">
        <ele>320.6</ele>
        <time>2021-08-17T12:26:03Z</time>
      </trkpt>
      <trkpt lat="47.1546" lon="5.91803">
        <ele>320.6</ele>
        <time>2021-08-17T12:26:04Z</time>
      </trkpt>
      <trkpt lat="47.15462" lon="5.91801">
        <ele>320.8</ele>
        <time>2021-08-17T12:26:05Z</time>
      </trkpt>
      <trkpt lat="47.15464" lon="5.91799">
        <ele>321</ele>
        <time>2021-08-17T12:26:06Z</time>
      </trkpt>
      <trkpt lat="47.15466" lon="5.91797">
        <ele>321</ele>
        <time>2021-08-17T12:26:07Z</time>
      </trkpt>
      <trkpt lat="47.15468" lon="5.91795">
        <ele>321</ele>
        <time>2021-08-17T12:26:08Z</time>
      </trkpt>
      <trkpt lat="47.1547" lon="5.91793">
        <ele>321.2</ele>
        <time>2021-08-17T12:26:09Z</time>
      </trkpt>
      <trkpt lat="47.15473" lon="5.91791">
        <ele>321.4</ele>
        <time>2021-08-17T12:26:10Z</time>
      </trkpt>
      <trkpt lat="47.15474" lon="5.91789">
        <ele>321.4</ele>
        <time>2021-08-17T12:26:11Z</time>
      </trkpt>
      <trkpt lat="47.15476" lon="5.91786">
        <ele>321.6</ele>
        <time>2021-08-17T12:26:12Z</time>
      </trkpt>
      <trkpt lat="47.15478" lon="5.91784">
        <ele>321.6</ele>
        <time>2021-08-17T12:26:13Z</time>
      </trkpt>
      <trkpt lat="47.1548" lon="5.91782">
        <ele>321.8</ele>
        <time>2021-08-17T12:26:14Z</time>
      </trkpt>
      <trkpt lat="47.15482" lon="5.91779">
        <ele>322</ele>
        <time>2021-08-17T12:26:15Z</time>
      </trkpt>
      <trkpt lat="47.15484" lon="5.91777">
        <ele>322</ele>
        <time>2021-08-17T12:26:16Z</time>
      </trkpt>
      <trkpt lat="47.15486" lon="5.91776">
        <ele>322.2</ele>
        <time>2021-08-17T12:26:17Z</time>
      </trkpt>
      <trkpt lat="47.15488" lon="5.91773">
        <ele>322.2</ele>
        <time>2021-08-17T12:26:18Z</time>
      </trkpt>
      <trkpt lat="47.1549" lon="5.91771">
        <ele>322.4</ele>
        <time>2021-08-17T12:26:19Z</time>
      </trkpt>
      <trkpt lat="47.15491" lon="5.91768">
        <ele>322.4</ele>
        <time>2021-08-17T12:26:20Z</time>
      </trkpt>
      <trkpt lat="47.15494" lon="5.91765">
        <ele>322.6</ele>
        <time>2021-08-17T12:26:21Z</time>
      </trkpt>
      <trkpt lat="47.15495" lon="5.91762">
        <ele>322.8</ele>
        <time>2021-08-17T12:26:22Z</time>
      </trkpt>
      <trkpt lat="47.15498" lon="5.9176">
        <ele>322.8</ele>
        <time>2021-08-17T12:26:23Z</time>
      </trkpt>
      <trkpt lat="47.15499" lon="5.91757">
        <ele>323</ele>
        <time>2021-08-17T12:26:24Z</time>
      </trkpt>
      <trkpt lat="47.15501" lon="5.91755">
        <ele>323</ele>
        <time>2021-08-17T12:26:25Z</time>
      </trkpt>
      <trkpt lat="47.15503" lon="5.91752">
        <ele>323</ele>
        <time>2021-08-17T12:26:26Z</time>
      </trkpt>
      <trkpt lat="47.15505" lon="5.91749">
        <ele>323.2</ele>
        <time>2021-08-17T12:26:27Z</time>
      </trkpt>
      <trkpt lat="47.15506" lon="5.91746">
        <ele>323.2</ele>
        <time>2021-08-17T12:26:28Z</time>
      </trkpt>
      <trkpt lat="47.15508" lon="5.91744">
        <ele>323.4</ele>
        <time>2021-08-17T12:26:29Z</time>
      </trkpt>
      <trkpt lat="47.15509" lon="5.91741">
        <ele>323.4</ele>
        <time>2021-08-17T12:26:30Z</time>
      </trkpt>
      <trkpt lat="47.15511" lon="5.91738">
        <ele>323.6</ele>
        <time>2021-08-17T12:26:31Z</time>
      </trkpt>
      <trkpt lat="47.15512" lon="5.91735">
        <ele>323.6</ele>
        <time>2021-08-17T12:26:32Z</time>
      </trkpt>
      <trkpt lat="47.15514" lon="5.91732">
        <ele>323.6</ele>
        <time>2021-08-17T12:26:33Z</time>
      </trkpt>
      <trkpt lat="47.15516" lon="5.91729">
        <ele>323.6</ele>
        <time>2021-08-17T12:26:34Z</time>
      </trkpt>
      <trkpt lat="47.15517" lon="5.91726">
        <ele>323.8</ele>
        <time>2021-08-17T12:26:35Z</time>
      </trkpt>
      <trkpt lat="47.15527" lon="5.91702">
        <ele>324.6</ele>
        <time>2021-08-17T12:26:42Z</time>
      </trkpt>
      <trkpt lat="47.15532" lon="5.91683">
        <ele>324.8</ele>
        <time>2021-08-17T12:26:47Z</time>
      </trkpt>
      <trkpt lat="47.15536" lon="5.91657">
        <ele>324.8</ele>
        <time>2021-08-17T12:26:52Z</time>
      </trkpt>
      <trkpt lat="47.15539" lon="5.91617">
        <ele>324.8</ele>
        <time>2021-08-17T12:27:00Z</time>
      </trkpt>
      <trkpt lat="47.15539" lon="5.91612">
        <ele>324.6</ele>
        <time>2021-08-17T12:27:01Z</time>
      </trkpt>
      <trkpt lat="47.15539" lon="5.91607">
        <ele>324.6</ele>
        <time>2021-08-17T12:27:02Z</time>
      </trkpt>
      <trkpt lat="47.15534" lon="5.91563">
        <ele>324.8</ele>
        <time>2021-08-17T12:27:10Z</time>
      </trkpt>
      <trkpt lat="47.1553" lon="5.91553">
        <ele>324.8</ele>
        <time>2021-08-17T12:27:12Z</time>
      </trkpt>
      <trkpt lat="47.15527" lon="5.91552">
        <ele>324.8</ele>
        <time>2021-08-17T12:27:13Z</time>
      </trkpt>
      <trkpt lat="47.15524" lon="5.91552">
        <ele>324.8</ele>
        <time>2021-08-17T12:27:14Z</time>
      </trkpt>
      <trkpt lat="47.15521" lon="5.91553">
        <ele>324.8</ele>
        <time>2021-08-17T12:27:15Z</time>
      </trkpt>
      <trkpt lat="47.15518" lon="5.91555">
        <ele>324.8</ele>
        <time>2021-08-17T12:27:16Z</time>
      </trkpt>
      <trkpt lat="47.15516" lon="5.91558">
        <ele>324.8</ele>
        <time>2021-08-17T12:27:17Z</time>
      </trkpt>
      <trkpt lat="47.15514" lon="5.91559">
        <ele>325</ele>
        <time>2021-08-17T12:27:18Z</time>
      </trkpt>
      <trkpt lat="47.15512" lon="5.91561">
        <ele>325</ele>
        <time>2021-08-17T12:27:19Z</time>
      </trkpt>
      <trkpt lat="47.1551" lon="5.91563">
        <ele>325.2</ele>
        <time>2021-08-17T12:27:20Z</time>
      </trkpt>
      <trkpt lat="47.15506" lon="5.91566">
        <ele>325.8</ele>
        <time>2021-08-17T12:27:22Z</time>
      </trkpt>
      <trkpt lat="47.15503" lon="5.91567">
        <ele>326.2</ele>
        <time>2021-08-17T12:27:23Z</time>
      </trkpt>
      <trkpt lat="47.15501" lon="5.91569">
        <ele>326.4</ele>
        <time>2021-08-17T12:27:24Z</time>
      </trkpt>
      <trkpt lat="47.155" lon="5.9157">
        <ele>326.4</ele>
        <time>2021-08-17T12:27:25Z</time>
      </trkpt>
      <trkpt lat="47.15498" lon="5.91572">
        <ele>326.4</ele>
        <time>2021-08-17T12:27:26Z</time>
      </trkpt>
      <trkpt lat="47.15496" lon="5.91573">
        <ele>326.6</ele>
        <time>2021-08-17T12:27:27Z</time>
      </trkpt>
      <trkpt lat="47.15494" lon="5.91575">
        <ele>326.6</ele>
        <time>2021-08-17T12:27:28Z</time>
      </trkpt>
      <trkpt lat="47.15492" lon="5.91577">
        <ele>326.8</ele>
        <time>2021-08-17T12:27:29Z</time>
      </trkpt>
      <trkpt lat="47.15484" lon="5.91584">
        <ele>327.4</ele>
        <time>2021-08-17T12:27:33Z</time>
      </trkpt>
      <trkpt lat="47.15481" lon="5.91586">
        <ele>327.4</ele>
        <time>2021-08-17T12:27:34Z</time>
      </trkpt>
      <trkpt lat="47.15471" lon="5.91593">
        <ele>328</ele>
        <time>2021-08-17T12:27:39Z</time>
      </trkpt>
      <trkpt lat="47.15468" lon="5.91595">
        <ele>328.2</ele>
        <time>2021-08-17T12:27:40Z</time>
      </trkpt>
      <trkpt lat="47.15466" lon="5.91597">
        <ele>328.4</ele>
        <time>2021-08-17T12:27:41Z</time>
      </trkpt>
      <trkpt lat="47.15464" lon="5.91598">
        <ele>328.8</ele>
        <time>2021-08-17T12:27:42Z</time>
      </trkpt>
      <trkpt lat="47.15462" lon="5.91599">
        <ele>328.8</ele>
        <time>2021-08-17T12:27:43Z</time>
      </trkpt>
      <trkpt lat="47.1546" lon="5.91601">
        <ele>329</ele>
        <time>2021-08-17T12:27:44Z</time>
      </trkpt>
      <trkpt lat="47.15458" lon="5.91602">
        <ele>329.2</ele>
        <time>2021-08-17T12:27:45Z</time>
      </trkpt>
      <trkpt lat="47.15456" lon="5.91604">
        <ele>329.2</ele>
        <time>2021-08-17T12:27:46Z</time>
      </trkpt>
      <trkpt lat="47.15454" lon="5.91605">
        <ele>329.4</ele>
        <time>2021-08-17T12:27:47Z</time>
      </trkpt>
      <trkpt lat="47.15452" lon="5.91606">
        <ele>329.6</ele>
        <time>2021-08-17T12:27:48Z</time>
      </trkpt>
      <trkpt lat="47.15451" lon="5.91607">
        <ele>329.6</ele>
        <time>2021-08-17T12:27:49Z</time>
      </trkpt>
      <trkpt lat="47.1545" lon="5.91608">
        <ele>329.8</ele>
        <time>2021-08-17T12:27:50Z</time>
      </trkpt>
      <trkpt lat="47.15448" lon="5.9161">
        <ele>330</ele>
        <time>2021-08-17T12:27:51Z</time>
      </trkpt>
      <trkpt lat="47.15446" lon="5.9161">
        <ele>330.2</ele>
        <time>2021-08-17T12:27:52Z</time>
      </trkpt>
      <trkpt lat="47.15444" lon="5.91611">
        <ele>330.4</ele>
        <time>2021-08-17T12:27:53Z</time>
      </trkpt>
      <trkpt lat="47.15442" lon="5.91611">
        <ele>330.4</ele>
        <time>2021-08-17T12:27:54Z</time>
      </trkpt>
      <trkpt lat="47.1544" lon="5.91612">
        <ele>330.8</ele>
        <time>2021-08-17T12:27:55Z</time>
      </trkpt>
      <trkpt lat="47.15438" lon="5.91612">
        <ele>331.2</ele>
        <time>2021-08-17T12:27:56Z</time>
      </trkpt>
      <trkpt lat="47.15436" lon="5.91612">
        <ele>331.4</ele>
        <time>2021-08-17T12:27:57Z</time>
      </trkpt>
      <trkpt lat="47.15434" lon="5.91612">
        <ele>331.8</ele>
        <time>2021-08-17T12:27:58Z</time>
      </trkpt>
      <trkpt lat="47.15433" lon="5.91612">
        <ele>332</ele>
        <time>2021-08-17T12:27:59Z</time>
      </trkpt>
      <trkpt lat="47.15431" lon="5.91612">
        <ele>332.4</ele>
        <time>2021-08-17T12:28:00Z</time>
      </trkpt>
      <trkpt lat="47.15429" lon="5.91613">
        <ele>332.4</ele>
        <time>2021-08-17T12:28:01Z</time>
      </trkpt>
      <trkpt lat="47.15428" lon="5.91613">
        <ele>333</ele>
        <time>2021-08-17T12:28:02Z</time>
      </trkpt>
      <trkpt lat="47.15426" lon="5.91613">
        <ele>333</ele>
        <time>2021-08-17T12:28:03Z</time>
      </trkpt>
      <trkpt lat="47.15425" lon="5.91614">
        <ele>333.2</ele>
        <time>2021-08-17T12:28:04Z</time>
      </trkpt>
      <trkpt lat="47.15423" lon="5.91614">
        <ele>333.2</ele>
        <time>2021-08-17T12:28:05Z</time>
      </trkpt>
      <trkpt lat="47.15422" lon="5.91613">
        <ele>333.2</ele>
        <time>2021-08-17T12:28:06Z</time>
      </trkpt>
      <trkpt lat="47.1542" lon="5.91613">
        <ele>333.2</ele>
        <time>2021-08-17T12:28:07Z</time>
      </trkpt>
      <trkpt lat="47.15418" lon="5.91613">
        <ele>333.4</ele>
        <time>2021-08-17T12:28:08Z</time>
      </trkpt>
      <trkpt lat="47.15416" lon="5.91613">
        <ele>333.8</ele>
        <time>2021-08-17T12:28:09Z</time>
      </trkpt>
      <trkpt lat="47.15414" lon="5.91613">
        <ele>334</ele>
        <time>2021-08-17T12:28:10Z</time>
      </trkpt>
      <trkpt lat="47.15413" lon="5.91613">
        <ele>334.2</ele>
        <time>2021-08-17T12:28:11Z</time>
      </trkpt>
      <trkpt lat="47.15411" lon="5.91612">
        <ele>334.2</ele>
        <time>2021-08-17T12:28:12Z</time>
      </trkpt>
      <trkpt lat="47.15409" lon="5.91612">
        <ele>334.4</ele>
        <time>2021-08-17T12:28:13Z</time>
      </trkpt>
      <trkpt lat="47.15408" lon="5.91612">
        <ele>334.6</ele>
        <time>2021-08-17T12:28:14Z</time>
      </trkpt>
      <trkpt lat="47.15406" lon="5.91612">
        <ele>334.8</ele>
        <time>2021-08-17T12:28:15Z</time>
      </trkpt>
      <trkpt lat="47.15404" lon="5.91612">
        <ele>335</ele>
        <time>2021-08-17T12:28:16Z</time>
      </trkpt>
      <trkpt lat="47.15402" lon="5.91611">
        <ele>335.2</ele>
        <time>2021-08-17T12:28:17Z</time>
      </trkpt>
      <trkpt lat="47.154" lon="5.91611">
        <ele>335.4</ele>
        <time>2021-08-17T12:28:18Z</time>
      </trkpt>
      <trkpt lat="47.15399" lon="5.91612">
        <ele>335.6</ele>
        <time>2021-08-17T12:28:19Z</time>
      </trkpt>
      <trkpt lat="47.15397" lon="5.91612">
        <ele>335.6</ele>
        <time>2021-08-17T12:28:20Z</time>
      </trkpt>
      <trkpt lat="47.15395" lon="5.91612">
        <ele>335.6</ele>
        <time>2021-08-17T12:28:21Z</time>
      </trkpt>
      <trkpt lat="47.15393" lon="5.91612">
        <ele>335.8</ele>
        <time>2021-08-17T12:28:22Z</time>
      </trkpt>
      <trkpt lat="47.1539" lon="5.91613">
        <ele>335.8</ele>
        <time>2021-08-17T12:28:23Z</time>
      </trkpt>
      <trkpt lat="47.15387" lon="5.91613">
        <ele>336</ele>
        <time>2021-08-17T12:28:24Z</time>
      </trkpt>
      <trkpt lat="47.15385" lon="5.91613">
        <ele>336.2</ele>
        <time>2021-08-17T12:28:25Z</time>
      </trkpt>
      <trkpt lat="47.15381" lon="5.91612">
        <ele>336.2</ele>
        <time>2021-08-17T12:28:26Z</time>
      </trkpt>
      <trkpt lat="47.15378" lon="5.91612">
        <ele>336.4</ele>
        <time>2021-08-17T12:28:27Z</time>
      </trkpt>
      <trkpt lat="47.15376" lon="5.91611">
        <ele>336.6</ele>
        <time>2021-08-17T12:28:28Z</time>
      </trkpt>
      <trkpt lat="47.15374" lon="5.91611">
        <ele>336.8</ele>
        <time>2021-08-17T12:28:29Z</time>
      </trkpt>
      <trkpt lat="47.1537" lon="5.91611">
        <ele>337</ele>
        <time>2021-08-17T12:28:30Z</time>
      </trkpt>
      <trkpt lat="47.15369" lon="5.91611">
        <ele>337</ele>
        <time>2021-08-17T12:28:31Z</time>
      </trkpt>
      <trkpt lat="47.15365" lon="5.9161">
        <ele>337.2</ele>
        <time>2021-08-17T12:28:32Z</time>
      </trkpt>
      <trkpt lat="47.15362" lon="5.91611">
        <ele>337.2</ele>
        <time>2021-08-17T12:28:33Z</time>
      </trkpt>
      <trkpt lat="47.15359" lon="5.91611">
        <ele>337.4</ele>
        <time>2021-08-17T12:28:34Z</time>
      </trkpt>
      <trkpt lat="47.15357" lon="5.91611">
        <ele>337.6</ele>
        <time>2021-08-17T12:28:35Z</time>
      </trkpt>
      <trkpt lat="47.15355" lon="5.91611">
        <ele>337.6</ele>
        <time>2021-08-17T12:28:36Z</time>
      </trkpt>
      <trkpt lat="47.15352" lon="5.91611">
        <ele>337.8</ele>
        <time>2021-08-17T12:28:37Z</time>
      </trkpt>
      <trkpt lat="47.1535" lon="5.9161">
        <ele>338</ele>
        <time>2021-08-17T12:28:38Z</time>
      </trkpt>
      <trkpt lat="47.15348" lon="5.9161">
        <ele>338.6</ele>
        <time>2021-08-17T12:28:39Z</time>
      </trkpt>
      <trkpt lat="47.15346" lon="5.91611">
        <ele>338.8</ele>
        <time>2021-08-17T12:28:40Z</time>
      </trkpt>
      <trkpt lat="47.15343" lon="5.91611">
        <ele>339</ele>
        <time>2021-08-17T12:28:41Z</time>
      </trkpt>
      <trkpt lat="47.15341" lon="5.91612">
        <ele>339.2</ele>
        <time>2021-08-17T12:28:42Z</time>
      </trkpt>
      <trkpt lat="47.15338" lon="5.91612">
        <ele>339.4</ele>
        <time>2021-08-17T12:28:43Z</time>
      </trkpt>
      <trkpt lat="47.15336" lon="5.91612">
        <ele>339.6</ele>
        <time>2021-08-17T12:28:44Z</time>
      </trkpt>
      <trkpt lat="47.15333" lon="5.91612">
        <ele>339.6</ele>
        <time>2021-08-17T12:28:45Z</time>
      </trkpt>
      <trkpt lat="47.15331" lon="5.91612">
        <ele>339.8</ele>
        <time>2021-08-17T12:28:46Z</time>
      </trkpt>
      <trkpt lat="47.15328" lon="5.91612">
        <ele>339.8</ele>
        <time>2021-08-17T12:28:47Z</time>
      </trkpt>
      <trkpt lat="47.15326" lon="5.91612">
        <ele>340</ele>
        <time>2021-08-17T12:28:48Z</time>
      </trkpt>
      <trkpt lat="47.15324" lon="5.91612">
        <ele>340</ele>
        <time>2021-08-17T12:28:49Z</time>
      </trkpt>
      <trkpt lat="47.15322" lon="5.91611">
        <ele>340.2</ele>
        <time>2021-08-17T12:28:50Z</time>
      </trkpt>
      <trkpt lat="47.1532" lon="5.91611">
        <ele>340.2</ele>
        <time>2021-08-17T12:28:51Z</time>
      </trkpt>
      <trkpt lat="47.15318" lon="5.91611">
        <ele>340.4</ele>
        <time>2021-08-17T12:28:52Z</time>
      </trkpt>
      <trkpt lat="47.15316" lon="5.91611">
        <ele>340.4</ele>
        <time>2021-08-17T12:28:53Z</time>
      </trkpt>
      <trkpt lat="47.15314" lon="5.91611">
        <ele>340.6</ele>
        <time>2021-08-17T12:28:54Z</time>
      </trkpt>
      <trkpt lat="47.15312" lon="5.91611">
        <ele>340.8</ele>
        <time>2021-08-17T12:28:55Z</time>
      </trkpt>
      <trkpt lat="47.15309" lon="5.91611">
        <ele>341</ele>
        <time>2021-08-17T12:28:56Z</time>
      </trkpt>
      <trkpt lat="47.15307" lon="5.91611">
        <ele>341</ele>
        <time>2021-08-17T12:28:57Z</time>
      </trkpt>
      <trkpt lat="47.15304" lon="5.91611">
        <ele>341.4</ele>
        <time>2021-08-17T12:28:58Z</time>
      </trkpt>
      <trkpt lat="47.15303" lon="5.91611">
        <ele>341.6</ele>
        <time>2021-08-17T12:28:59Z</time>
      </trkpt>
      <trkpt lat="47.15301" lon="5.9161">
        <ele>341.8</ele>
        <time>2021-08-17T12:29:00Z</time>
      </trkpt>
      <trkpt lat="47.15298" lon="5.9161">
        <ele>342</ele>
        <time>2021-08-17T12:29:01Z</time>
      </trkpt>
      <trkpt lat="47.15296" lon="5.91609">
        <ele>342.2</ele>
        <time>2021-08-17T12:29:02Z</time>
      </trkpt>
      <trkpt lat="47.15295" lon="5.91609">
        <ele>342.4</ele>
        <time>2021-08-17T12:29:03Z</time>
      </trkpt>
      <trkpt lat="47.15293" lon="5.91609">
        <ele>342.6</ele>
        <time>2021-08-17T12:29:04Z</time>
      </trkpt>
      <trkpt lat="47.15292" lon="5.91609">
        <ele>342.8</ele>
        <time>2021-08-17T12:29:05Z</time>
      </trkpt>
      <trkpt lat="47.15289" lon="5.91609">
        <ele>343</ele>
        <time>2021-08-17T12:29:06Z</time>
      </trkpt>
      <trkpt lat="47.15287" lon="5.91609">
        <ele>343.2</ele>
        <time>2021-08-17T12:29:07Z</time>
      </trkpt>
      <trkpt lat="47.15285" lon="5.91609">
        <ele>343.2</ele>
        <time>2021-08-17T12:29:08Z</time>
      </trkpt>
      <trkpt lat="47.15282" lon="5.91609">
        <ele>343.4</ele>
        <time>2021-08-17T12:29:09Z</time>
      </trkpt>
      <trkpt lat="47.1528" lon="5.91609">
        <ele>343.6</ele>
        <time>2021-08-17T12:29:10Z</time>
      </trkpt>
      <trkpt lat="47.15278" lon="5.91608">
        <ele>343.6</ele>
        <time>2021-08-17T12:29:11Z</time>
      </trkpt>
      <trkpt lat="47.15276" lon="5.91607">
        <ele>343.8</ele>
        <time>2021-08-17T12:29:12Z</time>
      </trkpt>
      <trkpt lat="47.15274" lon="5.91607">
        <ele>343.8</ele>
        <time>2021-08-17T12:29:13Z</time>
      </trkpt>
      <trkpt lat="47.15272" lon="5.91607">
        <ele>344</ele>
        <time>2021-08-17T12:29:14Z</time>
      </trkpt>
      <trkpt lat="47.1527" lon="5.91608">
        <ele>344</ele>
        <time>2021-08-17T12:29:15Z</time>
      </trkpt>
      <trkpt lat="47.15268" lon="5.91608">
        <ele>344.2</ele>
        <time>2021-08-17T12:29:16Z</time>
      </trkpt>
      <trkpt lat="47.15266" lon="5.91608">
        <ele>344.4</ele>
        <time>2021-08-17T12:29:17Z</time>
      </trkpt>
      <trkpt lat="47.15264" lon="5.91608">
        <ele>344.6</ele>
        <time>2021-08-17T12:29:18Z</time>
      </trkpt>
      <trkpt lat="47.15263" lon="5.91608">
        <ele>344.8</ele>
        <time>2021-08-17T12:29:19Z</time>
      </trkpt>
      <trkpt lat="47.15261" lon="5.91609">
        <ele>344.8</ele>
        <time>2021-08-17T12:29:20Z</time>
      </trkpt>
      <trkpt lat="47.15259" lon="5.91608">
        <ele>345</ele>
        <time>2021-08-17T12:29:21Z</time>
      </trkpt>
      <trkpt lat="47.15257" lon="5.91608">
        <ele>345</ele>
        <time>2021-08-17T12:29:22Z</time>
      </trkpt>
      <trkpt lat="47.15255" lon="5.91608">
        <ele>345.2</ele>
        <time>2021-08-17T12:29:23Z</time>
      </trkpt>
      <trkpt lat="47.15253" lon="5.91609">
        <ele>345.2</ele>
        <time>2021-08-17T12:29:24Z</time>
      </trkpt>
      <trkpt lat="47.1525" lon="5.91609">
        <ele>345.4</ele>
        <time>2021-08-17T12:29:25Z</time>
      </trkpt>
      <trkpt lat="47.15248" lon="5.91609">
        <ele>345.8</ele>
        <time>2021-08-17T12:29:26Z</time>
      </trkpt>
      <trkpt lat="47.15246" lon="5.91609">
        <ele>346</ele>
        <time>2021-08-17T12:29:27Z</time>
      </trkpt>
      <trkpt lat="47.15243" lon="5.91609">
        <ele>346</ele>
        <time>2021-08-17T12:29:28Z</time>
      </trkpt>
      <trkpt lat="47.15241" lon="5.91609">
        <ele>346.2</ele>
        <time>2021-08-17T12:29:29Z</time>
      </trkpt>
      <trkpt lat="47.15239" lon="5.91608">
        <ele>346.2</ele>
        <time>2021-08-17T12:29:30Z</time>
      </trkpt>
      <trkpt lat="47.15237" lon="5.91608">
        <ele>346.4</ele>
        <time>2021-08-17T12:29:31Z</time>
      </trkpt>
      <trkpt lat="47.15235" lon="5.91607">
        <ele>346.6</ele>
        <time>2021-08-17T12:29:32Z</time>
      </trkpt>
      <trkpt lat="47.15233" lon="5.91607">
        <ele>346.8</ele>
        <time>2021-08-17T12:29:33Z</time>
      </trkpt>
      <trkpt lat="47.1523" lon="5.91607">
        <ele>346.8</ele>
        <time>2021-08-17T12:29:34Z</time>
      </trkpt>
      <trkpt lat="47.15227" lon="5.91609">
        <ele>347</ele>
        <time>2021-08-17T12:29:35Z</time>
      </trkpt>
      <trkpt lat="47.15225" lon="5.9161">
        <ele>347.2</ele>
        <time>2021-08-17T12:29:36Z</time>
      </trkpt>
      <trkpt lat="47.15223" lon="5.91609">
        <ele>347.2</ele>
        <time>2021-08-17T12:29:37Z</time>
      </trkpt>
      <trkpt lat="47.15219" lon="5.91609">
        <ele>347.4</ele>
        <time>2021-08-17T12:29:38Z</time>
      </trkpt>
      <trkpt lat="47.15216" lon="5.91608">
        <ele>347.6</ele>
        <time>2021-08-17T12:29:39Z</time>
      </trkpt>
      <trkpt lat="47.15214" lon="5.91608">
        <ele>347.6</ele>
        <time>2021-08-17T12:29:40Z</time>
      </trkpt>
      <trkpt lat="47.15212" lon="5.91609">
        <ele>348</ele>
        <time>2021-08-17T12:29:41Z</time>
      </trkpt>
      <trkpt lat="47.1521" lon="5.91608">
        <ele>348.2</ele>
        <time>2021-08-17T12:29:42Z</time>
      </trkpt>
      <trkpt lat="47.15209" lon="5.91609">
        <ele>348.2</ele>
        <time>2021-08-17T12:29:43Z</time>
      </trkpt>
      <trkpt lat="47.15206" lon="5.91609">
        <ele>348.4</ele>
        <time>2021-08-17T12:29:44Z</time>
      </trkpt>
      <trkpt lat="47.15203" lon="5.91609">
        <ele>348.4</ele>
        <time>2021-08-17T12:29:45Z</time>
      </trkpt>
      <trkpt lat="47.15202" lon="5.91609">
        <ele>348.6</ele>
        <time>2021-08-17T12:29:46Z</time>
      </trkpt>
      <trkpt lat="47.152" lon="5.91608">
        <ele>348.8</ele>
        <time>2021-08-17T12:29:47Z</time>
      </trkpt>
      <trkpt lat="47.15199" lon="5.91608">
        <ele>349</ele>
        <time>2021-08-17T12:29:48Z</time>
      </trkpt>
      <trkpt lat="47.15197" lon="5.91607">
        <ele>349.2</ele>
        <time>2021-08-17T12:29:49Z</time>
      </trkpt>
      <trkpt lat="47.15195" lon="5.91607">
        <ele>349.2</ele>
        <time>2021-08-17T12:29:50Z</time>
      </trkpt>
      <trkpt lat="47.15193" lon="5.91608">
        <ele>349.4</ele>
        <time>2021-08-17T12:29:51Z</time>
      </trkpt>
      <trkpt lat="47.1519" lon="5.91608">
        <ele>349.4</ele>
        <time>2021-08-17T12:29:52Z</time>
      </trkpt>
      <trkpt lat="47.15188" lon="5.91607">
        <ele>349.4</ele>
        <time>2021-08-17T12:29:53Z</time>
      </trkpt>
      <trkpt lat="47.15187" lon="5.91607">
        <ele>350</ele>
        <time>2021-08-17T12:29:55Z</time>
      </trkpt>
      <trkpt lat="47.15186" lon="5.91607">
        <ele>350.2</ele>
        <time>2021-08-17T12:29:56Z</time>
      </trkpt>
      <trkpt lat="47.15185" lon="5.91607">
        <ele>350.4</ele>
        <time>2021-08-17T12:29:57Z</time>
      </trkpt>
      <trkpt lat="47.15183" lon="5.91607">
        <ele>350.6</ele>
        <time>2021-08-17T12:29:58Z</time>
      </trkpt>
      <trkpt lat="47.15181" lon="5.91606">
        <ele>350.8</ele>
        <time>2021-08-17T12:29:59Z</time>
      </trkpt>
      <trkpt lat="47.1518" lon="5.91605">
        <ele>351</ele>
        <time>2021-08-17T12:30:00Z</time>
      </trkpt>
      <trkpt lat="47.15177" lon="5.91606">
        <ele>351.2</ele>
        <time>2021-08-17T12:30:01Z</time>
      </trkpt>
      <trkpt lat="47.15175" lon="5.91606">
        <ele>351.4</ele>
        <time>2021-08-17T12:30:02Z</time>
      </trkpt>
      <trkpt lat="47.15173" lon="5.91606">
        <ele>351.6</ele>
        <time>2021-08-17T12:30:03Z</time>
      </trkpt>
      <trkpt lat="47.15172" lon="5.91606">
        <ele>351.6</ele>
        <time>2021-08-17T12:30:04Z</time>
      </trkpt>
      <trkpt lat="47.15169" lon="5.91606">
        <ele>351.8</ele>
        <time>2021-08-17T12:30:05Z</time>
      </trkpt>
      <trkpt lat="47.15167" lon="5.91606">
        <ele>352</ele>
        <time>2021-08-17T12:30:06Z</time>
      </trkpt>
      <trkpt lat="47.15165" lon="5.91606">
        <ele>352.2</ele>
        <time>2021-08-17T12:30:07Z</time>
      </trkpt>
      <trkpt lat="47.15163" lon="5.91607">
        <ele>352.2</ele>
        <time>2021-08-17T12:30:08Z</time>
      </trkpt>
      <trkpt lat="47.15161" lon="5.91607">
        <ele>352.4</ele>
        <time>2021-08-17T12:30:09Z</time>
      </trkpt>
      <trkpt lat="47.15159" lon="5.91608">
        <ele>352.6</ele>
        <time>2021-08-17T12:30:10Z</time>
      </trkpt>
      <trkpt lat="47.15157" lon="5.91608">
        <ele>352.8</ele>
        <time>2021-08-17T12:30:11Z</time>
      </trkpt>
      <trkpt lat="47.15155" lon="5.91608">
        <ele>352.8</ele>
        <time>2021-08-17T12:30:12Z</time>
      </trkpt>
      <trkpt lat="47.15153" lon="5.91609">
        <ele>353</ele>
        <time>2021-08-17T12:30:13Z</time>
      </trkpt>
      <trkpt lat="47.15151" lon="5.91608">
        <ele>353</ele>
        <time>2021-08-17T12:30:14Z</time>
      </trkpt>
      <trkpt lat="47.15149" lon="5.91607">
        <ele>353.2</ele>
        <time>2021-08-17T12:30:15Z</time>
      </trkpt>
      <trkpt lat="47.15147" lon="5.91607">
        <ele>353.4</ele>
        <time>2021-08-17T12:30:16Z</time>
      </trkpt>
      <trkpt lat="47.15146" lon="5.91606">
        <ele>353.4</ele>
        <time>2021-08-17T12:30:17Z</time>
      </trkpt>
      <trkpt lat="47.15144" lon="5.91606">
        <ele>353.6</ele>
        <time>2021-08-17T12:30:18Z</time>
      </trkpt>
      <trkpt lat="47.15143" lon="5.91607">
        <ele>353.8</ele>
        <time>2021-08-17T12:30:19Z</time>
      </trkpt>
      <trkpt lat="47.1514" lon="5.91607">
        <ele>354</ele>
        <time>2021-08-17T12:30:20Z</time>
      </trkpt>
      <trkpt lat="47.15138" lon="5.91606">
        <ele>354.2</ele>
        <time>2021-08-17T12:30:21Z</time>
      </trkpt>
      <trkpt lat="47.15135" lon="5.91605">
        <ele>354.2</ele>
        <time>2021-08-17T12:30:22Z</time>
      </trkpt>
      <trkpt lat="47.15132" lon="5.91605">
        <ele>354.4</ele>
        <time>2021-08-17T12:30:23Z</time>
      </trkpt>
      <trkpt lat="47.1513" lon="5.91607">
        <ele>354.6</ele>
        <time>2021-08-17T12:30:24Z</time>
      </trkpt>
      <trkpt lat="47.15126" lon="5.91606">
        <ele>354.6</ele>
        <time>2021-08-17T12:30:25Z</time>
      </trkpt>
      <trkpt lat="47.15123" lon="5.91606">
        <ele>354.8</ele>
        <time>2021-08-17T12:30:26Z</time>
      </trkpt>
      <trkpt lat="47.15117" lon="5.91607">
        <ele>355</ele>
        <time>2021-08-17T12:30:27Z</time>
      </trkpt>
      <trkpt lat="47.15116" lon="5.91607">
        <ele>355.2</ele>
        <time>2021-08-17T12:30:28Z</time>
      </trkpt>
      <trkpt lat="47.15114" lon="5.91606">
        <ele>355.2</ele>
        <time>2021-08-17T12:30:29Z</time>
      </trkpt>
      <trkpt lat="47.15113" lon="5.91607">
        <ele>355.4</ele>
        <time>2021-08-17T12:30:30Z</time>
      </trkpt>
      <trkpt lat="47.1511" lon="5.91607">
        <ele>355.6</ele>
        <time>2021-08-17T12:30:31Z</time>
      </trkpt>
      <trkpt lat="47.15108" lon="5.91607">
        <ele>355.6</ele>
        <time>2021-08-17T12:30:32Z</time>
      </trkpt>
      <trkpt lat="47.15106" lon="5.91606">
        <ele>355.8</ele>
        <time>2021-08-17T12:30:33Z</time>
      </trkpt>
      <trkpt lat="47.15104" lon="5.91607">
        <ele>356</ele>
        <time>2021-08-17T12:30:34Z</time>
      </trkpt>
      <trkpt lat="47.15102" lon="5.91608">
        <ele>356</ele>
        <time>2021-08-17T12:30:35Z</time>
      </trkpt>
      <trkpt lat="47.151" lon="5.91609">
        <ele>356.2</ele>
        <time>2021-08-17T12:30:36Z</time>
      </trkpt>
      <trkpt lat="47.15097" lon="5.91607">
        <ele>356.4</ele>
        <time>2021-08-17T12:30:37Z</time>
      </trkpt>
      <trkpt lat="47.15095" lon="5.91607">
        <ele>356.6</ele>
        <time>2021-08-17T12:30:38Z</time>
      </trkpt>
      <trkpt lat="47.15093" lon="5.91605">
        <ele>356.6</ele>
        <time>2021-08-17T12:30:39Z</time>
      </trkpt>
      <trkpt lat="47.15091" lon="5.91604">
        <ele>356.8</ele>
        <time>2021-08-17T12:30:40Z</time>
      </trkpt>
      <trkpt lat="47.1509" lon="5.91605">
        <ele>356.8</ele>
        <time>2021-08-17T12:30:41Z</time>
      </trkpt>
      <trkpt lat="47.15087" lon="5.91606">
        <ele>357</ele>
        <time>2021-08-17T12:30:42Z</time>
      </trkpt>
      <trkpt lat="47.15084" lon="5.91605">
        <ele>357</ele>
        <time>2021-08-17T12:30:43Z</time>
      </trkpt>
      <trkpt lat="47.15082" lon="5.91604">
        <ele>357.2</ele>
        <time>2021-08-17T12:30:44Z</time>
      </trkpt>
      <trkpt lat="47.15079" lon="5.91603">
        <ele>357.2</ele>
        <time>2021-08-17T12:30:45Z</time>
      </trkpt>
      <trkpt lat="47.15077" lon="5.91603">
        <ele>357.6</ele>
        <time>2021-08-17T12:30:46Z</time>
      </trkpt>
      <trkpt lat="47.15075" lon="5.91602">
        <ele>357.6</ele>
        <time>2021-08-17T12:30:47Z</time>
      </trkpt>
      <trkpt lat="47.1507" lon="5.91603">
        <ele>358</ele>
        <time>2021-08-17T12:30:48Z</time>
      </trkpt>
      <trkpt lat="47.15067" lon="5.91603">
        <ele>358</ele>
        <time>2021-08-17T12:30:49Z</time>
      </trkpt>
      <trkpt lat="47.15065" lon="5.91603">
        <ele>358.2</ele>
        <time>2021-08-17T12:30:50Z</time>
      </trkpt>
      <trkpt lat="47.15063" lon="5.91601">
        <ele>358.4</ele>
        <time>2021-08-17T12:30:51Z</time>
      </trkpt>
      <trkpt lat="47.15061" lon="5.916">
        <ele>358.4</ele>
        <time>2021-08-17T12:30:52Z</time>
      </trkpt>
      <trkpt lat="47.15059" lon="5.91601">
        <ele>358.8</ele>
        <time>2021-08-17T12:30:53Z</time>
      </trkpt>
      <trkpt lat="47.15057" lon="5.91603">
        <ele>359</ele>
        <time>2021-08-17T12:30:54Z</time>
      </trkpt>
      <trkpt lat="47.15056" lon="5.91604">
        <ele>359.2</ele>
        <time>2021-08-17T12:30:55Z</time>
      </trkpt>
      <trkpt lat="47.15055" lon="5.91605">
        <ele>359.2</ele>
        <time>2021-08-17T12:30:56Z</time>
      </trkpt>
      <trkpt lat="47.15053" lon="5.91604">
        <ele>359.4</ele>
        <time>2021-08-17T12:30:57Z</time>
      </trkpt>
      <trkpt lat="47.15052" lon="5.91604">
        <ele>359.4</ele>
        <time>2021-08-17T12:30:58Z</time>
      </trkpt>
      <trkpt lat="47.1505" lon="5.91605">
        <ele>359.4</ele>
        <time>2021-08-17T12:30:59Z</time>
      </trkpt>
      <trkpt lat="47.15047" lon="5.91607">
        <ele>359.6</ele>
        <time>2021-08-17T12:31:00Z</time>
      </trkpt>
      <trkpt lat="47.15044" lon="5.91608">
        <ele>359.8</ele>
        <time>2021-08-17T12:31:01Z</time>
      </trkpt>
      <trkpt lat="47.15041" lon="5.91608">
        <ele>360</ele>
        <time>2021-08-17T12:31:02Z</time>
      </trkpt>
      <trkpt lat="47.1504" lon="5.91608">
        <ele>360.2</ele>
        <time>2021-08-17T12:31:03Z</time>
      </trkpt>
      <trkpt lat="47.15038" lon="5.91608">
        <ele>360.2</ele>
        <time>2021-08-17T12:31:04Z</time>
      </trkpt>
      <trkpt lat="47.15036" lon="5.91607">
        <ele>360.4</ele>
        <time>2021-08-17T12:31:05Z</time>
      </trkpt>
      <trkpt lat="47.15034" lon="5.91607">
        <ele>360.6</ele>
        <time>2021-08-17T12:31:06Z</time>
      </trkpt>
      <trkpt lat="47.15032" lon="5.91606">
        <ele>360.6</ele>
        <time>2021-08-17T12:31:07Z</time>
      </trkpt>
      <trkpt lat="47.1503" lon="5.91606">
        <ele>360.8</ele>
        <time>2021-08-17T12:31:08Z</time>
      </trkpt>
      <trkpt lat="47.15028" lon="5.91606">
        <ele>360.8</ele>
        <time>2021-08-17T12:31:09Z</time>
      </trkpt>
      <trkpt lat="47.15026" lon="5.91605">
        <ele>361</ele>
        <time>2021-08-17T12:31:10Z</time>
      </trkpt>
      <trkpt lat="47.15024" lon="5.91605">
        <ele>361</ele>
        <time>2021-08-17T12:31:11Z</time>
      </trkpt>
      <trkpt lat="47.15021" lon="5.91604">
        <ele>361.2</ele>
        <time>2021-08-17T12:31:12Z</time>
      </trkpt>
      <trkpt lat="47.15019" lon="5.91603">
        <ele>361.4</ele>
        <time>2021-08-17T12:31:13Z</time>
      </trkpt>
      <trkpt lat="47.15017" lon="5.91603">
        <ele>361.8</ele>
        <time>2021-08-17T12:31:14Z</time>
      </trkpt>
      <trkpt lat="47.15015" lon="5.91602">
        <ele>361.8</ele>
        <time>2021-08-17T12:31:15Z</time>
      </trkpt>
      <trkpt lat="47.15013" lon="5.91601">
        <ele>362</ele>
        <time>2021-08-17T12:31:16Z</time>
      </trkpt>
      <trkpt lat="47.15012" lon="5.91602">
        <ele>362.2</ele>
        <time>2021-08-17T12:31:17Z</time>
      </trkpt>
      <trkpt lat="47.1501" lon="5.91602">
        <ele>362.4</ele>
        <time>2021-08-17T12:31:18Z</time>
      </trkpt>
      <trkpt lat="47.15008" lon="5.91602">
        <ele>362.4</ele>
        <time>2021-08-17T12:31:19Z</time>
      </trkpt>
      <trkpt lat="47.15006" lon="5.91602">
        <ele>362.6</ele>
        <time>2021-08-17T12:31:20Z</time>
      </trkpt>
      <trkpt lat="47.15004" lon="5.91601">
        <ele>362.8</ele>
        <time>2021-08-17T12:31:21Z</time>
      </trkpt>
      <trkpt lat="47.15003" lon="5.916">
        <ele>363</ele>
        <time>2021-08-17T12:31:22Z</time>
      </trkpt>
      <trkpt lat="47.15001" lon="5.91599">
        <ele>363.2</ele>
        <time>2021-08-17T12:31:23Z</time>
      </trkpt>
      <trkpt lat="47.14999" lon="5.91599">
        <ele>363.2</ele>
        <time>2021-08-17T12:31:24Z</time>
      </trkpt>
      <trkpt lat="47.14997" lon="5.91598">
        <ele>363.4</ele>
        <time>2021-08-17T12:31:25Z</time>
      </trkpt>
      <trkpt lat="47.14995" lon="5.91597">
        <ele>363.6</ele>
        <time>2021-08-17T12:31:26Z</time>
      </trkpt>
      <trkpt lat="47.14993" lon="5.91595">
        <ele>363.8</ele>
        <time>2021-08-17T12:31:27Z</time>
      </trkpt>
      <trkpt lat="47.1499" lon="5.91594">
        <ele>364.2</ele>
        <time>2021-08-17T12:31:28Z</time>
      </trkpt>
      <trkpt lat="47.14989" lon="5.91593">
        <ele>364.2</ele>
        <time>2021-08-17T12:31:29Z</time>
      </trkpt>
      <trkpt lat="47.14987" lon="5.91591">
        <ele>364.4</ele>
        <time>2021-08-17T12:31:30Z</time>
      </trkpt>
      <trkpt lat="47.14985" lon="5.9159">
        <ele>364.4</ele>
        <time>2021-08-17T12:31:31Z</time>
      </trkpt>
      <trkpt lat="47.14983" lon="5.9159">
        <ele>364.6</ele>
        <time>2021-08-17T12:31:32Z</time>
      </trkpt>
      <trkpt lat="47.14981" lon="5.91589">
        <ele>364.6</ele>
        <time>2021-08-17T12:31:33Z</time>
      </trkpt>
      <trkpt lat="47.14979" lon="5.91588">
        <ele>364.8</ele>
        <time>2021-08-17T12:31:34Z</time>
      </trkpt>
      <trkpt lat="47.14976" lon="5.91587">
        <ele>364.8</ele>
        <time>2021-08-17T12:31:35Z</time>
      </trkpt>
      <trkpt lat="47.14974" lon="5.91586">
        <ele>365</ele>
        <time>2021-08-17T12:31:36Z</time>
      </trkpt>
      <trkpt lat="47.14972" lon="5.91585">
        <ele>365</ele>
        <time>2021-08-17T12:31:37Z</time>
      </trkpt>
      <trkpt lat="47.14969" lon="5.91584">
        <ele>365.2</ele>
        <time>2021-08-17T12:31:38Z</time>
      </trkpt>
      <trkpt lat="47.14967" lon="5.91583">
        <ele>365.4</ele>
        <time>2021-08-17T12:31:39Z</time>
      </trkpt>
      <trkpt lat="47.14965" lon="5.91582">
        <ele>365.4</ele>
        <time>2021-08-17T12:31:40Z</time>
      </trkpt>
      <trkpt lat="47.14963" lon="5.91581">
        <ele>365.6</ele>
        <time>2021-08-17T12:31:41Z</time>
      </trkpt>
      <trkpt lat="47.14961" lon="5.9158">
        <ele>365.6</ele>
        <time>2021-08-17T12:31:42Z</time>
      </trkpt>
      <trkpt lat="47.1496" lon="5.91579">
        <ele>365.8</ele>
        <time>2021-08-17T12:31:43Z</time>
      </trkpt>
      <trkpt lat="47.14958" lon="5.91578">
        <ele>366</ele>
        <time>2021-08-17T12:31:44Z</time>
      </trkpt>
      <trkpt lat="47.14956" lon="5.91577">
        <ele>366</ele>
        <time>2021-08-17T12:31:45Z</time>
      </trkpt>
      <trkpt lat="47.14954" lon="5.91575">
        <ele>366</ele>
        <time>2021-08-17T12:31:46Z</time>
      </trkpt>
      <trkpt lat="47.14951" lon="5.91573">
        <ele>366.2</ele>
        <time>2021-08-17T12:31:47Z</time>
      </trkpt>
      <trkpt lat="47.14949" lon="5.91572">
        <ele>366.2</ele>
        <time>2021-08-17T12:31:48Z</time>
      </trkpt>
      <trkpt lat="47.14947" lon="5.9157">
        <ele>366.2</ele>
        <time>2021-08-17T12:31:49Z</time>
      </trkpt>
      <trkpt lat="47.14945" lon="5.91569">
        <ele>366.4</ele>
        <time>2021-08-17T12:31:50Z</time>
      </trkpt>
      <trkpt lat="47.14943" lon="5.91567">
        <ele>366.6</ele>
        <time>2021-08-17T12:31:51Z</time>
      </trkpt>
      <trkpt lat="47.14941" lon="5.91565">
        <ele>366.8</ele>
        <time>2021-08-17T12:31:52Z</time>
      </trkpt>
      <trkpt lat="47.14938" lon="5.91563">
        <ele>367</ele>
        <time>2021-08-17T12:31:53Z</time>
      </trkpt>
      <trkpt lat="47.14936" lon="5.91561">
        <ele>367</ele>
        <time>2021-08-17T12:31:54Z</time>
      </trkpt>
      <trkpt lat="47.14934" lon="5.91559">
        <ele>367.2</ele>
        <time>2021-08-17T12:31:55Z</time>
      </trkpt>
      <trkpt lat="47.14932" lon="5.91558">
        <ele>367.2</ele>
        <time>2021-08-17T12:31:56Z</time>
      </trkpt>
      <trkpt lat="47.1493" lon="5.91556">
        <ele>367.4</ele>
        <time>2021-08-17T12:31:57Z</time>
      </trkpt>
      <trkpt lat="47.14928" lon="5.91554">
        <ele>367.6</ele>
        <time>2021-08-17T12:31:58Z</time>
      </trkpt>
      <trkpt lat="47.14926" lon="5.91552">
        <ele>367.6</ele>
        <time>2021-08-17T12:31:59Z</time>
      </trkpt>
      <trkpt lat="47.14924" lon="5.91551">
        <ele>367.8</ele>
        <time>2021-08-17T12:32:00Z</time>
      </trkpt>
      <trkpt lat="47.14922" lon="5.91549">
        <ele>367.8</ele>
        <time>2021-08-17T12:32:01Z</time>
      </trkpt>
      <trkpt lat="47.1492" lon="5.91547">
        <ele>368</ele>
        <time>2021-08-17T12:32:02Z</time>
      </trkpt>
      <trkpt lat="47.14918" lon="5.91545">
        <ele>368.2</ele>
        <time>2021-08-17T12:32:03Z</time>
      </trkpt>
      <trkpt lat="47.14916" lon="5.91543">
        <ele>368.2</ele>
        <time>2021-08-17T12:32:04Z</time>
      </trkpt>
      <trkpt lat="47.14914" lon="5.9154">
        <ele>368.4</ele>
        <time>2021-08-17T12:32:05Z</time>
      </trkpt>
      <trkpt lat="47.14911" lon="5.91538">
        <ele>368.4</ele>
        <time>2021-08-17T12:32:06Z</time>
      </trkpt>
      <trkpt lat="47.14909" lon="5.91535">
        <ele>368.6</ele>
        <time>2021-08-17T12:32:07Z</time>
      </trkpt>
      <trkpt lat="47.14907" lon="5.91533">
        <ele>368.6</ele>
        <time>2021-08-17T12:32:08Z</time>
      </trkpt>
      <trkpt lat="47.14904" lon="5.91531">
        <ele>368.8</ele>
        <time>2021-08-17T12:32:09Z</time>
      </trkpt>
      <trkpt lat="47.14902" lon="5.91529">
        <ele>369</ele>
        <time>2021-08-17T12:32:10Z</time>
      </trkpt>
      <trkpt lat="47.149" lon="5.91527">
        <ele>369.2</ele>
        <time>2021-08-17T12:32:11Z</time>
      </trkpt>
      <trkpt lat="47.14899" lon="5.91526">
        <ele>369.2</ele>
        <time>2021-08-17T12:32:12Z</time>
      </trkpt>
      <trkpt lat="47.14898" lon="5.91523">
        <ele>369.4</ele>
        <time>2021-08-17T12:32:13Z</time>
      </trkpt>
      <trkpt lat="47.14896" lon="5.91521">
        <ele>369.6</ele>
        <time>2021-08-17T12:32:14Z</time>
      </trkpt>
      <trkpt lat="47.14894" lon="5.91519">
        <ele>369.6</ele>
        <time>2021-08-17T12:32:15Z</time>
      </trkpt>
      <trkpt lat="47.14893" lon="5.91517">
        <ele>369.8</ele>
        <time>2021-08-17T12:32:16Z</time>
      </trkpt>
      <trkpt lat="47.14893" lon="5.91516">
        <ele>369.8</ele>
        <time>2021-08-17T12:32:17Z</time>
      </trkpt>
      <trkpt lat="47.14892" lon="5.91514">
        <ele>369.8</ele>
        <time>2021-08-17T12:32:18Z</time>
      </trkpt>
      <trkpt lat="47.14891" lon="5.91513">
        <ele>369.8</ele>
        <time>2021-08-17T12:32:19Z</time>
      </trkpt>
      <trkpt lat="47.1489" lon="5.91511">
        <ele>370</ele>
        <time>2021-08-17T12:32:20Z</time>
      </trkpt>
      <trkpt lat="47.14889" lon="5.9151">
        <ele>370</ele>
        <time>2021-08-17T12:32:21Z</time>
      </trkpt>
      <trkpt lat="47.14887" lon="5.91508">
        <ele>370.2</ele>
        <time>2021-08-17T12:32:22Z</time>
      </trkpt>
      <trkpt lat="47.14885" lon="5.91506">
        <ele>370.6</ele>
        <time>2021-08-17T12:32:23Z</time>
      </trkpt>
      <trkpt lat="47.14883" lon="5.91504">
        <ele>370.6</ele>
        <time>2021-08-17T12:32:24Z</time>
      </trkpt>
      <trkpt lat="47.14881" lon="5.91502">
        <ele>370.8</ele>
        <time>2021-08-17T12:32:25Z</time>
      </trkpt>
      <trkpt lat="47.14878" lon="5.91499">
        <ele>370.8</ele>
        <time>2021-08-17T12:32:26Z</time>
      </trkpt>
      <trkpt lat="47.14877" lon="5.91497">
        <ele>370.8</ele>
        <time>2021-08-17T12:32:27Z</time>
      </trkpt>
      <trkpt lat="47.14876" lon="5.91496">
        <ele>370.8</ele>
        <time>2021-08-17T12:32:28Z</time>
      </trkpt>
      <trkpt lat="47.14875" lon="5.91494">
        <ele>371</ele>
        <time>2021-08-17T12:32:29Z</time>
      </trkpt>
      <trkpt lat="47.14873" lon="5.91493">
        <ele>371</ele>
        <time>2021-08-17T12:32:30Z</time>
      </trkpt>
      <trkpt lat="47.14872" lon="5.91491">
        <ele>371.2</ele>
        <time>2021-08-17T12:32:31Z</time>
      </trkpt>
      <trkpt lat="47.1487" lon="5.91489">
        <ele>371</ele>
        <time>2021-08-17T12:32:32Z</time>
      </trkpt>
      <trkpt lat="47.14868" lon="5.91488">
        <ele>371.4</ele>
        <time>2021-08-17T12:32:33Z</time>
      </trkpt>
      <trkpt lat="47.14866" lon="5.91485">
        <ele>371.4</ele>
        <time>2021-08-17T12:32:34Z</time>
      </trkpt>
      <trkpt lat="47.14865" lon="5.91482">
        <ele>371.4</ele>
        <time>2021-08-17T12:32:35Z</time>
      </trkpt>
      <trkpt lat="47.14863" lon="5.9148">
        <ele>371.4</ele>
        <time>2021-08-17T12:32:36Z</time>
      </trkpt>
      <trkpt lat="47.14861" lon="5.91476">
        <ele>371.8</ele>
        <time>2021-08-17T12:32:37Z</time>
      </trkpt>
      <trkpt lat="47.14859" lon="5.91473">
        <ele>371.8</ele>
        <time>2021-08-17T12:32:38Z</time>
      </trkpt>
      <trkpt lat="47.14856" lon="5.9147">
        <ele>371.8</ele>
        <time>2021-08-17T12:32:39Z</time>
      </trkpt>
      <trkpt lat="47.14855" lon="5.91468">
        <ele>372</ele>
        <time>2021-08-17T12:32:40Z</time>
      </trkpt>
      <trkpt lat="47.14853" lon="5.91465">
        <ele>372</ele>
        <time>2021-08-17T12:32:41Z</time>
      </trkpt>
      <trkpt lat="47.14852" lon="5.91462">
        <ele>372</ele>
        <time>2021-08-17T12:32:42Z</time>
      </trkpt>
      <trkpt lat="47.14851" lon="5.91459">
        <ele>372.2</ele>
        <time>2021-08-17T12:32:43Z</time>
      </trkpt>
      <trkpt lat="47.14849" lon="5.91456">
        <ele>372.6</ele>
        <time>2021-08-17T12:32:44Z</time>
      </trkpt>
      <trkpt lat="47.14847" lon="5.91453">
        <ele>372.6</ele>
        <time>2021-08-17T12:32:45Z</time>
      </trkpt>
      <trkpt lat="47.14847" lon="5.91451">
        <ele>372.6</ele>
        <time>2021-08-17T12:32:46Z</time>
      </trkpt>
      <trkpt lat="47.14846" lon="5.91448">
        <ele>372.6</ele>
        <time>2021-08-17T12:32:47Z</time>
      </trkpt>
      <trkpt lat="47.14843" lon="5.91445">
        <ele>372.8</ele>
        <time>2021-08-17T12:32:48Z</time>
      </trkpt>
      <trkpt lat="47.14842" lon="5.91443">
        <ele>372.8</ele>
        <time>2021-08-17T12:32:49Z</time>
      </trkpt>
      <trkpt lat="47.1484" lon="5.9144">
        <ele>372.8</ele>
        <time>2021-08-17T12:32:50Z</time>
      </trkpt>
      <trkpt lat="47.14837" lon="5.91435">
        <ele>373.2</ele>
        <time>2021-08-17T12:32:51Z</time>
      </trkpt>
      <trkpt lat="47.14835" lon="5.91432">
        <ele>373.2</ele>
        <time>2021-08-17T12:32:52Z</time>
      </trkpt>
      <trkpt lat="47.14833" lon="5.91427">
        <ele>373.4</ele>
        <time>2021-08-17T12:32:53Z</time>
      </trkpt>
      <trkpt lat="47.14832" lon="5.91424">
        <ele>373.4</ele>
        <time>2021-08-17T12:32:54Z</time>
      </trkpt>
      <trkpt lat="47.14829" lon="5.91422">
        <ele>373.4</ele>
        <time>2021-08-17T12:32:55Z</time>
      </trkpt>
      <trkpt lat="47.14825" lon="5.91418">
        <ele>373.4</ele>
        <time>2021-08-17T12:32:56Z</time>
      </trkpt>
      <trkpt lat="47.14823" lon="5.91414">
        <ele>373.8</ele>
        <time>2021-08-17T12:32:57Z</time>
      </trkpt>
      <trkpt lat="47.14809" lon="5.91396">
        <ele>374.6</ele>
        <time>2021-08-17T12:33:02Z</time>
      </trkpt>
      <trkpt lat="47.14807" lon="5.91393">
        <ele>374.6</ele>
        <time>2021-08-17T12:33:03Z</time>
      </trkpt>
      <trkpt lat="47.14807" lon="5.91392">
        <ele>374.8</ele>
        <time>2021-08-17T12:33:04Z</time>
      </trkpt>
      <trkpt lat="47.14805" lon="5.9139">
        <ele>374.8</ele>
        <time>2021-08-17T12:33:05Z</time>
      </trkpt>
      <trkpt lat="47.14804" lon="5.9139">
        <ele>375.2</ele>
        <time>2021-08-17T12:33:06Z</time>
      </trkpt>
      <trkpt lat="47.14802" lon="5.91388">
        <ele>375.2</ele>
        <time>2021-08-17T12:33:07Z</time>
      </trkpt>
      <trkpt lat="47.14801" lon="5.91386">
        <ele>375.2</ele>
        <time>2021-08-17T12:33:08Z</time>
      </trkpt>
      <trkpt lat="47.14799" lon="5.91385">
        <ele>375.2</ele>
        <time>2021-08-17T12:33:09Z</time>
      </trkpt>
      <trkpt lat="47.14797" lon="5.91383">
        <ele>375.2</ele>
        <time>2021-08-17T12:33:10Z</time>
      </trkpt>
      <trkpt lat="47.14795" lon="5.91381">
        <ele>375.8</ele>
        <time>2021-08-17T12:33:11Z</time>
      </trkpt>
      <trkpt lat="47.14793" lon="5.91379">
        <ele>375.8</ele>
        <time>2021-08-17T12:33:12Z</time>
      </trkpt>
      <trkpt lat="47.14791" lon="5.91378">
        <ele>376</ele>
        <time>2021-08-17T12:33:13Z</time>
      </trkpt>
      <trkpt lat="47.14789" lon="5.91376">
        <ele>376</ele>
        <time>2021-08-17T12:33:14Z</time>
      </trkpt>
      <trkpt lat="47.14788" lon="5.91375">
        <ele>376.4</ele>
        <time>2021-08-17T12:33:15Z</time>
      </trkpt>
      <trkpt lat="47.14787" lon="5.91374">
        <ele>376.6</ele>
        <time>2021-08-17T12:33:16Z</time>
      </trkpt>
      <trkpt lat="47.14784" lon="5.91372">
        <ele>376.6</ele>
        <time>2021-08-17T12:33:17Z</time>
      </trkpt>
      <trkpt lat="47.14782" lon="5.9137">
        <ele>376.6</ele>
        <time>2021-08-17T12:33:18Z</time>
      </trkpt>
      <trkpt lat="47.1478" lon="5.91367">
        <ele>376.6</ele>
        <time>2021-08-17T12:33:19Z</time>
      </trkpt>
      <trkpt lat="47.14778" lon="5.91365">
        <ele>376.6</ele>
        <time>2021-08-17T12:33:20Z</time>
      </trkpt>
      <trkpt lat="47.14776" lon="5.91363">
        <ele>376.6</ele>
        <time>2021-08-17T12:33:21Z</time>
      </trkpt>
      <trkpt lat="47.14774" lon="5.91361">
        <ele>377.2</ele>
        <time>2021-08-17T12:33:22Z</time>
      </trkpt>
      <trkpt lat="47.14771" lon="5.91359">
        <ele>377.2</ele>
        <time>2021-08-17T12:33:23Z</time>
      </trkpt>
      <trkpt lat="47.14769" lon="5.91357">
        <ele>377.2</ele>
        <time>2021-08-17T12:33:24Z</time>
      </trkpt>
      <trkpt lat="47.14767" lon="5.91355">
        <ele>377.4</ele>
        <time>2021-08-17T12:33:25Z</time>
      </trkpt>
      <trkpt lat="47.14765" lon="5.91354">
        <ele>377.4</ele>
        <time>2021-08-17T12:33:26Z</time>
      </trkpt>
      <trkpt lat="47.14763" lon="5.91352">
        <ele>377.8</ele>
        <time>2021-08-17T12:33:27Z</time>
      </trkpt>
      <trkpt lat="47.14761" lon="5.9135">
        <ele>377.8</ele>
        <time>2021-08-17T12:33:28Z</time>
      </trkpt>
      <trkpt lat="47.14758" lon="5.91347">
        <ele>378</ele>
        <time>2021-08-17T12:33:29Z</time>
      </trkpt>
      <trkpt lat="47.14756" lon="5.91345">
        <ele>378</ele>
        <time>2021-08-17T12:33:30Z</time>
      </trkpt>
      <trkpt lat="47.14754" lon="5.91343">
        <ele>378</ele>
        <time>2021-08-17T12:33:31Z</time>
      </trkpt>
      <trkpt lat="47.14753" lon="5.91341">
        <ele>378.4</ele>
        <time>2021-08-17T12:33:32Z</time>
      </trkpt>
      <trkpt lat="47.14751" lon="5.91338">
        <ele>378.4</ele>
        <time>2021-08-17T12:33:33Z</time>
      </trkpt>
      <trkpt lat="47.14749" lon="5.91336">
        <ele>378.4</ele>
        <time>2021-08-17T12:33:34Z</time>
      </trkpt>
      <trkpt lat="47.14749" lon="5.91333">
        <ele>378.4</ele>
        <time>2021-08-17T12:33:35Z</time>
      </trkpt>
      <trkpt lat="47.14748" lon="5.91331">
        <ele>378.6</ele>
        <time>2021-08-17T12:33:36Z</time>
      </trkpt>
      <trkpt lat="47.14746" lon="5.91328">
        <ele>378.6</ele>
        <time>2021-08-17T12:33:37Z</time>
      </trkpt>
      <trkpt lat="47.14745" lon="5.91326">
        <ele>378.6</ele>
        <time>2021-08-17T12:33:38Z</time>
      </trkpt>
      <trkpt lat="47.14743" lon="5.91323">
        <ele>378.6</ele>
        <time>2021-08-17T12:33:39Z</time>
      </trkpt>
      <trkpt lat="47.14742" lon="5.9132">
        <ele>378.6</ele>
        <time>2021-08-17T12:33:40Z</time>
      </trkpt>
      <trkpt lat="47.14739" lon="5.91316">
        <ele>378.6</ele>
        <time>2021-08-17T12:33:41Z</time>
      </trkpt>
      <trkpt lat="47.14736" lon="5.91313">
        <ele>378.6</ele>
        <time>2021-08-17T12:33:42Z</time>
      </trkpt>
      <trkpt lat="47.14732" lon="5.91309">
        <ele>378.4</ele>
        <time>2021-08-17T12:33:43Z</time>
      </trkpt>
      <trkpt lat="47.14729" lon="5.91306">
        <ele>378.4</ele>
        <time>2021-08-17T12:33:44Z</time>
      </trkpt>
      <trkpt lat="47.14724" lon="5.91301">
        <ele>378</ele>
        <time>2021-08-17T12:33:46Z</time>
      </trkpt>
      <trkpt lat="47.14709" lon="5.91285">
        <ele>378</ele>
        <time>2021-08-17T12:33:51Z</time>
      </trkpt>
      <trkpt lat="47.14702" lon="5.91274">
        <ele>377.8</ele>
        <time>2021-08-17T12:33:55Z</time>
      </trkpt>
      <trkpt lat="47.147" lon="5.91272">
        <ele>377.8</ele>
        <time>2021-08-17T12:33:56Z</time>
      </trkpt>
      <trkpt lat="47.14697" lon="5.91269">
        <ele>377.8</ele>
        <time>2021-08-17T12:33:57Z</time>
      </trkpt>
      <trkpt lat="47.14695" lon="5.91266">
        <ele>377.4</ele>
        <time>2021-08-17T12:33:58Z</time>
      </trkpt>
      <trkpt lat="47.14681" lon="5.91249">
        <ele>377.2</ele>
        <time>2021-08-17T12:34:03Z</time>
      </trkpt>
      <trkpt lat="47.14677" lon="5.91245">
        <ele>377.2</ele>
        <time>2021-08-17T12:34:04Z</time>
      </trkpt>
      <trkpt lat="47.14652" lon="5.91217">
        <ele>377</ele>
        <time>2021-08-17T12:34:11Z</time>
      </trkpt>
      <trkpt lat="47.14645" lon="5.91209">
        <ele>376.6</ele>
        <time>2021-08-17T12:34:13Z</time>
      </trkpt>
      <trkpt lat="47.14634" lon="5.91195">
        <ele>376.4</ele>
        <time>2021-08-17T12:34:16Z</time>
      </trkpt>
      <trkpt lat="47.1463" lon="5.91191">
        <ele>376</ele>
        <time>2021-08-17T12:34:17Z</time>
      </trkpt>
      <trkpt lat="47.14601" lon="5.91157">
        <ele>375</ele>
        <time>2021-08-17T12:34:25Z</time>
      </trkpt>
      <trkpt lat="47.14585" lon="5.91138">
        <ele>375</ele>
        <time>2021-08-17T12:34:29Z</time>
      </trkpt>
      <trkpt lat="47.14577" lon="5.91128">
        <ele>374.8</ele>
        <time>2021-08-17T12:34:31Z</time>
      </trkpt>
      <trkpt lat="47.14569" lon="5.91118">
        <ele>374.6</ele>
        <time>2021-08-17T12:34:33Z</time>
      </trkpt>
      <trkpt lat="47.14552" lon="5.91097">
        <ele>374</ele>
        <time>2021-08-17T12:34:38Z</time>
      </trkpt>
      <trkpt lat="47.14548" lon="5.91092">
        <ele>374</ele>
        <time>2021-08-17T12:34:39Z</time>
      </trkpt>
      <trkpt lat="47.14545" lon="5.91088">
        <ele>374</ele>
        <time>2021-08-17T12:34:40Z</time>
      </trkpt>
      <trkpt lat="47.14542" lon="5.91084">
        <ele>374</ele>
        <time>2021-08-17T12:34:41Z</time>
      </trkpt>
      <trkpt lat="47.14538" lon="5.9108">
        <ele>374</ele>
        <time>2021-08-17T12:34:42Z</time>
      </trkpt>
      <trkpt lat="47.14535" lon="5.91076">
        <ele>373.8</ele>
        <time>2021-08-17T12:34:43Z</time>
      </trkpt>
      <trkpt lat="47.14532" lon="5.91072">
        <ele>373.8</ele>
        <time>2021-08-17T12:34:44Z</time>
      </trkpt>
      <trkpt lat="47.14528" lon="5.91068">
        <ele>374</ele>
        <time>2021-08-17T12:34:45Z</time>
      </trkpt>
      <trkpt lat="47.14525" lon="5.91064">
        <ele>374</ele>
        <time>2021-08-17T12:34:46Z</time>
      </trkpt>
      <trkpt lat="47.14522" lon="5.9106">
        <ele>374</ele>
        <time>2021-08-17T12:34:47Z</time>
      </trkpt>
      <trkpt lat="47.14519" lon="5.91057">
        <ele>374</ele>
        <time>2021-08-17T12:34:48Z</time>
      </trkpt>
      <trkpt lat="47.14516" lon="5.91053">
        <ele>374</ele>
        <time>2021-08-17T12:34:49Z</time>
      </trkpt>
      <trkpt lat="47.14513" lon="5.9105">
        <ele>374</ele>
        <time>2021-08-17T12:34:50Z</time>
      </trkpt>
      <trkpt lat="47.1451" lon="5.91046">
        <ele>374</ele>
        <time>2021-08-17T12:34:51Z</time>
      </trkpt>
      <trkpt lat="47.14507" lon="5.91041">
        <ele>374</ele>
        <time>2021-08-17T12:34:52Z</time>
      </trkpt>
      <trkpt lat="47.14501" lon="5.91034">
        <ele>374.2</ele>
        <time>2021-08-17T12:34:54Z</time>
      </trkpt>
      <trkpt lat="47.14498" lon="5.9103">
        <ele>374.2</ele>
        <time>2021-08-17T12:34:55Z</time>
      </trkpt>
      <trkpt lat="47.14495" lon="5.91026">
        <ele>374.2</ele>
        <time>2021-08-17T12:34:56Z</time>
      </trkpt>
      <trkpt lat="47.14479" lon="5.91006">
        <ele>374.2</ele>
        <time>2021-08-17T12:35:01Z</time>
      </trkpt>
      <trkpt lat="47.14453" lon="5.90977">
        <ele>374.6</ele>
        <time>2021-08-17T12:35:09Z</time>
      </trkpt>
      <trkpt lat="47.14442" lon="5.90971">
        <ele>374.8</ele>
        <time>2021-08-17T12:35:12Z</time>
      </trkpt>
      <trkpt lat="47.14429" lon="5.9097">
        <ele>375</ele>
        <time>2021-08-17T12:35:15Z</time>
      </trkpt>
      <trkpt lat="47.14417" lon="5.90972">
        <ele>375</ele>
        <time>2021-08-17T12:35:18Z</time>
      </trkpt>
      <trkpt lat="47.14414" lon="5.90972">
        <ele>375.2</ele>
        <time>2021-08-17T12:35:19Z</time>
      </trkpt>
      <trkpt lat="47.14406" lon="5.90975">
        <ele>375.4</ele>
        <time>2021-08-17T12:35:21Z</time>
      </trkpt>
      <trkpt lat="47.14402" lon="5.90977">
        <ele>375.4</ele>
        <time>2021-08-17T12:35:22Z</time>
      </trkpt>
      <trkpt lat="47.14399" lon="5.90979">
        <ele>375.6</ele>
        <time>2021-08-17T12:35:23Z</time>
      </trkpt>
      <trkpt lat="47.14395" lon="5.90982">
        <ele>375.6</ele>
        <time>2021-08-17T12:35:24Z</time>
      </trkpt>
      <trkpt lat="47.14393" lon="5.90984">
        <ele>375.8</ele>
        <time>2021-08-17T12:35:25Z</time>
      </trkpt>
      <trkpt lat="47.14389" lon="5.90988">
        <ele>375.8</ele>
        <time>2021-08-17T12:35:26Z</time>
      </trkpt>
      <trkpt lat="47.14386" lon="5.90991">
        <ele>376</ele>
        <time>2021-08-17T12:35:27Z</time>
      </trkpt>
      <trkpt lat="47.14381" lon="5.90996">
        <ele>376.2</ele>
        <time>2021-08-17T12:35:29Z</time>
      </trkpt>
      <trkpt lat="47.14379" lon="5.90998">
        <ele>376.6</ele>
        <time>2021-08-17T12:35:30Z</time>
      </trkpt>
      <trkpt lat="47.14376" lon="5.91001">
        <ele>376.8</ele>
        <time>2021-08-17T12:35:31Z</time>
      </trkpt>
      <trkpt lat="47.14374" lon="5.91004">
        <ele>376.8</ele>
        <time>2021-08-17T12:35:32Z</time>
      </trkpt>
      <trkpt lat="47.14372" lon="5.91007">
        <ele>377</ele>
        <time>2021-08-17T12:35:33Z</time>
      </trkpt>
      <trkpt lat="47.1437" lon="5.9101">
        <ele>377.2</ele>
        <time>2021-08-17T12:35:34Z</time>
      </trkpt>
      <trkpt lat="47.14368" lon="5.91012">
        <ele>377.2</ele>
        <time>2021-08-17T12:35:35Z</time>
      </trkpt>
      <trkpt lat="47.14366" lon="5.91016">
        <ele>377.4</ele>
        <time>2021-08-17T12:35:36Z</time>
      </trkpt>
      <trkpt lat="47.14364" lon="5.91018">
        <ele>377.6</ele>
        <time>2021-08-17T12:35:37Z</time>
      </trkpt>
      <trkpt lat="47.14361" lon="5.91021">
        <ele>377.8</ele>
        <time>2021-08-17T12:35:38Z</time>
      </trkpt>
      <trkpt lat="47.14356" lon="5.91026">
        <ele>378</ele>
        <time>2021-08-17T12:35:40Z</time>
      </trkpt>
      <trkpt lat="47.14354" lon="5.91029">
        <ele>378</ele>
        <time>2021-08-17T12:35:41Z</time>
      </trkpt>
      <trkpt lat="47.14352" lon="5.91032">
        <ele>378.2</ele>
        <time>2021-08-17T12:35:42Z</time>
      </trkpt>
      <trkpt lat="47.14349" lon="5.91034">
        <ele>378.4</ele>
        <time>2021-08-17T12:35:43Z</time>
      </trkpt>
      <trkpt lat="47.14346" lon="5.91038">
        <ele>378.6</ele>
        <time>2021-08-17T12:35:44Z</time>
      </trkpt>
      <trkpt lat="47.14344" lon="5.91041">
        <ele>378.8</ele>
        <time>2021-08-17T12:35:45Z</time>
      </trkpt>
      <trkpt lat="47.14341" lon="5.91043">
        <ele>378.8</ele>
        <time>2021-08-17T12:35:46Z</time>
      </trkpt>
      <trkpt lat="47.14338" lon="5.91046">
        <ele>379</ele>
        <time>2021-08-17T12:35:47Z</time>
      </trkpt>
      <trkpt lat="47.14336" lon="5.91049">
        <ele>379.2</ele>
        <time>2021-08-17T12:35:48Z</time>
      </trkpt>
      <trkpt lat="47.14333" lon="5.91051">
        <ele>379.4</ele>
        <time>2021-08-17T12:35:49Z</time>
      </trkpt>
      <trkpt lat="47.14331" lon="5.91054">
        <ele>379.4</ele>
        <time>2021-08-17T12:35:50Z</time>
      </trkpt>
      <trkpt lat="47.14328" lon="5.91056">
        <ele>379.6</ele>
        <time>2021-08-17T12:35:51Z</time>
      </trkpt>
      <trkpt lat="47.14326" lon="5.91059">
        <ele>379.6</ele>
        <time>2021-08-17T12:35:52Z</time>
      </trkpt>
      <trkpt lat="47.14324" lon="5.9106">
        <ele>379.8</ele>
        <time>2021-08-17T12:35:53Z</time>
      </trkpt>
      <trkpt lat="47.14322" lon="5.91062">
        <ele>379.8</ele>
        <time>2021-08-17T12:35:54Z</time>
      </trkpt>
      <trkpt lat="47.1432" lon="5.91064">
        <ele>380</ele>
        <time>2021-08-17T12:35:55Z</time>
      </trkpt>
      <trkpt lat="47.14318" lon="5.91066">
        <ele>380.2</ele>
        <time>2021-08-17T12:35:56Z</time>
      </trkpt>
      <trkpt lat="47.14316" lon="5.91068">
        <ele>380.4</ele>
        <time>2021-08-17T12:35:57Z</time>
      </trkpt>
      <trkpt lat="47.14314" lon="5.9107">
        <ele>380.6</ele>
        <time>2021-08-17T12:35:58Z</time>
      </trkpt>
      <trkpt lat="47.14312" lon="5.91072">
        <ele>380.8</ele>
        <time>2021-08-17T12:35:59Z</time>
      </trkpt>
      <trkpt lat="47.14309" lon="5.91074">
        <ele>380.8</ele>
        <time>2021-08-17T12:36:00Z</time>
      </trkpt>
      <trkpt lat="47.14307" lon="5.91076">
        <ele>381</ele>
        <time>2021-08-17T12:36:01Z</time>
      </trkpt>
      <trkpt lat="47.14305" lon="5.91078">
        <ele>381.2</ele>
        <time>2021-08-17T12:36:02Z</time>
      </trkpt>
      <trkpt lat="47.14302" lon="5.91079">
        <ele>381.4</ele>
        <time>2021-08-17T12:36:03Z</time>
      </trkpt>
      <trkpt lat="47.143" lon="5.91081">
        <ele>381.4</ele>
        <time>2021-08-17T12:36:04Z</time>
      </trkpt>
      <trkpt lat="47.14298" lon="5.91082">
        <ele>381.6</ele>
        <time>2021-08-17T12:36:05Z</time>
      </trkpt>
      <trkpt lat="47.14296" lon="5.91083">
        <ele>381.8</ele>
        <time>2021-08-17T12:36:06Z</time>
      </trkpt>
      <trkpt lat="47.14293" lon="5.91085">
        <ele>381.8</ele>
        <time>2021-08-17T12:36:07Z</time>
      </trkpt>
      <trkpt lat="47.14292" lon="5.91086">
        <ele>382</ele>
        <time>2021-08-17T12:36:08Z</time>
      </trkpt>
      <trkpt lat="47.1429" lon="5.91088">
        <ele>382</ele>
        <time>2021-08-17T12:36:09Z</time>
      </trkpt>
      <trkpt lat="47.14288" lon="5.91088">
        <ele>382.2</ele>
        <time>2021-08-17T12:36:10Z</time>
      </trkpt>
      <trkpt lat="47.14286" lon="5.91089">
        <ele>382.2</ele>
        <time>2021-08-17T12:36:11Z</time>
      </trkpt>
      <trkpt lat="47.14283" lon="5.91089">
        <ele>382.4</ele>
        <time>2021-08-17T12:36:12Z</time>
      </trkpt>
      <trkpt lat="47.14281" lon="5.91089">
        <ele>382.4</ele>
        <time>2021-08-17T12:36:13Z</time>
      </trkpt>
      <trkpt lat="47.14278" lon="5.91089">
        <ele>382.6</ele>
        <time>2021-08-17T12:36:14Z</time>
      </trkpt>
      <trkpt lat="47.14273" lon="5.9109">
        <ele>383</ele>
        <time>2021-08-17T12:36:15Z</time>
      </trkpt>
      <trkpt lat="47.1427" lon="5.91089">
        <ele>383.2</ele>
        <time>2021-08-17T12:36:16Z</time>
      </trkpt>
      <trkpt lat="47.14267" lon="5.91088">
        <ele>383.4</ele>
        <time>2021-08-17T12:36:17Z</time>
      </trkpt>
      <trkpt lat="47.14265" lon="5.91089">
        <ele>383.4</ele>
        <time>2021-08-17T12:36:18Z</time>
      </trkpt>
      <trkpt lat="47.14261" lon="5.91089">
        <ele>383.6</ele>
        <time>2021-08-17T12:36:19Z</time>
      </trkpt>
      <trkpt lat="47.14258" lon="5.91088">
        <ele>383.6</ele>
        <time>2021-08-17T12:36:20Z</time>
      </trkpt>
      <trkpt lat="47.14256" lon="5.91088">
        <ele>383.8</ele>
        <time>2021-08-17T12:36:21Z</time>
      </trkpt>
      <trkpt lat="47.14253" lon="5.91088">
        <ele>383.8</ele>
        <time>2021-08-17T12:36:22Z</time>
      </trkpt>
      <trkpt lat="47.14251" lon="5.91088">
        <ele>384</ele>
        <time>2021-08-17T12:36:23Z</time>
      </trkpt>
      <trkpt lat="47.14249" lon="5.91087">
        <ele>384.2</ele>
        <time>2021-08-17T12:36:24Z</time>
      </trkpt>
      <trkpt lat="47.14247" lon="5.91086">
        <ele>384.2</ele>
        <time>2021-08-17T12:36:25Z</time>
      </trkpt>
      <trkpt lat="47.14243" lon="5.91084">
        <ele>384.4</ele>
        <time>2021-08-17T12:36:26Z</time>
      </trkpt>
      <trkpt lat="47.1424" lon="5.91083">
        <ele>384.4</ele>
        <time>2021-08-17T12:36:27Z</time>
      </trkpt>
      <trkpt lat="47.14237" lon="5.91083">
        <ele>384.6</ele>
        <time>2021-08-17T12:36:28Z</time>
      </trkpt>
      <trkpt lat="47.14234" lon="5.91082">
        <ele>384.8</ele>
        <time>2021-08-17T12:36:29Z</time>
      </trkpt>
      <trkpt lat="47.14232" lon="5.91082">
        <ele>385</ele>
        <time>2021-08-17T12:36:30Z</time>
      </trkpt>
      <trkpt lat="47.14229" lon="5.9108">
        <ele>385</ele>
        <time>2021-08-17T12:36:31Z</time>
      </trkpt>
      <trkpt lat="47.14225" lon="5.91078">
        <ele>385.2</ele>
        <time>2021-08-17T12:36:32Z</time>
      </trkpt>
      <trkpt lat="47.14222" lon="5.91078">
        <ele>385.2</ele>
        <time>2021-08-17T12:36:33Z</time>
      </trkpt>
      <trkpt lat="47.14218" lon="5.91076">
        <ele>385.4</ele>
        <time>2021-08-17T12:36:34Z</time>
      </trkpt>
      <trkpt lat="47.14215" lon="5.91074">
        <ele>385.4</ele>
        <time>2021-08-17T12:36:35Z</time>
      </trkpt>
      <trkpt lat="47.14212" lon="5.91074">
        <ele>385.4</ele>
        <time>2021-08-17T12:36:36Z</time>
      </trkpt>
      <trkpt lat="47.1421" lon="5.91073">
        <ele>385.6</ele>
        <time>2021-08-17T12:36:37Z</time>
      </trkpt>
      <trkpt lat="47.14209" lon="5.91073">
        <ele>385.6</ele>
        <time>2021-08-17T12:36:38Z</time>
      </trkpt>
      <trkpt lat="47.14206" lon="5.91071">
        <ele>385.8</ele>
        <time>2021-08-17T12:36:39Z</time>
      </trkpt>
      <trkpt lat="47.14204" lon="5.9107">
        <ele>386</ele>
        <time>2021-08-17T12:36:40Z</time>
      </trkpt>
      <trkpt lat="47.14203" lon="5.91069">
        <ele>386.2</ele>
        <time>2021-08-17T12:36:41Z</time>
      </trkpt>
      <trkpt lat="47.142" lon="5.91068">
        <ele>386.2</ele>
        <time>2021-08-17T12:36:42Z</time>
      </trkpt>
      <trkpt lat="47.14199" lon="5.91067">
        <ele>386.2</ele>
        <time>2021-08-17T12:36:43Z</time>
      </trkpt>
      <trkpt lat="47.14197" lon="5.91065">
        <ele>386.4</ele>
        <time>2021-08-17T12:36:44Z</time>
      </trkpt>
      <trkpt lat="47.14194" lon="5.91064">
        <ele>386.4</ele>
        <time>2021-08-17T12:36:45Z</time>
      </trkpt>
      <trkpt lat="47.14192" lon="5.91063">
        <ele>386.6</ele>
        <time>2021-08-17T12:36:46Z</time>
      </trkpt>
      <trkpt lat="47.1419" lon="5.91062">
        <ele>387</ele>
        <time>2021-08-17T12:36:47Z</time>
      </trkpt>
      <trkpt lat="47.14188" lon="5.91061">
        <ele>387</ele>
        <time>2021-08-17T12:36:48Z</time>
      </trkpt>
      <trkpt lat="47.14186" lon="5.9106">
        <ele>387.2</ele>
        <time>2021-08-17T12:36:49Z</time>
      </trkpt>
      <trkpt lat="47.14183" lon="5.91058">
        <ele>387.2</ele>
        <time>2021-08-17T12:36:50Z</time>
      </trkpt>
      <trkpt lat="47.14181" lon="5.91058">
        <ele>387.2</ele>
        <time>2021-08-17T12:36:51Z</time>
      </trkpt>
      <trkpt lat="47.14178" lon="5.91056">
        <ele>387.2</ele>
        <time>2021-08-17T12:36:52Z</time>
      </trkpt>
      <trkpt lat="47.14176" lon="5.91055">
        <ele>387.2</ele>
        <time>2021-08-17T12:36:53Z</time>
      </trkpt>
      <trkpt lat="47.14173" lon="5.91053">
        <ele>387.2</ele>
        <time>2021-08-17T12:36:54Z</time>
      </trkpt>
      <trkpt lat="47.14171" lon="5.91052">
        <ele>387.2</ele>
        <time>2021-08-17T12:36:55Z</time>
      </trkpt>
      <trkpt lat="47.14168" lon="5.91051">
        <ele>387.4</ele>
        <time>2021-08-17T12:36:56Z</time>
      </trkpt>
      <trkpt lat="47.14164" lon="5.9105">
        <ele>387.4</ele>
        <time>2021-08-17T12:36:57Z</time>
      </trkpt>
      <trkpt lat="47.1415" lon="5.91045">
        <ele>388.4</ele>
        <time>2021-08-17T12:37:02Z</time>
      </trkpt>
      <trkpt lat="47.14144" lon="5.91042">
        <ele>388.6</ele>
        <time>2021-08-17T12:37:04Z</time>
      </trkpt>
      <trkpt lat="47.14132" lon="5.91038">
        <ele>388.8</ele>
        <time>2021-08-17T12:37:08Z</time>
      </trkpt>
      <trkpt lat="47.14125" lon="5.91036">
        <ele>389</ele>
        <time>2021-08-17T12:37:10Z</time>
      </trkpt>
      <trkpt lat="47.14121" lon="5.91035">
        <ele>389</ele>
        <time>2021-08-17T12:37:11Z</time>
      </trkpt>
      <trkpt lat="47.14111" lon="5.91032">
        <ele>389.4</ele>
        <time>2021-08-17T12:37:15Z</time>
      </trkpt>
      <trkpt lat="47.14108" lon="5.9103">
        <ele>389.6</ele>
        <time>2021-08-17T12:37:16Z</time>
      </trkpt>
      <trkpt lat="47.14106" lon="5.91029">
        <ele>389.6</ele>
        <time>2021-08-17T12:37:17Z</time>
      </trkpt>
      <trkpt lat="47.14103" lon="5.91029">
        <ele>389.8</ele>
        <time>2021-08-17T12:37:19Z</time>
      </trkpt>
      <trkpt lat="47.14099" lon="5.91029">
        <ele>390</ele>
        <time>2021-08-17T12:37:20Z</time>
      </trkpt>
      <trkpt lat="47.14097" lon="5.91028">
        <ele>390.2</ele>
        <time>2021-08-17T12:37:21Z</time>
      </trkpt>
      <trkpt lat="47.14095" lon="5.91028">
        <ele>390.2</ele>
        <time>2021-08-17T12:37:22Z</time>
      </trkpt>
      <trkpt lat="47.14094" lon="5.91027">
        <ele>390.4</ele>
        <time>2021-08-17T12:37:23Z</time>
      </trkpt>
      <trkpt lat="47.14091" lon="5.91026">
        <ele>390.6</ele>
        <time>2021-08-17T12:37:24Z</time>
      </trkpt>
      <trkpt lat="47.14089" lon="5.91025">
        <ele>390.6</ele>
        <time>2021-08-17T12:37:25Z</time>
      </trkpt>
      <trkpt lat="47.14086" lon="5.91025">
        <ele>390.8</ele>
        <time>2021-08-17T12:37:26Z</time>
      </trkpt>
      <trkpt lat="47.14084" lon="5.91025">
        <ele>390.8</ele>
        <time>2021-08-17T12:37:27Z</time>
      </trkpt>
      <trkpt lat="47.14081" lon="5.91024">
        <ele>390.8</ele>
        <time>2021-08-17T12:37:28Z</time>
      </trkpt>
      <trkpt lat="47.14078" lon="5.91024">
        <ele>390.8</ele>
        <time>2021-08-17T12:37:29Z</time>
      </trkpt>
      <trkpt lat="47.14076" lon="5.91023">
        <ele>390.8</ele>
        <time>2021-08-17T12:37:30Z</time>
      </trkpt>
      <trkpt lat="47.14074" lon="5.91023">
        <ele>391</ele>
        <time>2021-08-17T12:37:31Z</time>
      </trkpt>
      <trkpt lat="47.14072" lon="5.91022">
        <ele>391.2</ele>
        <time>2021-08-17T12:37:32Z</time>
      </trkpt>
      <trkpt lat="47.14069" lon="5.91022">
        <ele>391.2</ele>
        <time>2021-08-17T12:37:33Z</time>
      </trkpt>
      <trkpt lat="47.14065" lon="5.91022">
        <ele>391.6</ele>
        <time>2021-08-17T12:37:35Z</time>
      </trkpt>
      <trkpt lat="47.14059" lon="5.91021">
        <ele>392</ele>
        <time>2021-08-17T12:37:38Z</time>
      </trkpt>
      <trkpt lat="47.14057" lon="5.91021">
        <ele>392.2</ele>
        <time>2021-08-17T12:37:39Z</time>
      </trkpt>
      <trkpt lat="47.14055" lon="5.9102">
        <ele>392.2</ele>
        <time>2021-08-17T12:37:40Z</time>
      </trkpt>
      <trkpt lat="47.14052" lon="5.91019">
        <ele>392.4</ele>
        <time>2021-08-17T12:37:41Z</time>
      </trkpt>
      <trkpt lat="47.1405" lon="5.91018">
        <ele>392.4</ele>
        <time>2021-08-17T12:37:42Z</time>
      </trkpt>
      <trkpt lat="47.14048" lon="5.91018">
        <ele>392.6</ele>
        <time>2021-08-17T12:37:43Z</time>
      </trkpt>
      <trkpt lat="47.14045" lon="5.91017">
        <ele>392.6</ele>
        <time>2021-08-17T12:37:44Z</time>
      </trkpt>
      <trkpt lat="47.14043" lon="5.91016">
        <ele>392.6</ele>
        <time>2021-08-17T12:37:45Z</time>
      </trkpt>
      <trkpt lat="47.1404" lon="5.91016">
        <ele>392.6</ele>
        <time>2021-08-17T12:37:46Z</time>
      </trkpt>
      <trkpt lat="47.14037" lon="5.91016">
        <ele>392.8</ele>
        <time>2021-08-17T12:37:47Z</time>
      </trkpt>
      <trkpt lat="47.14034" lon="5.91016">
        <ele>392.8</ele>
        <time>2021-08-17T12:37:48Z</time>
      </trkpt>
      <trkpt lat="47.14032" lon="5.91015">
        <ele>393</ele>
        <time>2021-08-17T12:37:49Z</time>
      </trkpt>
      <trkpt lat="47.14029" lon="5.91015">
        <ele>393.2</ele>
        <time>2021-08-17T12:37:50Z</time>
      </trkpt>
      <trkpt lat="47.14026" lon="5.91015">
        <ele>393.2</ele>
        <time>2021-08-17T12:37:51Z</time>
      </trkpt>
      <trkpt lat="47.14023" lon="5.91014">
        <ele>393.4</ele>
        <time>2021-08-17T12:37:52Z</time>
      </trkpt>
      <trkpt lat="47.1402" lon="5.91014">
        <ele>393.6</ele>
        <time>2021-08-17T12:37:53Z</time>
      </trkpt>
      <trkpt lat="47.14016" lon="5.91013">
        <ele>393.8</ele>
        <time>2021-08-17T12:37:54Z</time>
      </trkpt>
      <trkpt lat="47.14014" lon="5.91013">
        <ele>394</ele>
        <time>2021-08-17T12:37:55Z</time>
      </trkpt>
      <trkpt lat="47.1401" lon="5.91013">
        <ele>394</ele>
        <time>2021-08-17T12:37:56Z</time>
      </trkpt>
      <trkpt lat="47.14008" lon="5.91013">
        <ele>394.2</ele>
        <time>2021-08-17T12:37:57Z</time>
      </trkpt>
      <trkpt lat="47.14005" lon="5.91012">
        <ele>394.4</ele>
        <time>2021-08-17T12:37:58Z</time>
      </trkpt>
      <trkpt lat="47.14001" lon="5.91011">
        <ele>394.6</ele>
        <time>2021-08-17T12:37:59Z</time>
      </trkpt>
      <trkpt lat="47.13998" lon="5.91011">
        <ele>394.4</ele>
        <time>2021-08-17T12:38:00Z</time>
      </trkpt>
      <trkpt lat="47.13995" lon="5.91009">
        <ele>394.8</ele>
        <time>2021-08-17T12:38:01Z</time>
      </trkpt>
      <trkpt lat="47.13992" lon="5.91008">
        <ele>394.8</ele>
        <time>2021-08-17T12:38:02Z</time>
      </trkpt>
      <trkpt lat="47.13989" lon="5.91007">
        <ele>394.8</ele>
        <time>2021-08-17T12:38:03Z</time>
      </trkpt>
      <trkpt lat="47.13986" lon="5.91007">
        <ele>395</ele>
        <time>2021-08-17T12:38:04Z</time>
      </trkpt>
      <trkpt lat="47.13983" lon="5.91006">
        <ele>395.2</ele>
        <time>2021-08-17T12:38:05Z</time>
      </trkpt>
      <trkpt lat="47.13982" lon="5.91006">
        <ele>395.6</ele>
        <time>2021-08-17T12:38:06Z</time>
      </trkpt>
      <trkpt lat="47.1398" lon="5.91006">
        <ele>395.8</ele>
        <time>2021-08-17T12:38:07Z</time>
      </trkpt>
      <trkpt lat="47.13979" lon="5.91006">
        <ele>395.8</ele>
        <time>2021-08-17T12:38:08Z</time>
      </trkpt>
      <trkpt lat="47.13976" lon="5.91006">
        <ele>395.8</ele>
        <time>2021-08-17T12:38:09Z</time>
      </trkpt>
      <trkpt lat="47.13974" lon="5.91005">
        <ele>395.8</ele>
        <time>2021-08-17T12:38:10Z</time>
      </trkpt>
      <trkpt lat="47.13972" lon="5.91003">
        <ele>396</ele>
        <time>2021-08-17T12:38:11Z</time>
      </trkpt>
      <trkpt lat="47.1397" lon="5.91002">
        <ele>396</ele>
        <time>2021-08-17T12:38:12Z</time>
      </trkpt>
      <trkpt lat="47.13968" lon="5.91001">
        <ele>396.2</ele>
        <time>2021-08-17T12:38:13Z</time>
      </trkpt>
      <trkpt lat="47.13965" lon="5.91">
        <ele>396.2</ele>
        <time>2021-08-17T12:38:14Z</time>
      </trkpt>
      <trkpt lat="47.13962" lon="5.90999">
        <ele>396.4</ele>
        <time>2021-08-17T12:38:15Z</time>
      </trkpt>
      <trkpt lat="47.13961" lon="5.90997">
        <ele>396.6</ele>
        <time>2021-08-17T12:38:16Z</time>
      </trkpt>
      <trkpt lat="47.13959" lon="5.90996">
        <ele>396.6</ele>
        <time>2021-08-17T12:38:17Z</time>
      </trkpt>
      <trkpt lat="47.13958" lon="5.90994">
        <ele>396.8</ele>
        <time>2021-08-17T12:38:18Z</time>
      </trkpt>
      <trkpt lat="47.13956" lon="5.90993">
        <ele>397</ele>
        <time>2021-08-17T12:38:19Z</time>
      </trkpt>
      <trkpt lat="47.13954" lon="5.90991">
        <ele>397.2</ele>
        <time>2021-08-17T12:38:20Z</time>
      </trkpt>
      <trkpt lat="47.13952" lon="5.90988">
        <ele>397.2</ele>
        <time>2021-08-17T12:38:21Z</time>
      </trkpt>
      <trkpt lat="47.13951" lon="5.90986">
        <ele>397.4</ele>
        <time>2021-08-17T12:38:22Z</time>
      </trkpt>
      <trkpt lat="47.13949" lon="5.90983">
        <ele>397.6</ele>
        <time>2021-08-17T12:38:23Z</time>
      </trkpt>
      <trkpt lat="47.13947" lon="5.9098">
        <ele>397.6</ele>
        <time>2021-08-17T12:38:24Z</time>
      </trkpt>
      <trkpt lat="47.13945" lon="5.90977">
        <ele>397.8</ele>
        <time>2021-08-17T12:38:25Z</time>
      </trkpt>
      <trkpt lat="47.13942" lon="5.90973">
        <ele>398</ele>
        <time>2021-08-17T12:38:26Z</time>
      </trkpt>
      <trkpt lat="47.13939" lon="5.9097">
        <ele>398.2</ele>
        <time>2021-08-17T12:38:27Z</time>
      </trkpt>
      <trkpt lat="47.13936" lon="5.90967">
        <ele>398.4</ele>
        <time>2021-08-17T12:38:28Z</time>
      </trkpt>
      <trkpt lat="47.13934" lon="5.90965">
        <ele>398.6</ele>
        <time>2021-08-17T12:38:29Z</time>
      </trkpt>
      <trkpt lat="47.13932" lon="5.90963">
        <ele>398.6</ele>
        <time>2021-08-17T12:38:30Z</time>
      </trkpt>
      <trkpt lat="47.1393" lon="5.90961">
        <ele>398.8</ele>
        <time>2021-08-17T12:38:31Z</time>
      </trkpt>
      <trkpt lat="47.13927" lon="5.90959">
        <ele>399</ele>
        <time>2021-08-17T12:38:32Z</time>
      </trkpt>
      <trkpt lat="47.13924" lon="5.90957">
        <ele>399</ele>
        <time>2021-08-17T12:38:33Z</time>
      </trkpt>
      <trkpt lat="47.13922" lon="5.90957">
        <ele>399.2</ele>
        <time>2021-08-17T12:38:34Z</time>
      </trkpt>
      <trkpt lat="47.13919" lon="5.90956">
        <ele>399.2</ele>
        <time>2021-08-17T12:38:35Z</time>
      </trkpt>
      <trkpt lat="47.13915" lon="5.90954">
        <ele>399.4</ele>
        <time>2021-08-17T12:38:36Z</time>
      </trkpt>
      <trkpt lat="47.13911" lon="5.90952">
        <ele>399.4</ele>
        <time>2021-08-17T12:38:37Z</time>
      </trkpt>
      <trkpt lat="47.13907" lon="5.9095">
        <ele>399.6</ele>
        <time>2021-08-17T12:38:38Z</time>
      </trkpt>
      <trkpt lat="47.13904" lon="5.90949">
        <ele>399.6</ele>
        <time>2021-08-17T12:38:39Z</time>
      </trkpt>
      <trkpt lat="47.13901" lon="5.90949">
        <ele>399.6</ele>
        <time>2021-08-17T12:38:40Z</time>
      </trkpt>
      <trkpt lat="47.13898" lon="5.90948">
        <ele>399.6</ele>
        <time>2021-08-17T12:38:41Z</time>
      </trkpt>
      <trkpt lat="47.13895" lon="5.90948">
        <ele>399.8</ele>
        <time>2021-08-17T12:38:42Z</time>
      </trkpt>
      <trkpt lat="47.13892" lon="5.90949">
        <ele>400</ele>
        <time>2021-08-17T12:38:43Z</time>
      </trkpt>
      <trkpt lat="47.13888" lon="5.90949">
        <ele>400</ele>
        <time>2021-08-17T12:38:44Z</time>
      </trkpt>
      <trkpt lat="47.13885" lon="5.90948">
        <ele>400</ele>
        <time>2021-08-17T12:38:45Z</time>
      </trkpt>
      <trkpt lat="47.13881" lon="5.90948">
        <ele>400</ele>
        <time>2021-08-17T12:38:46Z</time>
      </trkpt>
      <trkpt lat="47.13878" lon="5.90947">
        <ele>400.2</ele>
        <time>2021-08-17T12:38:47Z</time>
      </trkpt>
      <trkpt lat="47.13875" lon="5.90947">
        <ele>400.4</ele>
        <time>2021-08-17T12:38:48Z</time>
      </trkpt>
      <trkpt lat="47.13872" lon="5.90947">
        <ele>400.4</ele>
        <time>2021-08-17T12:38:49Z</time>
      </trkpt>
      <trkpt lat="47.1387" lon="5.90947">
        <ele>400.6</ele>
        <time>2021-08-17T12:38:50Z</time>
      </trkpt>
      <trkpt lat="47.13867" lon="5.90947">
        <ele>400.6</ele>
        <time>2021-08-17T12:38:51Z</time>
      </trkpt>
      <trkpt lat="47.13864" lon="5.90946">
        <ele>400.6</ele>
        <time>2021-08-17T12:38:52Z</time>
      </trkpt>
      <trkpt lat="47.13861" lon="5.90946">
        <ele>400.8</ele>
        <time>2021-08-17T12:38:53Z</time>
      </trkpt>
      <trkpt lat="47.13858" lon="5.90945">
        <ele>400.8</ele>
        <time>2021-08-17T12:38:54Z</time>
      </trkpt>
      <trkpt lat="47.13854" lon="5.90945">
        <ele>401</ele>
        <time>2021-08-17T12:38:55Z</time>
      </trkpt>
      <trkpt lat="47.1385" lon="5.90944">
        <ele>401</ele>
        <time>2021-08-17T12:38:56Z</time>
      </trkpt>
      <trkpt lat="47.13834" lon="5.90942">
        <ele>401.2</ele>
        <time>2021-08-17T12:39:01Z</time>
      </trkpt>
      <trkpt lat="47.13819" lon="5.90939">
        <ele>401.8</ele>
        <time>2021-08-17T12:39:06Z</time>
      </trkpt>
      <trkpt lat="47.13815" lon="5.90938">
        <ele>401.8</ele>
        <time>2021-08-17T12:39:07Z</time>
      </trkpt>
      <trkpt lat="47.13813" lon="5.90938">
        <ele>401.8</ele>
        <time>2021-08-17T12:39:08Z</time>
      </trkpt>
      <trkpt lat="47.1381" lon="5.90938">
        <ele>402</ele>
        <time>2021-08-17T12:39:09Z</time>
      </trkpt>
      <trkpt lat="47.13807" lon="5.90938">
        <ele>402</ele>
        <time>2021-08-17T12:39:10Z</time>
      </trkpt>
      <trkpt lat="47.13805" lon="5.90937">
        <ele>402</ele>
        <time>2021-08-17T12:39:11Z</time>
      </trkpt>
      <trkpt lat="47.13802" lon="5.90936">
        <ele>402</ele>
        <time>2021-08-17T12:39:12Z</time>
      </trkpt>
      <trkpt lat="47.138" lon="5.90936">
        <ele>402.2</ele>
        <time>2021-08-17T12:39:13Z</time>
      </trkpt>
      <trkpt lat="47.13787" lon="5.90935">
        <ele>402.6</ele>
        <time>2021-08-17T12:39:17Z</time>
      </trkpt>
      <trkpt lat="47.13785" lon="5.90935">
        <ele>402.6</ele>
        <time>2021-08-17T12:39:18Z</time>
      </trkpt>
      <trkpt lat="47.13782" lon="5.90935">
        <ele>402.8</ele>
        <time>2021-08-17T12:39:19Z</time>
      </trkpt>
      <trkpt lat="47.13779" lon="5.90935">
        <ele>403</ele>
        <time>2021-08-17T12:39:20Z</time>
      </trkpt>
      <trkpt lat="47.13777" lon="5.90934">
        <ele>403</ele>
        <time>2021-08-17T12:39:21Z</time>
      </trkpt>
      <trkpt lat="47.13775" lon="5.90934">
        <ele>403</ele>
        <time>2021-08-17T12:39:22Z</time>
      </trkpt>
      <trkpt lat="47.13773" lon="5.90932">
        <ele>403.2</ele>
        <time>2021-08-17T12:39:23Z</time>
      </trkpt>
      <trkpt lat="47.1377" lon="5.9093">
        <ele>403.2</ele>
        <time>2021-08-17T12:39:24Z</time>
      </trkpt>
      <trkpt lat="47.13768" lon="5.90929">
        <ele>403.2</ele>
        <time>2021-08-17T12:39:25Z</time>
      </trkpt>
      <trkpt lat="47.13763" lon="5.90926">
        <ele>403.2</ele>
        <time>2021-08-17T12:39:27Z</time>
      </trkpt>
      <trkpt lat="47.13761" lon="5.90925">
        <ele>403.2</ele>
        <time>2021-08-17T12:39:28Z</time>
      </trkpt>
      <trkpt lat="47.13751" lon="5.90917">
        <ele>403.6</ele>
        <time>2021-08-17T12:39:32Z</time>
      </trkpt>
      <trkpt lat="47.13736" lon="5.90906">
        <ele>404</ele>
        <time>2021-08-17T12:39:37Z</time>
      </trkpt>
      <trkpt lat="47.13727" lon="5.90899">
        <ele>404.2</ele>
        <time>2021-08-17T12:39:40Z</time>
      </trkpt>
      <trkpt lat="47.13719" lon="5.90896">
        <ele>404.2</ele>
        <time>2021-08-17T12:39:43Z</time>
      </trkpt>
      <trkpt lat="47.13716" lon="5.90895">
        <ele>404.4</ele>
        <time>2021-08-17T12:39:44Z</time>
      </trkpt>
      <trkpt lat="47.13712" lon="5.90894">
        <ele>404.4</ele>
        <time>2021-08-17T12:39:45Z</time>
      </trkpt>
      <trkpt lat="47.13706" lon="5.9089">
        <ele>404.4</ele>
        <time>2021-08-17T12:39:47Z</time>
      </trkpt>
      <trkpt lat="47.13701" lon="5.90887">
        <ele>404.6</ele>
        <time>2021-08-17T12:39:49Z</time>
      </trkpt>
      <trkpt lat="47.13699" lon="5.90886">
        <ele>404.6</ele>
        <time>2021-08-17T12:39:50Z</time>
      </trkpt>
      <trkpt lat="47.13697" lon="5.90884">
        <ele>404.6</ele>
        <time>2021-08-17T12:39:51Z</time>
      </trkpt>
      <trkpt lat="47.13694" lon="5.90882">
        <ele>404.6</ele>
        <time>2021-08-17T12:39:52Z</time>
      </trkpt>
      <trkpt lat="47.13691" lon="5.90881">
        <ele>404.8</ele>
        <time>2021-08-17T12:39:53Z</time>
      </trkpt>
      <trkpt lat="47.13687" lon="5.90879">
        <ele>405</ele>
        <time>2021-08-17T12:39:54Z</time>
      </trkpt>
      <trkpt lat="47.13684" lon="5.90878">
        <ele>405</ele>
        <time>2021-08-17T12:39:55Z</time>
      </trkpt>
      <trkpt lat="47.1368" lon="5.90876">
        <ele>405.2</ele>
        <time>2021-08-17T12:39:56Z</time>
      </trkpt>
      <trkpt lat="47.13676" lon="5.90874">
        <ele>405.4</ele>
        <time>2021-08-17T12:39:58Z</time>
      </trkpt>
      <trkpt lat="47.13673" lon="5.90872">
        <ele>405.6</ele>
        <time>2021-08-17T12:39:59Z</time>
      </trkpt>
      <trkpt lat="47.1367" lon="5.90871">
        <ele>405.6</ele>
        <time>2021-08-17T12:40:00Z</time>
      </trkpt>
      <trkpt lat="47.13668" lon="5.9087">
        <ele>405.8</ele>
        <time>2021-08-17T12:40:01Z</time>
      </trkpt>
      <trkpt lat="47.13666" lon="5.90869">
        <ele>406</ele>
        <time>2021-08-17T12:40:02Z</time>
      </trkpt>
      <trkpt lat="47.13664" lon="5.90868">
        <ele>406</ele>
        <time>2021-08-17T12:40:03Z</time>
      </trkpt>
      <trkpt lat="47.13662" lon="5.90866">
        <ele>406</ele>
        <time>2021-08-17T12:40:04Z</time>
      </trkpt>
      <trkpt lat="47.1366" lon="5.90864">
        <ele>406.2</ele>
        <time>2021-08-17T12:40:05Z</time>
      </trkpt>
      <trkpt lat="47.13655" lon="5.90862">
        <ele>406.2</ele>
        <time>2021-08-17T12:40:06Z</time>
      </trkpt>
      <trkpt lat="47.13643" lon="5.90855">
        <ele>406.4</ele>
        <time>2021-08-17T12:40:10Z</time>
      </trkpt>
      <trkpt lat="47.13639" lon="5.90853">
        <ele>406.4</ele>
        <time>2021-08-17T12:40:11Z</time>
      </trkpt>
      <trkpt lat="47.13635" lon="5.90852">
        <ele>406.4</ele>
        <time>2021-08-17T12:40:12Z</time>
      </trkpt>
      <trkpt lat="47.13624" lon="5.9085">
        <ele>406.6</ele>
        <time>2021-08-17T12:40:15Z</time>
      </trkpt>
      <trkpt lat="47.13621" lon="5.90849">
        <ele>406.6</ele>
        <time>2021-08-17T12:40:16Z</time>
      </trkpt>
      <trkpt lat="47.13612" lon="5.90845">
        <ele>407</ele>
        <time>2021-08-17T12:40:19Z</time>
      </trkpt>
      <trkpt lat="47.13609" lon="5.90843">
        <ele>407</ele>
        <time>2021-08-17T12:40:20Z</time>
      </trkpt>
      <trkpt lat="47.13592" lon="5.90832">
        <ele>407.2</ele>
        <time>2021-08-17T12:40:26Z</time>
      </trkpt>
      <trkpt lat="47.13588" lon="5.90829">
        <ele>407.4</ele>
        <time>2021-08-17T12:40:28Z</time>
      </trkpt>
      <trkpt lat="47.13586" lon="5.90828">
        <ele>407.4</ele>
        <time>2021-08-17T12:40:29Z</time>
      </trkpt>
      <trkpt lat="47.13583" lon="5.90826">
        <ele>407.4</ele>
        <time>2021-08-17T12:40:30Z</time>
      </trkpt>
      <trkpt lat="47.13581" lon="5.90825">
        <ele>407.6</ele>
        <time>2021-08-17T12:40:31Z</time>
      </trkpt>
      <trkpt lat="47.13579" lon="5.90823">
        <ele>407.6</ele>
        <time>2021-08-17T12:40:32Z</time>
      </trkpt>
      <trkpt lat="47.13573" lon="5.90819">
        <ele>408.2</ele>
        <time>2021-08-17T12:40:34Z</time>
      </trkpt>
      <trkpt lat="47.13571" lon="5.90817">
        <ele>408.2</ele>
        <time>2021-08-17T12:40:35Z</time>
      </trkpt>
      <trkpt lat="47.13568" lon="5.90814">
        <ele>408.4</ele>
        <time>2021-08-17T12:40:36Z</time>
      </trkpt>
      <trkpt lat="47.13563" lon="5.90809">
        <ele>408.6</ele>
        <time>2021-08-17T12:40:38Z</time>
      </trkpt>
      <trkpt lat="47.1356" lon="5.90805">
        <ele>408.6</ele>
        <time>2021-08-17T12:40:39Z</time>
      </trkpt>
      <trkpt lat="47.13546" lon="5.90789">
        <ele>408.8</ele>
        <time>2021-08-17T12:40:44Z</time>
      </trkpt>
      <trkpt lat="47.13526" lon="5.90765">
        <ele>409.2</ele>
        <time>2021-08-17T12:40:52Z</time>
      </trkpt>
      <trkpt lat="47.13512" lon="5.90749">
        <ele>409.6</ele>
        <time>2021-08-17T12:40:57Z</time>
      </trkpt>
      <trkpt lat="47.13505" lon="5.90739">
        <ele>409.6</ele>
        <time>2021-08-17T12:41:00Z</time>
      </trkpt>
      <trkpt lat="47.13488" lon="5.9072">
        <ele>409.8</ele>
        <time>2021-08-17T12:41:06Z</time>
      </trkpt>
      <trkpt lat="47.1347" lon="5.90701">
        <ele>409.8</ele>
        <time>2021-08-17T12:41:12Z</time>
      </trkpt>
      <trkpt lat="47.1345" lon="5.90679">
        <ele>410</ele>
        <time>2021-08-17T12:41:18Z</time>
      </trkpt>
      <trkpt lat="47.13443" lon="5.90671">
        <ele>410</ele>
        <time>2021-08-17T12:41:20Z</time>
      </trkpt>
      <trkpt lat="47.13434" lon="5.90657">
        <ele>410.2</ele>
        <time>2021-08-17T12:41:23Z</time>
      </trkpt>
      <trkpt lat="47.13432" lon="5.90653">
        <ele>410.2</ele>
        <time>2021-08-17T12:41:24Z</time>
      </trkpt>
      <trkpt lat="47.13432" lon="5.90649">
        <ele>410.2</ele>
        <time>2021-08-17T12:41:25Z</time>
      </trkpt>
      <trkpt lat="47.13429" lon="5.90645">
        <ele>410.4</ele>
        <time>2021-08-17T12:41:26Z</time>
      </trkpt>
      <trkpt lat="47.13419" lon="5.90633">
        <ele>410.6</ele>
        <time>2021-08-17T12:41:29Z</time>
      </trkpt>
      <trkpt lat="47.13417" lon="5.90629">
        <ele>410.8</ele>
        <time>2021-08-17T12:41:30Z</time>
      </trkpt>
      <trkpt lat="47.134" lon="5.9061">
        <ele>410.6</ele>
        <time>2021-08-17T12:41:35Z</time>
      </trkpt>
      <trkpt lat="47.13376" lon="5.90595">
        <ele>410</ele>
        <time>2021-08-17T12:41:41Z</time>
      </trkpt>
      <trkpt lat="47.1336" lon="5.90587">
        <ele>409.6</ele>
        <time>2021-08-17T12:41:45Z</time>
      </trkpt>
      <trkpt lat="47.13352" lon="5.90582">
        <ele>409.6</ele>
        <time>2021-08-17T12:41:47Z</time>
      </trkpt>
      <trkpt lat="47.13348" lon="5.90579">
        <ele>409.6</ele>
        <time>2021-08-17T12:41:48Z</time>
      </trkpt>
      <trkpt lat="47.13336" lon="5.90572">
        <ele>409.4</ele>
        <time>2021-08-17T12:41:51Z</time>
      </trkpt>
      <trkpt lat="47.13332" lon="5.9057">
        <ele>409.4</ele>
        <time>2021-08-17T12:41:52Z</time>
      </trkpt>
      <trkpt lat="47.13328" lon="5.90569">
        <ele>409.4</ele>
        <time>2021-08-17T12:41:53Z</time>
      </trkpt>
      <trkpt lat="47.13325" lon="5.90567">
        <ele>409.2</ele>
        <time>2021-08-17T12:41:54Z</time>
      </trkpt>
      <trkpt lat="47.13322" lon="5.90565">
        <ele>409.2</ele>
        <time>2021-08-17T12:41:55Z</time>
      </trkpt>
      <trkpt lat="47.1331" lon="5.90559">
        <ele>409.2</ele>
        <time>2021-08-17T12:41:58Z</time>
      </trkpt>
      <trkpt lat="47.13305" lon="5.90556">
        <ele>409.2</ele>
        <time>2021-08-17T12:41:59Z</time>
      </trkpt>
      <trkpt lat="47.13301" lon="5.90554">
        <ele>409.2</ele>
        <time>2021-08-17T12:42:00Z</time>
      </trkpt>
      <trkpt lat="47.13296" lon="5.90551">
        <ele>409.2</ele>
        <time>2021-08-17T12:42:01Z</time>
      </trkpt>
      <trkpt lat="47.13266" lon="5.90534">
        <ele>408.8</ele>
        <time>2021-08-17T12:42:08Z</time>
      </trkpt>
      <trkpt lat="47.1325" lon="5.90522">
        <ele>408.6</ele>
        <time>2021-08-17T12:42:12Z</time>
      </trkpt>
      <trkpt lat="47.13228" lon="5.905">
        <ele>408.6</ele>
        <time>2021-08-17T12:42:18Z</time>
      </trkpt>
      <trkpt lat="47.13221" lon="5.90493">
        <ele>408.6</ele>
        <time>2021-08-17T12:42:20Z</time>
      </trkpt>
      <trkpt lat="47.13214" lon="5.90486">
        <ele>408.4</ele>
        <time>2021-08-17T12:42:22Z</time>
      </trkpt>
      <trkpt lat="47.1321" lon="5.90483">
        <ele>408.4</ele>
        <time>2021-08-17T12:42:23Z</time>
      </trkpt>
      <trkpt lat="47.13206" lon="5.90479">
        <ele>408.4</ele>
        <time>2021-08-17T12:42:24Z</time>
      </trkpt>
      <trkpt lat="47.13203" lon="5.90476">
        <ele>408.4</ele>
        <time>2021-08-17T12:42:25Z</time>
      </trkpt>
      <trkpt lat="47.13199" lon="5.90473">
        <ele>408.4</ele>
        <time>2021-08-17T12:42:26Z</time>
      </trkpt>
      <trkpt lat="47.13195" lon="5.9047">
        <ele>408.4</ele>
        <time>2021-08-17T12:42:27Z</time>
      </trkpt>
      <trkpt lat="47.1316" lon="5.90441">
        <ele>408.4</ele>
        <time>2021-08-17T12:42:35Z</time>
      </trkpt>
      <trkpt lat="47.13132" lon="5.90418">
        <ele>407.8</ele>
        <time>2021-08-17T12:42:41Z</time>
      </trkpt>
      <trkpt lat="47.13118" lon="5.90406">
        <ele>407.4</ele>
        <time>2021-08-17T12:42:44Z</time>
      </trkpt>
      <trkpt lat="47.13096" lon="5.90387">
        <ele>407.8</ele>
        <time>2021-08-17T12:42:49Z</time>
      </trkpt>
      <trkpt lat="47.13092" lon="5.90384">
        <ele>407.8</ele>
        <time>2021-08-17T12:42:50Z</time>
      </trkpt>
      <trkpt lat="47.13087" lon="5.90381">
        <ele>407.8</ele>
        <time>2021-08-17T12:42:51Z</time>
      </trkpt>
      <trkpt lat="47.13082" lon="5.90377">
        <ele>407.8</ele>
        <time>2021-08-17T12:42:52Z</time>
      </trkpt>
      <trkpt lat="47.13078" lon="5.90374">
        <ele>408</ele>
        <time>2021-08-17T12:42:53Z</time>
      </trkpt>
      <trkpt lat="47.13073" lon="5.90371">
        <ele>408</ele>
        <time>2021-08-17T12:42:54Z</time>
      </trkpt>
      <trkpt lat="47.13069" lon="5.90368">
        <ele>408</ele>
        <time>2021-08-17T12:42:55Z</time>
      </trkpt>
      <trkpt lat="47.13064" lon="5.90364">
        <ele>408</ele>
        <time>2021-08-17T12:42:56Z</time>
      </trkpt>
      <trkpt lat="47.13021" lon="5.9034">
        <ele>408</ele>
        <time>2021-08-17T12:43:05Z</time>
      </trkpt>
      <trkpt lat="47.13012" lon="5.90336">
        <ele>407.8</ele>
        <time>2021-08-17T12:43:07Z</time>
      </trkpt>
      <trkpt lat="47.13008" lon="5.90335">
        <ele>407.8</ele>
        <time>2021-08-17T12:43:08Z</time>
      </trkpt>
      <trkpt lat="47.13004" lon="5.90335">
        <ele>407.8</ele>
        <time>2021-08-17T12:43:09Z</time>
      </trkpt>
      <trkpt lat="47.13" lon="5.90334">
        <ele>407.8</ele>
        <time>2021-08-17T12:43:10Z</time>
      </trkpt>
      <trkpt lat="47.12996" lon="5.90334">
        <ele>407.8</ele>
        <time>2021-08-17T12:43:11Z</time>
      </trkpt>
      <trkpt lat="47.12993" lon="5.90334">
        <ele>408</ele>
        <time>2021-08-17T12:43:12Z</time>
      </trkpt>
      <trkpt lat="47.12989" lon="5.90334">
        <ele>408.2</ele>
        <time>2021-08-17T12:43:13Z</time>
      </trkpt>
      <trkpt lat="47.12986" lon="5.90335">
        <ele>408.4</ele>
        <time>2021-08-17T12:43:14Z</time>
      </trkpt>
      <trkpt lat="47.12983" lon="5.90335">
        <ele>408.8</ele>
        <time>2021-08-17T12:43:15Z</time>
      </trkpt>
      <trkpt lat="47.12979" lon="5.90336">
        <ele>408.8</ele>
        <time>2021-08-17T12:43:16Z</time>
      </trkpt>
      <trkpt lat="47.12976" lon="5.90336">
        <ele>409</ele>
        <time>2021-08-17T12:43:17Z</time>
      </trkpt>
      <trkpt lat="47.12973" lon="5.90336">
        <ele>409.2</ele>
        <time>2021-08-17T12:43:18Z</time>
      </trkpt>
      <trkpt lat="47.1297" lon="5.90336">
        <ele>409.2</ele>
        <time>2021-08-17T12:43:19Z</time>
      </trkpt>
      <trkpt lat="47.12967" lon="5.90337">
        <ele>409.4</ele>
        <time>2021-08-17T12:43:20Z</time>
      </trkpt>
      <trkpt lat="47.12965" lon="5.90337">
        <ele>409.6</ele>
        <time>2021-08-17T12:43:21Z</time>
      </trkpt>
      <trkpt lat="47.12956" lon="5.90337">
        <ele>410.4</ele>
        <time>2021-08-17T12:43:24Z</time>
      </trkpt>
      <trkpt lat="47.12954" lon="5.90337">
        <ele>410.4</ele>
        <time>2021-08-17T12:43:25Z</time>
      </trkpt>
      <trkpt lat="47.12952" lon="5.90336">
        <ele>410.6</ele>
        <time>2021-08-17T12:43:26Z</time>
      </trkpt>
      <trkpt lat="47.1295" lon="5.90335">
        <ele>410.8</ele>
        <time>2021-08-17T12:43:27Z</time>
      </trkpt>
      <trkpt lat="47.12948" lon="5.90335">
        <ele>411</ele>
        <time>2021-08-17T12:43:28Z</time>
      </trkpt>
      <trkpt lat="47.12946" lon="5.90334">
        <ele>411.2</ele>
        <time>2021-08-17T12:43:29Z</time>
      </trkpt>
      <trkpt lat="47.12943" lon="5.90333">
        <ele>411.4</ele>
        <time>2021-08-17T12:43:30Z</time>
      </trkpt>
      <trkpt lat="47.12941" lon="5.90332">
        <ele>411.6</ele>
        <time>2021-08-17T12:43:31Z</time>
      </trkpt>
      <trkpt lat="47.12939" lon="5.90332">
        <ele>411.8</ele>
        <time>2021-08-17T12:43:32Z</time>
      </trkpt>
      <trkpt lat="47.12935" lon="5.90331">
        <ele>412</ele>
        <time>2021-08-17T12:43:33Z</time>
      </trkpt>
      <trkpt lat="47.12933" lon="5.90331">
        <ele>412.2</ele>
        <time>2021-08-17T12:43:34Z</time>
      </trkpt>
      <trkpt lat="47.12931" lon="5.90332">
        <ele>412.2</ele>
        <time>2021-08-17T12:43:35Z</time>
      </trkpt>
      <trkpt lat="47.12931" lon="5.90334">
        <ele>412.4</ele>
        <time>2021-08-17T12:43:36Z</time>
      </trkpt>
      <trkpt lat="47.12931" lon="5.90336">
        <ele>412.6</ele>
        <time>2021-08-17T12:43:37Z</time>
      </trkpt>
      <trkpt lat="47.12932" lon="5.90338">
        <ele>412.6</ele>
        <time>2021-08-17T12:43:38Z</time>
      </trkpt>
      <trkpt lat="47.12934" lon="5.90338">
        <ele>412.8</ele>
        <time>2021-08-17T12:43:39Z</time>
      </trkpt>
      <trkpt lat="47.12936" lon="5.90339">
        <ele>412.8</ele>
        <time>2021-08-17T12:43:40Z</time>
      </trkpt>
      <trkpt lat="47.12938" lon="5.90339">
        <ele>412.8</ele>
        <time>2021-08-17T12:43:41Z</time>
      </trkpt>
      <trkpt lat="47.1294" lon="5.9034">
        <ele>412.8</ele>
        <time>2021-08-17T12:43:42Z</time>
      </trkpt>
      <trkpt lat="47.12942" lon="5.90341">
        <ele>413</ele>
        <time>2021-08-17T12:43:43Z</time>
      </trkpt>
      <trkpt lat="47.12945" lon="5.90342">
        <ele>413</ele>
        <time>2021-08-17T12:43:44Z</time>
      </trkpt>
      <trkpt lat="47.12947" lon="5.90343">
        <ele>413</ele>
        <time>2021-08-17T12:43:45Z</time>
      </trkpt>
      <trkpt lat="47.12949" lon="5.90344">
        <ele>413</ele>
        <time>2021-08-17T12:43:46Z</time>
      </trkpt>
      <trkpt lat="47.12951" lon="5.90345">
        <ele>413</ele>
        <time>2021-08-17T12:43:47Z</time>
      </trkpt>
      <trkpt lat="47.12953" lon="5.90345">
        <ele>413</ele>
        <time>2021-08-17T12:43:48Z</time>
      </trkpt>
      <trkpt lat="47.12954" lon="5.90346">
        <ele>413</ele>
        <time>2021-08-17T12:43:49Z</time>
      </trkpt>
      <trkpt lat="47.12956" lon="5.90347">
        <ele>413</ele>
        <time>2021-08-17T12:43:50Z</time>
      </trkpt>
      <trkpt lat="47.12958" lon="5.90348">
        <ele>413.2</ele>
        <time>2021-08-17T12:43:51Z</time>
      </trkpt>
      <trkpt lat="47.1296" lon="5.90349">
        <ele>413.2</ele>
        <time>2021-08-17T12:43:52Z</time>
      </trkpt>
      <trkpt lat="47.12962" lon="5.9035">
        <ele>413.2</ele>
        <time>2021-08-17T12:43:53Z</time>
      </trkpt>
      <trkpt lat="47.12964" lon="5.9035">
        <ele>413.2</ele>
        <time>2021-08-17T12:43:54Z</time>
      </trkpt>
      <trkpt lat="47.12966" lon="5.90351">
        <ele>413.2</ele>
        <time>2021-08-17T12:43:55Z</time>
      </trkpt>
      <trkpt lat="47.12969" lon="5.90351">
        <ele>413.2</ele>
        <time>2021-08-17T12:43:56Z</time>
      </trkpt>
      <trkpt lat="47.12975" lon="5.90352">
        <ele>413.2</ele>
        <time>2021-08-17T12:43:58Z</time>
      </trkpt>
      <trkpt lat="47.12982" lon="5.90356">
        <ele>413.4</ele>
        <time>2021-08-17T12:44:01Z</time>
      </trkpt>
      <trkpt lat="47.13004" lon="5.90366">
        <ele>413.8</ele>
        <time>2021-08-17T12:44:07Z</time>
      </trkpt>
      <trkpt lat="47.13027" lon="5.90377">
        <ele>414</ele>
        <time>2021-08-17T12:44:14Z</time>
      </trkpt>
      <trkpt lat="47.13053" lon="5.90398">
        <ele>414.2</ele>
        <time>2021-08-17T12:44:21Z</time>
      </trkpt>
      <trkpt lat="47.13055" lon="5.904">
        <ele>414.2</ele>
        <time>2021-08-17T12:44:22Z</time>
      </trkpt>
      <trkpt lat="47.13069" lon="5.90414">
        <ele>414.4</ele>
        <time>2021-08-17T12:44:28Z</time>
      </trkpt>
      <trkpt lat="47.13072" lon="5.90417">
        <ele>414.4</ele>
        <time>2021-08-17T12:44:29Z</time>
      </trkpt>
      <trkpt lat="47.13074" lon="5.9042">
        <ele>414.6</ele>
        <time>2021-08-17T12:44:30Z</time>
      </trkpt>
      <trkpt lat="47.13076" lon="5.90423">
        <ele>414.6</ele>
        <time>2021-08-17T12:44:31Z</time>
      </trkpt>
      <trkpt lat="47.13078" lon="5.90425">
        <ele>414.8</ele>
        <time>2021-08-17T12:44:32Z</time>
      </trkpt>
      <trkpt lat="47.1308" lon="5.90428">
        <ele>415</ele>
        <time>2021-08-17T12:44:33Z</time>
      </trkpt>
      <trkpt lat="47.13082" lon="5.9043">
        <ele>415</ele>
        <time>2021-08-17T12:44:34Z</time>
      </trkpt>
      <trkpt lat="47.13084" lon="5.90433">
        <ele>415.2</ele>
        <time>2021-08-17T12:44:35Z</time>
      </trkpt>
      <trkpt lat="47.13086" lon="5.90435">
        <ele>415.2</ele>
        <time>2021-08-17T12:44:36Z</time>
      </trkpt>
      <trkpt lat="47.13088" lon="5.90438">
        <ele>415.4</ele>
        <time>2021-08-17T12:44:37Z</time>
      </trkpt>
      <trkpt lat="47.131" lon="5.90458">
        <ele>415.8</ele>
        <time>2021-08-17T12:44:43Z</time>
      </trkpt>
      <trkpt lat="47.13102" lon="5.90461">
        <ele>416</ele>
        <time>2021-08-17T12:44:44Z</time>
      </trkpt>
      <trkpt lat="47.13104" lon="5.90464">
        <ele>416</ele>
        <time>2021-08-17T12:44:45Z</time>
      </trkpt>
      <trkpt lat="47.13107" lon="5.90469">
        <ele>416.4</ele>
        <time>2021-08-17T12:44:47Z</time>
      </trkpt>
      <trkpt lat="47.13109" lon="5.90472">
        <ele>416.6</ele>
        <time>2021-08-17T12:44:48Z</time>
      </trkpt>
      <trkpt lat="47.1311" lon="5.90474">
        <ele>416.6</ele>
        <time>2021-08-17T12:44:49Z</time>
      </trkpt>
      <trkpt lat="47.13114" lon="5.9048">
        <ele>417</ele>
        <time>2021-08-17T12:44:51Z</time>
      </trkpt>
      <trkpt lat="47.13127" lon="5.905">
        <ele>417.6</ele>
        <time>2021-08-17T12:44:57Z</time>
      </trkpt>
      <trkpt lat="47.1313" lon="5.90503">
        <ele>417.8</ele>
        <time>2021-08-17T12:44:58Z</time>
      </trkpt>
      <trkpt lat="47.13132" lon="5.90506">
        <ele>418.2</ele>
        <time>2021-08-17T12:44:59Z</time>
      </trkpt>
      <trkpt lat="47.13135" lon="5.90509">
        <ele>418.2</ele>
        <time>2021-08-17T12:45:00Z</time>
      </trkpt>
      <trkpt lat="47.13138" lon="5.90512">
        <ele>418.4</ele>
        <time>2021-08-17T12:45:01Z</time>
      </trkpt>
      <trkpt lat="47.13141" lon="5.90515">
        <ele>418.6</ele>
        <time>2021-08-17T12:45:02Z</time>
      </trkpt>
      <trkpt lat="47.13143" lon="5.90518">
        <ele>418.8</ele>
        <time>2021-08-17T12:45:03Z</time>
      </trkpt>
      <trkpt lat="47.13145" lon="5.9052">
        <ele>419.2</ele>
        <time>2021-08-17T12:45:04Z</time>
      </trkpt>
      <trkpt lat="47.13147" lon="5.90523">
        <ele>419.2</ele>
        <time>2021-08-17T12:45:05Z</time>
      </trkpt>
      <trkpt lat="47.13151" lon="5.90527">
        <ele>419.4</ele>
        <time>2021-08-17T12:45:06Z</time>
      </trkpt>
      <trkpt lat="47.13153" lon="5.9053">
        <ele>419.4</ele>
        <time>2021-08-17T12:45:07Z</time>
      </trkpt>
      <trkpt lat="47.13155" lon="5.90533">
        <ele>419.6</ele>
        <time>2021-08-17T12:45:08Z</time>
      </trkpt>
      <trkpt lat="47.13158" lon="5.90536">
        <ele>419.8</ele>
        <time>2021-08-17T12:45:09Z</time>
      </trkpt>
      <trkpt lat="47.13159" lon="5.90537">
        <ele>419.8</ele>
        <time>2021-08-17T12:45:10Z</time>
      </trkpt>
      <trkpt lat="47.13162" lon="5.90538">
        <ele>420</ele>
        <time>2021-08-17T12:45:11Z</time>
      </trkpt>
      <trkpt lat="47.13164" lon="5.90542">
        <ele>420</ele>
        <time>2021-08-17T12:45:12Z</time>
      </trkpt>
      <trkpt lat="47.13167" lon="5.90544">
        <ele>420.2</ele>
        <time>2021-08-17T12:45:13Z</time>
      </trkpt>
      <trkpt lat="47.13169" lon="5.90546">
        <ele>420.4</ele>
        <time>2021-08-17T12:45:14Z</time>
      </trkpt>
      <trkpt lat="47.13172" lon="5.90548">
        <ele>420.4</ele>
        <time>2021-08-17T12:45:15Z</time>
      </trkpt>
      <trkpt lat="47.13174" lon="5.9055">
        <ele>420.4</ele>
        <time>2021-08-17T12:45:16Z</time>
      </trkpt>
      <trkpt lat="47.13177" lon="5.90553">
        <ele>420.6</ele>
        <time>2021-08-17T12:45:17Z</time>
      </trkpt>
      <trkpt lat="47.1318" lon="5.90556">
        <ele>420.6</ele>
        <time>2021-08-17T12:45:18Z</time>
      </trkpt>
      <trkpt lat="47.13182" lon="5.90558">
        <ele>420.8</ele>
        <time>2021-08-17T12:45:19Z</time>
      </trkpt>
      <trkpt lat="47.13185" lon="5.9056">
        <ele>421</ele>
        <time>2021-08-17T12:45:20Z</time>
      </trkpt>
      <trkpt lat="47.13188" lon="5.90562">
        <ele>421</ele>
        <time>2021-08-17T12:45:21Z</time>
      </trkpt>
      <trkpt lat="47.13191" lon="5.90564">
        <ele>421</ele>
        <time>2021-08-17T12:45:22Z</time>
      </trkpt>
      <trkpt lat="47.13193" lon="5.90565">
        <ele>421.2</ele>
        <time>2021-08-17T12:45:23Z</time>
      </trkpt>
      <trkpt lat="47.13195" lon="5.90567">
        <ele>421.2</ele>
        <time>2021-08-17T12:45:24Z</time>
      </trkpt>
      <trkpt lat="47.13198" lon="5.90569">
        <ele>421.4</ele>
        <time>2021-08-17T12:45:25Z</time>
      </trkpt>
      <trkpt lat="47.132" lon="5.9057">
        <ele>421.4</ele>
        <time>2021-08-17T12:45:26Z</time>
      </trkpt>
      <trkpt lat="47.13202" lon="5.90572">
        <ele>421.6</ele>
        <time>2021-08-17T12:45:27Z</time>
      </trkpt>
      <trkpt lat="47.13205" lon="5.90574">
        <ele>421.8</ele>
        <time>2021-08-17T12:45:28Z</time>
      </trkpt>
      <trkpt lat="47.13207" lon="5.90576">
        <ele>422</ele>
        <time>2021-08-17T12:45:29Z</time>
      </trkpt>
      <trkpt lat="47.13209" lon="5.90577">
        <ele>422</ele>
        <time>2021-08-17T12:45:30Z</time>
      </trkpt>
      <trkpt lat="47.13212" lon="5.90579">
        <ele>422.2</ele>
        <time>2021-08-17T12:45:31Z</time>
      </trkpt>
      <trkpt lat="47.13214" lon="5.90581">
        <ele>422.2</ele>
        <time>2021-08-17T12:45:32Z</time>
      </trkpt>
      <trkpt lat="47.13217" lon="5.90582">
        <ele>422.6</ele>
        <time>2021-08-17T12:45:33Z</time>
      </trkpt>
      <trkpt lat="47.13219" lon="5.90584">
        <ele>422.8</ele>
        <time>2021-08-17T12:45:34Z</time>
      </trkpt>
      <trkpt lat="47.13222" lon="5.90586">
        <ele>423</ele>
        <time>2021-08-17T12:45:35Z</time>
      </trkpt>
      <trkpt lat="47.13224" lon="5.90587">
        <ele>423.2</ele>
        <time>2021-08-17T12:45:36Z</time>
      </trkpt>
      <trkpt lat="47.13226" lon="5.90589">
        <ele>423.4</ele>
        <time>2021-08-17T12:45:37Z</time>
      </trkpt>
      <trkpt lat="47.13229" lon="5.9059">
        <ele>423.6</ele>
        <time>2021-08-17T12:45:38Z</time>
      </trkpt>
      <trkpt lat="47.13231" lon="5.90592">
        <ele>423.8</ele>
        <time>2021-08-17T12:45:39Z</time>
      </trkpt>
      <trkpt lat="47.13234" lon="5.90594">
        <ele>424</ele>
        <time>2021-08-17T12:45:40Z</time>
      </trkpt>
      <trkpt lat="47.13236" lon="5.90596">
        <ele>424</ele>
        <time>2021-08-17T12:45:41Z</time>
      </trkpt>
      <trkpt lat="47.13239" lon="5.90598">
        <ele>424.2</ele>
        <time>2021-08-17T12:45:42Z</time>
      </trkpt>
      <trkpt lat="47.13241" lon="5.906">
        <ele>424.4</ele>
        <time>2021-08-17T12:45:43Z</time>
      </trkpt>
      <trkpt lat="47.13243" lon="5.90602">
        <ele>424.4</ele>
        <time>2021-08-17T12:45:44Z</time>
      </trkpt>
      <trkpt lat="47.13245" lon="5.90604">
        <ele>424.6</ele>
        <time>2021-08-17T12:45:45Z</time>
      </trkpt>
      <trkpt lat="47.13247" lon="5.90606">
        <ele>424.8</ele>
        <time>2021-08-17T12:45:46Z</time>
      </trkpt>
      <trkpt lat="47.13249" lon="5.90607">
        <ele>425</ele>
        <time>2021-08-17T12:45:47Z</time>
      </trkpt>
      <trkpt lat="47.13251" lon="5.90609">
        <ele>425</ele>
        <time>2021-08-17T12:45:48Z</time>
      </trkpt>
      <trkpt lat="47.13253" lon="5.90611">
        <ele>425.2</ele>
        <time>2021-08-17T12:45:49Z</time>
      </trkpt>
      <trkpt lat="47.13255" lon="5.90613">
        <ele>425.4</ele>
        <time>2021-08-17T12:45:50Z</time>
      </trkpt>
      <trkpt lat="47.13257" lon="5.90615">
        <ele>425.6</ele>
        <time>2021-08-17T12:45:51Z</time>
      </trkpt>
      <trkpt lat="47.1326" lon="5.90617">
        <ele>425.8</ele>
        <time>2021-08-17T12:45:52Z</time>
      </trkpt>
      <trkpt lat="47.13262" lon="5.9062">
        <ele>426</ele>
        <time>2021-08-17T12:45:53Z</time>
      </trkpt>
      <trkpt lat="47.13264" lon="5.90621">
        <ele>426.4</ele>
        <time>2021-08-17T12:45:54Z</time>
      </trkpt>
      <trkpt lat="47.13266" lon="5.90623">
        <ele>426.4</ele>
        <time>2021-08-17T12:45:55Z</time>
      </trkpt>
      <trkpt lat="47.13268" lon="5.90624">
        <ele>426.6</ele>
        <time>2021-08-17T12:45:56Z</time>
      </trkpt>
      <trkpt lat="47.1327" lon="5.90626">
        <ele>426.6</ele>
        <time>2021-08-17T12:45:57Z</time>
      </trkpt>
      <trkpt lat="47.13272" lon="5.90628">
        <ele>426.8</ele>
        <time>2021-08-17T12:45:58Z</time>
      </trkpt>
      <trkpt lat="47.13274" lon="5.9063">
        <ele>427</ele>
        <time>2021-08-17T12:45:59Z</time>
      </trkpt>
      <trkpt lat="47.13276" lon="5.90631">
        <ele>427</ele>
        <time>2021-08-17T12:46:00Z</time>
      </trkpt>
      <trkpt lat="47.13277" lon="5.90633">
        <ele>427.4</ele>
        <time>2021-08-17T12:46:01Z</time>
      </trkpt>
      <trkpt lat="47.13279" lon="5.90634">
        <ele>427.6</ele>
        <time>2021-08-17T12:46:02Z</time>
      </trkpt>
      <trkpt lat="47.13281" lon="5.90636">
        <ele>427.8</ele>
        <time>2021-08-17T12:46:03Z</time>
      </trkpt>
      <trkpt lat="47.13283" lon="5.90637">
        <ele>427.8</ele>
        <time>2021-08-17T12:46:04Z</time>
      </trkpt>
      <trkpt lat="47.13285" lon="5.90639">
        <ele>428</ele>
        <time>2021-08-17T12:46:05Z</time>
      </trkpt>
      <trkpt lat="47.13287" lon="5.90641">
        <ele>428</ele>
        <time>2021-08-17T12:46:06Z</time>
      </trkpt>
      <trkpt lat="47.13289" lon="5.90642">
        <ele>428.2</ele>
        <time>2021-08-17T12:46:07Z</time>
      </trkpt>
      <trkpt lat="47.13291" lon="5.90644">
        <ele>428.6</ele>
        <time>2021-08-17T12:46:08Z</time>
      </trkpt>
      <trkpt lat="47.13292" lon="5.90646">
        <ele>428.6</ele>
        <time>2021-08-17T12:46:09Z</time>
      </trkpt>
      <trkpt lat="47.13294" lon="5.90647">
        <ele>428.8</ele>
        <time>2021-08-17T12:46:10Z</time>
      </trkpt>
      <trkpt lat="47.13296" lon="5.90649">
        <ele>429</ele>
        <time>2021-08-17T12:46:11Z</time>
      </trkpt>
      <trkpt lat="47.13298" lon="5.9065">
        <ele>429.2</ele>
        <time>2021-08-17T12:46:12Z</time>
      </trkpt>
      <trkpt lat="47.13299" lon="5.90651">
        <ele>429.2</ele>
        <time>2021-08-17T12:46:13Z</time>
      </trkpt>
      <trkpt lat="47.13301" lon="5.90653">
        <ele>429.4</ele>
        <time>2021-08-17T12:46:14Z</time>
      </trkpt>
      <trkpt lat="47.13303" lon="5.90655">
        <ele>429.6</ele>
        <time>2021-08-17T12:46:15Z</time>
      </trkpt>
      <trkpt lat="47.13305" lon="5.90655">
        <ele>429.6</ele>
        <time>2021-08-17T12:46:16Z</time>
      </trkpt>
      <trkpt lat="47.13306" lon="5.90655">
        <ele>429.8</ele>
        <time>2021-08-17T12:46:17Z</time>
      </trkpt>
      <trkpt lat="47.13308" lon="5.90657">
        <ele>429.8</ele>
        <time>2021-08-17T12:46:18Z</time>
      </trkpt>
      <trkpt lat="47.1331" lon="5.90658">
        <ele>430.2</ele>
        <time>2021-08-17T12:46:19Z</time>
      </trkpt>
      <trkpt lat="47.13312" lon="5.9066">
        <ele>430.2</ele>
        <time>2021-08-17T12:46:20Z</time>
      </trkpt>
      <trkpt lat="47.13313" lon="5.90661">
        <ele>430.6</ele>
        <time>2021-08-17T12:46:21Z</time>
      </trkpt>
      <trkpt lat="47.13315" lon="5.90662">
        <ele>430.6</ele>
        <time>2021-08-17T12:46:22Z</time>
      </trkpt>
      <trkpt lat="47.13316" lon="5.90663">
        <ele>430.8</ele>
        <time>2021-08-17T12:46:23Z</time>
      </trkpt>
      <trkpt lat="47.13318" lon="5.90663">
        <ele>431</ele>
        <time>2021-08-17T12:46:24Z</time>
      </trkpt>
      <trkpt lat="47.13319" lon="5.90664">
        <ele>431</ele>
        <time>2021-08-17T12:46:25Z</time>
      </trkpt>
      <trkpt lat="47.1332" lon="5.90666">
        <ele>431.4</ele>
        <time>2021-08-17T12:46:26Z</time>
      </trkpt>
      <trkpt lat="47.13322" lon="5.90667">
        <ele>431.6</ele>
        <time>2021-08-17T12:46:27Z</time>
      </trkpt>
      <trkpt lat="47.13323" lon="5.90668">
        <ele>431.8</ele>
        <time>2021-08-17T12:46:28Z</time>
      </trkpt>
      <trkpt lat="47.13324" lon="5.90669">
        <ele>431.8</ele>
        <time>2021-08-17T12:46:29Z</time>
      </trkpt>
      <trkpt lat="47.13326" lon="5.9067">
        <ele>432</ele>
        <time>2021-08-17T12:46:30Z</time>
      </trkpt>
      <trkpt lat="47.13327" lon="5.90672">
        <ele>432</ele>
        <time>2021-08-17T12:46:31Z</time>
      </trkpt>
      <trkpt lat="47.13328" lon="5.90674">
        <ele>432.4</ele>
        <time>2021-08-17T12:46:32Z</time>
      </trkpt>
      <trkpt lat="47.1333" lon="5.90677">
        <ele>432.6</ele>
        <time>2021-08-17T12:46:33Z</time>
      </trkpt>
      <trkpt lat="47.13331" lon="5.90679">
        <ele>432.6</ele>
        <time>2021-08-17T12:46:34Z</time>
      </trkpt>
      <trkpt lat="47.13332" lon="5.90682">
        <ele>432.8</ele>
        <time>2021-08-17T12:46:35Z</time>
      </trkpt>
      <trkpt lat="47.13333" lon="5.90683">
        <ele>433</ele>
        <time>2021-08-17T12:46:36Z</time>
      </trkpt>
      <trkpt lat="47.13335" lon="5.90684">
        <ele>433.2</ele>
        <time>2021-08-17T12:46:37Z</time>
      </trkpt>
      <trkpt lat="47.13337" lon="5.90685">
        <ele>433.2</ele>
        <time>2021-08-17T12:46:38Z</time>
      </trkpt>
      <trkpt lat="47.13338" lon="5.90686">
        <ele>433.4</ele>
        <time>2021-08-17T12:46:39Z</time>
      </trkpt>
      <trkpt lat="47.1334" lon="5.90688">
        <ele>433.4</ele>
        <time>2021-08-17T12:46:40Z</time>
      </trkpt>
      <trkpt lat="47.13342" lon="5.90689">
        <ele>433.6</ele>
        <time>2021-08-17T12:46:41Z</time>
      </trkpt>
      <trkpt lat="47.13344" lon="5.90691">
        <ele>433.6</ele>
        <time>2021-08-17T12:46:42Z</time>
      </trkpt>
      <trkpt lat="47.13346" lon="5.90692">
        <ele>433.8</ele>
        <time>2021-08-17T12:46:43Z</time>
      </trkpt>
      <trkpt lat="47.13348" lon="5.90694">
        <ele>433.8</ele>
        <time>2021-08-17T12:46:44Z</time>
      </trkpt>
      <trkpt lat="47.1335" lon="5.90695">
        <ele>434</ele>
        <time>2021-08-17T12:46:45Z</time>
      </trkpt>
      <trkpt lat="47.13351" lon="5.90697">
        <ele>434</ele>
        <time>2021-08-17T12:46:46Z</time>
      </trkpt>
      <trkpt lat="47.13353" lon="5.90698">
        <ele>434.2</ele>
        <time>2021-08-17T12:46:47Z</time>
      </trkpt>
      <trkpt lat="47.13354" lon="5.907">
        <ele>434.6</ele>
        <time>2021-08-17T12:46:48Z</time>
      </trkpt>
      <trkpt lat="47.13356" lon="5.90701">
        <ele>434.8</ele>
        <time>2021-08-17T12:46:49Z</time>
      </trkpt>
      <trkpt lat="47.13357" lon="5.90702">
        <ele>434.8</ele>
        <time>2021-08-17T12:46:50Z</time>
      </trkpt>
      <trkpt lat="47.13359" lon="5.90703">
        <ele>435</ele>
        <time>2021-08-17T12:46:51Z</time>
      </trkpt>
      <trkpt lat="47.13361" lon="5.90705">
        <ele>435</ele>
        <time>2021-08-17T12:46:52Z</time>
      </trkpt>
      <trkpt lat="47.13363" lon="5.90707">
        <ele>435</ele>
        <time>2021-08-17T12:46:53Z</time>
      </trkpt>
      <trkpt lat="47.13365" lon="5.90709">
        <ele>435.2</ele>
        <time>2021-08-17T12:46:54Z</time>
      </trkpt>
      <trkpt lat="47.13367" lon="5.90711">
        <ele>435.2</ele>
        <time>2021-08-17T12:46:55Z</time>
      </trkpt>
      <trkpt lat="47.13369" lon="5.90713">
        <ele>435.4</ele>
        <time>2021-08-17T12:46:56Z</time>
      </trkpt>
      <trkpt lat="47.1337" lon="5.90716">
        <ele>435.4</ele>
        <time>2021-08-17T12:46:57Z</time>
      </trkpt>
      <trkpt lat="47.13372" lon="5.90718">
        <ele>435.6</ele>
        <time>2021-08-17T12:46:58Z</time>
      </trkpt>
      <trkpt lat="47.13374" lon="5.9072">
        <ele>435.6</ele>
        <time>2021-08-17T12:46:59Z</time>
      </trkpt>
      <trkpt lat="47.13376" lon="5.90722">
        <ele>436</ele>
        <time>2021-08-17T12:47:00Z</time>
      </trkpt>
      <trkpt lat="47.13377" lon="5.90724">
        <ele>436.2</ele>
        <time>2021-08-17T12:47:01Z</time>
      </trkpt>
      <trkpt lat="47.13379" lon="5.90726">
        <ele>436.4</ele>
        <time>2021-08-17T12:47:02Z</time>
      </trkpt>
      <trkpt lat="47.1338" lon="5.90728">
        <ele>436.6</ele>
        <time>2021-08-17T12:47:03Z</time>
      </trkpt>
      <trkpt lat="47.13382" lon="5.9073">
        <ele>436.8</ele>
        <time>2021-08-17T12:47:04Z</time>
      </trkpt>
      <trkpt lat="47.13384" lon="5.90732">
        <ele>436.8</ele>
        <time>2021-08-17T12:47:05Z</time>
      </trkpt>
      <trkpt lat="47.13387" lon="5.90734">
        <ele>437</ele>
        <time>2021-08-17T12:47:06Z</time>
      </trkpt>
      <trkpt lat="47.13389" lon="5.90737">
        <ele>437.2</ele>
        <time>2021-08-17T12:47:07Z</time>
      </trkpt>
      <trkpt lat="47.13391" lon="5.90739">
        <ele>437.2</ele>
        <time>2021-08-17T12:47:08Z</time>
      </trkpt>
      <trkpt lat="47.13393" lon="5.90741">
        <ele>437.6</ele>
        <time>2021-08-17T12:47:09Z</time>
      </trkpt>
      <trkpt lat="47.13395" lon="5.90744">
        <ele>437.6</ele>
        <time>2021-08-17T12:47:10Z</time>
      </trkpt>
      <trkpt lat="47.13396" lon="5.90746">
        <ele>437.8</ele>
        <time>2021-08-17T12:47:11Z</time>
      </trkpt>
      <trkpt lat="47.13398" lon="5.90748">
        <ele>438</ele>
        <time>2021-08-17T12:47:12Z</time>
      </trkpt>
      <trkpt lat="47.134" lon="5.9075">
        <ele>438.2</ele>
        <time>2021-08-17T12:47:13Z</time>
      </trkpt>
      <trkpt lat="47.13401" lon="5.90753">
        <ele>438.4</ele>
        <time>2021-08-17T12:47:14Z</time>
      </trkpt>
      <trkpt lat="47.13403" lon="5.90755">
        <ele>438.6</ele>
        <time>2021-08-17T12:47:15Z</time>
      </trkpt>
      <trkpt lat="47.13404" lon="5.90757">
        <ele>438.6</ele>
        <time>2021-08-17T12:47:16Z</time>
      </trkpt>
      <trkpt lat="47.13406" lon="5.90759">
        <ele>438.8</ele>
        <time>2021-08-17T12:47:17Z</time>
      </trkpt>
      <trkpt lat="47.13408" lon="5.90762">
        <ele>439</ele>
        <time>2021-08-17T12:47:18Z</time>
      </trkpt>
      <trkpt lat="47.13409" lon="5.90764">
        <ele>439</ele>
        <time>2021-08-17T12:47:19Z</time>
      </trkpt>
      <trkpt lat="47.13411" lon="5.90767">
        <ele>439.2</ele>
        <time>2021-08-17T12:47:20Z</time>
      </trkpt>
      <trkpt lat="47.13413" lon="5.90769">
        <ele>439.2</ele>
        <time>2021-08-17T12:47:21Z</time>
      </trkpt>
      <trkpt lat="47.13415" lon="5.90772">
        <ele>439.2</ele>
        <time>2021-08-17T12:47:22Z</time>
      </trkpt>
      <trkpt lat="47.13417" lon="5.90775">
        <ele>439.4</ele>
        <time>2021-08-17T12:47:23Z</time>
      </trkpt>
      <trkpt lat="47.13419" lon="5.90777">
        <ele>439.4</ele>
        <time>2021-08-17T12:47:24Z</time>
      </trkpt>
      <trkpt lat="47.13421" lon="5.90781">
        <ele>439.6</ele>
        <time>2021-08-17T12:47:25Z</time>
      </trkpt>
      <trkpt lat="47.13423" lon="5.90784">
        <ele>439.6</ele>
        <time>2021-08-17T12:47:26Z</time>
      </trkpt>
      <trkpt lat="47.13426" lon="5.90787">
        <ele>439.8</ele>
        <time>2021-08-17T12:47:27Z</time>
      </trkpt>
      <trkpt lat="47.13428" lon="5.9079">
        <ele>439.8</ele>
        <time>2021-08-17T12:47:28Z</time>
      </trkpt>
      <trkpt lat="47.1343" lon="5.90792">
        <ele>440.4</ele>
        <time>2021-08-17T12:47:29Z</time>
      </trkpt>
      <trkpt lat="47.13432" lon="5.90795">
        <ele>440.6</ele>
        <time>2021-08-17T12:47:30Z</time>
      </trkpt>
      <trkpt lat="47.13434" lon="5.90798">
        <ele>441</ele>
        <time>2021-08-17T12:47:31Z</time>
      </trkpt>
      <trkpt lat="47.13436" lon="5.90801">
        <ele>441</ele>
        <time>2021-08-17T12:47:32Z</time>
      </trkpt>
      <trkpt lat="47.13439" lon="5.90804">
        <ele>441.2</ele>
        <time>2021-08-17T12:47:33Z</time>
      </trkpt>
      <trkpt lat="47.13441" lon="5.90807">
        <ele>441.4</ele>
        <time>2021-08-17T12:47:34Z</time>
      </trkpt>
      <trkpt lat="47.13443" lon="5.9081">
        <ele>441.6</ele>
        <time>2021-08-17T12:47:35Z</time>
      </trkpt>
      <trkpt lat="47.13446" lon="5.90813">
        <ele>441.8</ele>
        <time>2021-08-17T12:47:36Z</time>
      </trkpt>
      <trkpt lat="47.13448" lon="5.90815">
        <ele>442</ele>
        <time>2021-08-17T12:47:37Z</time>
      </trkpt>
      <trkpt lat="47.13451" lon="5.90818">
        <ele>442</ele>
        <time>2021-08-17T12:47:38Z</time>
      </trkpt>
      <trkpt lat="47.13453" lon="5.90821">
        <ele>442.2</ele>
        <time>2021-08-17T12:47:39Z</time>
      </trkpt>
      <trkpt lat="47.13455" lon="5.90824">
        <ele>442.2</ele>
        <time>2021-08-17T12:47:40Z</time>
      </trkpt>
      <trkpt lat="47.13458" lon="5.90827">
        <ele>442.6</ele>
        <time>2021-08-17T12:47:41Z</time>
      </trkpt>
      <trkpt lat="47.13461" lon="5.9083">
        <ele>442.6</ele>
        <time>2021-08-17T12:47:42Z</time>
      </trkpt>
      <trkpt lat="47.13463" lon="5.90832">
        <ele>442.8</ele>
        <time>2021-08-17T12:47:43Z</time>
      </trkpt>
      <trkpt lat="47.13466" lon="5.90835">
        <ele>442.8</ele>
        <time>2021-08-17T12:47:44Z</time>
      </trkpt>
      <trkpt lat="47.13468" lon="5.90837">
        <ele>442.8</ele>
        <time>2021-08-17T12:47:45Z</time>
      </trkpt>
      <trkpt lat="47.13471" lon="5.9084">
        <ele>443</ele>
        <time>2021-08-17T12:47:46Z</time>
      </trkpt>
      <trkpt lat="47.13474" lon="5.90843">
        <ele>443.2</ele>
        <time>2021-08-17T12:47:47Z</time>
      </trkpt>
      <trkpt lat="47.13476" lon="5.90846">
        <ele>443.2</ele>
        <time>2021-08-17T12:47:48Z</time>
      </trkpt>
      <trkpt lat="47.13479" lon="5.90848">
        <ele>443.2</ele>
        <time>2021-08-17T12:47:49Z</time>
      </trkpt>
      <trkpt lat="47.13481" lon="5.90851">
        <ele>443.4</ele>
        <time>2021-08-17T12:47:50Z</time>
      </trkpt>
      <trkpt lat="47.13483" lon="5.90853">
        <ele>443.4</ele>
        <time>2021-08-17T12:47:51Z</time>
      </trkpt>
      <trkpt lat="47.13486" lon="5.90856">
        <ele>443.6</ele>
        <time>2021-08-17T12:47:52Z</time>
      </trkpt>
      <trkpt lat="47.13489" lon="5.9086">
        <ele>443.8</ele>
        <time>2021-08-17T12:47:53Z</time>
      </trkpt>
      <trkpt lat="47.13491" lon="5.90863">
        <ele>443.8</ele>
        <time>2021-08-17T12:47:54Z</time>
      </trkpt>
      <trkpt lat="47.13494" lon="5.90867">
        <ele>443.8</ele>
        <time>2021-08-17T12:47:55Z</time>
      </trkpt>
      <trkpt lat="47.13497" lon="5.9087">
        <ele>443.8</ele>
        <time>2021-08-17T12:47:56Z</time>
      </trkpt>
      <trkpt lat="47.135" lon="5.90873">
        <ele>443.8</ele>
        <time>2021-08-17T12:47:57Z</time>
      </trkpt>
      <trkpt lat="47.13502" lon="5.90876">
        <ele>443.8</ele>
        <time>2021-08-17T12:47:58Z</time>
      </trkpt>
      <trkpt lat="47.13505" lon="5.9088">
        <ele>443.8</ele>
        <time>2021-08-17T12:47:59Z</time>
      </trkpt>
      <trkpt lat="47.13507" lon="5.90883">
        <ele>444</ele>
        <time>2021-08-17T12:48:00Z</time>
      </trkpt>
      <trkpt lat="47.1351" lon="5.90887">
        <ele>444</ele>
        <time>2021-08-17T12:48:01Z</time>
      </trkpt>
      <trkpt lat="47.13513" lon="5.9089">
        <ele>444</ele>
        <time>2021-08-17T12:48:02Z</time>
      </trkpt>
      <trkpt lat="47.13515" lon="5.90893">
        <ele>444</ele>
        <time>2021-08-17T12:48:03Z</time>
      </trkpt>
      <trkpt lat="47.13518" lon="5.90897">
        <ele>444</ele>
        <time>2021-08-17T12:48:04Z</time>
      </trkpt>
      <trkpt lat="47.13552" lon="5.90937">
        <ele>444.6</ele>
        <time>2021-08-17T12:48:16Z</time>
      </trkpt>
      <trkpt lat="47.13573" lon="5.90962">
        <ele>445.2</ele>
        <time>2021-08-17T12:48:23Z</time>
      </trkpt>
      <trkpt lat="47.13579" lon="5.90969">
        <ele>445.4</ele>
        <time>2021-08-17T12:48:25Z</time>
      </trkpt>
      <trkpt lat="47.13601" lon="5.90992">
        <ele>446</ele>
        <time>2021-08-17T12:48:32Z</time>
      </trkpt>
      <trkpt lat="47.13604" lon="5.90995">
        <ele>446</ele>
        <time>2021-08-17T12:48:33Z</time>
      </trkpt>
      <trkpt lat="47.13615" lon="5.91008">
        <ele>446.4</ele>
        <time>2021-08-17T12:48:37Z</time>
      </trkpt>
      <trkpt lat="47.13621" lon="5.91014">
        <ele>446.6</ele>
        <time>2021-08-17T12:48:39Z</time>
      </trkpt>
      <trkpt lat="47.13623" lon="5.91017">
        <ele>446.8</ele>
        <time>2021-08-17T12:48:40Z</time>
      </trkpt>
      <trkpt lat="47.13626" lon="5.9102">
        <ele>446.8</ele>
        <time>2021-08-17T12:48:41Z</time>
      </trkpt>
      <trkpt lat="47.13638" lon="5.91034">
        <ele>447.4</ele>
        <time>2021-08-17T12:48:45Z</time>
      </trkpt>
      <trkpt lat="47.13644" lon="5.9104">
        <ele>447.6</ele>
        <time>2021-08-17T12:48:47Z</time>
      </trkpt>
      <trkpt lat="47.13657" lon="5.91055">
        <ele>448.4</ele>
        <time>2021-08-17T12:48:52Z</time>
      </trkpt>
      <trkpt lat="47.1366" lon="5.9106">
        <ele>448.6</ele>
        <time>2021-08-17T12:48:53Z</time>
      </trkpt>
      <trkpt lat="47.13663" lon="5.91063">
        <ele>448.8</ele>
        <time>2021-08-17T12:48:54Z</time>
      </trkpt>
      <trkpt lat="47.13666" lon="5.91065">
        <ele>449</ele>
        <time>2021-08-17T12:48:55Z</time>
      </trkpt>
      <trkpt lat="47.13669" lon="5.91068">
        <ele>449.2</ele>
        <time>2021-08-17T12:48:56Z</time>
      </trkpt>
      <trkpt lat="47.13672" lon="5.91071">
        <ele>449.2</ele>
        <time>2021-08-17T12:48:57Z</time>
      </trkpt>
      <trkpt lat="47.13675" lon="5.91074">
        <ele>449.4</ele>
        <time>2021-08-17T12:48:58Z</time>
      </trkpt>
      <trkpt lat="47.13678" lon="5.91077">
        <ele>449.4</ele>
        <time>2021-08-17T12:48:59Z</time>
      </trkpt>
      <trkpt lat="47.1368" lon="5.9108">
        <ele>449.6</ele>
        <time>2021-08-17T12:49:00Z</time>
      </trkpt>
      <trkpt lat="47.13683" lon="5.91083">
        <ele>449.6</ele>
        <time>2021-08-17T12:49:01Z</time>
      </trkpt>
      <trkpt lat="47.13686" lon="5.91086">
        <ele>450</ele>
        <time>2021-08-17T12:49:02Z</time>
      </trkpt>
      <trkpt lat="47.13688" lon="5.91089">
        <ele>450.2</ele>
        <time>2021-08-17T12:49:03Z</time>
      </trkpt>
      <trkpt lat="47.13691" lon="5.91092">
        <ele>450.4</ele>
        <time>2021-08-17T12:49:04Z</time>
      </trkpt>
      <trkpt lat="47.13694" lon="5.91096">
        <ele>450.4</ele>
        <time>2021-08-17T12:49:05Z</time>
      </trkpt>
      <trkpt lat="47.13696" lon="5.91099">
        <ele>450.4</ele>
        <time>2021-08-17T12:49:06Z</time>
      </trkpt>
      <trkpt lat="47.13698" lon="5.91102">
        <ele>450.6</ele>
        <time>2021-08-17T12:49:07Z</time>
      </trkpt>
      <trkpt lat="47.13701" lon="5.91106">
        <ele>450.6</ele>
        <time>2021-08-17T12:49:08Z</time>
      </trkpt>
      <trkpt lat="47.13703" lon="5.91109">
        <ele>450.8</ele>
        <time>2021-08-17T12:49:09Z</time>
      </trkpt>
      <trkpt lat="47.13705" lon="5.91112">
        <ele>451.2</ele>
        <time>2021-08-17T12:49:10Z</time>
      </trkpt>
      <trkpt lat="47.13708" lon="5.91115">
        <ele>451.2</ele>
        <time>2021-08-17T12:49:11Z</time>
      </trkpt>
      <trkpt lat="47.1371" lon="5.91118">
        <ele>451.4</ele>
        <time>2021-08-17T12:49:12Z</time>
      </trkpt>
      <trkpt lat="47.13712" lon="5.91121">
        <ele>451.4</ele>
        <time>2021-08-17T12:49:13Z</time>
      </trkpt>
      <trkpt lat="47.13714" lon="5.91125">
        <ele>451.6</ele>
        <time>2021-08-17T12:49:14Z</time>
      </trkpt>
      <trkpt lat="47.13716" lon="5.91129">
        <ele>451.6</ele>
        <time>2021-08-17T12:49:15Z</time>
      </trkpt>
      <trkpt lat="47.13719" lon="5.91133">
        <ele>451.6</ele>
        <time>2021-08-17T12:49:16Z</time>
      </trkpt>
      <trkpt lat="47.13721" lon="5.91136">
        <ele>451.6</ele>
        <time>2021-08-17T12:49:17Z</time>
      </trkpt>
      <trkpt lat="47.13723" lon="5.91139">
        <ele>451.6</ele>
        <time>2021-08-17T12:49:18Z</time>
      </trkpt>
      <trkpt lat="47.13725" lon="5.91143">
        <ele>451.6</ele>
        <time>2021-08-17T12:49:19Z</time>
      </trkpt>
      <trkpt lat="47.13727" lon="5.91147">
        <ele>451.6</ele>
        <time>2021-08-17T12:49:20Z</time>
      </trkpt>
      <trkpt lat="47.13729" lon="5.91151">
        <ele>451.6</ele>
        <time>2021-08-17T12:49:21Z</time>
      </trkpt>
      <trkpt lat="47.13731" lon="5.91155">
        <ele>451.6</ele>
        <time>2021-08-17T12:49:22Z</time>
      </trkpt>
      <trkpt lat="47.13732" lon="5.91159">
        <ele>451.8</ele>
        <time>2021-08-17T12:49:23Z</time>
      </trkpt>
      <trkpt lat="47.13733" lon="5.91163">
        <ele>451.8</ele>
        <time>2021-08-17T12:49:24Z</time>
      </trkpt>
      <trkpt lat="47.13735" lon="5.91168">
        <ele>452</ele>
        <time>2021-08-17T12:49:25Z</time>
      </trkpt>
      <trkpt lat="47.13736" lon="5.91172">
        <ele>452</ele>
        <time>2021-08-17T12:49:26Z</time>
      </trkpt>
      <trkpt lat="47.13741" lon="5.91197">
        <ele>453.2</ele>
        <time>2021-08-17T12:49:31Z</time>
      </trkpt>
      <trkpt lat="47.13745" lon="5.91213">
        <ele>453.6</ele>
        <time>2021-08-17T12:49:34Z</time>
      </trkpt>
      <trkpt lat="47.13746" lon="5.91219">
        <ele>453.8</ele>
        <time>2021-08-17T12:49:35Z</time>
      </trkpt>
      <trkpt lat="47.13747" lon="5.91226">
        <ele>453.8</ele>
        <time>2021-08-17T12:49:36Z</time>
      </trkpt>
      <trkpt lat="47.13747" lon="5.91234">
        <ele>453.8</ele>
        <time>2021-08-17T12:49:37Z</time>
      </trkpt>
      <trkpt lat="47.13748" lon="5.91241">
        <ele>453.8</ele>
        <time>2021-08-17T12:49:38Z</time>
      </trkpt>
      <trkpt lat="47.13748" lon="5.9125">
        <ele>453.8</ele>
        <time>2021-08-17T12:49:39Z</time>
      </trkpt>
      <trkpt lat="47.13748" lon="5.91256">
        <ele>453.8</ele>
        <time>2021-08-17T12:49:40Z</time>
      </trkpt>
      <trkpt lat="47.13746" lon="5.91266">
        <ele>453.8</ele>
        <time>2021-08-17T12:49:41Z</time>
      </trkpt>
      <trkpt lat="47.13745" lon="5.91274">
        <ele>453.6</ele>
        <time>2021-08-17T12:49:42Z</time>
      </trkpt>
      <trkpt lat="47.13744" lon="5.91282">
        <ele>453.6</ele>
        <time>2021-08-17T12:49:43Z</time>
      </trkpt>
      <trkpt lat="47.13742" lon="5.91291">
        <ele>453.4</ele>
        <time>2021-08-17T12:49:44Z</time>
      </trkpt>
      <trkpt lat="47.1374" lon="5.91299">
        <ele>453.4</ele>
        <time>2021-08-17T12:49:45Z</time>
      </trkpt>
      <trkpt lat="47.13738" lon="5.91305">
        <ele>453.4</ele>
        <time>2021-08-17T12:49:46Z</time>
      </trkpt>
      <trkpt lat="47.13736" lon="5.91314">
        <ele>453.2</ele>
        <time>2021-08-17T12:49:47Z</time>
      </trkpt>
      <trkpt lat="47.13734" lon="5.91322">
        <ele>453</ele>
        <time>2021-08-17T12:49:48Z</time>
      </trkpt>
      <trkpt lat="47.1373" lon="5.91336">
        <ele>452.8</ele>
        <time>2021-08-17T12:49:50Z</time>
      </trkpt>
      <trkpt lat="47.13728" lon="5.91343">
        <ele>452.8</ele>
        <time>2021-08-17T12:49:51Z</time>
      </trkpt>
      <trkpt lat="47.13726" lon="5.9135">
        <ele>452.8</ele>
        <time>2021-08-17T12:49:52Z</time>
      </trkpt>
      <trkpt lat="47.13725" lon="5.91356">
        <ele>452.6</ele>
        <time>2021-08-17T12:49:53Z</time>
      </trkpt>
      <trkpt lat="47.13724" lon="5.91363">
        <ele>452.6</ele>
        <time>2021-08-17T12:49:54Z</time>
      </trkpt>
      <trkpt lat="47.13722" lon="5.91369">
        <ele>452.6</ele>
        <time>2021-08-17T12:49:55Z</time>
      </trkpt>
      <trkpt lat="47.13721" lon="5.91375">
        <ele>452.6</ele>
        <time>2021-08-17T12:49:56Z</time>
      </trkpt>
      <trkpt lat="47.1372" lon="5.91381">
        <ele>452.6</ele>
        <time>2021-08-17T12:49:57Z</time>
      </trkpt>
      <trkpt lat="47.13719" lon="5.91386">
        <ele>452.8</ele>
        <time>2021-08-17T12:49:58Z</time>
      </trkpt>
      <trkpt lat="47.13715" lon="5.91396">
        <ele>452.8</ele>
        <time>2021-08-17T12:50:00Z</time>
      </trkpt>
      <trkpt lat="47.13714" lon="5.91401">
        <ele>453</ele>
        <time>2021-08-17T12:50:01Z</time>
      </trkpt>
      <trkpt lat="47.13712" lon="5.91406">
        <ele>453.2</ele>
        <time>2021-08-17T12:50:02Z</time>
      </trkpt>
      <trkpt lat="47.13705" lon="5.91435">
        <ele>453.6</ele>
        <time>2021-08-17T12:50:07Z</time>
      </trkpt>
      <trkpt lat="47.13699" lon="5.91476">
        <ele>454.4</ele>
        <time>2021-08-17T12:50:14Z</time>
      </trkpt>
      <trkpt lat="47.13698" lon="5.91481">
        <ele>454.4</ele>
        <time>2021-08-17T12:50:15Z</time>
      </trkpt>
      <trkpt lat="47.13697" lon="5.91485">
        <ele>454.4</ele>
        <time>2021-08-17T12:50:16Z</time>
      </trkpt>
      <trkpt lat="47.13697" lon="5.91487">
        <ele>454.6</ele>
        <time>2021-08-17T12:50:17Z</time>
      </trkpt>
      <trkpt lat="47.13697" lon="5.91488">
        <ele>454.6</ele>
        <time>2021-08-17T12:50:18Z</time>
      </trkpt>
      <trkpt lat="47.13697" lon="5.91489">
        <ele>454.8</ele>
        <time>2021-08-17T12:52:56Z</time>
      </trkpt>
      <trkpt lat="47.13698" lon="5.91493">
        <ele>454.8</ele>
        <time>2021-08-17T12:52:58Z</time>
      </trkpt>
      <trkpt lat="47.13699" lon="5.91496">
        <ele>454.8</ele>
        <time>2021-08-17T12:52:59Z</time>
      </trkpt>
      <trkpt lat="47.137" lon="5.91502">
        <ele>454.8</ele>
        <time>2021-08-17T12:53:01Z</time>
      </trkpt>
      <trkpt lat="47.13701" lon="5.91508">
        <ele>454.8</ele>
        <time>2021-08-17T12:53:03Z</time>
      </trkpt>
      <trkpt lat="47.13702" lon="5.91512">
        <ele>454.8</ele>
        <time>2021-08-17T12:53:04Z</time>
      </trkpt>
      <trkpt lat="47.13703" lon="5.91518">
        <ele>454.8</ele>
        <time>2021-08-17T12:53:06Z</time>
      </trkpt>
      <trkpt lat="47.13704" lon="5.91521">
        <ele>455</ele>
        <time>2021-08-17T12:53:07Z</time>
      </trkpt>
      <trkpt lat="47.13711" lon="5.91543">
        <ele>455.4</ele>
        <time>2021-08-17T12:53:14Z</time>
      </trkpt>
      <trkpt lat="47.13712" lon="5.91552">
        <ele>455.8</ele>
        <time>2021-08-17T12:53:17Z</time>
      </trkpt>
      <trkpt lat="47.13709" lon="5.91556">
        <ele>455.8</ele>
        <time>2021-08-17T12:53:19Z</time>
      </trkpt>
      <trkpt lat="47.13703" lon="5.91549">
        <ele>456</ele>
        <time>2021-08-17T12:53:23Z</time>
      </trkpt>
      <trkpt lat="47.13701" lon="5.91547">
        <ele>456.2</ele>
        <time>2021-08-17T12:53:24Z</time>
      </trkpt>
      <trkpt lat="47.13699" lon="5.91545">
        <ele>456.2</ele>
        <time>2021-08-17T12:53:25Z</time>
      </trkpt>
      <trkpt lat="47.13698" lon="5.91544">
        <ele>456.2</ele>
        <time>2021-08-17T12:53:26Z</time>
      </trkpt>
      <trkpt lat="47.13697" lon="5.91542">
        <ele>456.4</ele>
        <time>2021-08-17T12:53:27Z</time>
      </trkpt>
      <trkpt lat="47.13695" lon="5.9154">
        <ele>456.6</ele>
        <time>2021-08-17T12:53:28Z</time>
      </trkpt>
      <trkpt lat="47.13694" lon="5.91538">
        <ele>456.8</ele>
        <time>2021-08-17T12:53:29Z</time>
      </trkpt>
      <trkpt lat="47.13692" lon="5.91536">
        <ele>456.8</ele>
        <time>2021-08-17T12:53:30Z</time>
      </trkpt>
      <trkpt lat="47.13691" lon="5.91534">
        <ele>457</ele>
        <time>2021-08-17T12:53:31Z</time>
      </trkpt>
      <trkpt lat="47.1369" lon="5.91532">
        <ele>457.2</ele>
        <time>2021-08-17T12:53:32Z</time>
      </trkpt>
      <trkpt lat="47.13686" lon="5.91528">
        <ele>457.6</ele>
        <time>2021-08-17T12:53:35Z</time>
      </trkpt>
      <trkpt lat="47.13685" lon="5.91526">
        <ele>457.8</ele>
        <time>2021-08-17T12:53:36Z</time>
      </trkpt>
      <trkpt lat="47.13683" lon="5.91525">
        <ele>457.8</ele>
        <time>2021-08-17T12:53:37Z</time>
      </trkpt>
      <trkpt lat="47.13682" lon="5.91523">
        <ele>458</ele>
        <time>2021-08-17T12:53:38Z</time>
      </trkpt>
      <trkpt lat="47.13681" lon="5.91521">
        <ele>458</ele>
        <time>2021-08-17T12:53:39Z</time>
      </trkpt>
      <trkpt lat="47.1368" lon="5.9152">
        <ele>458.2</ele>
        <time>2021-08-17T12:53:40Z</time>
      </trkpt>
      <trkpt lat="47.13678" lon="5.91518">
        <ele>458.2</ele>
        <time>2021-08-17T12:53:41Z</time>
      </trkpt>
      <trkpt lat="47.13674" lon="5.91513">
        <ele>458.6</ele>
        <time>2021-08-17T12:53:44Z</time>
      </trkpt>
      <trkpt lat="47.13673" lon="5.91511">
        <ele>458.8</ele>
        <time>2021-08-17T12:53:45Z</time>
      </trkpt>
      <trkpt lat="47.13671" lon="5.91509">
        <ele>458.8</ele>
        <time>2021-08-17T12:53:46Z</time>
      </trkpt>
      <trkpt lat="47.1367" lon="5.91507">
        <ele>459</ele>
        <time>2021-08-17T12:53:47Z</time>
      </trkpt>
      <trkpt lat="47.13668" lon="5.91506">
        <ele>459</ele>
        <time>2021-08-17T12:53:48Z</time>
      </trkpt>
      <trkpt lat="47.13667" lon="5.91504">
        <ele>459.2</ele>
        <time>2021-08-17T12:53:49Z</time>
      </trkpt>
      <trkpt lat="47.13666" lon="5.91502">
        <ele>459.2</ele>
        <time>2021-08-17T12:53:50Z</time>
      </trkpt>
      <trkpt lat="47.13664" lon="5.915">
        <ele>459.2</ele>
        <time>2021-08-17T12:53:51Z</time>
      </trkpt>
      <trkpt lat="47.13663" lon="5.91498">
        <ele>459.4</ele>
        <time>2021-08-17T12:53:52Z</time>
      </trkpt>
      <trkpt lat="47.13661" lon="5.91496">
        <ele>459.4</ele>
        <time>2021-08-17T12:53:53Z</time>
      </trkpt>
      <trkpt lat="47.13659" lon="5.91494">
        <ele>459.6</ele>
        <time>2021-08-17T12:53:54Z</time>
      </trkpt>
      <trkpt lat="47.13658" lon="5.91493">
        <ele>459.8</ele>
        <time>2021-08-17T12:53:55Z</time>
      </trkpt>
      <trkpt lat="47.13656" lon="5.91491">
        <ele>460</ele>
        <time>2021-08-17T12:53:56Z</time>
      </trkpt>
      <trkpt lat="47.13655" lon="5.91489">
        <ele>460.2</ele>
        <time>2021-08-17T12:53:57Z</time>
      </trkpt>
      <trkpt lat="47.13653" lon="5.91488">
        <ele>460.2</ele>
        <time>2021-08-17T12:53:58Z</time>
      </trkpt>
      <trkpt lat="47.13651" lon="5.91487">
        <ele>460.4</ele>
        <time>2021-08-17T12:53:59Z</time>
      </trkpt>
      <trkpt lat="47.1365" lon="5.91486">
        <ele>460.4</ele>
        <time>2021-08-17T12:54:00Z</time>
      </trkpt>
      <trkpt lat="47.13648" lon="5.91485">
        <ele>460.8</ele>
        <time>2021-08-17T12:54:01Z</time>
      </trkpt>
      <trkpt lat="47.13646" lon="5.91485">
        <ele>460.8</ele>
        <time>2021-08-17T12:54:02Z</time>
      </trkpt>
      <trkpt lat="47.13644" lon="5.91486">
        <ele>461</ele>
        <time>2021-08-17T12:54:03Z</time>
      </trkpt>
      <trkpt lat="47.13643" lon="5.91487">
        <ele>461</ele>
        <time>2021-08-17T12:54:04Z</time>
      </trkpt>
      <trkpt lat="47.13641" lon="5.91489">
        <ele>461.2</ele>
        <time>2021-08-17T12:54:05Z</time>
      </trkpt>
      <trkpt lat="47.1364" lon="5.9149">
        <ele>461.4</ele>
        <time>2021-08-17T12:54:06Z</time>
      </trkpt>
      <trkpt lat="47.13639" lon="5.91492">
        <ele>461.4</ele>
        <time>2021-08-17T12:54:07Z</time>
      </trkpt>
      <trkpt lat="47.13638" lon="5.91494">
        <ele>461.6</ele>
        <time>2021-08-17T12:54:08Z</time>
      </trkpt>
      <trkpt lat="47.13636" lon="5.91496">
        <ele>461.6</ele>
        <time>2021-08-17T12:54:09Z</time>
      </trkpt>
      <trkpt lat="47.13635" lon="5.91498">
        <ele>462</ele>
        <time>2021-08-17T12:54:10Z</time>
      </trkpt>
      <trkpt lat="47.13634" lon="5.915">
        <ele>462</ele>
        <time>2021-08-17T12:54:11Z</time>
      </trkpt>
      <trkpt lat="47.13633" lon="5.91502">
        <ele>462.2</ele>
        <time>2021-08-17T12:54:12Z</time>
      </trkpt>
      <trkpt lat="47.13633" lon="5.91503">
        <ele>462.4</ele>
        <time>2021-08-17T12:54:13Z</time>
      </trkpt>
      <trkpt lat="47.13632" lon="5.91505">
        <ele>462.4</ele>
        <time>2021-08-17T12:54:14Z</time>
      </trkpt>
      <trkpt lat="47.13631" lon="5.91507">
        <ele>462.6</ele>
        <time>2021-08-17T12:54:15Z</time>
      </trkpt>
      <trkpt lat="47.1363" lon="5.91508">
        <ele>462.6</ele>
        <time>2021-08-17T12:54:16Z</time>
      </trkpt>
      <trkpt lat="47.13629" lon="5.9151">
        <ele>462.8</ele>
        <time>2021-08-17T12:54:17Z</time>
      </trkpt>
      <trkpt lat="47.13628" lon="5.91512">
        <ele>462.8</ele>
        <time>2021-08-17T12:54:18Z</time>
      </trkpt>
      <trkpt lat="47.13627" lon="5.91513">
        <ele>463.2</ele>
        <time>2021-08-17T12:54:19Z</time>
      </trkpt>
      <trkpt lat="47.13626" lon="5.91515">
        <ele>463.4</ele>
        <time>2021-08-17T12:54:20Z</time>
      </trkpt>
      <trkpt lat="47.13625" lon="5.91517">
        <ele>463.6</ele>
        <time>2021-08-17T12:54:21Z</time>
      </trkpt>
      <trkpt lat="47.13624" lon="5.91519">
        <ele>463.8</ele>
        <time>2021-08-17T12:54:22Z</time>
      </trkpt>
      <trkpt lat="47.13623" lon="5.91521">
        <ele>464</ele>
        <time>2021-08-17T12:54:23Z</time>
      </trkpt>
      <trkpt lat="47.13623" lon="5.91522">
        <ele>464.4</ele>
        <time>2021-08-17T12:54:24Z</time>
      </trkpt>
      <trkpt lat="47.13622" lon="5.91524">
        <ele>464.4</ele>
        <time>2021-08-17T12:54:25Z</time>
      </trkpt>
      <trkpt lat="47.13621" lon="5.91525">
        <ele>464.6</ele>
        <time>2021-08-17T12:54:26Z</time>
      </trkpt>
      <trkpt lat="47.1362" lon="5.91527">
        <ele>464.6</ele>
        <time>2021-08-17T12:54:27Z</time>
      </trkpt>
      <trkpt lat="47.13619" lon="5.91528">
        <ele>465</ele>
        <time>2021-08-17T12:54:28Z</time>
      </trkpt>
      <trkpt lat="47.13618" lon="5.9153">
        <ele>465.4</ele>
        <time>2021-08-17T12:54:29Z</time>
      </trkpt>
      <trkpt lat="47.13617" lon="5.91532">
        <ele>465.6</ele>
        <time>2021-08-17T12:54:30Z</time>
      </trkpt>
      <trkpt lat="47.13616" lon="5.91533">
        <ele>466</ele>
        <time>2021-08-17T12:54:31Z</time>
      </trkpt>
      <trkpt lat="47.13615" lon="5.91535">
        <ele>466.2</ele>
        <time>2021-08-17T12:54:32Z</time>
      </trkpt>
      <trkpt lat="47.13614" lon="5.91536">
        <ele>466.4</ele>
        <time>2021-08-17T12:54:33Z</time>
      </trkpt>
      <trkpt lat="47.13613" lon="5.91538">
        <ele>466.6</ele>
        <time>2021-08-17T12:54:34Z</time>
      </trkpt>
      <trkpt lat="47.13613" lon="5.91539">
        <ele>466.8</ele>
        <time>2021-08-17T12:54:35Z</time>
      </trkpt>
      <trkpt lat="47.13612" lon="5.91541">
        <ele>467</ele>
        <time>2021-08-17T12:54:36Z</time>
      </trkpt>
      <trkpt lat="47.13611" lon="5.91543">
        <ele>467</ele>
        <time>2021-08-17T12:54:37Z</time>
      </trkpt>
      <trkpt lat="47.1361" lon="5.91545">
        <ele>467.4</ele>
        <time>2021-08-17T12:54:38Z</time>
      </trkpt>
      <trkpt lat="47.13609" lon="5.91546">
        <ele>467.4</ele>
        <time>2021-08-17T12:54:39Z</time>
      </trkpt>
      <trkpt lat="47.13608" lon="5.91548">
        <ele>467.8</ele>
        <time>2021-08-17T12:54:40Z</time>
      </trkpt>
      <trkpt lat="47.13608" lon="5.9155">
        <ele>468</ele>
        <time>2021-08-17T12:54:41Z</time>
      </trkpt>
      <trkpt lat="47.13607" lon="5.91551">
        <ele>468.2</ele>
        <time>2021-08-17T12:54:42Z</time>
      </trkpt>
      <trkpt lat="47.13606" lon="5.91553">
        <ele>468.4</ele>
        <time>2021-08-17T12:54:43Z</time>
      </trkpt>
      <trkpt lat="47.13605" lon="5.91554">
        <ele>468.8</ele>
        <time>2021-08-17T12:54:44Z</time>
      </trkpt>
      <trkpt lat="47.13604" lon="5.91555">
        <ele>469</ele>
        <time>2021-08-17T12:54:45Z</time>
      </trkpt>
      <trkpt lat="47.13603" lon="5.91556">
        <ele>469.2</ele>
        <time>2021-08-17T12:54:46Z</time>
      </trkpt>
      <trkpt lat="47.13603" lon="5.91558">
        <ele>469.4</ele>
        <time>2021-08-17T12:54:47Z</time>
      </trkpt>
      <trkpt lat="47.13602" lon="5.91559">
        <ele>469.6</ele>
        <time>2021-08-17T12:54:48Z</time>
      </trkpt>
      <trkpt lat="47.13601" lon="5.91561">
        <ele>470</ele>
        <time>2021-08-17T12:54:49Z</time>
      </trkpt>
      <trkpt lat="47.136" lon="5.91563">
        <ele>470</ele>
        <time>2021-08-17T12:54:50Z</time>
      </trkpt>
      <trkpt lat="47.13599" lon="5.91564">
        <ele>470.2</ele>
        <time>2021-08-17T12:54:51Z</time>
      </trkpt>
      <trkpt lat="47.13598" lon="5.91565">
        <ele>470.4</ele>
        <time>2021-08-17T12:54:52Z</time>
      </trkpt>
      <trkpt lat="47.13596" lon="5.91566">
        <ele>470.6</ele>
        <time>2021-08-17T12:54:53Z</time>
      </trkpt>
      <trkpt lat="47.13595" lon="5.91567">
        <ele>471</ele>
        <time>2021-08-17T12:54:54Z</time>
      </trkpt>
      <trkpt lat="47.13594" lon="5.91567">
        <ele>471</ele>
        <time>2021-08-17T12:54:55Z</time>
      </trkpt>
      <trkpt lat="47.13592" lon="5.91567">
        <ele>471.2</ele>
        <time>2021-08-17T12:54:56Z</time>
      </trkpt>
      <trkpt lat="47.13591" lon="5.91567">
        <ele>471.4</ele>
        <time>2021-08-17T12:54:57Z</time>
      </trkpt>
      <trkpt lat="47.1359" lon="5.91566">
        <ele>471.6</ele>
        <time>2021-08-17T12:54:58Z</time>
      </trkpt>
      <trkpt lat="47.13589" lon="5.91565">
        <ele>471.8</ele>
        <time>2021-08-17T12:54:59Z</time>
      </trkpt>
      <trkpt lat="47.13588" lon="5.91564">
        <ele>472</ele>
        <time>2021-08-17T12:55:00Z</time>
      </trkpt>
      <trkpt lat="47.13586" lon="5.91563">
        <ele>472.2</ele>
        <time>2021-08-17T12:55:01Z</time>
      </trkpt>
      <trkpt lat="47.13585" lon="5.91561">
        <ele>472.4</ele>
        <time>2021-08-17T12:55:03Z</time>
      </trkpt>
      <trkpt lat="47.13583" lon="5.9156">
        <ele>472.4</ele>
        <time>2021-08-17T12:55:04Z</time>
      </trkpt>
      <trkpt lat="47.13582" lon="5.91559">
        <ele>472.6</ele>
        <time>2021-08-17T12:55:05Z</time>
      </trkpt>
      <trkpt lat="47.13581" lon="5.91557">
        <ele>472.6</ele>
        <time>2021-08-17T12:55:06Z</time>
      </trkpt>
      <trkpt lat="47.1358" lon="5.91557">
        <ele>472.6</ele>
        <time>2021-08-17T12:55:07Z</time>
      </trkpt>
      <trkpt lat="47.13579" lon="5.91556">
        <ele>472.8</ele>
        <time>2021-08-17T12:55:08Z</time>
      </trkpt>
      <trkpt lat="47.13577" lon="5.91555">
        <ele>472.8</ele>
        <time>2021-08-17T12:55:09Z</time>
      </trkpt>
      <trkpt lat="47.13576" lon="5.91556">
        <ele>472.8</ele>
        <time>2021-08-17T12:55:10Z</time>
      </trkpt>
      <trkpt lat="47.13575" lon="5.91557">
        <ele>472.8</ele>
        <time>2021-08-17T12:55:11Z</time>
      </trkpt>
      <trkpt lat="47.13574" lon="5.91557">
        <ele>472.8</ele>
        <time>2021-08-17T12:55:12Z</time>
      </trkpt>
      <trkpt lat="47.13572" lon="5.91558">
        <ele>472.8</ele>
        <time>2021-08-17T12:55:13Z</time>
      </trkpt>
      <trkpt lat="47.1357" lon="5.9156">
        <ele>473</ele>
        <time>2021-08-17T12:55:14Z</time>
      </trkpt>
      <trkpt lat="47.13569" lon="5.9156">
        <ele>473.2</ele>
        <time>2021-08-17T12:55:15Z</time>
      </trkpt>
      <trkpt lat="47.13567" lon="5.9156">
        <ele>473.6</ele>
        <time>2021-08-17T12:55:16Z</time>
      </trkpt>
      <trkpt lat="47.13566" lon="5.9156">
        <ele>473.8</ele>
        <time>2021-08-17T12:55:17Z</time>
      </trkpt>
      <trkpt lat="47.13564" lon="5.9156">
        <ele>474</ele>
        <time>2021-08-17T12:55:18Z</time>
      </trkpt>
      <trkpt lat="47.13562" lon="5.9156">
        <ele>474.4</ele>
        <time>2021-08-17T12:55:19Z</time>
      </trkpt>
      <trkpt lat="47.13561" lon="5.9156">
        <ele>474.6</ele>
        <time>2021-08-17T12:55:20Z</time>
      </trkpt>
      <trkpt lat="47.1356" lon="5.9156">
        <ele>474.8</ele>
        <time>2021-08-17T12:55:21Z</time>
      </trkpt>
      <trkpt lat="47.13558" lon="5.91561">
        <ele>475.2</ele>
        <time>2021-08-17T12:55:23Z</time>
      </trkpt>
      <trkpt lat="47.13557" lon="5.91561">
        <ele>475.6</ele>
        <time>2021-08-17T12:55:24Z</time>
      </trkpt>
      <trkpt lat="47.13555" lon="5.91562">
        <ele>475.8</ele>
        <time>2021-08-17T12:55:25Z</time>
      </trkpt>
      <trkpt lat="47.13553" lon="5.91562">
        <ele>476.2</ele>
        <time>2021-08-17T12:55:26Z</time>
      </trkpt>
      <trkpt lat="47.13551" lon="5.91563">
        <ele>476.4</ele>
        <time>2021-08-17T12:55:27Z</time>
      </trkpt>
      <trkpt lat="47.1355" lon="5.91563">
        <ele>477</ele>
        <time>2021-08-17T12:55:28Z</time>
      </trkpt>
      <trkpt lat="47.13549" lon="5.91564">
        <ele>477.4</ele>
        <time>2021-08-17T12:55:29Z</time>
      </trkpt>
      <trkpt lat="47.13548" lon="5.91564">
        <ele>478.2</ele>
        <time>2021-08-17T12:55:30Z</time>
      </trkpt>
      <trkpt lat="47.13545" lon="5.91564">
        <ele>478.4</ele>
        <time>2021-08-17T12:55:31Z</time>
      </trkpt>
      <trkpt lat="47.13544" lon="5.91563">
        <ele>478.8</ele>
        <time>2021-08-17T12:55:32Z</time>
      </trkpt>
      <trkpt lat="47.13543" lon="5.91563">
        <ele>479</ele>
        <time>2021-08-17T12:55:33Z</time>
      </trkpt>
      <trkpt lat="47.13541" lon="5.91563">
        <ele>479.2</ele>
        <time>2021-08-17T12:55:34Z</time>
      </trkpt>
      <trkpt lat="47.1354" lon="5.91562">
        <ele>479.6</ele>
        <time>2021-08-17T12:55:35Z</time>
      </trkpt>
      <trkpt lat="47.13537" lon="5.91562">
        <ele>480.2</ele>
        <time>2021-08-17T12:55:36Z</time>
      </trkpt>
      <trkpt lat="47.13535" lon="5.91562">
        <ele>480.8</ele>
        <time>2021-08-17T12:55:37Z</time>
      </trkpt>
      <trkpt lat="47.13531" lon="5.91562">
        <ele>481</ele>
        <time>2021-08-17T12:55:38Z</time>
      </trkpt>
      <trkpt lat="47.13528" lon="5.91561">
        <ele>481.4</ele>
        <time>2021-08-17T12:55:39Z</time>
      </trkpt>
      <trkpt lat="47.13525" lon="5.91561">
        <ele>481.8</ele>
        <time>2021-08-17T12:55:40Z</time>
      </trkpt>
      <trkpt lat="47.13524" lon="5.9156">
        <ele>481.8</ele>
        <time>2021-08-17T12:55:41Z</time>
      </trkpt>
      <trkpt lat="47.13522" lon="5.9156">
        <ele>482.2</ele>
        <time>2021-08-17T12:55:42Z</time>
      </trkpt>
      <trkpt lat="47.13522" lon="5.91561">
        <ele>482.4</ele>
        <time>2021-08-17T12:55:43Z</time>
      </trkpt>
      <trkpt lat="47.1352" lon="5.91561">
        <ele>482.8</ele>
        <time>2021-08-17T12:55:44Z</time>
      </trkpt>
      <trkpt lat="47.13518" lon="5.91561">
        <ele>483.2</ele>
        <time>2021-08-17T12:55:45Z</time>
      </trkpt>
      <trkpt lat="47.13517" lon="5.9156">
        <ele>483.8</ele>
        <time>2021-08-17T12:55:46Z</time>
      </trkpt>
      <trkpt lat="47.13516" lon="5.91559">
        <ele>484</ele>
        <time>2021-08-17T12:55:47Z</time>
      </trkpt>
      <trkpt lat="47.13514" lon="5.91557">
        <ele>484.4</ele>
        <time>2021-08-17T12:55:48Z</time>
      </trkpt>
      <trkpt lat="47.13512" lon="5.91555">
        <ele>484.8</ele>
        <time>2021-08-17T12:55:49Z</time>
      </trkpt>
      <trkpt lat="47.13509" lon="5.91555">
        <ele>485</ele>
        <time>2021-08-17T12:55:50Z</time>
      </trkpt>
      <trkpt lat="47.13508" lon="5.91556">
        <ele>485.6</ele>
        <time>2021-08-17T12:55:52Z</time>
      </trkpt>
      <trkpt lat="47.13507" lon="5.91556">
        <ele>485.8</ele>
        <time>2021-08-17T12:55:53Z</time>
      </trkpt>
      <trkpt lat="47.13505" lon="5.91558">
        <ele>485.8</ele>
        <time>2021-08-17T12:55:54Z</time>
      </trkpt>
      <trkpt lat="47.13505" lon="5.91559">
        <ele>486</ele>
        <time>2021-08-17T12:55:55Z</time>
      </trkpt>
      <trkpt lat="47.13504" lon="5.91559">
        <ele>486.2</ele>
        <time>2021-08-17T12:55:56Z</time>
      </trkpt>
      <trkpt lat="47.13502" lon="5.91559">
        <ele>486.2</ele>
        <time>2021-08-17T12:55:57Z</time>
      </trkpt>
      <trkpt lat="47.135" lon="5.91559">
        <ele>486.4</ele>
        <time>2021-08-17T12:55:58Z</time>
      </trkpt>
      <trkpt lat="47.13499" lon="5.91559">
        <ele>486.6</ele>
        <time>2021-08-17T12:55:59Z</time>
      </trkpt>
      <trkpt lat="47.13497" lon="5.91558">
        <ele>486.8</ele>
        <time>2021-08-17T12:56:00Z</time>
      </trkpt>
      <trkpt lat="47.13496" lon="5.91558">
        <ele>486.8</ele>
        <time>2021-08-17T12:56:01Z</time>
      </trkpt>
      <trkpt lat="47.13495" lon="5.91557">
        <ele>487</ele>
        <time>2021-08-17T12:56:02Z</time>
      </trkpt>
      <trkpt lat="47.13494" lon="5.91557">
        <ele>487</ele>
        <time>2021-08-17T12:56:03Z</time>
      </trkpt>
      <trkpt lat="47.13492" lon="5.91558">
        <ele>487.2</ele>
        <time>2021-08-17T12:56:04Z</time>
      </trkpt>
      <trkpt lat="47.13491" lon="5.91558">
        <ele>487.4</ele>
        <time>2021-08-17T12:56:05Z</time>
      </trkpt>
      <trkpt lat="47.1349" lon="5.91558">
        <ele>487.4</ele>
        <time>2021-08-17T12:56:06Z</time>
      </trkpt>
      <trkpt lat="47.13489" lon="5.91558">
        <ele>487.8</ele>
        <time>2021-08-17T12:56:07Z</time>
      </trkpt>
      <trkpt lat="47.13487" lon="5.91559">
        <ele>488</ele>
        <time>2021-08-17T12:56:08Z</time>
      </trkpt>
      <trkpt lat="47.13486" lon="5.91558">
        <ele>488.4</ele>
        <time>2021-08-17T12:56:10Z</time>
      </trkpt>
      <trkpt lat="47.13484" lon="5.91558">
        <ele>488.6</ele>
        <time>2021-08-17T12:56:11Z</time>
      </trkpt>
      <trkpt lat="47.13483" lon="5.91558">
        <ele>489</ele>
        <time>2021-08-17T12:56:13Z</time>
      </trkpt>
      <trkpt lat="47.13481" lon="5.91558">
        <ele>489.2</ele>
        <time>2021-08-17T12:56:14Z</time>
      </trkpt>
      <trkpt lat="47.1348" lon="5.91558">
        <ele>489.2</ele>
        <time>2021-08-17T12:56:15Z</time>
      </trkpt>
      <trkpt lat="47.13479" lon="5.91558">
        <ele>489.6</ele>
        <time>2021-08-17T12:56:16Z</time>
      </trkpt>
      <trkpt lat="47.13478" lon="5.91558">
        <ele>489.8</ele>
        <time>2021-08-17T12:56:17Z</time>
      </trkpt>
      <trkpt lat="47.13476" lon="5.91557">
        <ele>490.2</ele>
        <time>2021-08-17T12:56:18Z</time>
      </trkpt>
      <trkpt lat="47.13474" lon="5.91556">
        <ele>490.4</ele>
        <time>2021-08-17T12:56:19Z</time>
      </trkpt>
      <trkpt lat="47.13473" lon="5.91556">
        <ele>490.8</ele>
        <time>2021-08-17T12:56:20Z</time>
      </trkpt>
      <trkpt lat="47.13471" lon="5.91556">
        <ele>491.4</ele>
        <time>2021-08-17T12:56:21Z</time>
      </trkpt>
      <trkpt lat="47.13469" lon="5.91555">
        <ele>491.6</ele>
        <time>2021-08-17T12:56:22Z</time>
      </trkpt>
      <trkpt lat="47.13468" lon="5.91555">
        <ele>492</ele>
        <time>2021-08-17T12:56:23Z</time>
      </trkpt>
      <trkpt lat="47.13466" lon="5.91555">
        <ele>492.2</ele>
        <time>2021-08-17T12:56:24Z</time>
      </trkpt>
      <trkpt lat="47.13465" lon="5.91554">
        <ele>492.4</ele>
        <time>2021-08-17T12:56:25Z</time>
      </trkpt>
      <trkpt lat="47.13464" lon="5.91555">
        <ele>492.6</ele>
        <time>2021-08-17T12:56:26Z</time>
      </trkpt>
      <trkpt lat="47.13463" lon="5.91556">
        <ele>493.2</ele>
        <time>2021-08-17T12:56:27Z</time>
      </trkpt>
      <trkpt lat="47.13463" lon="5.91557">
        <ele>493.6</ele>
        <time>2021-08-17T12:56:28Z</time>
      </trkpt>
      <trkpt lat="47.13462" lon="5.91559">
        <ele>493.8</ele>
        <time>2021-08-17T12:56:29Z</time>
      </trkpt>
      <trkpt lat="47.13463" lon="5.91559">
        <ele>494.2</ele>
        <time>2021-08-17T12:56:30Z</time>
      </trkpt>
      <trkpt lat="47.13465" lon="5.91562">
        <ele>494.8</ele>
        <time>2021-08-17T12:59:00Z</time>
      </trkpt>
      <trkpt lat="47.13466" lon="5.91563">
        <ele>494.8</ele>
        <time>2021-08-17T12:59:02Z</time>
      </trkpt>
      <trkpt lat="47.13469" lon="5.91566">
        <ele>494.8</ele>
        <time>2021-08-17T12:59:04Z</time>
      </trkpt>
      <trkpt lat="47.13475" lon="5.91573">
        <ele>495.2</ele>
        <time>2021-08-17T12:59:08Z</time>
      </trkpt>
      <trkpt lat="47.13477" lon="5.91574">
        <ele>495.4</ele>
        <time>2021-08-17T12:59:09Z</time>
      </trkpt>
      <trkpt lat="47.13478" lon="5.91575">
        <ele>495.6</ele>
        <time>2021-08-17T12:59:10Z</time>
      </trkpt>
      <trkpt lat="47.13479" lon="5.91576">
        <ele>495.6</ele>
        <time>2021-08-17T12:59:11Z</time>
      </trkpt>
      <trkpt lat="47.13481" lon="5.91577">
        <ele>495.6</ele>
        <time>2021-08-17T12:59:12Z</time>
      </trkpt>
      <trkpt lat="47.13483" lon="5.91578">
        <ele>495.6</ele>
        <time>2021-08-17T12:59:13Z</time>
      </trkpt>
      <trkpt lat="47.13495" lon="5.91588">
        <ele>495.6</ele>
        <time>2021-08-17T12:59:18Z</time>
      </trkpt>
      <trkpt lat="47.13496" lon="5.9159">
        <ele>495.6</ele>
        <time>2021-08-17T12:59:19Z</time>
      </trkpt>
      <trkpt lat="47.13498" lon="5.91592">
        <ele>495.6</ele>
        <time>2021-08-17T12:59:20Z</time>
      </trkpt>
      <trkpt lat="47.135" lon="5.91594">
        <ele>495.6</ele>
        <time>2021-08-17T12:59:21Z</time>
      </trkpt>
      <trkpt lat="47.13502" lon="5.91596">
        <ele>495.6</ele>
        <time>2021-08-17T12:59:22Z</time>
      </trkpt>
      <trkpt lat="47.13505" lon="5.91601">
        <ele>495.6</ele>
        <time>2021-08-17T12:59:24Z</time>
      </trkpt>
      <trkpt lat="47.13507" lon="5.91604">
        <ele>495.4</ele>
        <time>2021-08-17T12:59:25Z</time>
      </trkpt>
      <trkpt lat="47.1351" lon="5.91607">
        <ele>495.4</ele>
        <time>2021-08-17T12:59:26Z</time>
      </trkpt>
      <trkpt lat="47.13527" lon="5.91624">
        <ele>495.6</ele>
        <time>2021-08-17T12:59:32Z</time>
      </trkpt>
      <trkpt lat="47.13535" lon="5.91634">
        <ele>495.4</ele>
        <time>2021-08-17T12:59:36Z</time>
      </trkpt>
      <trkpt lat="47.13538" lon="5.91637">
        <ele>495.4</ele>
        <time>2021-08-17T12:59:37Z</time>
      </trkpt>
      <trkpt lat="47.13541" lon="5.9164">
        <ele>495.4</ele>
        <time>2021-08-17T12:59:38Z</time>
      </trkpt>
      <trkpt lat="47.13555" lon="5.91654">
        <ele>495.4</ele>
        <time>2021-08-17T12:59:42Z</time>
      </trkpt>
      <trkpt lat="47.13558" lon="5.91657">
        <ele>495.4</ele>
        <time>2021-08-17T12:59:43Z</time>
      </trkpt>
      <trkpt lat="47.13577" lon="5.91675">
        <ele>495</ele>
        <time>2021-08-17T12:59:49Z</time>
      </trkpt>
      <trkpt lat="47.13579" lon="5.91677">
        <ele>495</ele>
        <time>2021-08-17T12:59:50Z</time>
      </trkpt>
      <trkpt lat="47.1358" lon="5.91678">
        <ele>495</ele>
        <time>2021-08-17T12:59:51Z</time>
      </trkpt>
      <trkpt lat="47.13582" lon="5.91681">
        <ele>495</ele>
        <time>2021-08-17T12:59:52Z</time>
      </trkpt>
      <trkpt lat="47.13585" lon="5.91684">
        <ele>495</ele>
        <time>2021-08-17T12:59:53Z</time>
      </trkpt>
      <trkpt lat="47.13586" lon="5.91686">
        <ele>495</ele>
        <time>2021-08-17T12:59:54Z</time>
      </trkpt>
      <trkpt lat="47.13589" lon="5.91689">
        <ele>495.2</ele>
        <time>2021-08-17T12:59:55Z</time>
      </trkpt>
      <trkpt lat="47.13591" lon="5.91691">
        <ele>495.2</ele>
        <time>2021-08-17T12:59:56Z</time>
      </trkpt>
      <trkpt lat="47.13597" lon="5.91696">
        <ele>495.2</ele>
        <time>2021-08-17T12:59:58Z</time>
      </trkpt>
      <trkpt lat="47.13598" lon="5.91698">
        <ele>495.2</ele>
        <time>2021-08-17T12:59:59Z</time>
      </trkpt>
      <trkpt lat="47.13601" lon="5.91701">
        <ele>495.2</ele>
        <time>2021-08-17T13:00:00Z</time>
      </trkpt>
      <trkpt lat="47.13603" lon="5.91704">
        <ele>495.2</ele>
        <time>2021-08-17T13:00:01Z</time>
      </trkpt>
      <trkpt lat="47.13605" lon="5.91705">
        <ele>495.2</ele>
        <time>2021-08-17T13:00:02Z</time>
      </trkpt>
      <trkpt lat="47.13609" lon="5.91711">
        <ele>495.2</ele>
        <time>2021-08-17T13:00:05Z</time>
      </trkpt>
      <trkpt lat="47.13611" lon="5.91713">
        <ele>495.2</ele>
        <time>2021-08-17T13:00:06Z</time>
      </trkpt>
      <trkpt lat="47.13615" lon="5.91716">
        <ele>495.2</ele>
        <time>2021-08-17T13:00:07Z</time>
      </trkpt>
      <trkpt lat="47.13618" lon="5.91719">
        <ele>495.2</ele>
        <time>2021-08-17T13:00:08Z</time>
      </trkpt>
      <trkpt lat="47.13633" lon="5.91737">
        <ele>495.2</ele>
        <time>2021-08-17T13:00:14Z</time>
      </trkpt>
      <trkpt lat="47.13649" lon="5.91761">
        <ele>495</ele>
        <time>2021-08-17T13:00:20Z</time>
      </trkpt>
      <trkpt lat="47.13659" lon="5.91773">
        <ele>494.8</ele>
        <time>2021-08-17T13:00:22Z</time>
      </trkpt>
      <trkpt lat="47.13666" lon="5.91783">
        <ele>494.2</ele>
        <time>2021-08-17T13:00:24Z</time>
      </trkpt>
      <trkpt lat="47.13669" lon="5.91789">
        <ele>494</ele>
        <time>2021-08-17T13:00:25Z</time>
      </trkpt>
      <trkpt lat="47.13695" lon="5.91821">
        <ele>493</ele>
        <time>2021-08-17T13:00:31Z</time>
      </trkpt>
      <trkpt lat="47.13698" lon="5.91825">
        <ele>492.8</ele>
        <time>2021-08-17T13:00:32Z</time>
      </trkpt>
      <trkpt lat="47.13702" lon="5.9183">
        <ele>492.8</ele>
        <time>2021-08-17T13:00:33Z</time>
      </trkpt>
      <trkpt lat="47.13707" lon="5.91834">
        <ele>492.6</ele>
        <time>2021-08-17T13:00:34Z</time>
      </trkpt>
      <trkpt lat="47.1371" lon="5.91838">
        <ele>492.4</ele>
        <time>2021-08-17T13:00:35Z</time>
      </trkpt>
      <trkpt lat="47.13713" lon="5.91842">
        <ele>492.4</ele>
        <time>2021-08-17T13:00:36Z</time>
      </trkpt>
      <trkpt lat="47.13717" lon="5.91847">
        <ele>492</ele>
        <time>2021-08-17T13:00:37Z</time>
      </trkpt>
      <trkpt lat="47.1372" lon="5.91851">
        <ele>491.8</ele>
        <time>2021-08-17T13:00:38Z</time>
      </trkpt>
      <trkpt lat="47.13722" lon="5.91855">
        <ele>491.8</ele>
        <time>2021-08-17T13:00:39Z</time>
      </trkpt>
      <trkpt lat="47.13725" lon="5.91858">
        <ele>491.4</ele>
        <time>2021-08-17T13:00:40Z</time>
      </trkpt>
      <trkpt lat="47.13729" lon="5.91861">
        <ele>491.4</ele>
        <time>2021-08-17T13:00:41Z</time>
      </trkpt>
      <trkpt lat="47.13732" lon="5.91863">
        <ele>491.2</ele>
        <time>2021-08-17T13:00:42Z</time>
      </trkpt>
      <trkpt lat="47.13735" lon="5.91865">
        <ele>491.2</ele>
        <time>2021-08-17T13:00:43Z</time>
      </trkpt>
      <trkpt lat="47.13738" lon="5.91866">
        <ele>491.2</ele>
        <time>2021-08-17T13:00:44Z</time>
      </trkpt>
      <trkpt lat="47.13741" lon="5.91868">
        <ele>491.2</ele>
        <time>2021-08-17T13:00:45Z</time>
      </trkpt>
      <trkpt lat="47.13743" lon="5.9187">
        <ele>491.2</ele>
        <time>2021-08-17T13:00:46Z</time>
      </trkpt>
      <trkpt lat="47.13745" lon="5.91872">
        <ele>491.2</ele>
        <time>2021-08-17T13:00:47Z</time>
      </trkpt>
      <trkpt lat="47.1375" lon="5.91878">
        <ele>491.2</ele>
        <time>2021-08-17T13:00:49Z</time>
      </trkpt>
      <trkpt lat="47.13753" lon="5.9188">
        <ele>491.2</ele>
        <time>2021-08-17T13:00:50Z</time>
      </trkpt>
      <trkpt lat="47.13755" lon="5.91883">
        <ele>491.4</ele>
        <time>2021-08-17T13:00:51Z</time>
      </trkpt>
      <trkpt lat="47.13758" lon="5.91887">
        <ele>491.4</ele>
        <time>2021-08-17T13:00:52Z</time>
      </trkpt>
      <trkpt lat="47.13779" lon="5.91905">
        <ele>492</ele>
        <time>2021-08-17T13:00:58Z</time>
      </trkpt>
      <trkpt lat="47.13794" lon="5.91923">
        <ele>492.2</ele>
        <time>2021-08-17T13:01:03Z</time>
      </trkpt>
      <trkpt lat="47.13806" lon="5.91944">
        <ele>492.2</ele>
        <time>2021-08-17T13:01:07Z</time>
      </trkpt>
      <trkpt lat="47.13825" lon="5.91969">
        <ele>491.6</ele>
        <time>2021-08-17T13:01:12Z</time>
      </trkpt>
      <trkpt lat="47.13827" lon="5.91972">
        <ele>491.4</ele>
        <time>2021-08-17T13:01:13Z</time>
      </trkpt>
      <trkpt lat="47.13829" lon="5.91974">
        <ele>491.2</ele>
        <time>2021-08-17T13:01:14Z</time>
      </trkpt>
      <trkpt lat="47.13831" lon="5.91976">
        <ele>491</ele>
        <time>2021-08-17T13:01:15Z</time>
      </trkpt>
      <trkpt lat="47.13832" lon="5.91979">
        <ele>491</ele>
        <time>2021-08-17T13:01:16Z</time>
      </trkpt>
      <trkpt lat="47.13834" lon="5.91981">
        <ele>490.8</ele>
        <time>2021-08-17T13:01:17Z</time>
      </trkpt>
      <trkpt lat="47.13836" lon="5.91985">
        <ele>490.8</ele>
        <time>2021-08-17T13:01:18Z</time>
      </trkpt>
      <trkpt lat="47.13839" lon="5.91988">
        <ele>490.6</ele>
        <time>2021-08-17T13:01:19Z</time>
      </trkpt>
      <trkpt lat="47.13841" lon="5.91992">
        <ele>490.6</ele>
        <time>2021-08-17T13:01:20Z</time>
      </trkpt>
      <trkpt lat="47.13851" lon="5.92009">
        <ele>490.4</ele>
        <time>2021-08-17T13:01:24Z</time>
      </trkpt>
      <trkpt lat="47.13865" lon="5.92026">
        <ele>490.2</ele>
        <time>2021-08-17T13:01:27Z</time>
      </trkpt>
      <trkpt lat="47.13872" lon="5.92034">
        <ele>490</ele>
        <time>2021-08-17T13:01:29Z</time>
      </trkpt>
      <trkpt lat="47.13876" lon="5.92038">
        <ele>489.8</ele>
        <time>2021-08-17T13:01:30Z</time>
      </trkpt>
      <trkpt lat="47.13885" lon="5.92048">
        <ele>489.6</ele>
        <time>2021-08-17T13:01:32Z</time>
      </trkpt>
      <trkpt lat="47.13893" lon="5.92056">
        <ele>489.4</ele>
        <time>2021-08-17T13:01:34Z</time>
      </trkpt>
      <trkpt lat="47.13899" lon="5.92065">
        <ele>489.4</ele>
        <time>2021-08-17T13:01:36Z</time>
      </trkpt>
      <trkpt lat="47.13902" lon="5.9207">
        <ele>489.4</ele>
        <time>2021-08-17T13:01:37Z</time>
      </trkpt>
      <trkpt lat="47.13905" lon="5.92074">
        <ele>489.4</ele>
        <time>2021-08-17T13:01:38Z</time>
      </trkpt>
      <trkpt lat="47.13908" lon="5.92078">
        <ele>489.4</ele>
        <time>2021-08-17T13:01:39Z</time>
      </trkpt>
      <trkpt lat="47.13911" lon="5.92083">
        <ele>489.2</ele>
        <time>2021-08-17T13:01:40Z</time>
      </trkpt>
      <trkpt lat="47.13918" lon="5.92092">
        <ele>489.2</ele>
        <time>2021-08-17T13:01:42Z</time>
      </trkpt>
      <trkpt lat="47.13921" lon="5.92098">
        <ele>489</ele>
        <time>2021-08-17T13:01:43Z</time>
      </trkpt>
      <trkpt lat="47.13928" lon="5.92109">
        <ele>488.8</ele>
        <time>2021-08-17T13:01:45Z</time>
      </trkpt>
      <trkpt lat="47.13936" lon="5.92121">
        <ele>488.8</ele>
        <time>2021-08-17T13:01:47Z</time>
      </trkpt>
      <trkpt lat="47.13939" lon="5.92126">
        <ele>488.6</ele>
        <time>2021-08-17T13:01:48Z</time>
      </trkpt>
      <trkpt lat="47.13944" lon="5.92131">
        <ele>488.4</ele>
        <time>2021-08-17T13:01:49Z</time>
      </trkpt>
      <trkpt lat="47.13951" lon="5.92142">
        <ele>488</ele>
        <time>2021-08-17T13:01:51Z</time>
      </trkpt>
      <trkpt lat="47.1396" lon="5.92155">
        <ele>487.6</ele>
        <time>2021-08-17T13:01:53Z</time>
      </trkpt>
      <trkpt lat="47.13967" lon="5.92167">
        <ele>487.2</ele>
        <time>2021-08-17T13:01:55Z</time>
      </trkpt>
      <trkpt lat="47.1397" lon="5.92172">
        <ele>486.8</ele>
        <time>2021-08-17T13:01:56Z</time>
      </trkpt>
      <trkpt lat="47.13975" lon="5.92178">
        <ele>486.4</ele>
        <time>2021-08-17T13:01:57Z</time>
      </trkpt>
      <trkpt lat="47.1398" lon="5.92185">
        <ele>486.2</ele>
        <time>2021-08-17T13:01:58Z</time>
      </trkpt>
      <trkpt lat="47.13985" lon="5.92192">
        <ele>485.6</ele>
        <time>2021-08-17T13:01:59Z</time>
      </trkpt>
      <trkpt lat="47.14001" lon="5.92214">
        <ele>484.8</ele>
        <time>2021-08-17T13:02:02Z</time>
      </trkpt>
      <trkpt lat="47.14005" lon="5.92219">
        <ele>484.6</ele>
        <time>2021-08-17T13:02:03Z</time>
      </trkpt>
      <trkpt lat="47.1401" lon="5.92225">
        <ele>484.4</ele>
        <time>2021-08-17T13:02:04Z</time>
      </trkpt>
      <trkpt lat="47.14015" lon="5.92231">
        <ele>484.2</ele>
        <time>2021-08-17T13:02:05Z</time>
      </trkpt>
      <trkpt lat="47.14019" lon="5.92238">
        <ele>484</ele>
        <time>2021-08-17T13:02:06Z</time>
      </trkpt>
      <trkpt lat="47.14024" lon="5.92245">
        <ele>483.8</ele>
        <time>2021-08-17T13:02:07Z</time>
      </trkpt>
      <trkpt lat="47.14029" lon="5.92251">
        <ele>483.6</ele>
        <time>2021-08-17T13:02:08Z</time>
      </trkpt>
      <trkpt lat="47.1404" lon="5.9227">
        <ele>483.4</ele>
        <time>2021-08-17T13:02:11Z</time>
      </trkpt>
      <trkpt lat="47.14043" lon="5.92277">
        <ele>483.4</ele>
        <time>2021-08-17T13:02:12Z</time>
      </trkpt>
      <trkpt lat="47.14048" lon="5.92292">
        <ele>483.4</ele>
        <time>2021-08-17T13:02:14Z</time>
      </trkpt>
      <trkpt lat="47.14052" lon="5.923">
        <ele>483.4</ele>
        <time>2021-08-17T13:02:15Z</time>
      </trkpt>
      <trkpt lat="47.14058" lon="5.92315">
        <ele>482.8</ele>
        <time>2021-08-17T13:02:17Z</time>
      </trkpt>
      <trkpt lat="47.14063" lon="5.92331">
        <ele>482.2</ele>
        <time>2021-08-17T13:02:19Z</time>
      </trkpt>
      <trkpt lat="47.14066" lon="5.92338">
        <ele>482</ele>
        <time>2021-08-17T13:02:20Z</time>
      </trkpt>
      <trkpt lat="47.14069" lon="5.92346">
        <ele>480.8</ele>
        <time>2021-08-17T13:02:21Z</time>
      </trkpt>
      <trkpt lat="47.14072" lon="5.92353">
        <ele>479.8</ele>
        <time>2021-08-17T13:02:22Z</time>
      </trkpt>
      <trkpt lat="47.14075" lon="5.92359">
        <ele>479.4</ele>
        <time>2021-08-17T13:02:23Z</time>
      </trkpt>
      <trkpt lat="47.14079" lon="5.92365">
        <ele>479</ele>
        <time>2021-08-17T13:02:24Z</time>
      </trkpt>
      <trkpt lat="47.14082" lon="5.92371">
        <ele>478.6</ele>
        <time>2021-08-17T13:02:25Z</time>
      </trkpt>
      <trkpt lat="47.14085" lon="5.92376">
        <ele>478.2</ele>
        <time>2021-08-17T13:02:26Z</time>
      </trkpt>
      <trkpt lat="47.14087" lon="5.9238">
        <ele>477.8</ele>
        <time>2021-08-17T13:02:27Z</time>
      </trkpt>
      <trkpt lat="47.1409" lon="5.92383">
        <ele>477.2</ele>
        <time>2021-08-17T13:02:28Z</time>
      </trkpt>
      <trkpt lat="47.14093" lon="5.92386">
        <ele>477</ele>
        <time>2021-08-17T13:02:29Z</time>
      </trkpt>
      <trkpt lat="47.14096" lon="5.92388">
        <ele>476.8</ele>
        <time>2021-08-17T13:02:30Z</time>
      </trkpt>
      <trkpt lat="47.14099" lon="5.9239">
        <ele>476.8</ele>
        <time>2021-08-17T13:02:31Z</time>
      </trkpt>
      <trkpt lat="47.14101" lon="5.92393">
        <ele>476.8</ele>
        <time>2021-08-17T13:02:32Z</time>
      </trkpt>
      <trkpt lat="47.14104" lon="5.92397">
        <ele>476.6</ele>
        <time>2021-08-17T13:02:33Z</time>
      </trkpt>
      <trkpt lat="47.1411" lon="5.92404">
        <ele>476.8</ele>
        <time>2021-08-17T13:02:35Z</time>
      </trkpt>
      <trkpt lat="47.14126" lon="5.92428">
        <ele>477.2</ele>
        <time>2021-08-17T13:02:40Z</time>
      </trkpt>
      <trkpt lat="47.14131" lon="5.92438">
        <ele>477.4</ele>
        <time>2021-08-17T13:02:42Z</time>
      </trkpt>
      <trkpt lat="47.14133" lon="5.92442">
        <ele>477.6</ele>
        <time>2021-08-17T13:02:43Z</time>
      </trkpt>
      <trkpt lat="47.14141" lon="5.92449">
        <ele>477.6</ele>
        <time>2021-08-17T13:02:45Z</time>
      </trkpt>
      <trkpt lat="47.14161" lon="5.92468">
        <ele>478</ele>
        <time>2021-08-17T13:02:51Z</time>
      </trkpt>
      <trkpt lat="47.14162" lon="5.92471">
        <ele>478</ele>
        <time>2021-08-17T13:02:52Z</time>
      </trkpt>
      <trkpt lat="47.14165" lon="5.92474">
        <ele>478.4</ele>
        <time>2021-08-17T13:02:53Z</time>
      </trkpt>
      <trkpt lat="47.1417" lon="5.92478">
        <ele>478.4</ele>
        <time>2021-08-17T13:02:54Z</time>
      </trkpt>
      <trkpt lat="47.14171" lon="5.92481">
        <ele>478.6</ele>
        <time>2021-08-17T13:02:55Z</time>
      </trkpt>
      <trkpt lat="47.14171" lon="5.92483">
        <ele>478.8</ele>
        <time>2021-08-17T13:02:56Z</time>
      </trkpt>
      <trkpt lat="47.14171" lon="5.92485">
        <ele>478.8</ele>
        <time>2021-08-17T13:02:57Z</time>
      </trkpt>
      <trkpt lat="47.14174" lon="5.92489">
        <ele>479</ele>
        <time>2021-08-17T13:02:58Z</time>
      </trkpt>
      <trkpt lat="47.14177" lon="5.92493">
        <ele>479</ele>
        <time>2021-08-17T13:02:59Z</time>
      </trkpt>
      <trkpt lat="47.1418" lon="5.92495">
        <ele>479</ele>
        <time>2021-08-17T13:03:00Z</time>
      </trkpt>
      <trkpt lat="47.14186" lon="5.92501">
        <ele>479</ele>
        <time>2021-08-17T13:03:02Z</time>
      </trkpt>
      <trkpt lat="47.14188" lon="5.92504">
        <ele>479</ele>
        <time>2021-08-17T13:03:03Z</time>
      </trkpt>
      <trkpt lat="47.14195" lon="5.9251">
        <ele>479.2</ele>
        <time>2021-08-17T13:03:05Z</time>
      </trkpt>
      <trkpt lat="47.14199" lon="5.92516">
        <ele>479</ele>
        <time>2021-08-17T13:03:07Z</time>
      </trkpt>
      <trkpt lat="47.14202" lon="5.9252">
        <ele>479</ele>
        <time>2021-08-17T13:03:08Z</time>
      </trkpt>
      <trkpt lat="47.14205" lon="5.92526">
        <ele>478.8</ele>
        <time>2021-08-17T13:03:09Z</time>
      </trkpt>
      <trkpt lat="47.14208" lon="5.92531">
        <ele>478.8</ele>
        <time>2021-08-17T13:03:10Z</time>
      </trkpt>
      <trkpt lat="47.14224" lon="5.92561">
        <ele>478.2</ele>
        <time>2021-08-17T13:03:15Z</time>
      </trkpt>
      <trkpt lat="47.14227" lon="5.92567">
        <ele>478</ele>
        <time>2021-08-17T13:03:16Z</time>
      </trkpt>
      <trkpt lat="47.14232" lon="5.92579">
        <ele>477.6</ele>
        <time>2021-08-17T13:03:18Z</time>
      </trkpt>
      <trkpt lat="47.14237" lon="5.92586">
        <ele>477.4</ele>
        <time>2021-08-17T13:03:19Z</time>
      </trkpt>
      <trkpt lat="47.14241" lon="5.92593">
        <ele>477</ele>
        <time>2021-08-17T13:03:20Z</time>
      </trkpt>
      <trkpt lat="47.14245" lon="5.92599">
        <ele>476.6</ele>
        <time>2021-08-17T13:03:21Z</time>
      </trkpt>
      <trkpt lat="47.1425" lon="5.92607">
        <ele>476.2</ele>
        <time>2021-08-17T13:03:22Z</time>
      </trkpt>
      <trkpt lat="47.14254" lon="5.92614">
        <ele>475.8</ele>
        <time>2021-08-17T13:03:23Z</time>
      </trkpt>
      <trkpt lat="47.14264" lon="5.92628">
        <ele>474.6</ele>
        <time>2021-08-17T13:03:25Z</time>
      </trkpt>
      <trkpt lat="47.14269" lon="5.92634">
        <ele>474.2</ele>
        <time>2021-08-17T13:03:26Z</time>
      </trkpt>
      <trkpt lat="47.14273" lon="5.9264">
        <ele>473.2</ele>
        <time>2021-08-17T13:03:27Z</time>
      </trkpt>
      <trkpt lat="47.14284" lon="5.92655">
        <ele>472</ele>
        <time>2021-08-17T13:03:29Z</time>
      </trkpt>
      <trkpt lat="47.14299" lon="5.92674">
        <ele>471</ele>
        <time>2021-08-17T13:03:32Z</time>
      </trkpt>
      <trkpt lat="47.14313" lon="5.92692">
        <ele>470.6</ele>
        <time>2021-08-17T13:03:34Z</time>
      </trkpt>
      <trkpt lat="47.14316" lon="5.92706">
        <ele>470</ele>
        <time>2021-08-17T13:03:36Z</time>
      </trkpt>
      <trkpt lat="47.14317" lon="5.92713">
        <ele>469.8</ele>
        <time>2021-08-17T13:03:37Z</time>
      </trkpt>
      <trkpt lat="47.14319" lon="5.92721">
        <ele>469</ele>
        <time>2021-08-17T13:03:38Z</time>
      </trkpt>
      <trkpt lat="47.14321" lon="5.92728">
        <ele>468.8</ele>
        <time>2021-08-17T13:03:39Z</time>
      </trkpt>
      <trkpt lat="47.14323" lon="5.92733">
        <ele>468.4</ele>
        <time>2021-08-17T13:03:40Z</time>
      </trkpt>
      <trkpt lat="47.14324" lon="5.9274">
        <ele>467.2</ele>
        <time>2021-08-17T13:03:41Z</time>
      </trkpt>
      <trkpt lat="47.14326" lon="5.92747">
        <ele>466.4</ele>
        <time>2021-08-17T13:03:42Z</time>
      </trkpt>
      <trkpt lat="47.14327" lon="5.92753">
        <ele>465.2</ele>
        <time>2021-08-17T13:03:43Z</time>
      </trkpt>
      <trkpt lat="47.14332" lon="5.9276">
        <ele>464.6</ele>
        <time>2021-08-17T13:03:44Z</time>
      </trkpt>
      <trkpt lat="47.14334" lon="5.92765">
        <ele>463.8</ele>
        <time>2021-08-17T13:03:45Z</time>
      </trkpt>
      <trkpt lat="47.14337" lon="5.92771">
        <ele>463.6</ele>
        <time>2021-08-17T13:03:46Z</time>
      </trkpt>
      <trkpt lat="47.1434" lon="5.92777">
        <ele>462.6</ele>
        <time>2021-08-17T13:03:47Z</time>
      </trkpt>
      <trkpt lat="47.14344" lon="5.92782">
        <ele>462.6</ele>
        <time>2021-08-17T13:03:48Z</time>
      </trkpt>
      <trkpt lat="47.14347" lon="5.92787">
        <ele>461.8</ele>
        <time>2021-08-17T13:03:49Z</time>
      </trkpt>
      <trkpt lat="47.14351" lon="5.9279">
        <ele>460.4</ele>
        <time>2021-08-17T13:03:50Z</time>
      </trkpt>
      <trkpt lat="47.14364" lon="5.92799">
        <ele>458.6</ele>
        <time>2021-08-17T13:03:52Z</time>
      </trkpt>
      <trkpt lat="47.14375" lon="5.92804">
        <ele>457.6</ele>
        <time>2021-08-17T13:03:54Z</time>
      </trkpt>
      <trkpt lat="47.14377" lon="5.92804">
        <ele>457.4</ele>
        <time>2021-08-17T13:03:55Z</time>
      </trkpt>
      <trkpt lat="47.1438" lon="5.92805">
        <ele>457.2</ele>
        <time>2021-08-17T13:03:56Z</time>
      </trkpt>
      <trkpt lat="47.14385" lon="5.92806">
        <ele>457</ele>
        <time>2021-08-17T13:03:57Z</time>
      </trkpt>
      <trkpt lat="47.1439" lon="5.92808">
        <ele>456.8</ele>
        <time>2021-08-17T13:03:58Z</time>
      </trkpt>
      <trkpt lat="47.14398" lon="5.9281">
        <ele>456.6</ele>
        <time>2021-08-17T13:04:00Z</time>
      </trkpt>
      <trkpt lat="47.144" lon="5.92812">
        <ele>456.4</ele>
        <time>2021-08-17T13:04:01Z</time>
      </trkpt>
      <trkpt lat="47.14403" lon="5.92815">
        <ele>456.2</ele>
        <time>2021-08-17T13:04:02Z</time>
      </trkpt>
      <trkpt lat="47.14405" lon="5.92818">
        <ele>456.2</ele>
        <time>2021-08-17T13:04:03Z</time>
      </trkpt>
      <trkpt lat="47.14408" lon="5.92821">
        <ele>456.2</ele>
        <time>2021-08-17T13:04:04Z</time>
      </trkpt>
      <trkpt lat="47.1441" lon="5.92822">
        <ele>456</ele>
        <time>2021-08-17T13:04:05Z</time>
      </trkpt>
      <trkpt lat="47.14413" lon="5.92825">
        <ele>456</ele>
        <time>2021-08-17T13:04:06Z</time>
      </trkpt>
      <trkpt lat="47.14415" lon="5.92828">
        <ele>456</ele>
        <time>2021-08-17T13:04:07Z</time>
      </trkpt>
      <trkpt lat="47.14417" lon="5.9283">
        <ele>456</ele>
        <time>2021-08-17T13:04:08Z</time>
      </trkpt>
      <trkpt lat="47.1442" lon="5.92832">
        <ele>456</ele>
        <time>2021-08-17T13:04:09Z</time>
      </trkpt>
      <trkpt lat="47.14422" lon="5.92834">
        <ele>456</ele>
        <time>2021-08-17T13:04:10Z</time>
      </trkpt>
      <trkpt lat="47.14425" lon="5.92837">
        <ele>456.2</ele>
        <time>2021-08-17T13:04:11Z</time>
      </trkpt>
      <trkpt lat="47.14428" lon="5.9284">
        <ele>456.2</ele>
        <time>2021-08-17T13:04:12Z</time>
      </trkpt>
      <trkpt lat="47.14436" lon="5.92848">
        <ele>456.4</ele>
        <time>2021-08-17T13:04:15Z</time>
      </trkpt>
      <trkpt lat="47.14439" lon="5.92851">
        <ele>456.4</ele>
        <time>2021-08-17T13:04:16Z</time>
      </trkpt>
      <trkpt lat="47.14442" lon="5.92854">
        <ele>456.4</ele>
        <time>2021-08-17T13:04:17Z</time>
      </trkpt>
      <trkpt lat="47.14464" lon="5.92873">
        <ele>456.2</ele>
        <time>2021-08-17T13:04:23Z</time>
      </trkpt>
      <trkpt lat="47.14479" lon="5.92881">
        <ele>456.2</ele>
        <time>2021-08-17T13:04:27Z</time>
      </trkpt>
      <trkpt lat="47.14481" lon="5.92882">
        <ele>456.2</ele>
        <time>2021-08-17T13:04:28Z</time>
      </trkpt>
      <trkpt lat="47.14483" lon="5.92883">
        <ele>456.2</ele>
        <time>2021-08-17T13:04:29Z</time>
      </trkpt>
      <trkpt lat="47.14488" lon="5.92888">
        <ele>456</ele>
        <time>2021-08-17T13:04:30Z</time>
      </trkpt>
      <trkpt lat="47.14493" lon="5.92894">
        <ele>456</ele>
        <time>2021-08-17T13:04:31Z</time>
      </trkpt>
      <trkpt lat="47.14499" lon="5.92901">
        <ele>455.8</ele>
        <time>2021-08-17T13:04:32Z</time>
      </trkpt>
      <trkpt lat="47.1451" lon="5.9292">
        <ele>455.4</ele>
        <time>2021-08-17T13:04:35Z</time>
      </trkpt>
      <trkpt lat="47.14515" lon="5.92926">
        <ele>455.2</ele>
        <time>2021-08-17T13:04:36Z</time>
      </trkpt>
      <trkpt lat="47.14519" lon="5.92931">
        <ele>454.8</ele>
        <time>2021-08-17T13:04:37Z</time>
      </trkpt>
      <trkpt lat="47.14536" lon="5.92953">
        <ele>454.4</ele>
        <time>2021-08-17T13:04:41Z</time>
      </trkpt>
      <trkpt lat="47.14543" lon="5.92963">
        <ele>454.2</ele>
        <time>2021-08-17T13:04:43Z</time>
      </trkpt>
      <trkpt lat="47.14546" lon="5.92967">
        <ele>454</ele>
        <time>2021-08-17T13:04:44Z</time>
      </trkpt>
      <trkpt lat="47.14549" lon="5.9297">
        <ele>453.8</ele>
        <time>2021-08-17T13:04:45Z</time>
      </trkpt>
      <trkpt lat="47.14553" lon="5.92973">
        <ele>453.8</ele>
        <time>2021-08-17T13:04:46Z</time>
      </trkpt>
      <trkpt lat="47.14556" lon="5.92977">
        <ele>453.8</ele>
        <time>2021-08-17T13:04:47Z</time>
      </trkpt>
      <trkpt lat="47.14559" lon="5.9298">
        <ele>453.6</ele>
        <time>2021-08-17T13:04:48Z</time>
      </trkpt>
      <trkpt lat="47.14562" lon="5.92984">
        <ele>453.6</ele>
        <time>2021-08-17T13:04:49Z</time>
      </trkpt>
      <trkpt lat="47.14586" lon="5.93014">
        <ele>453.8</ele>
        <time>2021-08-17T13:04:56Z</time>
      </trkpt>
      <trkpt lat="47.14589" lon="5.93017">
        <ele>453.6</ele>
        <time>2021-08-17T13:04:57Z</time>
      </trkpt>
      <trkpt lat="47.14591" lon="5.93019">
        <ele>453.6</ele>
        <time>2021-08-17T13:04:58Z</time>
      </trkpt>
      <trkpt lat="47.14594" lon="5.93022">
        <ele>453.6</ele>
        <time>2021-08-17T13:04:59Z</time>
      </trkpt>
      <trkpt lat="47.14598" lon="5.93025">
        <ele>453.6</ele>
        <time>2021-08-17T13:05:00Z</time>
      </trkpt>
      <trkpt lat="47.14601" lon="5.93028">
        <ele>453.8</ele>
        <time>2021-08-17T13:05:01Z</time>
      </trkpt>
      <trkpt lat="47.14604" lon="5.9303">
        <ele>453.8</ele>
        <time>2021-08-17T13:05:02Z</time>
      </trkpt>
      <trkpt lat="47.14612" lon="5.93037">
        <ele>454</ele>
        <time>2021-08-17T13:05:05Z</time>
      </trkpt>
      <trkpt lat="47.14614" lon="5.93038">
        <ele>454</ele>
        <time>2021-08-17T13:05:06Z</time>
      </trkpt>
      <trkpt lat="47.14616" lon="5.9304">
        <ele>454.2</ele>
        <time>2021-08-17T13:05:07Z</time>
      </trkpt>
      <trkpt lat="47.14619" lon="5.93043">
        <ele>454.4</ele>
        <time>2021-08-17T13:05:08Z</time>
      </trkpt>
      <trkpt lat="47.14631" lon="5.93057">
        <ele>455.2</ele>
        <time>2021-08-17T13:05:12Z</time>
      </trkpt>
      <trkpt lat="47.14634" lon="5.9306">
        <ele>455.4</ele>
        <time>2021-08-17T13:05:13Z</time>
      </trkpt>
      <trkpt lat="47.14636" lon="5.93064">
        <ele>455.4</ele>
        <time>2021-08-17T13:05:14Z</time>
      </trkpt>
      <trkpt lat="47.14658" lon="5.93086">
        <ele>455.6</ele>
        <time>2021-08-17T13:05:19Z</time>
      </trkpt>
      <trkpt lat="47.14663" lon="5.93091">
        <ele>455.8</ele>
        <time>2021-08-17T13:05:21Z</time>
      </trkpt>
      <trkpt lat="47.14666" lon="5.93094">
        <ele>456</ele>
        <time>2021-08-17T13:05:22Z</time>
      </trkpt>
      <trkpt lat="47.1467" lon="5.93097">
        <ele>456</ele>
        <time>2021-08-17T13:05:23Z</time>
      </trkpt>
      <trkpt lat="47.14673" lon="5.93101">
        <ele>456.2</ele>
        <time>2021-08-17T13:05:24Z</time>
      </trkpt>
      <trkpt lat="47.14677" lon="5.93104">
        <ele>456.2</ele>
        <time>2021-08-17T13:05:25Z</time>
      </trkpt>
      <trkpt lat="47.14686" lon="5.93113">
        <ele>456.4</ele>
        <time>2021-08-17T13:05:29Z</time>
      </trkpt>
      <trkpt lat="47.14693" lon="5.93121">
        <ele>456.4</ele>
        <time>2021-08-17T13:05:30Z</time>
      </trkpt>
      <trkpt lat="47.14697" lon="5.93126">
        <ele>456.4</ele>
        <time>2021-08-17T13:05:31Z</time>
      </trkpt>
      <trkpt lat="47.14701" lon="5.9313">
        <ele>456.4</ele>
        <time>2021-08-17T13:05:32Z</time>
      </trkpt>
      <trkpt lat="47.14712" lon="5.9314">
        <ele>456.6</ele>
        <time>2021-08-17T13:05:35Z</time>
      </trkpt>
      <trkpt lat="47.14714" lon="5.93143">
        <ele>456.8</ele>
        <time>2021-08-17T13:05:36Z</time>
      </trkpt>
      <trkpt lat="47.14719" lon="5.93148">
        <ele>456.8</ele>
        <time>2021-08-17T13:05:38Z</time>
      </trkpt>
      <trkpt lat="47.14723" lon="5.93152">
        <ele>456.8</ele>
        <time>2021-08-17T13:05:39Z</time>
      </trkpt>
      <trkpt lat="47.14725" lon="5.93154">
        <ele>456.8</ele>
        <time>2021-08-17T13:05:40Z</time>
      </trkpt>
      <trkpt lat="47.14727" lon="5.93155">
        <ele>456.8</ele>
        <time>2021-08-17T13:05:41Z</time>
      </trkpt>
      <trkpt lat="47.14739" lon="5.93162">
        <ele>457.2</ele>
        <time>2021-08-17T13:05:45Z</time>
      </trkpt>
      <trkpt lat="47.1474" lon="5.93163">
        <ele>457.4</ele>
        <time>2021-08-17T13:05:46Z</time>
      </trkpt>
      <trkpt lat="47.14742" lon="5.93166">
        <ele>457.4</ele>
        <time>2021-08-17T13:05:47Z</time>
      </trkpt>
      <trkpt lat="47.14745" lon="5.93172">
        <ele>457.6</ele>
        <time>2021-08-17T13:05:49Z</time>
      </trkpt>
      <trkpt lat="47.14747" lon="5.93175">
        <ele>457.8</ele>
        <time>2021-08-17T13:05:50Z</time>
      </trkpt>
      <trkpt lat="47.14749" lon="5.93181">
        <ele>457.8</ele>
        <time>2021-08-17T13:05:52Z</time>
      </trkpt>
      <trkpt lat="47.14756" lon="5.93193">
        <ele>457.8</ele>
        <time>2021-08-17T13:05:53Z</time>
      </trkpt>
      <trkpt lat="47.14761" lon="5.932">
        <ele>457.8</ele>
        <time>2021-08-17T13:05:54Z</time>
      </trkpt>
      <trkpt lat="47.14766" lon="5.93207">
        <ele>457.6</ele>
        <time>2021-08-17T13:05:55Z</time>
      </trkpt>
      <trkpt lat="47.14782" lon="5.93227">
        <ele>455.8</ele>
        <time>2021-08-17T13:05:58Z</time>
      </trkpt>
      <trkpt lat="47.14788" lon="5.93234">
        <ele>455.4</ele>
        <time>2021-08-17T13:05:59Z</time>
      </trkpt>
      <trkpt lat="47.14793" lon="5.93239">
        <ele>454.4</ele>
        <time>2021-08-17T13:06:00Z</time>
      </trkpt>
      <trkpt lat="47.14799" lon="5.93245">
        <ele>454.2</ele>
        <time>2021-08-17T13:06:01Z</time>
      </trkpt>
      <trkpt lat="47.14805" lon="5.9325">
        <ele>453.4</ele>
        <time>2021-08-17T13:06:02Z</time>
      </trkpt>
      <trkpt lat="47.1481" lon="5.93256">
        <ele>453.2</ele>
        <time>2021-08-17T13:06:03Z</time>
      </trkpt>
      <trkpt lat="47.14816" lon="5.93262">
        <ele>453</ele>
        <time>2021-08-17T13:06:04Z</time>
      </trkpt>
      <trkpt lat="47.14821" lon="5.93268">
        <ele>453</ele>
        <time>2021-08-17T13:06:05Z</time>
      </trkpt>
      <trkpt lat="47.14825" lon="5.93273">
        <ele>452.8</ele>
        <time>2021-08-17T13:06:06Z</time>
      </trkpt>
      <trkpt lat="47.14829" lon="5.93279">
        <ele>452.6</ele>
        <time>2021-08-17T13:06:07Z</time>
      </trkpt>
      <trkpt lat="47.14839" lon="5.93289">
        <ele>452.4</ele>
        <time>2021-08-17T13:06:09Z</time>
      </trkpt>
      <trkpt lat="47.14843" lon="5.93293">
        <ele>452.2</ele>
        <time>2021-08-17T13:06:10Z</time>
      </trkpt>
      <trkpt lat="47.14847" lon="5.93295">
        <ele>451.8</ele>
        <time>2021-08-17T13:06:11Z</time>
      </trkpt>
      <trkpt lat="47.1485" lon="5.93296">
        <ele>451.6</ele>
        <time>2021-08-17T13:06:12Z</time>
      </trkpt>
      <trkpt lat="47.14853" lon="5.93296">
        <ele>451.6</ele>
        <time>2021-08-17T13:06:13Z</time>
      </trkpt>
      <trkpt lat="47.14856" lon="5.93295">
        <ele>451.6</ele>
        <time>2021-08-17T13:06:14Z</time>
      </trkpt>
      <trkpt lat="47.14856" lon="5.93294">
        <ele>451.8</ele>
        <time>2021-08-17T13:06:15Z</time>
      </trkpt>
      <trkpt lat="47.14856" lon="5.93293">
        <ele>452</ele>
        <time>2021-08-17T13:06:16Z</time>
      </trkpt>
      <trkpt lat="47.14858" lon="5.93293">
        <ele>453.2</ele>
        <time>2021-08-17T13:06:20Z</time>
      </trkpt>
      <trkpt lat="47.14867" lon="5.93298">
        <ele>454.2</ele>
        <time>2021-08-17T13:06:25Z</time>
      </trkpt>
      <trkpt lat="47.14872" lon="5.933">
        <ele>454.8</ele>
        <time>2021-08-17T13:06:30Z</time>
      </trkpt>
      <trkpt lat="47.14872" lon="5.93299">
        <ele>455</ele>
        <time>2021-08-17T13:06:31Z</time>
      </trkpt>
      <trkpt lat="47.14873" lon="5.93299">
        <ele>455</ele>
        <time>2021-08-17T13:06:32Z</time>
      </trkpt>
      <trkpt lat="47.14876" lon="5.933">
        <ele>456</ele>
        <time>2021-08-17T13:06:41Z</time>
      </trkpt>
      <trkpt lat="47.14877" lon="5.93301">
        <ele>456.2</ele>
        <time>2021-08-17T13:06:42Z</time>
      </trkpt>
      <trkpt lat="47.14877" lon="5.93302">
        <ele>456.2</ele>
        <time>2021-08-17T13:06:43Z</time>
      </trkpt>
      <trkpt lat="47.14879" lon="5.93303">
        <ele>456.2</ele>
        <time>2021-08-17T13:06:44Z</time>
      </trkpt>
      <trkpt lat="47.1488" lon="5.93304">
        <ele>456.2</ele>
        <time>2021-08-17T13:06:45Z</time>
      </trkpt>
      <trkpt lat="47.14881" lon="5.93304">
        <ele>456.2</ele>
        <time>2021-08-17T13:06:46Z</time>
      </trkpt>
      <trkpt lat="47.14882" lon="5.93305">
        <ele>456.2</ele>
        <time>2021-08-17T13:06:47Z</time>
      </trkpt>
      <trkpt lat="47.14883" lon="5.93306">
        <ele>456.2</ele>
        <time>2021-08-17T13:06:48Z</time>
      </trkpt>
      <trkpt lat="47.14884" lon="5.93307">
        <ele>456.2</ele>
        <time>2021-08-17T13:06:49Z</time>
      </trkpt>
      <trkpt lat="47.14886" lon="5.93308">
        <ele>456.4</ele>
        <time>2021-08-17T13:06:50Z</time>
      </trkpt>
      <trkpt lat="47.14888" lon="5.9331">
        <ele>456.6</ele>
        <time>2021-08-17T13:06:51Z</time>
      </trkpt>
      <trkpt lat="47.14896" lon="5.93315">
        <ele>456.8</ele>
        <time>2021-08-17T13:06:55Z</time>
      </trkpt>
      <trkpt lat="47.14897" lon="5.93316">
        <ele>456.8</ele>
        <time>2021-08-17T13:06:56Z</time>
      </trkpt>
      <trkpt lat="47.14899" lon="5.93317">
        <ele>456.8</ele>
        <time>2021-08-17T13:06:57Z</time>
      </trkpt>
      <trkpt lat="47.14903" lon="5.9332">
        <ele>457</ele>
        <time>2021-08-17T13:06:59Z</time>
      </trkpt>
      <trkpt lat="47.14906" lon="5.93321">
        <ele>457</ele>
        <time>2021-08-17T13:07:00Z</time>
      </trkpt>
      <trkpt lat="47.14912" lon="5.93327">
        <ele>457.4</ele>
        <time>2021-08-17T13:07:03Z</time>
      </trkpt>
      <trkpt lat="47.14915" lon="5.93329">
        <ele>457.4</ele>
        <time>2021-08-17T13:07:04Z</time>
      </trkpt>
      <trkpt lat="47.14926" lon="5.93336">
        <ele>457.6</ele>
        <time>2021-08-17T13:07:08Z</time>
      </trkpt>
      <trkpt lat="47.1493" lon="5.93339">
        <ele>457.6</ele>
        <time>2021-08-17T13:07:09Z</time>
      </trkpt>
      <trkpt lat="47.14937" lon="5.93344">
        <ele>458</ele>
        <time>2021-08-17T13:07:11Z</time>
      </trkpt>
      <trkpt lat="47.14939" lon="5.93345">
        <ele>458</ele>
        <time>2021-08-17T13:07:12Z</time>
      </trkpt>
      <trkpt lat="47.14942" lon="5.93348">
        <ele>457.8</ele>
        <time>2021-08-17T13:07:13Z</time>
      </trkpt>
      <trkpt lat="47.14945" lon="5.9335">
        <ele>457.8</ele>
        <time>2021-08-17T13:07:14Z</time>
      </trkpt>
      <trkpt lat="47.14965" lon="5.93369">
        <ele>457.8</ele>
        <time>2021-08-17T13:07:19Z</time>
      </trkpt>
      <trkpt lat="47.14977" lon="5.93378">
        <ele>457.4</ele>
        <time>2021-08-17T13:07:22Z</time>
      </trkpt>
      <trkpt lat="47.14979" lon="5.9338">
        <ele>457.2</ele>
        <time>2021-08-17T13:07:23Z</time>
      </trkpt>
      <trkpt lat="47.14982" lon="5.93383">
        <ele>457</ele>
        <time>2021-08-17T13:07:24Z</time>
      </trkpt>
      <trkpt lat="47.15005" lon="5.93409">
        <ele>456.4</ele>
        <time>2021-08-17T13:07:29Z</time>
      </trkpt>
      <trkpt lat="47.15009" lon="5.93414">
        <ele>456</ele>
        <time>2021-08-17T13:07:30Z</time>
      </trkpt>
      <trkpt lat="47.15019" lon="5.93426">
        <ele>455.4</ele>
        <time>2021-08-17T13:07:33Z</time>
      </trkpt>
      <trkpt lat="47.15025" lon="5.93431">
        <ele>454.6</ele>
        <time>2021-08-17T13:07:34Z</time>
      </trkpt>
      <trkpt lat="47.15032" lon="5.93437">
        <ele>454.2</ele>
        <time>2021-08-17T13:07:35Z</time>
      </trkpt>
      <trkpt lat="47.15048" lon="5.93448">
        <ele>453</ele>
        <time>2021-08-17T13:07:38Z</time>
      </trkpt>
      <trkpt lat="47.15052" lon="5.9345">
        <ele>452.8</ele>
        <time>2021-08-17T13:07:39Z</time>
      </trkpt>
      <trkpt lat="47.15056" lon="5.93453">
        <ele>452.6</ele>
        <time>2021-08-17T13:07:40Z</time>
      </trkpt>
      <trkpt lat="47.15061" lon="5.93459">
        <ele>452.6</ele>
        <time>2021-08-17T13:07:41Z</time>
      </trkpt>
      <trkpt lat="47.15065" lon="5.93461">
        <ele>452.6</ele>
        <time>2021-08-17T13:07:42Z</time>
      </trkpt>
      <trkpt lat="47.15078" lon="5.93471">
        <ele>452.4</ele>
        <time>2021-08-17T13:07:45Z</time>
      </trkpt>
      <trkpt lat="47.15081" lon="5.93474">
        <ele>452.4</ele>
        <time>2021-08-17T13:07:46Z</time>
      </trkpt>
      <trkpt lat="47.15085" lon="5.93477">
        <ele>452.2</ele>
        <time>2021-08-17T13:07:47Z</time>
      </trkpt>
      <trkpt lat="47.15087" lon="5.93479">
        <ele>452.2</ele>
        <time>2021-08-17T13:07:48Z</time>
      </trkpt>
      <trkpt lat="47.1509" lon="5.93481">
        <ele>452.2</ele>
        <time>2021-08-17T13:07:49Z</time>
      </trkpt>
      <trkpt lat="47.15094" lon="5.93482">
        <ele>451.8</ele>
        <time>2021-08-17T13:07:50Z</time>
      </trkpt>
      <trkpt lat="47.15097" lon="5.93483">
        <ele>451.8</ele>
        <time>2021-08-17T13:07:51Z</time>
      </trkpt>
      <trkpt lat="47.15099" lon="5.93483">
        <ele>451.8</ele>
        <time>2021-08-17T13:07:52Z</time>
      </trkpt>
      <trkpt lat="47.15102" lon="5.93484">
        <ele>451.6</ele>
        <time>2021-08-17T13:07:53Z</time>
      </trkpt>
      <trkpt lat="47.15106" lon="5.93485">
        <ele>451.8</ele>
        <time>2021-08-17T13:07:54Z</time>
      </trkpt>
      <trkpt lat="47.15118" lon="5.93487">
        <ele>451.8</ele>
        <time>2021-08-17T13:07:58Z</time>
      </trkpt>
      <trkpt lat="47.1512" lon="5.93487">
        <ele>452.2</ele>
        <time>2021-08-17T13:07:59Z</time>
      </trkpt>
      <trkpt lat="47.15124" lon="5.93489">
        <ele>452.6</ele>
        <time>2021-08-17T13:08:00Z</time>
      </trkpt>
      <trkpt lat="47.15127" lon="5.93491">
        <ele>453</ele>
        <time>2021-08-17T13:08:01Z</time>
      </trkpt>
      <trkpt lat="47.1513" lon="5.93493">
        <ele>453.2</ele>
        <time>2021-08-17T13:08:02Z</time>
      </trkpt>
      <trkpt lat="47.15134" lon="5.93495">
        <ele>453.6</ele>
        <time>2021-08-17T13:08:03Z</time>
      </trkpt>
      <trkpt lat="47.15136" lon="5.93497">
        <ele>453.6</ele>
        <time>2021-08-17T13:08:04Z</time>
      </trkpt>
      <trkpt lat="47.1514" lon="5.935">
        <ele>453.8</ele>
        <time>2021-08-17T13:08:05Z</time>
      </trkpt>
      <trkpt lat="47.15142" lon="5.93501">
        <ele>454</ele>
        <time>2021-08-17T13:08:06Z</time>
      </trkpt>
      <trkpt lat="47.15144" lon="5.93503">
        <ele>454.2</ele>
        <time>2021-08-17T13:08:07Z</time>
      </trkpt>
      <trkpt lat="47.15147" lon="5.93505">
        <ele>454.2</ele>
        <time>2021-08-17T13:08:08Z</time>
      </trkpt>
      <trkpt lat="47.1515" lon="5.93508">
        <ele>454.2</ele>
        <time>2021-08-17T13:08:09Z</time>
      </trkpt>
      <trkpt lat="47.15164" lon="5.93518">
        <ele>454</ele>
        <time>2021-08-17T13:08:13Z</time>
      </trkpt>
      <trkpt lat="47.1517" lon="5.93525">
        <ele>453.8</ele>
        <time>2021-08-17T13:08:15Z</time>
      </trkpt>
      <trkpt lat="47.15175" lon="5.93529">
        <ele>453.6</ele>
        <time>2021-08-17T13:08:16Z</time>
      </trkpt>
      <trkpt lat="47.15179" lon="5.93532">
        <ele>453.2</ele>
        <time>2021-08-17T13:08:17Z</time>
      </trkpt>
      <trkpt lat="47.15183" lon="5.93535">
        <ele>453</ele>
        <time>2021-08-17T13:08:18Z</time>
      </trkpt>
      <trkpt lat="47.15192" lon="5.93543">
        <ele>452.2</ele>
        <time>2021-08-17T13:08:21Z</time>
      </trkpt>
      <trkpt lat="47.15196" lon="5.93547">
        <ele>452.2</ele>
        <time>2021-08-17T13:08:22Z</time>
      </trkpt>
      <trkpt lat="47.15202" lon="5.93551">
        <ele>452</ele>
        <time>2021-08-17T13:08:23Z</time>
      </trkpt>
      <trkpt lat="47.15206" lon="5.93554">
        <ele>452</ele>
        <time>2021-08-17T13:08:24Z</time>
      </trkpt>
      <trkpt lat="47.15213" lon="5.93559">
        <ele>451</ele>
        <time>2021-08-17T13:08:26Z</time>
      </trkpt>
      <trkpt lat="47.15221" lon="5.93565">
        <ele>450.4</ele>
        <time>2021-08-17T13:08:29Z</time>
      </trkpt>
      <trkpt lat="47.15223" lon="5.93567">
        <ele>450.2</ele>
        <time>2021-08-17T13:08:30Z</time>
      </trkpt>
      <trkpt lat="47.15225" lon="5.93569">
        <ele>450</ele>
        <time>2021-08-17T13:08:31Z</time>
      </trkpt>
      <trkpt lat="47.15229" lon="5.93571">
        <ele>449.8</ele>
        <time>2021-08-17T13:08:32Z</time>
      </trkpt>
      <trkpt lat="47.15236" lon="5.93576">
        <ele>449.6</ele>
        <time>2021-08-17T13:08:34Z</time>
      </trkpt>
      <trkpt lat="47.15242" lon="5.93581">
        <ele>449.6</ele>
        <time>2021-08-17T13:08:36Z</time>
      </trkpt>
      <trkpt lat="47.15244" lon="5.93584">
        <ele>449.6</ele>
        <time>2021-08-17T13:08:37Z</time>
      </trkpt>
      <trkpt lat="47.15247" lon="5.93586">
        <ele>449.6</ele>
        <time>2021-08-17T13:08:38Z</time>
      </trkpt>
      <trkpt lat="47.15249" lon="5.93589">
        <ele>449.6</ele>
        <time>2021-08-17T13:08:39Z</time>
      </trkpt>
      <trkpt lat="47.15252" lon="5.93593">
        <ele>449.6</ele>
        <time>2021-08-17T13:08:40Z</time>
      </trkpt>
      <trkpt lat="47.15267" lon="5.93608">
        <ele>449.6</ele>
        <time>2021-08-17T13:08:45Z</time>
      </trkpt>
      <trkpt lat="47.1527" lon="5.9361">
        <ele>449.6</ele>
        <time>2021-08-17T13:08:46Z</time>
      </trkpt>
      <trkpt lat="47.15273" lon="5.93612">
        <ele>449.4</ele>
        <time>2021-08-17T13:08:47Z</time>
      </trkpt>
      <trkpt lat="47.15275" lon="5.93614">
        <ele>449.6</ele>
        <time>2021-08-17T13:08:48Z</time>
      </trkpt>
      <trkpt lat="47.15276" lon="5.93615">
        <ele>449.2</ele>
        <time>2021-08-17T13:08:58Z</time>
      </trkpt>
      <trkpt lat="47.15283" lon="5.93621">
        <ele>449.2</ele>
        <time>2021-08-17T13:09:32Z</time>
      </trkpt>
      <trkpt lat="47.1529" lon="5.93625">
        <ele>449.2</ele>
        <time>2021-08-17T13:09:35Z</time>
      </trkpt>
      <trkpt lat="47.15293" lon="5.93627">
        <ele>449.2</ele>
        <time>2021-08-17T13:09:36Z</time>
      </trkpt>
      <trkpt lat="47.15298" lon="5.93631">
        <ele>449.2</ele>
        <time>2021-08-17T13:09:38Z</time>
      </trkpt>
      <trkpt lat="47.15317" lon="5.93643">
        <ele>449.4</ele>
        <time>2021-08-17T13:09:45Z</time>
      </trkpt>
      <trkpt lat="47.15334" lon="5.9366">
        <ele>449.8</ele>
        <time>2021-08-17T13:09:51Z</time>
      </trkpt>
      <trkpt lat="47.15337" lon="5.93663">
        <ele>449.8</ele>
        <time>2021-08-17T13:09:52Z</time>
      </trkpt>
      <trkpt lat="47.15346" lon="5.93671">
        <ele>450</ele>
        <time>2021-08-17T13:09:55Z</time>
      </trkpt>
      <trkpt lat="47.15347" lon="5.93672">
        <ele>450</ele>
        <time>2021-08-17T13:09:56Z</time>
      </trkpt>
      <trkpt lat="47.15349" lon="5.93674">
        <ele>450</ele>
        <time>2021-08-17T13:09:57Z</time>
      </trkpt>
      <trkpt lat="47.15351" lon="5.93675">
        <ele>450.2</ele>
        <time>2021-08-17T13:09:58Z</time>
      </trkpt>
      <trkpt lat="47.15354" lon="5.93678">
        <ele>450.2</ele>
        <time>2021-08-17T13:09:59Z</time>
      </trkpt>
      <trkpt lat="47.15361" lon="5.93687">
        <ele>450.2</ele>
        <time>2021-08-17T13:10:02Z</time>
      </trkpt>
      <trkpt lat="47.15372" lon="5.93704">
        <ele>450</ele>
        <time>2021-08-17T13:10:07Z</time>
      </trkpt>
      <trkpt lat="47.15375" lon="5.93707">
        <ele>450</ele>
        <time>2021-08-17T13:10:08Z</time>
      </trkpt>
      <trkpt lat="47.15388" lon="5.9372">
        <ele>449.2</ele>
        <time>2021-08-17T13:10:14Z</time>
      </trkpt>
      <trkpt lat="47.15398" lon="5.93729">
        <ele>449.4</ele>
        <time>2021-08-17T13:10:18Z</time>
      </trkpt>
      <trkpt lat="47.154" lon="5.93732">
        <ele>449.4</ele>
        <time>2021-08-17T13:10:19Z</time>
      </trkpt>
      <trkpt lat="47.15405" lon="5.93737">
        <ele>449.6</ele>
        <time>2021-08-17T13:10:21Z</time>
      </trkpt>
      <trkpt lat="47.1541" lon="5.93742">
        <ele>449.6</ele>
        <time>2021-08-17T13:10:23Z</time>
      </trkpt>
      <trkpt lat="47.15412" lon="5.93743">
        <ele>449.6</ele>
        <time>2021-08-17T13:10:24Z</time>
      </trkpt>
      <trkpt lat="47.15416" lon="5.93747">
        <ele>449.6</ele>
        <time>2021-08-17T13:10:26Z</time>
      </trkpt>
      <trkpt lat="47.15419" lon="5.93749">
        <ele>449.6</ele>
        <time>2021-08-17T13:10:27Z</time>
      </trkpt>
      <trkpt lat="47.15421" lon="5.93752">
        <ele>449.6</ele>
        <time>2021-08-17T13:10:28Z</time>
      </trkpt>
      <trkpt lat="47.15426" lon="5.93756">
        <ele>449.6</ele>
        <time>2021-08-17T13:10:29Z</time>
      </trkpt>
      <trkpt lat="47.15432" lon="5.9376">
        <ele>449.6</ele>
        <time>2021-08-17T13:10:31Z</time>
      </trkpt>
      <trkpt lat="47.1544" lon="5.93768">
        <ele>449.6</ele>
        <time>2021-08-17T13:10:34Z</time>
      </trkpt>
      <trkpt lat="47.15443" lon="5.9377">
        <ele>449.8</ele>
        <time>2021-08-17T13:10:35Z</time>
      </trkpt>
      <trkpt lat="47.15458" lon="5.93786">
        <ele>449.8</ele>
        <time>2021-08-17T13:10:40Z</time>
      </trkpt>
      <trkpt lat="47.15461" lon="5.93791">
        <ele>449.8</ele>
        <time>2021-08-17T13:10:42Z</time>
      </trkpt>
      <trkpt lat="47.15464" lon="5.93794">
        <ele>449.6</ele>
        <time>2021-08-17T13:10:43Z</time>
      </trkpt>
      <trkpt lat="47.15467" lon="5.93798">
        <ele>449.4</ele>
        <time>2021-08-17T13:10:44Z</time>
      </trkpt>
      <trkpt lat="47.1548" lon="5.93813">
        <ele>449.2</ele>
        <time>2021-08-17T13:10:48Z</time>
      </trkpt>
      <trkpt lat="47.15487" lon="5.93823">
        <ele>449.4</ele>
        <time>2021-08-17T13:10:51Z</time>
      </trkpt>
      <trkpt lat="47.1549" lon="5.93826">
        <ele>449.4</ele>
        <time>2021-08-17T13:10:52Z</time>
      </trkpt>
      <trkpt lat="47.15497" lon="5.93833">
        <ele>449.4</ele>
        <time>2021-08-17T13:10:55Z</time>
      </trkpt>
      <trkpt lat="47.155" lon="5.93836">
        <ele>449.4</ele>
        <time>2021-08-17T13:10:56Z</time>
      </trkpt>
      <trkpt lat="47.15503" lon="5.93839">
        <ele>449.4</ele>
        <time>2021-08-17T13:10:57Z</time>
      </trkpt>
      <trkpt lat="47.15506" lon="5.93843">
        <ele>449.4</ele>
        <time>2021-08-17T13:10:58Z</time>
      </trkpt>
      <trkpt lat="47.15508" lon="5.93846">
        <ele>449.2</ele>
        <time>2021-08-17T13:10:59Z</time>
      </trkpt>
      <trkpt lat="47.15511" lon="5.93849">
        <ele>449.2</ele>
        <time>2021-08-17T13:11:00Z</time>
      </trkpt>
      <trkpt lat="47.15514" lon="5.93851">
        <ele>449.4</ele>
        <time>2021-08-17T13:11:01Z</time>
      </trkpt>
      <trkpt lat="47.15516" lon="5.93854">
        <ele>449.6</ele>
        <time>2021-08-17T13:11:02Z</time>
      </trkpt>
      <trkpt lat="47.15518" lon="5.93858">
        <ele>449.6</ele>
        <time>2021-08-17T13:11:03Z</time>
      </trkpt>
      <trkpt lat="47.15522" lon="5.93863">
        <ele>449.6</ele>
        <time>2021-08-17T13:11:05Z</time>
      </trkpt>
      <trkpt lat="47.15524" lon="5.93866">
        <ele>449.6</ele>
        <time>2021-08-17T13:11:06Z</time>
      </trkpt>
      <trkpt lat="47.15527" lon="5.93869">
        <ele>449.8</ele>
        <time>2021-08-17T13:11:07Z</time>
      </trkpt>
      <trkpt lat="47.1553" lon="5.93872">
        <ele>449.8</ele>
        <time>2021-08-17T13:11:08Z</time>
      </trkpt>
      <trkpt lat="47.15534" lon="5.93875">
        <ele>449.8</ele>
        <time>2021-08-17T13:11:09Z</time>
      </trkpt>
      <trkpt lat="47.15551" lon="5.93889">
        <ele>450</ele>
        <time>2021-08-17T13:11:14Z</time>
      </trkpt>
      <trkpt lat="47.15553" lon="5.93893">
        <ele>450</ele>
        <time>2021-08-17T13:11:15Z</time>
      </trkpt>
      <trkpt lat="47.15557" lon="5.93897">
        <ele>450</ele>
        <time>2021-08-17T13:11:16Z</time>
      </trkpt>
      <trkpt lat="47.15559" lon="5.93902">
        <ele>450</ele>
        <time>2021-08-17T13:11:17Z</time>
      </trkpt>
      <trkpt lat="47.15566" lon="5.93911">
        <ele>450</ele>
        <time>2021-08-17T13:11:20Z</time>
      </trkpt>
      <trkpt lat="47.15568" lon="5.93914">
        <ele>450</ele>
        <time>2021-08-17T13:11:21Z</time>
      </trkpt>
      <trkpt lat="47.1557" lon="5.93916">
        <ele>449.8</ele>
        <time>2021-08-17T13:11:22Z</time>
      </trkpt>
      <trkpt lat="47.15573" lon="5.93918">
        <ele>449.8</ele>
        <time>2021-08-17T13:11:23Z</time>
      </trkpt>
      <trkpt lat="47.15576" lon="5.93921">
        <ele>449.8</ele>
        <time>2021-08-17T13:11:24Z</time>
      </trkpt>
      <trkpt lat="47.15579" lon="5.93923">
        <ele>449.8</ele>
        <time>2021-08-17T13:11:25Z</time>
      </trkpt>
      <trkpt lat="47.15582" lon="5.93927">
        <ele>449.8</ele>
        <time>2021-08-17T13:11:26Z</time>
      </trkpt>
      <trkpt lat="47.15599" lon="5.93943">
        <ele>449.8</ele>
        <time>2021-08-17T13:11:33Z</time>
      </trkpt>
      <trkpt lat="47.15604" lon="5.93948">
        <ele>449.4</ele>
        <time>2021-08-17T13:11:37Z</time>
      </trkpt>
      <trkpt lat="47.15606" lon="5.9395">
        <ele>449.2</ele>
        <time>2021-08-17T13:11:49Z</time>
      </trkpt>
      <trkpt lat="47.15607" lon="5.93952">
        <ele>449.2</ele>
        <time>2021-08-17T13:11:50Z</time>
      </trkpt>
      <trkpt lat="47.15609" lon="5.93954">
        <ele>449.2</ele>
        <time>2021-08-17T13:11:51Z</time>
      </trkpt>
      <trkpt lat="47.15622" lon="5.93968">
        <ele>448.8</ele>
        <time>2021-08-17T13:11:57Z</time>
      </trkpt>
      <trkpt lat="47.15624" lon="5.9397">
        <ele>448.8</ele>
        <time>2021-08-17T13:11:58Z</time>
      </trkpt>
      <trkpt lat="47.15626" lon="5.93972">
        <ele>448.8</ele>
        <time>2021-08-17T13:11:59Z</time>
      </trkpt>
      <trkpt lat="47.15637" lon="5.93983">
        <ele>448.2</ele>
        <time>2021-08-17T13:12:04Z</time>
      </trkpt>
      <trkpt lat="47.15641" lon="5.93985">
        <ele>448</ele>
        <time>2021-08-17T13:12:07Z</time>
      </trkpt>
      <trkpt lat="47.15641" lon="5.93986">
        <ele>447.8</ele>
        <time>2021-08-17T13:15:36Z</time>
      </trkpt>
      <trkpt lat="47.15645" lon="5.93995">
        <ele>447.6</ele>
        <time>2021-08-17T13:15:39Z</time>
      </trkpt>
      <trkpt lat="47.15649" lon="5.94">
        <ele>447.6</ele>
        <time>2021-08-17T13:15:41Z</time>
      </trkpt>
      <trkpt lat="47.15652" lon="5.94002">
        <ele>447.6</ele>
        <time>2021-08-17T13:15:42Z</time>
      </trkpt>
      <trkpt lat="47.15655" lon="5.94005">
        <ele>447.4</ele>
        <time>2021-08-17T13:15:43Z</time>
      </trkpt>
      <trkpt lat="47.15657" lon="5.94007">
        <ele>447.4</ele>
        <time>2021-08-17T13:15:44Z</time>
      </trkpt>
      <trkpt lat="47.15665" lon="5.94016">
        <ele>447.2</ele>
        <time>2021-08-17T13:15:47Z</time>
      </trkpt>
      <trkpt lat="47.15668" lon="5.94019">
        <ele>446.8</ele>
        <time>2021-08-17T13:15:48Z</time>
      </trkpt>
      <trkpt lat="47.15678" lon="5.94032">
        <ele>446.6</ele>
        <time>2021-08-17T13:15:51Z</time>
      </trkpt>
      <trkpt lat="47.15685" lon="5.94044">
        <ele>446</ele>
        <time>2021-08-17T13:15:53Z</time>
      </trkpt>
      <trkpt lat="47.15688" lon="5.9405">
        <ele>446</ele>
        <time>2021-08-17T13:15:54Z</time>
      </trkpt>
      <trkpt lat="47.15696" lon="5.94064">
        <ele>445</ele>
        <time>2021-08-17T13:15:57Z</time>
      </trkpt>
      <trkpt lat="47.157" lon="5.94068">
        <ele>444.6</ele>
        <time>2021-08-17T13:15:58Z</time>
      </trkpt>
      <trkpt lat="47.15705" lon="5.94072">
        <ele>444</ele>
        <time>2021-08-17T13:15:59Z</time>
      </trkpt>
      <trkpt lat="47.15713" lon="5.94075">
        <ele>443.6</ele>
        <time>2021-08-17T13:16:01Z</time>
      </trkpt>
      <trkpt lat="47.15718" lon="5.94076">
        <ele>442.4</ele>
        <time>2021-08-17T13:16:02Z</time>
      </trkpt>
      <trkpt lat="47.15722" lon="5.94078">
        <ele>442</ele>
        <time>2021-08-17T13:16:03Z</time>
      </trkpt>
      <trkpt lat="47.15726" lon="5.9408">
        <ele>441.4</ele>
        <time>2021-08-17T13:16:04Z</time>
      </trkpt>
      <trkpt lat="47.15731" lon="5.94083">
        <ele>441</ele>
        <time>2021-08-17T13:16:05Z</time>
      </trkpt>
      <trkpt lat="47.15736" lon="5.94088">
        <ele>440.2</ele>
        <time>2021-08-17T13:16:06Z</time>
      </trkpt>
      <trkpt lat="47.1574" lon="5.94093">
        <ele>439.8</ele>
        <time>2021-08-17T13:16:07Z</time>
      </trkpt>
      <trkpt lat="47.15744" lon="5.94099">
        <ele>438.8</ele>
        <time>2021-08-17T13:16:08Z</time>
      </trkpt>
      <trkpt lat="47.15748" lon="5.94106">
        <ele>438.2</ele>
        <time>2021-08-17T13:16:09Z</time>
      </trkpt>
      <trkpt lat="47.15751" lon="5.94114">
        <ele>437.4</ele>
        <time>2021-08-17T13:16:10Z</time>
      </trkpt>
      <trkpt lat="47.15757" lon="5.94124">
        <ele>436</ele>
        <time>2021-08-17T13:16:11Z</time>
      </trkpt>
      <trkpt lat="47.15762" lon="5.94135">
        <ele>435.8</ele>
        <time>2021-08-17T13:16:12Z</time>
      </trkpt>
      <trkpt lat="47.15765" lon="5.94145">
        <ele>434.8</ele>
        <time>2021-08-17T13:16:13Z</time>
      </trkpt>
      <trkpt lat="47.15766" lon="5.94153">
        <ele>434.4</ele>
        <time>2021-08-17T13:16:14Z</time>
      </trkpt>
      <trkpt lat="47.15768" lon="5.94166">
        <ele>433.8</ele>
        <time>2021-08-17T13:16:15Z</time>
      </trkpt>
      <trkpt lat="47.15772" lon="5.94175">
        <ele>433.6</ele>
        <time>2021-08-17T13:16:16Z</time>
      </trkpt>
      <trkpt lat="47.15776" lon="5.94182">
        <ele>432.8</ele>
        <time>2021-08-17T13:16:17Z</time>
      </trkpt>
      <trkpt lat="47.15782" lon="5.94189">
        <ele>431.6</ele>
        <time>2021-08-17T13:16:18Z</time>
      </trkpt>
      <trkpt lat="47.15788" lon="5.94197">
        <ele>431.2</ele>
        <time>2021-08-17T13:16:19Z</time>
      </trkpt>
      <trkpt lat="47.15794" lon="5.94204">
        <ele>430.4</ele>
        <time>2021-08-17T13:16:20Z</time>
      </trkpt>
      <trkpt lat="47.15801" lon="5.94212">
        <ele>429.8</ele>
        <time>2021-08-17T13:16:21Z</time>
      </trkpt>
      <trkpt lat="47.15807" lon="5.94219">
        <ele>428.8</ele>
        <time>2021-08-17T13:16:22Z</time>
      </trkpt>
      <trkpt lat="47.15818" lon="5.94234">
        <ele>427.8</ele>
        <time>2021-08-17T13:16:24Z</time>
      </trkpt>
      <trkpt lat="47.15823" lon="5.94242">
        <ele>427.6</ele>
        <time>2021-08-17T13:16:25Z</time>
      </trkpt>
      <trkpt lat="47.1583" lon="5.94254">
        <ele>426.6</ele>
        <time>2021-08-17T13:16:27Z</time>
      </trkpt>
      <trkpt lat="47.15833" lon="5.9426">
        <ele>426</ele>
        <time>2021-08-17T13:16:28Z</time>
      </trkpt>
      <trkpt lat="47.15835" lon="5.94264">
        <ele>425.4</ele>
        <time>2021-08-17T13:16:29Z</time>
      </trkpt>
      <trkpt lat="47.15838" lon="5.94268">
        <ele>425.2</ele>
        <time>2021-08-17T13:16:30Z</time>
      </trkpt>
      <trkpt lat="47.1584" lon="5.94269">
        <ele>424.6</ele>
        <time>2021-08-17T13:16:31Z</time>
      </trkpt>
      <trkpt lat="47.15841" lon="5.9427">
        <ele>424.4</ele>
        <time>2021-08-17T13:16:32Z</time>
      </trkpt>
      <trkpt lat="47.15843" lon="5.94273">
        <ele>423</ele>
        <time>2021-08-17T13:16:40Z</time>
      </trkpt>
      <trkpt lat="47.15846" lon="5.94275">
        <ele>422.8</ele>
        <time>2021-08-17T13:16:41Z</time>
      </trkpt>
      <trkpt lat="47.15848" lon="5.94276">
        <ele>422.8</ele>
        <time>2021-08-17T13:16:42Z</time>
      </trkpt>
      <trkpt lat="47.15854" lon="5.94278">
        <ele>422.6</ele>
        <time>2021-08-17T13:16:44Z</time>
      </trkpt>
      <trkpt lat="47.15856" lon="5.94278">
        <ele>422.6</ele>
        <time>2021-08-17T13:16:45Z</time>
      </trkpt>
      <trkpt lat="47.15858" lon="5.94278">
        <ele>422.4</ele>
        <time>2021-08-17T13:16:46Z</time>
      </trkpt>
      <trkpt lat="47.1586" lon="5.94279">
        <ele>422.2</ele>
        <time>2021-08-17T13:16:47Z</time>
      </trkpt>
      <trkpt lat="47.15862" lon="5.9428">
        <ele>422</ele>
        <time>2021-08-17T13:16:48Z</time>
      </trkpt>
      <trkpt lat="47.15864" lon="5.94282">
        <ele>421.4</ele>
        <time>2021-08-17T13:16:49Z</time>
      </trkpt>
      <trkpt lat="47.15868" lon="5.94285">
        <ele>421.2</ele>
        <time>2021-08-17T13:16:50Z</time>
      </trkpt>
      <trkpt lat="47.15872" lon="5.9429">
        <ele>421</ele>
        <time>2021-08-17T13:16:51Z</time>
      </trkpt>
      <trkpt lat="47.1588" lon="5.94302">
        <ele>421</ele>
        <time>2021-08-17T13:16:53Z</time>
      </trkpt>
      <trkpt lat="47.15885" lon="5.94315">
        <ele>420.4</ele>
        <time>2021-08-17T13:16:55Z</time>
      </trkpt>
      <trkpt lat="47.15893" lon="5.94333">
        <ele>420</ele>
        <time>2021-08-17T13:16:57Z</time>
      </trkpt>
      <trkpt lat="47.15894" lon="5.94343">
        <ele>419</ele>
        <time>2021-08-17T13:16:58Z</time>
      </trkpt>
      <trkpt lat="47.15896" lon="5.9435">
        <ele>418.4</ele>
        <time>2021-08-17T13:16:59Z</time>
      </trkpt>
      <trkpt lat="47.15898" lon="5.94365">
        <ele>417.8</ele>
        <time>2021-08-17T13:17:01Z</time>
      </trkpt>
      <trkpt lat="47.15899" lon="5.94373">
        <ele>417.4</ele>
        <time>2021-08-17T13:17:02Z</time>
      </trkpt>
      <trkpt lat="47.15901" lon="5.94379">
        <ele>417</ele>
        <time>2021-08-17T13:17:03Z</time>
      </trkpt>
      <trkpt lat="47.15901" lon="5.94384">
        <ele>416.8</ele>
        <time>2021-08-17T13:17:04Z</time>
      </trkpt>
      <trkpt lat="47.15901" lon="5.9439">
        <ele>416.4</ele>
        <time>2021-08-17T13:17:05Z</time>
      </trkpt>
      <trkpt lat="47.15901" lon="5.94396">
        <ele>416.2</ele>
        <time>2021-08-17T13:17:06Z</time>
      </trkpt>
      <trkpt lat="47.15903" lon="5.94402">
        <ele>415.8</ele>
        <time>2021-08-17T13:17:07Z</time>
      </trkpt>
      <trkpt lat="47.15904" lon="5.94406">
        <ele>415.6</ele>
        <time>2021-08-17T13:17:08Z</time>
      </trkpt>
      <trkpt lat="47.15906" lon="5.94411">
        <ele>415.4</ele>
        <time>2021-08-17T13:17:09Z</time>
      </trkpt>
      <trkpt lat="47.15908" lon="5.94418">
        <ele>415.4</ele>
        <time>2021-08-17T13:17:10Z</time>
      </trkpt>
      <trkpt lat="47.15914" lon="5.9444">
        <ele>414.8</ele>
        <time>2021-08-17T13:17:14Z</time>
      </trkpt>
      <trkpt lat="47.15915" lon="5.94445">
        <ele>414.8</ele>
        <time>2021-08-17T13:17:15Z</time>
      </trkpt>
      <trkpt lat="47.15917" lon="5.94451">
        <ele>414.8</ele>
        <time>2021-08-17T13:17:16Z</time>
      </trkpt>
      <trkpt lat="47.15919" lon="5.94455">
        <ele>414.6</ele>
        <time>2021-08-17T13:17:17Z</time>
      </trkpt>
      <trkpt lat="47.15919" lon="5.94461">
        <ele>414.6</ele>
        <time>2021-08-17T13:17:18Z</time>
      </trkpt>
      <trkpt lat="47.1592" lon="5.94466">
        <ele>414.6</ele>
        <time>2021-08-17T13:17:19Z</time>
      </trkpt>
      <trkpt lat="47.15921" lon="5.9447">
        <ele>414.6</ele>
        <time>2021-08-17T13:17:20Z</time>
      </trkpt>
      <trkpt lat="47.15922" lon="5.94476">
        <ele>414.6</ele>
        <time>2021-08-17T13:17:21Z</time>
      </trkpt>
      <trkpt lat="47.15922" lon="5.94479">
        <ele>414.6</ele>
        <time>2021-08-17T13:17:22Z</time>
      </trkpt>
      <trkpt lat="47.15922" lon="5.94482">
        <ele>414.8</ele>
        <time>2021-08-17T13:17:23Z</time>
      </trkpt>
      <trkpt lat="47.15922" lon="5.94488">
        <ele>414.8</ele>
        <time>2021-08-17T13:17:24Z</time>
      </trkpt>
      <trkpt lat="47.15921" lon="5.94493">
        <ele>414.8</ele>
        <time>2021-08-17T13:17:25Z</time>
      </trkpt>
      <trkpt lat="47.15921" lon="5.94498">
        <ele>415</ele>
        <time>2021-08-17T13:17:26Z</time>
      </trkpt>
      <trkpt lat="47.15921" lon="5.94504">
        <ele>415</ele>
        <time>2021-08-17T13:17:27Z</time>
      </trkpt>
      <trkpt lat="47.15923" lon="5.94515">
        <ele>415</ele>
        <time>2021-08-17T13:17:29Z</time>
      </trkpt>
      <trkpt lat="47.15924" lon="5.94521">
        <ele>415</ele>
        <time>2021-08-17T13:17:30Z</time>
      </trkpt>
      <trkpt lat="47.15925" lon="5.94524">
        <ele>415</ele>
        <time>2021-08-17T13:17:31Z</time>
      </trkpt>
      <trkpt lat="47.1593" lon="5.94541">
        <ele>414.8</ele>
        <time>2021-08-17T13:17:35Z</time>
      </trkpt>
      <trkpt lat="47.15931" lon="5.94546">
        <ele>414.8</ele>
        <time>2021-08-17T13:17:36Z</time>
      </trkpt>
      <trkpt lat="47.15932" lon="5.9455">
        <ele>414.6</ele>
        <time>2021-08-17T13:17:37Z</time>
      </trkpt>
      <trkpt lat="47.15933" lon="5.94555">
        <ele>414.6</ele>
        <time>2021-08-17T13:17:38Z</time>
      </trkpt>
      <trkpt lat="47.15933" lon="5.94559">
        <ele>414.4</ele>
        <time>2021-08-17T13:17:39Z</time>
      </trkpt>
      <trkpt lat="47.15934" lon="5.94566">
        <ele>414.2</ele>
        <time>2021-08-17T13:17:40Z</time>
      </trkpt>
      <trkpt lat="47.15934" lon="5.9457">
        <ele>414.2</ele>
        <time>2021-08-17T13:17:41Z</time>
      </trkpt>
      <trkpt lat="47.15938" lon="5.94584">
        <ele>414</ele>
        <time>2021-08-17T13:17:44Z</time>
      </trkpt>
      <trkpt lat="47.15941" lon="5.94587">
        <ele>414</ele>
        <time>2021-08-17T13:17:45Z</time>
      </trkpt>
      <trkpt lat="47.15943" lon="5.9459">
        <ele>414</ele>
        <time>2021-08-17T13:17:46Z</time>
      </trkpt>
      <trkpt lat="47.15944" lon="5.94593">
        <ele>414</ele>
        <time>2021-08-17T13:17:47Z</time>
      </trkpt>
      <trkpt lat="47.15944" lon="5.94595">
        <ele>413.8</ele>
        <time>2021-08-17T13:17:48Z</time>
      </trkpt>
      <trkpt lat="47.15944" lon="5.94597">
        <ele>413.8</ele>
        <time>2021-08-17T13:17:49Z</time>
      </trkpt>
      <trkpt lat="47.15951" lon="5.94611">
        <ele>413.6</ele>
        <time>2021-08-17T13:17:52Z</time>
      </trkpt>
      <trkpt lat="47.15952" lon="5.94615">
        <ele>413.6</ele>
        <time>2021-08-17T13:17:53Z</time>
      </trkpt>
      <trkpt lat="47.15952" lon="5.94618">
        <ele>413.6</ele>
        <time>2021-08-17T13:17:54Z</time>
      </trkpt>
      <trkpt lat="47.15953" lon="5.9462">
        <ele>413.6</ele>
        <time>2021-08-17T13:17:55Z</time>
      </trkpt>
      <trkpt lat="47.15954" lon="5.94626">
        <ele>413.6</ele>
        <time>2021-08-17T13:17:56Z</time>
      </trkpt>
      <trkpt lat="47.15958" lon="5.94634">
        <ele>413.4</ele>
        <time>2021-08-17T13:17:58Z</time>
      </trkpt>
      <trkpt lat="47.15964" lon="5.94647">
        <ele>413.2</ele>
        <time>2021-08-17T13:18:02Z</time>
      </trkpt>
      <trkpt lat="47.15965" lon="5.94648">
        <ele>413.2</ele>
        <time>2021-08-17T13:18:03Z</time>
      </trkpt>
      <trkpt lat="47.15965" lon="5.94649">
        <ele>413.2</ele>
        <time>2021-08-17T13:18:04Z</time>
      </trkpt>
      <trkpt lat="47.15966" lon="5.94651">
        <ele>413</ele>
        <time>2021-08-17T13:18:19Z</time>
      </trkpt>
      <trkpt lat="47.15967" lon="5.94653">
        <ele>413</ele>
        <time>2021-08-17T13:18:20Z</time>
      </trkpt>
      <trkpt lat="47.15968" lon="5.94654">
        <ele>413</ele>
        <time>2021-08-17T13:18:21Z</time>
      </trkpt>
      <trkpt lat="47.15968" lon="5.94655">
        <ele>413</ele>
        <time>2021-08-17T13:18:22Z</time>
      </trkpt>
      <trkpt lat="47.1597" lon="5.94657">
        <ele>413</ele>
        <time>2021-08-17T13:18:47Z</time>
      </trkpt>
      <trkpt lat="47.15974" lon="5.94665">
        <ele>412.8</ele>
        <time>2021-08-17T13:19:24Z</time>
      </trkpt>
      <trkpt lat="47.15974" lon="5.94668">
        <ele>412.8</ele>
        <time>2021-08-17T13:19:25Z</time>
      </trkpt>
      <trkpt lat="47.15975" lon="5.9467">
        <ele>412.6</ele>
        <time>2021-08-17T13:19:26Z</time>
      </trkpt>
      <trkpt lat="47.15976" lon="5.94673">
        <ele>412.6</ele>
        <time>2021-08-17T13:19:27Z</time>
      </trkpt>
      <trkpt lat="47.1598" lon="5.94679">
        <ele>412.6</ele>
        <time>2021-08-17T13:19:29Z</time>
      </trkpt>
      <trkpt lat="47.15984" lon="5.94686">
        <ele>412.4</ele>
        <time>2021-08-17T13:19:32Z</time>
      </trkpt>
      <trkpt lat="47.15991" lon="5.947">
        <ele>412.6</ele>
        <time>2021-08-17T13:19:37Z</time>
      </trkpt>
      <trkpt lat="47.15993" lon="5.94702">
        <ele>412.6</ele>
        <time>2021-08-17T13:19:38Z</time>
      </trkpt>
      <trkpt lat="47.15995" lon="5.94705">
        <ele>412.6</ele>
        <time>2021-08-17T13:19:39Z</time>
      </trkpt>
      <trkpt lat="47.15995" lon="5.94707">
        <ele>412.8</ele>
        <time>2021-08-17T13:19:40Z</time>
      </trkpt>
      <trkpt lat="47.15996" lon="5.94709">
        <ele>412.8</ele>
        <time>2021-08-17T13:19:41Z</time>
      </trkpt>
      <trkpt lat="47.16" lon="5.94713">
        <ele>412.8</ele>
        <time>2021-08-17T13:19:42Z</time>
      </trkpt>
      <trkpt lat="47.16002" lon="5.94721">
        <ele>412.8</ele>
        <time>2021-08-17T13:19:45Z</time>
      </trkpt>
      <trkpt lat="47.16003" lon="5.94724">
        <ele>412.8</ele>
        <time>2021-08-17T13:19:46Z</time>
      </trkpt>
      <trkpt lat="47.16004" lon="5.94727">
        <ele>412.8</ele>
        <time>2021-08-17T13:19:47Z</time>
      </trkpt>
      <trkpt lat="47.16005" lon="5.94731">
        <ele>412.8</ele>
        <time>2021-08-17T13:19:48Z</time>
      </trkpt>
      <trkpt lat="47.16008" lon="5.94734">
        <ele>412.8</ele>
        <time>2021-08-17T13:19:49Z</time>
      </trkpt>
      <trkpt lat="47.16012" lon="5.94744">
        <ele>412.8</ele>
        <time>2021-08-17T13:19:51Z</time>
      </trkpt>
      <trkpt lat="47.16013" lon="5.94749">
        <ele>412.6</ele>
        <time>2021-08-17T13:19:53Z</time>
      </trkpt>
      <trkpt lat="47.16013" lon="5.94751">
        <ele>412.6</ele>
        <time>2021-08-17T13:19:54Z</time>
      </trkpt>
      <trkpt lat="47.16012" lon="5.94755">
        <ele>412.2</ele>
        <time>2021-08-17T13:19:55Z</time>
      </trkpt>
      <trkpt lat="47.16016" lon="5.94759">
        <ele>412.2</ele>
        <time>2021-08-17T13:19:56Z</time>
      </trkpt>
      <trkpt lat="47.16019" lon="5.94764">
        <ele>412.2</ele>
        <time>2021-08-17T13:19:57Z</time>
      </trkpt>
      <trkpt lat="47.16021" lon="5.94767">
        <ele>412.2</ele>
        <time>2021-08-17T13:19:58Z</time>
      </trkpt>
      <trkpt lat="47.16026" lon="5.94778">
        <ele>412.2</ele>
        <time>2021-08-17T13:20:02Z</time>
      </trkpt>
      <trkpt lat="47.16029" lon="5.94781">
        <ele>412.2</ele>
        <time>2021-08-17T13:20:03Z</time>
      </trkpt>
      <trkpt lat="47.16031" lon="5.94785">
        <ele>412.2</ele>
        <time>2021-08-17T13:20:04Z</time>
      </trkpt>
      <trkpt lat="47.16037" lon="5.94792">
        <ele>412.2</ele>
        <time>2021-08-17T13:20:07Z</time>
      </trkpt>
      <trkpt lat="47.1604" lon="5.94794">
        <ele>412.2</ele>
        <time>2021-08-17T13:20:08Z</time>
      </trkpt>
      <trkpt lat="47.16042" lon="5.94796">
        <ele>412.2</ele>
        <time>2021-08-17T13:20:09Z</time>
      </trkpt>
      <trkpt lat="47.16043" lon="5.94798">
        <ele>412.2</ele>
        <time>2021-08-17T13:20:10Z</time>
      </trkpt>
      <trkpt lat="47.16043" lon="5.94799">
        <ele>412.2</ele>
        <time>2021-08-17T13:20:11Z</time>
      </trkpt>
      <trkpt lat="47.16046" lon="5.94803">
        <ele>412.4</ele>
        <time>2021-08-17T13:20:12Z</time>
      </trkpt>
      <trkpt lat="47.16047" lon="5.94807">
        <ele>412.4</ele>
        <time>2021-08-17T13:20:14Z</time>
      </trkpt>
      <trkpt lat="47.16047" lon="5.94809">
        <ele>412.4</ele>
        <time>2021-08-17T13:20:15Z</time>
      </trkpt>
      <trkpt lat="47.16049" lon="5.94812">
        <ele>412.4</ele>
        <time>2021-08-17T13:20:16Z</time>
      </trkpt>
      <trkpt lat="47.1606" lon="5.94828">
        <ele>412.4</ele>
        <time>2021-08-17T13:20:21Z</time>
      </trkpt>
      <trkpt lat="47.16062" lon="5.9483">
        <ele>412.4</ele>
        <time>2021-08-17T13:20:22Z</time>
      </trkpt>
      <trkpt lat="47.16064" lon="5.94833">
        <ele>412.6</ele>
        <time>2021-08-17T13:20:23Z</time>
      </trkpt>
      <trkpt lat="47.16072" lon="5.9485">
        <ele>412.6</ele>
        <time>2021-08-17T13:20:28Z</time>
      </trkpt>
      <trkpt lat="47.16074" lon="5.94856">
        <ele>412.6</ele>
        <time>2021-08-17T13:20:29Z</time>
      </trkpt>
      <trkpt lat="47.16082" lon="5.94878">
        <ele>412.2</ele>
        <time>2021-08-17T13:20:33Z</time>
      </trkpt>
      <trkpt lat="47.16086" lon="5.94885">
        <ele>412</ele>
        <time>2021-08-17T13:20:34Z</time>
      </trkpt>
      <trkpt lat="47.16091" lon="5.94892">
        <ele>412</ele>
        <time>2021-08-17T13:20:35Z</time>
      </trkpt>
      <trkpt lat="47.16094" lon="5.94899">
        <ele>411.6</ele>
        <time>2021-08-17T13:20:36Z</time>
      </trkpt>
      <trkpt lat="47.16098" lon="5.94912">
        <ele>411.2</ele>
        <time>2021-08-17T13:20:38Z</time>
      </trkpt>
      <trkpt lat="47.16099" lon="5.94914">
        <ele>410.8</ele>
        <time>2021-08-17T13:20:39Z</time>
      </trkpt>
      <trkpt lat="47.161" lon="5.94919">
        <ele>410.8</ele>
        <time>2021-08-17T13:20:40Z</time>
      </trkpt>
      <trkpt lat="47.16103" lon="5.94923">
        <ele>410.4</ele>
        <time>2021-08-17T13:20:41Z</time>
      </trkpt>
      <trkpt lat="47.16106" lon="5.9493">
        <ele>410.4</ele>
        <time>2021-08-17T13:20:43Z</time>
      </trkpt>
      <trkpt lat="47.16108" lon="5.94934">
        <ele>410.2</ele>
        <time>2021-08-17T13:20:44Z</time>
      </trkpt>
      <trkpt lat="47.1612" lon="5.94955">
        <ele>410</ele>
        <time>2021-08-17T13:20:49Z</time>
      </trkpt>
      <trkpt lat="47.16134" lon="5.94972">
        <ele>410</ele>
        <time>2021-08-17T13:20:52Z</time>
      </trkpt>
      <trkpt lat="47.16137" lon="5.94977">
        <ele>410</ele>
        <time>2021-08-17T13:20:53Z</time>
      </trkpt>
      <trkpt lat="47.16138" lon="5.9498">
        <ele>410</ele>
        <time>2021-08-17T13:20:54Z</time>
      </trkpt>
      <trkpt lat="47.1614" lon="5.94984">
        <ele>410</ele>
        <time>2021-08-17T13:20:55Z</time>
      </trkpt>
      <trkpt lat="47.16141" lon="5.94987">
        <ele>410</ele>
        <time>2021-08-17T13:20:56Z</time>
      </trkpt>
      <trkpt lat="47.16143" lon="5.94991">
        <ele>410</ele>
        <time>2021-08-17T13:20:57Z</time>
      </trkpt>
      <trkpt lat="47.16145" lon="5.94995">
        <ele>410.2</ele>
        <time>2021-08-17T13:20:58Z</time>
      </trkpt>
      <trkpt lat="47.16149" lon="5.95001">
        <ele>410.2</ele>
        <time>2021-08-17T13:20:59Z</time>
      </trkpt>
      <trkpt lat="47.16159" lon="5.95017">
        <ele>410.2</ele>
        <time>2021-08-17T13:21:03Z</time>
      </trkpt>
      <trkpt lat="47.16168" lon="5.95036">
        <ele>410.6</ele>
        <time>2021-08-17T13:21:07Z</time>
      </trkpt>
      <trkpt lat="47.16172" lon="5.95041">
        <ele>410.4</ele>
        <time>2021-08-17T13:21:08Z</time>
      </trkpt>
      <trkpt lat="47.16175" lon="5.95046">
        <ele>410.2</ele>
        <time>2021-08-17T13:21:09Z</time>
      </trkpt>
      <trkpt lat="47.1618" lon="5.95054">
        <ele>410.2</ele>
        <time>2021-08-17T13:21:11Z</time>
      </trkpt>
      <trkpt lat="47.16195" lon="5.95072">
        <ele>410.2</ele>
        <time>2021-08-17T13:21:16Z</time>
      </trkpt>
      <trkpt lat="47.16196" lon="5.95075">
        <ele>410.2</ele>
        <time>2021-08-17T13:21:17Z</time>
      </trkpt>
      <trkpt lat="47.16198" lon="5.95079">
        <ele>410.2</ele>
        <time>2021-08-17T13:21:18Z</time>
      </trkpt>
      <trkpt lat="47.162" lon="5.95082">
        <ele>410.2</ele>
        <time>2021-08-17T13:21:19Z</time>
      </trkpt>
      <trkpt lat="47.16205" lon="5.95086">
        <ele>410.2</ele>
        <time>2021-08-17T13:21:20Z</time>
      </trkpt>
      <trkpt lat="47.16207" lon="5.9509">
        <ele>410.2</ele>
        <time>2021-08-17T13:21:21Z</time>
      </trkpt>
      <trkpt lat="47.16212" lon="5.95099">
        <ele>410.2</ele>
        <time>2021-08-17T13:21:23Z</time>
      </trkpt>
      <trkpt lat="47.16215" lon="5.95104">
        <ele>410.2</ele>
        <time>2021-08-17T13:21:24Z</time>
      </trkpt>
      <trkpt lat="47.1622" lon="5.95112">
        <ele>410.2</ele>
        <time>2021-08-17T13:21:26Z</time>
      </trkpt>
      <trkpt lat="47.16227" lon="5.95126">
        <ele>410.2</ele>
        <time>2021-08-17T13:21:29Z</time>
      </trkpt>
      <trkpt lat="47.16227" lon="5.95128">
        <ele>410</ele>
        <time>2021-08-17T13:21:30Z</time>
      </trkpt>
      <trkpt lat="47.1623" lon="5.95133">
        <ele>410</ele>
        <time>2021-08-17T13:21:31Z</time>
      </trkpt>
      <trkpt lat="47.16233" lon="5.95137">
        <ele>410</ele>
        <time>2021-08-17T13:21:32Z</time>
      </trkpt>
      <trkpt lat="47.16233" lon="5.95138">
        <ele>410</ele>
        <time>2021-08-17T13:21:33Z</time>
      </trkpt>
      <trkpt lat="47.16233" lon="5.95139">
        <ele>408.6</ele>
        <time>2021-08-17T13:21:46Z</time>
      </trkpt>
      <trkpt lat="47.16235" lon="5.95142">
        <ele>408.6</ele>
        <time>2021-08-17T13:21:56Z</time>
      </trkpt>
      <trkpt lat="47.16236" lon="5.95144">
        <ele>408.2</ele>
        <time>2021-08-17T13:21:57Z</time>
      </trkpt>
      <trkpt lat="47.16237" lon="5.95146">
        <ele>408.2</ele>
        <time>2021-08-17T13:21:58Z</time>
      </trkpt>
      <trkpt lat="47.16238" lon="5.95149">
        <ele>408.2</ele>
        <time>2021-08-17T13:21:59Z</time>
      </trkpt>
      <trkpt lat="47.16242" lon="5.95156">
        <ele>408</ele>
        <time>2021-08-17T13:22:02Z</time>
      </trkpt>
      <trkpt lat="47.16243" lon="5.95158">
        <ele>408</ele>
        <time>2021-08-17T13:22:03Z</time>
      </trkpt>
      <trkpt lat="47.16244" lon="5.95162">
        <ele>407.8</ele>
        <time>2021-08-17T13:22:04Z</time>
      </trkpt>
      <trkpt lat="47.16253" lon="5.95183">
        <ele>407</ele>
        <time>2021-08-17T13:22:10Z</time>
      </trkpt>
      <trkpt lat="47.16261" lon="5.95195">
        <ele>406.8</ele>
        <time>2021-08-17T13:22:13Z</time>
      </trkpt>
      <trkpt lat="47.16264" lon="5.952">
        <ele>406.6</ele>
        <time>2021-08-17T13:22:14Z</time>
      </trkpt>
      <trkpt lat="47.16268" lon="5.95208">
        <ele>406.4</ele>
        <time>2021-08-17T13:22:16Z</time>
      </trkpt>
      <trkpt lat="47.16287" lon="5.95236">
        <ele>405.8</ele>
        <time>2021-08-17T13:22:23Z</time>
      </trkpt>
      <trkpt lat="47.16291" lon="5.9524">
        <ele>405.6</ele>
        <time>2021-08-17T13:22:24Z</time>
      </trkpt>
      <trkpt lat="47.163" lon="5.95253">
        <ele>405.4</ele>
        <time>2021-08-17T13:22:27Z</time>
      </trkpt>
      <trkpt lat="47.16302" lon="5.95257">
        <ele>405.4</ele>
        <time>2021-08-17T13:22:28Z</time>
      </trkpt>
      <trkpt lat="47.16304" lon="5.9526">
        <ele>405.2</ele>
        <time>2021-08-17T13:22:29Z</time>
      </trkpt>
      <trkpt lat="47.16306" lon="5.95263">
        <ele>405.2</ele>
        <time>2021-08-17T13:22:30Z</time>
      </trkpt>
      <trkpt lat="47.16306" lon="5.95265">
        <ele>405.2</ele>
        <time>2021-08-17T13:22:31Z</time>
      </trkpt>
      <trkpt lat="47.1631" lon="5.95274">
        <ele>404.8</ele>
        <time>2021-08-17T13:22:34Z</time>
      </trkpt>
      <trkpt lat="47.16313" lon="5.95277">
        <ele>404.8</ele>
        <time>2021-08-17T13:22:35Z</time>
      </trkpt>
      <trkpt lat="47.16316" lon="5.95281">
        <ele>404.4</ele>
        <time>2021-08-17T13:22:36Z</time>
      </trkpt>
      <trkpt lat="47.16322" lon="5.95292">
        <ele>403.8</ele>
        <time>2021-08-17T13:22:39Z</time>
      </trkpt>
      <trkpt lat="47.16324" lon="5.95295">
        <ele>403.4</ele>
        <time>2021-08-17T13:22:40Z</time>
      </trkpt>
      <trkpt lat="47.16326" lon="5.95298">
        <ele>402.8</ele>
        <time>2021-08-17T13:22:41Z</time>
      </trkpt>
      <trkpt lat="47.16328" lon="5.95301">
        <ele>402.6</ele>
        <time>2021-08-17T13:22:42Z</time>
      </trkpt>
      <trkpt lat="47.16331" lon="5.95305">
        <ele>402.4</ele>
        <time>2021-08-17T13:22:43Z</time>
      </trkpt>
      <trkpt lat="47.16331" lon="5.95308">
        <ele>402.4</ele>
        <time>2021-08-17T13:22:44Z</time>
      </trkpt>
      <trkpt lat="47.16334" lon="5.95312">
        <ele>402.2</ele>
        <time>2021-08-17T13:22:45Z</time>
      </trkpt>
      <trkpt lat="47.16348" lon="5.95331">
        <ele>401.8</ele>
        <time>2021-08-17T13:22:50Z</time>
      </trkpt>
      <trkpt lat="47.16354" lon="5.95343">
        <ele>401.4</ele>
        <time>2021-08-17T13:22:53Z</time>
      </trkpt>
      <trkpt lat="47.16358" lon="5.95348">
        <ele>401.2</ele>
        <time>2021-08-17T13:22:54Z</time>
      </trkpt>
      <trkpt lat="47.16361" lon="5.95355">
        <ele>401.2</ele>
        <time>2021-08-17T13:22:55Z</time>
      </trkpt>
      <trkpt lat="47.16371" lon="5.95379">
        <ele>400</ele>
        <time>2021-08-17T13:22:59Z</time>
      </trkpt>
      <trkpt lat="47.16377" lon="5.95387">
        <ele>399.8</ele>
        <time>2021-08-17T13:23:00Z</time>
      </trkpt>
      <trkpt lat="47.16382" lon="5.95396">
        <ele>398.8</ele>
        <time>2021-08-17T13:23:01Z</time>
      </trkpt>
      <trkpt lat="47.16391" lon="5.9541">
        <ele>397.8</ele>
        <time>2021-08-17T13:23:03Z</time>
      </trkpt>
      <trkpt lat="47.16395" lon="5.95416">
        <ele>397.6</ele>
        <time>2021-08-17T13:23:04Z</time>
      </trkpt>
      <trkpt lat="47.16399" lon="5.95421">
        <ele>397.4</ele>
        <time>2021-08-17T13:23:05Z</time>
      </trkpt>
      <trkpt lat="47.16415" lon="5.95439">
        <ele>396.4</ele>
        <time>2021-08-17T13:23:08Z</time>
      </trkpt>
      <trkpt lat="47.16419" lon="5.95444">
        <ele>396.2</ele>
        <time>2021-08-17T13:23:09Z</time>
      </trkpt>
      <trkpt lat="47.16422" lon="5.95449">
        <ele>395.8</ele>
        <time>2021-08-17T13:23:10Z</time>
      </trkpt>
      <trkpt lat="47.16424" lon="5.95454">
        <ele>395.8</ele>
        <time>2021-08-17T13:23:11Z</time>
      </trkpt>
      <trkpt lat="47.16424" lon="5.95457">
        <ele>395.4</ele>
        <time>2021-08-17T13:23:12Z</time>
      </trkpt>
      <trkpt lat="47.16425" lon="5.9546">
        <ele>395.4</ele>
        <time>2021-08-17T13:23:13Z</time>
      </trkpt>
      <trkpt lat="47.16426" lon="5.95462">
        <ele>395.2</ele>
        <time>2021-08-17T13:23:14Z</time>
      </trkpt>
      <trkpt lat="47.16428" lon="5.95466">
        <ele>395.2</ele>
        <time>2021-08-17T13:23:15Z</time>
      </trkpt>
      <trkpt lat="47.16429" lon="5.95469">
        <ele>395</ele>
        <time>2021-08-17T13:23:16Z</time>
      </trkpt>
      <trkpt lat="47.16431" lon="5.95472">
        <ele>394.6</ele>
        <time>2021-08-17T13:23:17Z</time>
      </trkpt>
      <trkpt lat="47.16433" lon="5.95475">
        <ele>394.4</ele>
        <time>2021-08-17T13:23:18Z</time>
      </trkpt>
      <trkpt lat="47.16435" lon="5.95479">
        <ele>394</ele>
        <time>2021-08-17T13:23:19Z</time>
      </trkpt>
      <trkpt lat="47.16439" lon="5.95487">
        <ele>393.6</ele>
        <time>2021-08-17T13:23:21Z</time>
      </trkpt>
      <trkpt lat="47.16446" lon="5.95495">
        <ele>392.6</ele>
        <time>2021-08-17T13:23:23Z</time>
      </trkpt>
      <trkpt lat="47.16453" lon="5.955">
        <ele>391.4</ele>
        <time>2021-08-17T13:23:25Z</time>
      </trkpt>
      <trkpt lat="47.16456" lon="5.95501">
        <ele>391</ele>
        <time>2021-08-17T13:23:26Z</time>
      </trkpt>
      <trkpt lat="47.16459" lon="5.95503">
        <ele>390.8</ele>
        <time>2021-08-17T13:23:27Z</time>
      </trkpt>
      <trkpt lat="47.16462" lon="5.95505">
        <ele>390.2</ele>
        <time>2021-08-17T13:23:28Z</time>
      </trkpt>
      <trkpt lat="47.16471" lon="5.95511">
        <ele>389.4</ele>
        <time>2021-08-17T13:23:30Z</time>
      </trkpt>
      <trkpt lat="47.16477" lon="5.95515">
        <ele>389</ele>
        <time>2021-08-17T13:23:31Z</time>
      </trkpt>
      <trkpt lat="47.16492" lon="5.95529">
        <ele>387.4</ele>
        <time>2021-08-17T13:23:34Z</time>
      </trkpt>
      <trkpt lat="47.16494" lon="5.95531">
        <ele>386.8</ele>
        <time>2021-08-17T13:23:35Z</time>
      </trkpt>
      <trkpt lat="47.16496" lon="5.95533">
        <ele>386.4</ele>
        <time>2021-08-17T13:23:36Z</time>
      </trkpt>
      <trkpt lat="47.16497" lon="5.95533">
        <ele>386</ele>
        <time>2021-08-17T13:23:37Z</time>
      </trkpt>
      <trkpt lat="47.16501" lon="5.95537">
        <ele>385.2</ele>
        <time>2021-08-17T13:24:17Z</time>
      </trkpt>
      <trkpt lat="47.16507" lon="5.95542">
        <ele>385.4</ele>
        <time>2021-08-17T13:24:20Z</time>
      </trkpt>
      <trkpt lat="47.16517" lon="5.9555">
        <ele>385.4</ele>
        <time>2021-08-17T13:24:25Z</time>
      </trkpt>
      <trkpt lat="47.16541" lon="5.95569">
        <ele>385.6</ele>
        <time>2021-08-17T13:24:35Z</time>
      </trkpt>
      <trkpt lat="47.16554" lon="5.9558">
        <ele>385.6</ele>
        <time>2021-08-17T13:24:41Z</time>
      </trkpt>
      <trkpt lat="47.16556" lon="5.95582">
        <ele>385.6</ele>
        <time>2021-08-17T13:24:42Z</time>
      </trkpt>
      <trkpt lat="47.16558" lon="5.95583">
        <ele>385.6</ele>
        <time>2021-08-17T13:24:43Z</time>
      </trkpt>
      <trkpt lat="47.1656" lon="5.95584">
        <ele>385.6</ele>
        <time>2021-08-17T13:24:44Z</time>
      </trkpt>
      <trkpt lat="47.16562" lon="5.95586">
        <ele>385.8</ele>
        <time>2021-08-17T13:24:45Z</time>
      </trkpt>
      <trkpt lat="47.16563" lon="5.95587">
        <ele>385.8</ele>
        <time>2021-08-17T13:24:46Z</time>
      </trkpt>
      <trkpt lat="47.16565" lon="5.95589">
        <ele>386</ele>
        <time>2021-08-17T13:24:47Z</time>
      </trkpt>
      <trkpt lat="47.16566" lon="5.95592">
        <ele>386</ele>
        <time>2021-08-17T13:24:48Z</time>
      </trkpt>
      <trkpt lat="47.16568" lon="5.95594">
        <ele>386</ele>
        <time>2021-08-17T13:24:49Z</time>
      </trkpt>
      <trkpt lat="47.16571" lon="5.95603">
        <ele>386</ele>
        <time>2021-08-17T13:24:51Z</time>
      </trkpt>
      <trkpt lat="47.1658" lon="5.95614">
        <ele>386</ele>
        <time>2021-08-17T13:24:54Z</time>
      </trkpt>
      <trkpt lat="47.16583" lon="5.95617">
        <ele>386</ele>
        <time>2021-08-17T13:24:55Z</time>
      </trkpt>
      <trkpt lat="47.16586" lon="5.95619">
        <ele>386</ele>
        <time>2021-08-17T13:24:56Z</time>
      </trkpt>
      <trkpt lat="47.16588" lon="5.95622">
        <ele>386</ele>
        <time>2021-08-17T13:24:57Z</time>
      </trkpt>
      <trkpt lat="47.16591" lon="5.95624">
        <ele>386</ele>
        <time>2021-08-17T13:24:58Z</time>
      </trkpt>
      <trkpt lat="47.16593" lon="5.95626">
        <ele>386</ele>
        <time>2021-08-17T13:24:59Z</time>
      </trkpt>
      <trkpt lat="47.16594" lon="5.95628">
        <ele>386.2</ele>
        <time>2021-08-17T13:25:00Z</time>
      </trkpt>
      <trkpt lat="47.16594" lon="5.95632">
        <ele>386.2</ele>
        <time>2021-08-17T13:25:01Z</time>
      </trkpt>
      <trkpt lat="47.16595" lon="5.95636">
        <ele>386.2</ele>
        <time>2021-08-17T13:25:02Z</time>
      </trkpt>
      <trkpt lat="47.16596" lon="5.9564">
        <ele>386.2</ele>
        <time>2021-08-17T13:25:03Z</time>
      </trkpt>
      <trkpt lat="47.16601" lon="5.95647">
        <ele>386.2</ele>
        <time>2021-08-17T13:25:05Z</time>
      </trkpt>
      <trkpt lat="47.16604" lon="5.9565">
        <ele>386.2</ele>
        <time>2021-08-17T13:25:06Z</time>
      </trkpt>
      <trkpt lat="47.16606" lon="5.95653">
        <ele>386.2</ele>
        <time>2021-08-17T13:25:07Z</time>
      </trkpt>
      <trkpt lat="47.16609" lon="5.95656">
        <ele>386.2</ele>
        <time>2021-08-17T13:25:08Z</time>
      </trkpt>
      <trkpt lat="47.16639" lon="5.95687">
        <ele>386.4</ele>
        <time>2021-08-17T13:25:18Z</time>
      </trkpt>
      <trkpt lat="47.16661" lon="5.95711">
        <ele>386.6</ele>
        <time>2021-08-17T13:25:25Z</time>
      </trkpt>
      <trkpt lat="47.16664" lon="5.95714">
        <ele>386.6</ele>
        <time>2021-08-17T13:25:26Z</time>
      </trkpt>
      <trkpt lat="47.16681" lon="5.95737">
        <ele>386.6</ele>
        <time>2021-08-17T13:25:32Z</time>
      </trkpt>
      <trkpt lat="47.16688" lon="5.95757">
        <ele>386.6</ele>
        <time>2021-08-17T13:25:36Z</time>
      </trkpt>
      <trkpt lat="47.1669" lon="5.95762">
        <ele>386.6</ele>
        <time>2021-08-17T13:25:37Z</time>
      </trkpt>
      <trkpt lat="47.16692" lon="5.95767">
        <ele>386.6</ele>
        <time>2021-08-17T13:25:38Z</time>
      </trkpt>
      <trkpt lat="47.16696" lon="5.95777">
        <ele>386.6</ele>
        <time>2021-08-17T13:25:40Z</time>
      </trkpt>
      <trkpt lat="47.16699" lon="5.95786">
        <ele>386.6</ele>
        <time>2021-08-17T13:25:42Z</time>
      </trkpt>
      <trkpt lat="47.16703" lon="5.95795">
        <ele>386.8</ele>
        <time>2021-08-17T13:25:44Z</time>
      </trkpt>
      <trkpt lat="47.16705" lon="5.958">
        <ele>387</ele>
        <time>2021-08-17T13:25:45Z</time>
      </trkpt>
      <trkpt lat="47.16707" lon="5.95805">
        <ele>387</ele>
        <time>2021-08-17T13:25:46Z</time>
      </trkpt>
      <trkpt lat="47.1671" lon="5.95815">
        <ele>387.2</ele>
        <time>2021-08-17T13:25:48Z</time>
      </trkpt>
      <trkpt lat="47.16719" lon="5.95851">
        <ele>387.2</ele>
        <time>2021-08-17T13:25:54Z</time>
      </trkpt>
      <trkpt lat="47.16723" lon="5.95864">
        <ele>387.2</ele>
        <time>2021-08-17T13:25:56Z</time>
      </trkpt>
      <trkpt lat="47.16732" lon="5.959">
        <ele>387</ele>
        <time>2021-08-17T13:26:02Z</time>
      </trkpt>
      <trkpt lat="47.16735" lon="5.9591">
        <ele>386.8</ele>
        <time>2021-08-17T13:26:04Z</time>
      </trkpt>
      <trkpt lat="47.16737" lon="5.95916">
        <ele>386.8</ele>
        <time>2021-08-17T13:26:05Z</time>
      </trkpt>
      <trkpt lat="47.16738" lon="5.95921">
        <ele>386.8</ele>
        <time>2021-08-17T13:26:06Z</time>
      </trkpt>
      <trkpt lat="47.16741" lon="5.95937">
        <ele>387</ele>
        <time>2021-08-17T13:26:09Z</time>
      </trkpt>
      <trkpt lat="47.16745" lon="5.95955">
        <ele>387</ele>
        <time>2021-08-17T13:26:12Z</time>
      </trkpt>
      <trkpt lat="47.16751" lon="5.96008">
        <ele>387</ele>
        <time>2021-08-17T13:26:20Z</time>
      </trkpt>
      <trkpt lat="47.16749" lon="5.96038">
        <ele>387</ele>
        <time>2021-08-17T13:26:25Z</time>
      </trkpt>
      <trkpt lat="47.16748" lon="5.96043">
        <ele>387</ele>
        <time>2021-08-17T13:26:26Z</time>
      </trkpt>
      <trkpt lat="47.16747" lon="5.96048">
        <ele>387</ele>
        <time>2021-08-17T13:26:27Z</time>
      </trkpt>
      <trkpt lat="47.16746" lon="5.96053">
        <ele>387.4</ele>
        <time>2021-08-17T13:26:28Z</time>
      </trkpt>
      <trkpt lat="47.16745" lon="5.96058">
        <ele>387.6</ele>
        <time>2021-08-17T13:26:29Z</time>
      </trkpt>
      <trkpt lat="47.16744" lon="5.96062">
        <ele>387.8</ele>
        <time>2021-08-17T13:26:30Z</time>
      </trkpt>
      <trkpt lat="47.16742" lon="5.96065">
        <ele>388</ele>
        <time>2021-08-17T13:26:31Z</time>
      </trkpt>
      <trkpt lat="47.16741" lon="5.96069">
        <ele>388.2</ele>
        <time>2021-08-17T13:26:32Z</time>
      </trkpt>
      <trkpt lat="47.1674" lon="5.96073">
        <ele>388.4</ele>
        <time>2021-08-17T13:26:33Z</time>
      </trkpt>
      <trkpt lat="47.16739" lon="5.96076">
        <ele>388.4</ele>
        <time>2021-08-17T13:26:34Z</time>
      </trkpt>
      <trkpt lat="47.16736" lon="5.96083">
        <ele>388.8</ele>
        <time>2021-08-17T13:26:36Z</time>
      </trkpt>
      <trkpt lat="47.16735" lon="5.96086">
        <ele>389.4</ele>
        <time>2021-08-17T13:26:37Z</time>
      </trkpt>
      <trkpt lat="47.16734" lon="5.96089">
        <ele>389.6</ele>
        <time>2021-08-17T13:26:38Z</time>
      </trkpt>
      <trkpt lat="47.16733" lon="5.96093">
        <ele>389.8</ele>
        <time>2021-08-17T13:26:39Z</time>
      </trkpt>
      <trkpt lat="47.16732" lon="5.96096">
        <ele>390</ele>
        <time>2021-08-17T13:26:40Z</time>
      </trkpt>
      <trkpt lat="47.16731" lon="5.96099">
        <ele>390.2</ele>
        <time>2021-08-17T13:26:41Z</time>
      </trkpt>
      <trkpt lat="47.1673" lon="5.96101">
        <ele>390.4</ele>
        <time>2021-08-17T13:26:42Z</time>
      </trkpt>
      <trkpt lat="47.16728" lon="5.96104">
        <ele>390.6</ele>
        <time>2021-08-17T13:26:43Z</time>
      </trkpt>
      <trkpt lat="47.16727" lon="5.96107">
        <ele>390.8</ele>
        <time>2021-08-17T13:26:44Z</time>
      </trkpt>
      <trkpt lat="47.16726" lon="5.96109">
        <ele>391</ele>
        <time>2021-08-17T13:26:45Z</time>
      </trkpt>
      <trkpt lat="47.16725" lon="5.96112">
        <ele>391.2</ele>
        <time>2021-08-17T13:26:46Z</time>
      </trkpt>
      <trkpt lat="47.16723" lon="5.96114">
        <ele>391.6</ele>
        <time>2021-08-17T13:26:47Z</time>
      </trkpt>
      <trkpt lat="47.16721" lon="5.96117">
        <ele>391.8</ele>
        <time>2021-08-17T13:26:48Z</time>
      </trkpt>
      <trkpt lat="47.1672" lon="5.96119">
        <ele>392</ele>
        <time>2021-08-17T13:26:49Z</time>
      </trkpt>
      <trkpt lat="47.16718" lon="5.96121">
        <ele>392.2</ele>
        <time>2021-08-17T13:26:50Z</time>
      </trkpt>
      <trkpt lat="47.16716" lon="5.96123">
        <ele>392.4</ele>
        <time>2021-08-17T13:26:51Z</time>
      </trkpt>
      <trkpt lat="47.16714" lon="5.96125">
        <ele>392.6</ele>
        <time>2021-08-17T13:26:52Z</time>
      </trkpt>
      <trkpt lat="47.16712" lon="5.96126">
        <ele>392.8</ele>
        <time>2021-08-17T13:26:53Z</time>
      </trkpt>
      <trkpt lat="47.1671" lon="5.96128">
        <ele>392.8</ele>
        <time>2021-08-17T13:26:54Z</time>
      </trkpt>
      <trkpt lat="47.16708" lon="5.96129">
        <ele>392.8</ele>
        <time>2021-08-17T13:26:55Z</time>
      </trkpt>
      <trkpt lat="47.16706" lon="5.96131">
        <ele>392.8</ele>
        <time>2021-08-17T13:26:56Z</time>
      </trkpt>
      <trkpt lat="47.16704" lon="5.96132">
        <ele>393</ele>
        <time>2021-08-17T13:26:57Z</time>
      </trkpt>
      <trkpt lat="47.16702" lon="5.96132">
        <ele>393.2</ele>
        <time>2021-08-17T13:26:58Z</time>
      </trkpt>
      <trkpt lat="47.167" lon="5.96133">
        <ele>393.2</ele>
        <time>2021-08-17T13:26:59Z</time>
      </trkpt>
      <trkpt lat="47.16698" lon="5.96134">
        <ele>393.2</ele>
        <time>2021-08-17T13:27:00Z</time>
      </trkpt>
      <trkpt lat="47.16696" lon="5.96134">
        <ele>393.4</ele>
        <time>2021-08-17T13:27:01Z</time>
      </trkpt>
      <trkpt lat="47.16694" lon="5.96134">
        <ele>393.6</ele>
        <time>2021-08-17T13:27:02Z</time>
      </trkpt>
      <trkpt lat="47.16692" lon="5.96134">
        <ele>393.8</ele>
        <time>2021-08-17T13:27:03Z</time>
      </trkpt>
      <trkpt lat="47.1669" lon="5.96134">
        <ele>393.8</ele>
        <time>2021-08-17T13:27:04Z</time>
      </trkpt>
      <trkpt lat="47.16688" lon="5.96134">
        <ele>394</ele>
        <time>2021-08-17T13:27:05Z</time>
      </trkpt>
      <trkpt lat="47.16685" lon="5.96134">
        <ele>394.2</ele>
        <time>2021-08-17T13:27:06Z</time>
      </trkpt>
      <trkpt lat="47.16683" lon="5.96133">
        <ele>394.4</ele>
        <time>2021-08-17T13:27:07Z</time>
      </trkpt>
      <trkpt lat="47.16681" lon="5.96133">
        <ele>394.6</ele>
        <time>2021-08-17T13:27:08Z</time>
      </trkpt>
      <trkpt lat="47.16679" lon="5.96132">
        <ele>394.8</ele>
        <time>2021-08-17T13:27:09Z</time>
      </trkpt>
      <trkpt lat="47.16676" lon="5.96132">
        <ele>394.8</ele>
        <time>2021-08-17T13:27:10Z</time>
      </trkpt>
      <trkpt lat="47.16674" lon="5.96132">
        <ele>395</ele>
        <time>2021-08-17T13:27:11Z</time>
      </trkpt>
      <trkpt lat="47.16672" lon="5.96132">
        <ele>395.2</ele>
        <time>2021-08-17T13:27:12Z</time>
      </trkpt>
      <trkpt lat="47.1667" lon="5.96132">
        <ele>395.2</ele>
        <time>2021-08-17T13:27:13Z</time>
      </trkpt>
      <trkpt lat="47.16667" lon="5.96132">
        <ele>395.2</ele>
        <time>2021-08-17T13:27:14Z</time>
      </trkpt>
      <trkpt lat="47.16665" lon="5.96132">
        <ele>395.4</ele>
        <time>2021-08-17T13:27:15Z</time>
      </trkpt>
      <trkpt lat="47.16663" lon="5.96133">
        <ele>395.4</ele>
        <time>2021-08-17T13:27:16Z</time>
      </trkpt>
      <trkpt lat="47.16661" lon="5.96133">
        <ele>395.6</ele>
        <time>2021-08-17T13:27:17Z</time>
      </trkpt>
      <trkpt lat="47.16658" lon="5.96133">
        <ele>395.8</ele>
        <time>2021-08-17T13:27:18Z</time>
      </trkpt>
      <trkpt lat="47.16656" lon="5.96133">
        <ele>395.8</ele>
        <time>2021-08-17T13:27:19Z</time>
      </trkpt>
      <trkpt lat="47.16653" lon="5.96133">
        <ele>396</ele>
        <time>2021-08-17T13:27:20Z</time>
      </trkpt>
      <trkpt lat="47.16651" lon="5.96133">
        <ele>396.2</ele>
        <time>2021-08-17T13:27:21Z</time>
      </trkpt>
      <trkpt lat="47.16649" lon="5.96134">
        <ele>396.4</ele>
        <time>2021-08-17T13:27:22Z</time>
      </trkpt>
      <trkpt lat="47.16647" lon="5.96135">
        <ele>396.4</ele>
        <time>2021-08-17T13:27:23Z</time>
      </trkpt>
      <trkpt lat="47.16645" lon="5.96136">
        <ele>396.6</ele>
        <time>2021-08-17T13:27:24Z</time>
      </trkpt>
      <trkpt lat="47.16643" lon="5.96137">
        <ele>396.8</ele>
        <time>2021-08-17T13:27:25Z</time>
      </trkpt>
      <trkpt lat="47.16641" lon="5.96139">
        <ele>397</ele>
        <time>2021-08-17T13:27:26Z</time>
      </trkpt>
      <trkpt lat="47.16639" lon="5.9614">
        <ele>397.2</ele>
        <time>2021-08-17T13:27:27Z</time>
      </trkpt>
      <trkpt lat="47.16637" lon="5.96141">
        <ele>397.4</ele>
        <time>2021-08-17T13:27:28Z</time>
      </trkpt>
      <trkpt lat="47.16635" lon="5.96143">
        <ele>397.4</ele>
        <time>2021-08-17T13:27:29Z</time>
      </trkpt>
      <trkpt lat="47.16634" lon="5.96144">
        <ele>397.8</ele>
        <time>2021-08-17T13:27:30Z</time>
      </trkpt>
      <trkpt lat="47.16632" lon="5.96146">
        <ele>398</ele>
        <time>2021-08-17T13:27:31Z</time>
      </trkpt>
      <trkpt lat="47.1663" lon="5.96147">
        <ele>398.2</ele>
        <time>2021-08-17T13:27:32Z</time>
      </trkpt>
      <trkpt lat="47.16629" lon="5.9615">
        <ele>398.4</ele>
        <time>2021-08-17T13:27:33Z</time>
      </trkpt>
      <trkpt lat="47.16628" lon="5.96152">
        <ele>398.8</ele>
        <time>2021-08-17T13:27:34Z</time>
      </trkpt>
      <trkpt lat="47.16627" lon="5.96154">
        <ele>399</ele>
        <time>2021-08-17T13:27:35Z</time>
      </trkpt>
      <trkpt lat="47.16626" lon="5.96156">
        <ele>399.2</ele>
        <time>2021-08-17T13:27:36Z</time>
      </trkpt>
      <trkpt lat="47.16625" lon="5.96158">
        <ele>399.4</ele>
        <time>2021-08-17T13:27:37Z</time>
      </trkpt>
      <trkpt lat="47.16623" lon="5.9616">
        <ele>399.6</ele>
        <time>2021-08-17T13:27:38Z</time>
      </trkpt>
      <trkpt lat="47.16622" lon="5.96162">
        <ele>399.8</ele>
        <time>2021-08-17T13:27:39Z</time>
      </trkpt>
      <trkpt lat="47.16621" lon="5.96164">
        <ele>400</ele>
        <time>2021-08-17T13:27:40Z</time>
      </trkpt>
      <trkpt lat="47.1662" lon="5.96166">
        <ele>400.2</ele>
        <time>2021-08-17T13:27:41Z</time>
      </trkpt>
      <trkpt lat="47.16619" lon="5.96167">
        <ele>400.2</ele>
        <time>2021-08-17T13:27:42Z</time>
      </trkpt>
      <trkpt lat="47.16618" lon="5.96168">
        <ele>400.4</ele>
        <time>2021-08-17T13:27:43Z</time>
      </trkpt>
      <trkpt lat="47.16616" lon="5.9617">
        <ele>400.6</ele>
        <time>2021-08-17T13:27:44Z</time>
      </trkpt>
      <trkpt lat="47.16615" lon="5.96171">
        <ele>400.8</ele>
        <time>2021-08-17T13:27:45Z</time>
      </trkpt>
      <trkpt lat="47.16614" lon="5.96173">
        <ele>401.2</ele>
        <time>2021-08-17T13:27:46Z</time>
      </trkpt>
      <trkpt lat="47.16613" lon="5.96175">
        <ele>401.2</ele>
        <time>2021-08-17T13:27:47Z</time>
      </trkpt>
      <trkpt lat="47.16612" lon="5.96177">
        <ele>401.4</ele>
        <time>2021-08-17T13:27:48Z</time>
      </trkpt>
      <trkpt lat="47.16611" lon="5.96179">
        <ele>401.6</ele>
        <time>2021-08-17T13:27:49Z</time>
      </trkpt>
      <trkpt lat="47.1661" lon="5.9618">
        <ele>402</ele>
        <time>2021-08-17T13:27:50Z</time>
      </trkpt>
      <trkpt lat="47.16609" lon="5.96181">
        <ele>402.2</ele>
        <time>2021-08-17T13:27:51Z</time>
      </trkpt>
      <trkpt lat="47.16608" lon="5.96182">
        <ele>402.4</ele>
        <time>2021-08-17T13:27:52Z</time>
      </trkpt>
      <trkpt lat="47.16607" lon="5.96183">
        <ele>402.6</ele>
        <time>2021-08-17T13:27:53Z</time>
      </trkpt>
      <trkpt lat="47.16606" lon="5.96185">
        <ele>403</ele>
        <time>2021-08-17T13:27:54Z</time>
      </trkpt>
      <trkpt lat="47.16605" lon="5.96186">
        <ele>403.2</ele>
        <time>2021-08-17T13:27:55Z</time>
      </trkpt>
      <trkpt lat="47.16604" lon="5.96187">
        <ele>403.2</ele>
        <time>2021-08-17T13:27:56Z</time>
      </trkpt>
      <trkpt lat="47.16603" lon="5.96188">
        <ele>403.6</ele>
        <time>2021-08-17T13:27:57Z</time>
      </trkpt>
      <trkpt lat="47.16601" lon="5.96189">
        <ele>403.8</ele>
        <time>2021-08-17T13:27:58Z</time>
      </trkpt>
      <trkpt lat="47.16599" lon="5.9619">
        <ele>404.2</ele>
        <time>2021-08-17T13:27:59Z</time>
      </trkpt>
      <trkpt lat="47.16598" lon="5.9619">
        <ele>404.2</ele>
        <time>2021-08-17T13:28:00Z</time>
      </trkpt>
      <trkpt lat="47.16596" lon="5.96191">
        <ele>404.4</ele>
        <time>2021-08-17T13:28:01Z</time>
      </trkpt>
      <trkpt lat="47.16595" lon="5.96192">
        <ele>404.6</ele>
        <time>2021-08-17T13:28:02Z</time>
      </trkpt>
      <trkpt lat="47.16593" lon="5.96193">
        <ele>404.6</ele>
        <time>2021-08-17T13:28:03Z</time>
      </trkpt>
      <trkpt lat="47.16592" lon="5.96194">
        <ele>404.6</ele>
        <time>2021-08-17T13:28:04Z</time>
      </trkpt>
      <trkpt lat="47.16591" lon="5.96195">
        <ele>404.6</ele>
        <time>2021-08-17T13:28:05Z</time>
      </trkpt>
      <trkpt lat="47.16589" lon="5.96196">
        <ele>404.6</ele>
        <time>2021-08-17T13:28:06Z</time>
      </trkpt>
      <trkpt lat="47.16588" lon="5.96197">
        <ele>404.8</ele>
        <time>2021-08-17T13:28:07Z</time>
      </trkpt>
      <trkpt lat="47.16586" lon="5.96198">
        <ele>404.8</ele>
        <time>2021-08-17T13:28:08Z</time>
      </trkpt>
      <trkpt lat="47.16585" lon="5.96199">
        <ele>404.8</ele>
        <time>2021-08-17T13:28:09Z</time>
      </trkpt>
      <trkpt lat="47.16584" lon="5.962">
        <ele>405</ele>
        <time>2021-08-17T13:28:10Z</time>
      </trkpt>
      <trkpt lat="47.16582" lon="5.96201">
        <ele>405</ele>
        <time>2021-08-17T13:28:11Z</time>
      </trkpt>
      <trkpt lat="47.16581" lon="5.96202">
        <ele>405.2</ele>
        <time>2021-08-17T13:28:12Z</time>
      </trkpt>
      <trkpt lat="47.16579" lon="5.96203">
        <ele>405.2</ele>
        <time>2021-08-17T13:28:13Z</time>
      </trkpt>
      <trkpt lat="47.16578" lon="5.96203">
        <ele>405.4</ele>
        <time>2021-08-17T13:28:14Z</time>
      </trkpt>
      <trkpt lat="47.16576" lon="5.96204">
        <ele>405.6</ele>
        <time>2021-08-17T13:28:15Z</time>
      </trkpt>
      <trkpt lat="47.16574" lon="5.96204">
        <ele>405.8</ele>
        <time>2021-08-17T13:28:16Z</time>
      </trkpt>
      <trkpt lat="47.16573" lon="5.96205">
        <ele>406</ele>
        <time>2021-08-17T13:28:17Z</time>
      </trkpt>
      <trkpt lat="47.16571" lon="5.96205">
        <ele>406</ele>
        <time>2021-08-17T13:28:18Z</time>
      </trkpt>
      <trkpt lat="47.1657" lon="5.96205">
        <ele>406.4</ele>
        <time>2021-08-17T13:28:19Z</time>
      </trkpt>
      <trkpt lat="47.16568" lon="5.96205">
        <ele>406.6</ele>
        <time>2021-08-17T13:28:20Z</time>
      </trkpt>
      <trkpt lat="47.16566" lon="5.96205">
        <ele>406.8</ele>
        <time>2021-08-17T13:28:22Z</time>
      </trkpt>
      <trkpt lat="47.16565" lon="5.96205">
        <ele>407</ele>
        <time>2021-08-17T13:28:23Z</time>
      </trkpt>
      <trkpt lat="47.16563" lon="5.96205">
        <ele>407</ele>
        <time>2021-08-17T13:28:24Z</time>
      </trkpt>
      <trkpt lat="47.16562" lon="5.96205">
        <ele>407.4</ele>
        <time>2021-08-17T13:28:25Z</time>
      </trkpt>
      <trkpt lat="47.1656" lon="5.96204">
        <ele>407.4</ele>
        <time>2021-08-17T13:28:26Z</time>
      </trkpt>
      <trkpt lat="47.16558" lon="5.96204">
        <ele>407.8</ele>
        <time>2021-08-17T13:28:27Z</time>
      </trkpt>
      <trkpt lat="47.16557" lon="5.96204">
        <ele>408</ele>
        <time>2021-08-17T13:28:28Z</time>
      </trkpt>
      <trkpt lat="47.16556" lon="5.96203">
        <ele>408.2</ele>
        <time>2021-08-17T13:28:29Z</time>
      </trkpt>
      <trkpt lat="47.16554" lon="5.96203">
        <ele>408.4</ele>
        <time>2021-08-17T13:28:30Z</time>
      </trkpt>
      <trkpt lat="47.16553" lon="5.96202">
        <ele>408.8</ele>
        <time>2021-08-17T13:28:31Z</time>
      </trkpt>
      <trkpt lat="47.16551" lon="5.96202">
        <ele>409.4</ele>
        <time>2021-08-17T13:28:32Z</time>
      </trkpt>
      <trkpt lat="47.1655" lon="5.96202">
        <ele>409.6</ele>
        <time>2021-08-17T13:28:33Z</time>
      </trkpt>
      <trkpt lat="47.16548" lon="5.96201">
        <ele>410</ele>
        <time>2021-08-17T13:28:34Z</time>
      </trkpt>
      <trkpt lat="47.16547" lon="5.96201">
        <ele>410.2</ele>
        <time>2021-08-17T13:28:35Z</time>
      </trkpt>
      <trkpt lat="47.16546" lon="5.96201">
        <ele>410.4</ele>
        <time>2021-08-17T13:28:36Z</time>
      </trkpt>
      <trkpt lat="47.16544" lon="5.96201">
        <ele>410.8</ele>
        <time>2021-08-17T13:28:37Z</time>
      </trkpt>
      <trkpt lat="47.16543" lon="5.962">
        <ele>411</ele>
        <time>2021-08-17T13:28:38Z</time>
      </trkpt>
      <trkpt lat="47.16541" lon="5.962">
        <ele>411.4</ele>
        <time>2021-08-17T13:28:39Z</time>
      </trkpt>
      <trkpt lat="47.1654" lon="5.962">
        <ele>411.4</ele>
        <time>2021-08-17T13:28:40Z</time>
      </trkpt>
      <trkpt lat="47.16539" lon="5.962">
        <ele>411.6</ele>
        <time>2021-08-17T13:28:41Z</time>
      </trkpt>
      <trkpt lat="47.16537" lon="5.962">
        <ele>411.8</ele>
        <time>2021-08-17T13:28:42Z</time>
      </trkpt>
      <trkpt lat="47.16535" lon="5.962">
        <ele>412</ele>
        <time>2021-08-17T13:28:43Z</time>
      </trkpt>
      <trkpt lat="47.16534" lon="5.962">
        <ele>412.2</ele>
        <time>2021-08-17T13:28:44Z</time>
      </trkpt>
      <trkpt lat="47.16532" lon="5.96199">
        <ele>412.4</ele>
        <time>2021-08-17T13:28:45Z</time>
      </trkpt>
      <trkpt lat="47.16531" lon="5.96199">
        <ele>412.6</ele>
        <time>2021-08-17T13:28:46Z</time>
      </trkpt>
      <trkpt lat="47.16529" lon="5.96199">
        <ele>412.6</ele>
        <time>2021-08-17T13:28:47Z</time>
      </trkpt>
      <trkpt lat="47.16527" lon="5.96198">
        <ele>412.8</ele>
        <time>2021-08-17T13:28:48Z</time>
      </trkpt>
      <trkpt lat="47.16526" lon="5.96198">
        <ele>413</ele>
        <time>2021-08-17T13:28:49Z</time>
      </trkpt>
      <trkpt lat="47.16524" lon="5.96198">
        <ele>413.2</ele>
        <time>2021-08-17T13:28:50Z</time>
      </trkpt>
      <trkpt lat="47.16523" lon="5.96198">
        <ele>413.2</ele>
        <time>2021-08-17T13:28:51Z</time>
      </trkpt>
      <trkpt lat="47.16521" lon="5.96198">
        <ele>413.4</ele>
        <time>2021-08-17T13:28:52Z</time>
      </trkpt>
      <trkpt lat="47.1652" lon="5.96198">
        <ele>413.6</ele>
        <time>2021-08-17T13:28:53Z</time>
      </trkpt>
      <trkpt lat="47.16518" lon="5.96198">
        <ele>413.6</ele>
        <time>2021-08-17T13:28:54Z</time>
      </trkpt>
      <trkpt lat="47.16517" lon="5.96198">
        <ele>413.8</ele>
        <time>2021-08-17T13:28:55Z</time>
      </trkpt>
      <trkpt lat="47.16515" lon="5.96199">
        <ele>413.8</ele>
        <time>2021-08-17T13:28:56Z</time>
      </trkpt>
      <trkpt lat="47.16514" lon="5.96199">
        <ele>414</ele>
        <time>2021-08-17T13:28:57Z</time>
      </trkpt>
      <trkpt lat="47.16512" lon="5.96199">
        <ele>414</ele>
        <time>2021-08-17T13:28:58Z</time>
      </trkpt>
      <trkpt lat="47.16511" lon="5.962">
        <ele>414</ele>
        <time>2021-08-17T13:28:59Z</time>
      </trkpt>
      <trkpt lat="47.16509" lon="5.962">
        <ele>414.2</ele>
        <time>2021-08-17T13:29:00Z</time>
      </trkpt>
      <trkpt lat="47.16507" lon="5.96201">
        <ele>414.2</ele>
        <time>2021-08-17T13:29:01Z</time>
      </trkpt>
      <trkpt lat="47.16505" lon="5.96202">
        <ele>414.2</ele>
        <time>2021-08-17T13:29:02Z</time>
      </trkpt>
      <trkpt lat="47.16504" lon="5.96203">
        <ele>414.4</ele>
        <time>2021-08-17T13:29:03Z</time>
      </trkpt>
      <trkpt lat="47.16502" lon="5.96204">
        <ele>414.6</ele>
        <time>2021-08-17T13:29:04Z</time>
      </trkpt>
      <trkpt lat="47.165" lon="5.96205">
        <ele>414.6</ele>
        <time>2021-08-17T13:29:05Z</time>
      </trkpt>
      <trkpt lat="47.16497" lon="5.96207">
        <ele>414.6</ele>
        <time>2021-08-17T13:29:06Z</time>
      </trkpt>
      <trkpt lat="47.16495" lon="5.96209">
        <ele>414.6</ele>
        <time>2021-08-17T13:29:07Z</time>
      </trkpt>
      <trkpt lat="47.16493" lon="5.96211">
        <ele>414.8</ele>
        <time>2021-08-17T13:29:08Z</time>
      </trkpt>
      <trkpt lat="47.16492" lon="5.96213">
        <ele>414.8</ele>
        <time>2021-08-17T13:29:09Z</time>
      </trkpt>
      <trkpt lat="47.1649" lon="5.96215">
        <ele>414.8</ele>
        <time>2021-08-17T13:29:10Z</time>
      </trkpt>
      <trkpt lat="47.16488" lon="5.96218">
        <ele>415</ele>
        <time>2021-08-17T13:29:11Z</time>
      </trkpt>
      <trkpt lat="47.16486" lon="5.96221">
        <ele>415</ele>
        <time>2021-08-17T13:29:12Z</time>
      </trkpt>
      <trkpt lat="47.16484" lon="5.96224">
        <ele>415</ele>
        <time>2021-08-17T13:29:13Z</time>
      </trkpt>
      <trkpt lat="47.16483" lon="5.96227">
        <ele>415</ele>
        <time>2021-08-17T13:29:14Z</time>
      </trkpt>
      <trkpt lat="47.16481" lon="5.96231">
        <ele>415</ele>
        <time>2021-08-17T13:29:15Z</time>
      </trkpt>
      <trkpt lat="47.16479" lon="5.96234">
        <ele>415</ele>
        <time>2021-08-17T13:29:16Z</time>
      </trkpt>
      <trkpt lat="47.16475" lon="5.96245">
        <ele>415</ele>
        <time>2021-08-17T13:29:19Z</time>
      </trkpt>
      <trkpt lat="47.1647" lon="5.9625">
        <ele>414.8</ele>
        <time>2021-08-17T13:29:21Z</time>
      </trkpt>
      <trkpt lat="47.16467" lon="5.96252">
        <ele>414.8</ele>
        <time>2021-08-17T13:29:22Z</time>
      </trkpt>
      <trkpt lat="47.16464" lon="5.96253">
        <ele>414.8</ele>
        <time>2021-08-17T13:29:23Z</time>
      </trkpt>
      <trkpt lat="47.16461" lon="5.96253">
        <ele>414.8</ele>
        <time>2021-08-17T13:29:24Z</time>
      </trkpt>
      <trkpt lat="47.16458" lon="5.96253">
        <ele>414.8</ele>
        <time>2021-08-17T13:29:25Z</time>
      </trkpt>
      <trkpt lat="47.16455" lon="5.96252">
        <ele>414.8</ele>
        <time>2021-08-17T13:29:26Z</time>
      </trkpt>
      <trkpt lat="47.1645" lon="5.96251">
        <ele>414.6</ele>
        <time>2021-08-17T13:29:28Z</time>
      </trkpt>
      <trkpt lat="47.16447" lon="5.96251">
        <ele>414.6</ele>
        <time>2021-08-17T13:29:29Z</time>
      </trkpt>
      <trkpt lat="47.16445" lon="5.96249">
        <ele>414.6</ele>
        <time>2021-08-17T13:29:30Z</time>
      </trkpt>
      <trkpt lat="47.16442" lon="5.96249">
        <ele>414.6</ele>
        <time>2021-08-17T13:29:31Z</time>
      </trkpt>
      <trkpt lat="47.1644" lon="5.96248">
        <ele>414.6</ele>
        <time>2021-08-17T13:29:32Z</time>
      </trkpt>
      <trkpt lat="47.16438" lon="5.96248">
        <ele>414.6</ele>
        <time>2021-08-17T13:29:33Z</time>
      </trkpt>
      <trkpt lat="47.16437" lon="5.96248">
        <ele>414.6</ele>
        <time>2021-08-17T13:29:34Z</time>
      </trkpt>
      <trkpt lat="47.16435" lon="5.96248">
        <ele>414.6</ele>
        <time>2021-08-17T13:29:35Z</time>
      </trkpt>
      <trkpt lat="47.16434" lon="5.96247">
        <ele>414.6</ele>
        <time>2021-08-17T13:29:36Z</time>
      </trkpt>
      <trkpt lat="47.16433" lon="5.96246">
        <ele>414.6</ele>
        <time>2021-08-17T13:29:37Z</time>
      </trkpt>
      <trkpt lat="47.16431" lon="5.96246">
        <ele>414.8</ele>
        <time>2021-08-17T13:29:38Z</time>
      </trkpt>
      <trkpt lat="47.16427" lon="5.96245">
        <ele>414.8</ele>
        <time>2021-08-17T13:29:40Z</time>
      </trkpt>
      <trkpt lat="47.16424" lon="5.96245">
        <ele>415</ele>
        <time>2021-08-17T13:29:42Z</time>
      </trkpt>
      <trkpt lat="47.16421" lon="5.96245">
        <ele>415</ele>
        <time>2021-08-17T13:29:43Z</time>
      </trkpt>
      <trkpt lat="47.1642" lon="5.96244">
        <ele>415.2</ele>
        <time>2021-08-17T13:29:44Z</time>
      </trkpt>
      <trkpt lat="47.16418" lon="5.96244">
        <ele>415.4</ele>
        <time>2021-08-17T13:29:45Z</time>
      </trkpt>
      <trkpt lat="47.16416" lon="5.96244">
        <ele>415.6</ele>
        <time>2021-08-17T13:29:46Z</time>
      </trkpt>
      <trkpt lat="47.16415" lon="5.96244">
        <ele>415.6</ele>
        <time>2021-08-17T13:29:47Z</time>
      </trkpt>
      <trkpt lat="47.16414" lon="5.96243">
        <ele>415.6</ele>
        <time>2021-08-17T13:29:48Z</time>
      </trkpt>
      <trkpt lat="47.16413" lon="5.96243">
        <ele>416</ele>
        <time>2021-08-17T13:29:49Z</time>
      </trkpt>
      <trkpt lat="47.16412" lon="5.96243">
        <ele>416.2</ele>
        <time>2021-08-17T13:29:50Z</time>
      </trkpt>
      <trkpt lat="47.1641" lon="5.96242">
        <ele>416.4</ele>
        <time>2021-08-17T13:29:51Z</time>
      </trkpt>
      <trkpt lat="47.16406" lon="5.9624">
        <ele>417</ele>
        <time>2021-08-17T13:29:54Z</time>
      </trkpt>
      <trkpt lat="47.16405" lon="5.9624">
        <ele>417</ele>
        <time>2021-08-17T13:29:55Z</time>
      </trkpt>
      <trkpt lat="47.16403" lon="5.96238">
        <ele>417.6</ele>
        <time>2021-08-17T13:29:56Z</time>
      </trkpt>
      <trkpt lat="47.16401" lon="5.96237">
        <ele>417.6</ele>
        <time>2021-08-17T13:29:57Z</time>
      </trkpt>
      <trkpt lat="47.16397" lon="5.96235">
        <ele>417.8</ele>
        <time>2021-08-17T13:29:59Z</time>
      </trkpt>
      <trkpt lat="47.16395" lon="5.96234">
        <ele>418</ele>
        <time>2021-08-17T13:30:00Z</time>
      </trkpt>
      <trkpt lat="47.16393" lon="5.96233">
        <ele>418.4</ele>
        <time>2021-08-17T13:30:01Z</time>
      </trkpt>
      <trkpt lat="47.16391" lon="5.96233">
        <ele>418.6</ele>
        <time>2021-08-17T13:30:02Z</time>
      </trkpt>
      <trkpt lat="47.16389" lon="5.96233">
        <ele>419</ele>
        <time>2021-08-17T13:30:03Z</time>
      </trkpt>
      <trkpt lat="47.16387" lon="5.96232">
        <ele>419</ele>
        <time>2021-08-17T13:30:04Z</time>
      </trkpt>
      <trkpt lat="47.16384" lon="5.96231">
        <ele>419.4</ele>
        <time>2021-08-17T13:30:05Z</time>
      </trkpt>
      <trkpt lat="47.16382" lon="5.9623">
        <ele>419.8</ele>
        <time>2021-08-17T13:30:06Z</time>
      </trkpt>
      <trkpt lat="47.1638" lon="5.96229">
        <ele>420.2</ele>
        <time>2021-08-17T13:30:07Z</time>
      </trkpt>
      <trkpt lat="47.16379" lon="5.96228">
        <ele>420.4</ele>
        <time>2021-08-17T13:30:08Z</time>
      </trkpt>
      <trkpt lat="47.16377" lon="5.96228">
        <ele>420.6</ele>
        <time>2021-08-17T13:30:09Z</time>
      </trkpt>
      <trkpt lat="47.16375" lon="5.96228">
        <ele>420.8</ele>
        <time>2021-08-17T13:30:10Z</time>
      </trkpt>
      <trkpt lat="47.16373" lon="5.96227">
        <ele>421</ele>
        <time>2021-08-17T13:30:11Z</time>
      </trkpt>
      <trkpt lat="47.16371" lon="5.96225">
        <ele>421.4</ele>
        <time>2021-08-17T13:30:12Z</time>
      </trkpt>
      <trkpt lat="47.1637" lon="5.96225">
        <ele>421.4</ele>
        <time>2021-08-17T13:30:13Z</time>
      </trkpt>
      <trkpt lat="47.16368" lon="5.96224">
        <ele>421.8</ele>
        <time>2021-08-17T13:30:14Z</time>
      </trkpt>
      <trkpt lat="47.16365" lon="5.96222">
        <ele>422.2</ele>
        <time>2021-08-17T13:30:15Z</time>
      </trkpt>
      <trkpt lat="47.16363" lon="5.96221">
        <ele>422.8</ele>
        <time>2021-08-17T13:30:16Z</time>
      </trkpt>
      <trkpt lat="47.16361" lon="5.9622">
        <ele>423</ele>
        <time>2021-08-17T13:30:17Z</time>
      </trkpt>
      <trkpt lat="47.16359" lon="5.9622">
        <ele>423.4</ele>
        <time>2021-08-17T13:30:18Z</time>
      </trkpt>
      <trkpt lat="47.16358" lon="5.9622">
        <ele>423.6</ele>
        <time>2021-08-17T13:30:19Z</time>
      </trkpt>
      <trkpt lat="47.16356" lon="5.9622">
        <ele>423.8</ele>
        <time>2021-08-17T13:30:20Z</time>
      </trkpt>
      <trkpt lat="47.16355" lon="5.96219">
        <ele>424.2</ele>
        <time>2021-08-17T13:30:21Z</time>
      </trkpt>
      <trkpt lat="47.16353" lon="5.96217">
        <ele>424.4</ele>
        <time>2021-08-17T13:30:22Z</time>
      </trkpt>
      <trkpt lat="47.16352" lon="5.96216">
        <ele>424.8</ele>
        <time>2021-08-17T13:30:23Z</time>
      </trkpt>
      <trkpt lat="47.16351" lon="5.96216">
        <ele>424.8</ele>
        <time>2021-08-17T13:30:24Z</time>
      </trkpt>
      <trkpt lat="47.1635" lon="5.96215">
        <ele>425.2</ele>
        <time>2021-08-17T13:30:25Z</time>
      </trkpt>
      <trkpt lat="47.16348" lon="5.96214">
        <ele>425.6</ele>
        <time>2021-08-17T13:30:26Z</time>
      </trkpt>
      <trkpt lat="47.16346" lon="5.96213">
        <ele>425.8</ele>
        <time>2021-08-17T13:30:27Z</time>
      </trkpt>
      <trkpt lat="47.16344" lon="5.96211">
        <ele>426.2</ele>
        <time>2021-08-17T13:30:28Z</time>
      </trkpt>
      <trkpt lat="47.16343" lon="5.9621">
        <ele>426.4</ele>
        <time>2021-08-17T13:30:29Z</time>
      </trkpt>
      <trkpt lat="47.16342" lon="5.9621">
        <ele>426.6</ele>
        <time>2021-08-17T13:30:30Z</time>
      </trkpt>
      <trkpt lat="47.1634" lon="5.96209">
        <ele>426.8</ele>
        <time>2021-08-17T13:30:31Z</time>
      </trkpt>
      <trkpt lat="47.16339" lon="5.96207">
        <ele>427</ele>
        <time>2021-08-17T13:30:32Z</time>
      </trkpt>
      <trkpt lat="47.16337" lon="5.96205">
        <ele>427</ele>
        <time>2021-08-17T13:30:33Z</time>
      </trkpt>
      <trkpt lat="47.16335" lon="5.96204">
        <ele>427.4</ele>
        <time>2021-08-17T13:30:34Z</time>
      </trkpt>
      <trkpt lat="47.16334" lon="5.96203">
        <ele>427.8</ele>
        <time>2021-08-17T13:30:35Z</time>
      </trkpt>
      <trkpt lat="47.16332" lon="5.96202">
        <ele>428</ele>
        <time>2021-08-17T13:30:36Z</time>
      </trkpt>
      <trkpt lat="47.16331" lon="5.96201">
        <ele>428.2</ele>
        <time>2021-08-17T13:30:37Z</time>
      </trkpt>
      <trkpt lat="47.16329" lon="5.962">
        <ele>428.2</ele>
        <time>2021-08-17T13:30:38Z</time>
      </trkpt>
      <trkpt lat="47.16327" lon="5.962">
        <ele>428.4</ele>
        <time>2021-08-17T13:30:39Z</time>
      </trkpt>
      <trkpt lat="47.16326" lon="5.96199">
        <ele>428.6</ele>
        <time>2021-08-17T13:30:40Z</time>
      </trkpt>
      <trkpt lat="47.16324" lon="5.96198">
        <ele>428.6</ele>
        <time>2021-08-17T13:30:41Z</time>
      </trkpt>
      <trkpt lat="47.16322" lon="5.96197">
        <ele>428.8</ele>
        <time>2021-08-17T13:30:42Z</time>
      </trkpt>
      <trkpt lat="47.16321" lon="5.96197">
        <ele>429</ele>
        <time>2021-08-17T13:30:43Z</time>
      </trkpt>
      <trkpt lat="47.1632" lon="5.96197">
        <ele>429.2</ele>
        <time>2021-08-17T13:30:44Z</time>
      </trkpt>
      <trkpt lat="47.16319" lon="5.96197">
        <ele>429.4</ele>
        <time>2021-08-17T13:30:45Z</time>
      </trkpt>
      <trkpt lat="47.16317" lon="5.96196">
        <ele>429.4</ele>
        <time>2021-08-17T13:30:46Z</time>
      </trkpt>
      <trkpt lat="47.16315" lon="5.96195">
        <ele>429.6</ele>
        <time>2021-08-17T13:30:47Z</time>
      </trkpt>
      <trkpt lat="47.16313" lon="5.96195">
        <ele>429.6</ele>
        <time>2021-08-17T13:30:48Z</time>
      </trkpt>
      <trkpt lat="47.16311" lon="5.96194">
        <ele>429.6</ele>
        <time>2021-08-17T13:30:49Z</time>
      </trkpt>
      <trkpt lat="47.16309" lon="5.96193">
        <ele>429.6</ele>
        <time>2021-08-17T13:30:50Z</time>
      </trkpt>
      <trkpt lat="47.16308" lon="5.96193">
        <ele>429.8</ele>
        <time>2021-08-17T13:30:51Z</time>
      </trkpt>
      <trkpt lat="47.16306" lon="5.96193">
        <ele>429.8</ele>
        <time>2021-08-17T13:30:52Z</time>
      </trkpt>
      <trkpt lat="47.16305" lon="5.96192">
        <ele>429.8</ele>
        <time>2021-08-17T13:30:53Z</time>
      </trkpt>
      <trkpt lat="47.16304" lon="5.96192">
        <ele>429.8</ele>
        <time>2021-08-17T13:30:54Z</time>
      </trkpt>
      <trkpt lat="47.16302" lon="5.96191">
        <ele>430</ele>
        <time>2021-08-17T13:30:55Z</time>
      </trkpt>
      <trkpt lat="47.163" lon="5.9619">
        <ele>430</ele>
        <time>2021-08-17T13:30:56Z</time>
      </trkpt>
      <trkpt lat="47.16299" lon="5.96189">
        <ele>430</ele>
        <time>2021-08-17T13:30:57Z</time>
      </trkpt>
      <trkpt lat="47.16297" lon="5.96188">
        <ele>430</ele>
        <time>2021-08-17T13:30:58Z</time>
      </trkpt>
      <trkpt lat="47.16296" lon="5.96187">
        <ele>430.2</ele>
        <time>2021-08-17T13:30:59Z</time>
      </trkpt>
      <trkpt lat="47.16295" lon="5.96186">
        <ele>430.2</ele>
        <time>2021-08-17T13:31:00Z</time>
      </trkpt>
      <trkpt lat="47.16294" lon="5.96185">
        <ele>430.2</ele>
        <time>2021-08-17T13:31:01Z</time>
      </trkpt>
      <trkpt lat="47.16293" lon="5.96183">
        <ele>430.4</ele>
        <time>2021-08-17T13:31:02Z</time>
      </trkpt>
      <trkpt lat="47.16291" lon="5.96182">
        <ele>430.6</ele>
        <time>2021-08-17T13:31:03Z</time>
      </trkpt>
      <trkpt lat="47.1629" lon="5.9618">
        <ele>430.6</ele>
        <time>2021-08-17T13:31:04Z</time>
      </trkpt>
      <trkpt lat="47.16288" lon="5.96179">
        <ele>430.6</ele>
        <time>2021-08-17T13:31:05Z</time>
      </trkpt>
      <trkpt lat="47.16286" lon="5.96177">
        <ele>430.6</ele>
        <time>2021-08-17T13:31:06Z</time>
      </trkpt>
      <trkpt lat="47.16285" lon="5.96176">
        <ele>430.8</ele>
        <time>2021-08-17T13:31:07Z</time>
      </trkpt>
      <trkpt lat="47.16283" lon="5.96174">
        <ele>430.8</ele>
        <time>2021-08-17T13:31:08Z</time>
      </trkpt>
      <trkpt lat="47.16273" lon="5.96164">
        <ele>431.8</ele>
        <time>2021-08-17T13:31:14Z</time>
      </trkpt>
      <trkpt lat="47.16271" lon="5.96163">
        <ele>432</ele>
        <time>2021-08-17T13:31:15Z</time>
      </trkpt>
      <trkpt lat="47.16268" lon="5.96161">
        <ele>432.2</ele>
        <time>2021-08-17T13:31:17Z</time>
      </trkpt>
      <trkpt lat="47.16265" lon="5.96158">
        <ele>432.4</ele>
        <time>2021-08-17T13:31:19Z</time>
      </trkpt>
      <trkpt lat="47.16263" lon="5.96156">
        <ele>432.6</ele>
        <time>2021-08-17T13:31:20Z</time>
      </trkpt>
      <trkpt lat="47.16261" lon="5.96154">
        <ele>432.6</ele>
        <time>2021-08-17T13:31:21Z</time>
      </trkpt>
      <trkpt lat="47.16259" lon="5.96152">
        <ele>432.6</ele>
        <time>2021-08-17T13:31:22Z</time>
      </trkpt>
      <trkpt lat="47.16256" lon="5.96151">
        <ele>432.6</ele>
        <time>2021-08-17T13:31:23Z</time>
      </trkpt>
      <trkpt lat="47.16254" lon="5.96149">
        <ele>432.6</ele>
        <time>2021-08-17T13:31:24Z</time>
      </trkpt>
      <trkpt lat="47.16253" lon="5.96148">
        <ele>432.8</ele>
        <time>2021-08-17T13:31:25Z</time>
      </trkpt>
      <trkpt lat="47.1625" lon="5.96146">
        <ele>432.8</ele>
        <time>2021-08-17T13:31:26Z</time>
      </trkpt>
      <trkpt lat="47.16248" lon="5.96144">
        <ele>433</ele>
        <time>2021-08-17T13:31:27Z</time>
      </trkpt>
      <trkpt lat="47.16246" lon="5.96142">
        <ele>433</ele>
        <time>2021-08-17T13:31:28Z</time>
      </trkpt>
      <trkpt lat="47.16243" lon="5.96141">
        <ele>433.2</ele>
        <time>2021-08-17T13:31:29Z</time>
      </trkpt>
      <trkpt lat="47.16242" lon="5.9614">
        <ele>433.2</ele>
        <time>2021-08-17T13:31:30Z</time>
      </trkpt>
      <trkpt lat="47.16241" lon="5.96139">
        <ele>433.2</ele>
        <time>2021-08-17T13:31:31Z</time>
      </trkpt>
      <trkpt lat="47.16238" lon="5.96138">
        <ele>433.4</ele>
        <time>2021-08-17T13:31:32Z</time>
      </trkpt>
      <trkpt lat="47.16224" lon="5.96123">
        <ele>433.8</ele>
        <time>2021-08-17T13:31:40Z</time>
      </trkpt>
      <trkpt lat="47.1621" lon="5.96111">
        <ele>434</ele>
        <time>2021-08-17T13:31:47Z</time>
      </trkpt>
      <trkpt lat="47.16208" lon="5.9611">
        <ele>434</ele>
        <time>2021-08-17T13:31:48Z</time>
      </trkpt>
      <trkpt lat="47.16206" lon="5.96109">
        <ele>434</ele>
        <time>2021-08-17T13:31:49Z</time>
      </trkpt>
      <trkpt lat="47.16205" lon="5.96107">
        <ele>434</ele>
        <time>2021-08-17T13:31:50Z</time>
      </trkpt>
      <trkpt lat="47.16203" lon="5.96106">
        <ele>434</ele>
        <time>2021-08-17T13:31:51Z</time>
      </trkpt>
      <trkpt lat="47.16201" lon="5.96103">
        <ele>434</ele>
        <time>2021-08-17T13:31:52Z</time>
      </trkpt>
      <trkpt lat="47.16185" lon="5.96081">
        <ele>433.8</ele>
        <time>2021-08-17T13:31:59Z</time>
      </trkpt>
      <trkpt lat="47.16181" lon="5.96074">
        <ele>433.8</ele>
        <time>2021-08-17T13:32:01Z</time>
      </trkpt>
      <trkpt lat="47.16171" lon="5.96056">
        <ele>433.8</ele>
        <time>2021-08-17T13:32:07Z</time>
      </trkpt>
      <trkpt lat="47.16163" lon="5.96042">
        <ele>434</ele>
        <time>2021-08-17T13:32:11Z</time>
      </trkpt>
      <trkpt lat="47.16162" lon="5.9604">
        <ele>434</ele>
        <time>2021-08-17T13:32:12Z</time>
      </trkpt>
      <trkpt lat="47.16156" lon="5.9603">
        <ele>434</ele>
        <time>2021-08-17T13:32:15Z</time>
      </trkpt>
      <trkpt lat="47.16145" lon="5.96013">
        <ele>434</ele>
        <time>2021-08-17T13:32:19Z</time>
      </trkpt>
      <trkpt lat="47.16138" lon="5.96004">
        <ele>433.8</ele>
        <time>2021-08-17T13:32:21Z</time>
      </trkpt>
      <trkpt lat="47.16135" lon="5.95999">
        <ele>434</ele>
        <time>2021-08-17T13:32:22Z</time>
      </trkpt>
      <trkpt lat="47.1612" lon="5.95975">
        <ele>432.8</ele>
        <time>2021-08-17T13:32:28Z</time>
      </trkpt>
      <trkpt lat="47.16099" lon="5.95937">
        <ele>432.4</ele>
        <time>2021-08-17T13:32:35Z</time>
      </trkpt>
      <trkpt lat="47.16093" lon="5.95926">
        <ele>432</ele>
        <time>2021-08-17T13:32:37Z</time>
      </trkpt>
      <trkpt lat="47.16089" lon="5.9592">
        <ele>432</ele>
        <time>2021-08-17T13:32:38Z</time>
      </trkpt>
      <trkpt lat="47.16082" lon="5.95908">
        <ele>431.4</ele>
        <time>2021-08-17T13:32:40Z</time>
      </trkpt>
      <trkpt lat="47.16074" lon="5.95894">
        <ele>430.8</ele>
        <time>2021-08-17T13:32:42Z</time>
      </trkpt>
      <trkpt lat="47.16051" lon="5.9586">
        <ele>429.6</ele>
        <time>2021-08-17T13:32:47Z</time>
      </trkpt>
      <trkpt lat="47.16033" lon="5.95829">
        <ele>428.6</ele>
        <time>2021-08-17T13:32:51Z</time>
      </trkpt>
      <trkpt lat="47.16029" lon="5.95823">
        <ele>428.4</ele>
        <time>2021-08-17T13:32:52Z</time>
      </trkpt>
      <trkpt lat="47.16024" lon="5.95817">
        <ele>427.8</ele>
        <time>2021-08-17T13:32:53Z</time>
      </trkpt>
      <trkpt lat="47.1602" lon="5.95813">
        <ele>427.2</ele>
        <time>2021-08-17T13:32:54Z</time>
      </trkpt>
      <trkpt lat="47.16017" lon="5.95808">
        <ele>426</ele>
        <time>2021-08-17T13:32:55Z</time>
      </trkpt>
      <trkpt lat="47.16015" lon="5.95805">
        <ele>425.4</ele>
        <time>2021-08-17T13:32:56Z</time>
      </trkpt>
      <trkpt lat="47.16014" lon="5.95802">
        <ele>424.8</ele>
        <time>2021-08-17T13:32:57Z</time>
      </trkpt>
      <trkpt lat="47.16013" lon="5.958">
        <ele>424.6</ele>
        <time>2021-08-17T13:32:58Z</time>
      </trkpt>
      <trkpt lat="47.1601" lon="5.95797">
        <ele>424.2</ele>
        <time>2021-08-17T13:32:59Z</time>
      </trkpt>
      <trkpt lat="47.16008" lon="5.95794">
        <ele>424</ele>
        <time>2021-08-17T13:33:00Z</time>
      </trkpt>
      <trkpt lat="47.16005" lon="5.95788">
        <ele>424</ele>
        <time>2021-08-17T13:33:02Z</time>
      </trkpt>
      <trkpt lat="47.16002" lon="5.9578">
        <ele>423.8</ele>
        <time>2021-08-17T13:33:04Z</time>
      </trkpt>
      <trkpt lat="47.15999" lon="5.95776">
        <ele>423.8</ele>
        <time>2021-08-17T13:33:05Z</time>
      </trkpt>
      <trkpt lat="47.15998" lon="5.95771">
        <ele>423.6</ele>
        <time>2021-08-17T13:33:06Z</time>
      </trkpt>
      <trkpt lat="47.15991" lon="5.95762">
        <ele>423.4</ele>
        <time>2021-08-17T13:33:08Z</time>
      </trkpt>
      <trkpt lat="47.15984" lon="5.95752">
        <ele>423.2</ele>
        <time>2021-08-17T13:33:10Z</time>
      </trkpt>
      <trkpt lat="47.15981" lon="5.95747">
        <ele>423.2</ele>
        <time>2021-08-17T13:33:11Z</time>
      </trkpt>
      <trkpt lat="47.15978" lon="5.95743">
        <ele>423.2</ele>
        <time>2021-08-17T13:33:12Z</time>
      </trkpt>
      <trkpt lat="47.15972" lon="5.95741">
        <ele>423</ele>
        <time>2021-08-17T13:33:13Z</time>
      </trkpt>
      <trkpt lat="47.15967" lon="5.9574">
        <ele>423</ele>
        <time>2021-08-17T13:33:14Z</time>
      </trkpt>
      <trkpt lat="47.15963" lon="5.95738">
        <ele>422.8</ele>
        <time>2021-08-17T13:33:15Z</time>
      </trkpt>
      <trkpt lat="47.15959" lon="5.95737">
        <ele>422.8</ele>
        <time>2021-08-17T13:33:16Z</time>
      </trkpt>
      <trkpt lat="47.15955" lon="5.95735">
        <ele>422.6</ele>
        <time>2021-08-17T13:33:17Z</time>
      </trkpt>
      <trkpt lat="47.1595" lon="5.95734">
        <ele>422.4</ele>
        <time>2021-08-17T13:33:18Z</time>
      </trkpt>
      <trkpt lat="47.15941" lon="5.95731">
        <ele>422</ele>
        <time>2021-08-17T13:33:20Z</time>
      </trkpt>
      <trkpt lat="47.15937" lon="5.95731">
        <ele>421.8</ele>
        <time>2021-08-17T13:33:21Z</time>
      </trkpt>
      <trkpt lat="47.15934" lon="5.9573">
        <ele>421.4</ele>
        <time>2021-08-17T13:33:22Z</time>
      </trkpt>
      <trkpt lat="47.1593" lon="5.95731">
        <ele>421.2</ele>
        <time>2021-08-17T13:33:23Z</time>
      </trkpt>
      <trkpt lat="47.15924" lon="5.95729">
        <ele>421</ele>
        <time>2021-08-17T13:33:24Z</time>
      </trkpt>
      <trkpt lat="47.15918" lon="5.95727">
        <ele>420.4</ele>
        <time>2021-08-17T13:33:25Z</time>
      </trkpt>
      <trkpt lat="47.15914" lon="5.95727">
        <ele>420</ele>
        <time>2021-08-17T13:33:26Z</time>
      </trkpt>
      <trkpt lat="47.1591" lon="5.95727">
        <ele>419.6</ele>
        <time>2021-08-17T13:33:27Z</time>
      </trkpt>
      <trkpt lat="47.15903" lon="5.95725">
        <ele>419.4</ele>
        <time>2021-08-17T13:33:28Z</time>
      </trkpt>
      <trkpt lat="47.15896" lon="5.95724">
        <ele>418.6</ele>
        <time>2021-08-17T13:33:29Z</time>
      </trkpt>
      <trkpt lat="47.15883" lon="5.95716">
        <ele>417.2</ele>
        <time>2021-08-17T13:33:31Z</time>
      </trkpt>
      <trkpt lat="47.1587" lon="5.95707">
        <ele>415.8</ele>
        <time>2021-08-17T13:33:33Z</time>
      </trkpt>
      <trkpt lat="47.15864" lon="5.95703">
        <ele>415.4</ele>
        <time>2021-08-17T13:33:34Z</time>
      </trkpt>
      <trkpt lat="47.15858" lon="5.95701">
        <ele>415.2</ele>
        <time>2021-08-17T13:33:35Z</time>
      </trkpt>
      <trkpt lat="47.15851" lon="5.95699">
        <ele>414.6</ele>
        <time>2021-08-17T13:33:36Z</time>
      </trkpt>
      <trkpt lat="47.15844" lon="5.95698">
        <ele>414.4</ele>
        <time>2021-08-17T13:33:37Z</time>
      </trkpt>
      <trkpt lat="47.15832" lon="5.95695">
        <ele>413.4</ele>
        <time>2021-08-17T13:33:39Z</time>
      </trkpt>
      <trkpt lat="47.1582" lon="5.95686">
        <ele>412.8</ele>
        <time>2021-08-17T13:33:41Z</time>
      </trkpt>
      <trkpt lat="47.15813" lon="5.9568">
        <ele>411.6</ele>
        <time>2021-08-17T13:33:42Z</time>
      </trkpt>
      <trkpt lat="47.15806" lon="5.95675">
        <ele>410.6</ele>
        <time>2021-08-17T13:33:43Z</time>
      </trkpt>
      <trkpt lat="47.15799" lon="5.95668">
        <ele>410.2</ele>
        <time>2021-08-17T13:33:44Z</time>
      </trkpt>
      <trkpt lat="47.15794" lon="5.9566">
        <ele>409.6</ele>
        <time>2021-08-17T13:33:45Z</time>
      </trkpt>
      <trkpt lat="47.15791" lon="5.95654">
        <ele>409.2</ele>
        <time>2021-08-17T13:33:46Z</time>
      </trkpt>
      <trkpt lat="47.15789" lon="5.95651">
        <ele>408.4</ele>
        <time>2021-08-17T13:33:47Z</time>
      </trkpt>
      <trkpt lat="47.15787" lon="5.95649">
        <ele>408</ele>
        <time>2021-08-17T13:33:48Z</time>
      </trkpt>
      <trkpt lat="47.15787" lon="5.95647">
        <ele>407.6</ele>
        <time>2021-08-17T13:33:49Z</time>
      </trkpt>
      <trkpt lat="47.15786" lon="5.95645">
        <ele>407.6</ele>
        <time>2021-08-17T13:33:50Z</time>
      </trkpt>
      <trkpt lat="47.15785" lon="5.95644">
        <ele>407.2</ele>
        <time>2021-08-17T13:33:51Z</time>
      </trkpt>
      <trkpt lat="47.15784" lon="5.95644">
        <ele>407</ele>
        <time>2021-08-17T13:33:52Z</time>
      </trkpt>
      <trkpt lat="47.15782" lon="5.95645">
        <ele>406.8</ele>
        <time>2021-08-17T13:33:53Z</time>
      </trkpt>
      <trkpt lat="47.15779" lon="5.95645">
        <ele>406.8</ele>
        <time>2021-08-17T13:33:55Z</time>
      </trkpt>
      <trkpt lat="47.15778" lon="5.95646">
        <ele>406.8</ele>
        <time>2021-08-17T13:33:56Z</time>
      </trkpt>
      <trkpt lat="47.15777" lon="5.95647">
        <ele>406.6</ele>
        <time>2021-08-17T13:33:57Z</time>
      </trkpt>
      <trkpt lat="47.15776" lon="5.95648">
        <ele>406.6</ele>
        <time>2021-08-17T13:33:58Z</time>
      </trkpt>
      <trkpt lat="47.15774" lon="5.95649">
        <ele>406.6</ele>
        <time>2021-08-17T13:33:59Z</time>
      </trkpt>
      <trkpt lat="47.15769" lon="5.9565">
        <ele>406.4</ele>
        <time>2021-08-17T13:34:01Z</time>
      </trkpt>
      <trkpt lat="47.15758" lon="5.95658">
        <ele>406</ele>
        <time>2021-08-17T13:34:06Z</time>
      </trkpt>
      <trkpt lat="47.15754" lon="5.95661">
        <ele>405.8</ele>
        <time>2021-08-17T13:34:07Z</time>
      </trkpt>
      <trkpt lat="47.15749" lon="5.95665">
        <ele>405.6</ele>
        <time>2021-08-17T13:34:09Z</time>
      </trkpt>
      <trkpt lat="47.15747" lon="5.95666">
        <ele>405.4</ele>
        <time>2021-08-17T13:34:10Z</time>
      </trkpt>
      <trkpt lat="47.15744" lon="5.95668">
        <ele>405.4</ele>
        <time>2021-08-17T13:34:11Z</time>
      </trkpt>
      <trkpt lat="47.1573" lon="5.95673">
        <ele>404.8</ele>
        <time>2021-08-17T13:34:15Z</time>
      </trkpt>
      <trkpt lat="47.15727" lon="5.95676">
        <ele>404.8</ele>
        <time>2021-08-17T13:34:16Z</time>
      </trkpt>
      <trkpt lat="47.15722" lon="5.95679">
        <ele>404.8</ele>
        <time>2021-08-17T13:34:17Z</time>
      </trkpt>
      <trkpt lat="47.15706" lon="5.95686">
        <ele>404.6</ele>
        <time>2021-08-17T13:34:21Z</time>
      </trkpt>
      <trkpt lat="47.15691" lon="5.95694">
        <ele>404.6</ele>
        <time>2021-08-17T13:34:25Z</time>
      </trkpt>
      <trkpt lat="47.15687" lon="5.95697">
        <ele>404.6</ele>
        <time>2021-08-17T13:34:26Z</time>
      </trkpt>
      <trkpt lat="47.15685" lon="5.95699">
        <ele>404.6</ele>
        <time>2021-08-17T13:34:27Z</time>
      </trkpt>
      <trkpt lat="47.15683" lon="5.95701">
        <ele>404.4</ele>
        <time>2021-08-17T13:34:28Z</time>
      </trkpt>
      <trkpt lat="47.15681" lon="5.95703">
        <ele>404.4</ele>
        <time>2021-08-17T13:34:29Z</time>
      </trkpt>
      <trkpt lat="47.15678" lon="5.95706">
        <ele>404</ele>
        <time>2021-08-17T13:34:30Z</time>
      </trkpt>
      <trkpt lat="47.15675" lon="5.9571">
        <ele>403.8</ele>
        <time>2021-08-17T13:34:31Z</time>
      </trkpt>
      <trkpt lat="47.15674" lon="5.95713">
        <ele>403.8</ele>
        <time>2021-08-17T13:34:32Z</time>
      </trkpt>
      <trkpt lat="47.15673" lon="5.95716">
        <ele>403.6</ele>
        <time>2021-08-17T13:34:33Z</time>
      </trkpt>
      <trkpt lat="47.15671" lon="5.95719">
        <ele>403.6</ele>
        <time>2021-08-17T13:34:34Z</time>
      </trkpt>
      <trkpt lat="47.15668" lon="5.9572">
        <ele>403.6</ele>
        <time>2021-08-17T13:34:35Z</time>
      </trkpt>
      <trkpt lat="47.15665" lon="5.95722">
        <ele>403.4</ele>
        <time>2021-08-17T13:34:36Z</time>
      </trkpt>
      <trkpt lat="47.15662" lon="5.95722">
        <ele>403.2</ele>
        <time>2021-08-17T13:34:37Z</time>
      </trkpt>
      <trkpt lat="47.15659" lon="5.95722">
        <ele>403.2</ele>
        <time>2021-08-17T13:34:38Z</time>
      </trkpt>
      <trkpt lat="47.15655" lon="5.95724">
        <ele>403</ele>
        <time>2021-08-17T13:34:39Z</time>
      </trkpt>
      <trkpt lat="47.15648" lon="5.95734">
        <ele>402.6</ele>
        <time>2021-08-17T13:34:41Z</time>
      </trkpt>
      <trkpt lat="47.15646" lon="5.95737">
        <ele>402.4</ele>
        <time>2021-08-17T13:34:42Z</time>
      </trkpt>
      <trkpt lat="47.15643" lon="5.95739">
        <ele>402.2</ele>
        <time>2021-08-17T13:34:43Z</time>
      </trkpt>
      <trkpt lat="47.15624" lon="5.9576">
        <ele>401.8</ele>
        <time>2021-08-17T13:34:49Z</time>
      </trkpt>
      <trkpt lat="47.15618" lon="5.95766">
        <ele>401.6</ele>
        <time>2021-08-17T13:34:51Z</time>
      </trkpt>
      <trkpt lat="47.15616" lon="5.95769">
        <ele>401.4</ele>
        <time>2021-08-17T13:34:52Z</time>
      </trkpt>
      <trkpt lat="47.15615" lon="5.95774">
        <ele>401.4</ele>
        <time>2021-08-17T13:34:53Z</time>
      </trkpt>
      <trkpt lat="47.15612" lon="5.95781">
        <ele>401.2</ele>
        <time>2021-08-17T13:34:54Z</time>
      </trkpt>
      <trkpt lat="47.15608" lon="5.958">
        <ele>401</ele>
        <time>2021-08-17T13:34:56Z</time>
      </trkpt>
      <trkpt lat="47.15606" lon="5.95812">
        <ele>400.8</ele>
        <time>2021-08-17T13:34:57Z</time>
      </trkpt>
      <trkpt lat="47.15603" lon="5.95823">
        <ele>400.6</ele>
        <time>2021-08-17T13:34:59Z</time>
      </trkpt>
      <trkpt lat="47.15598" lon="5.95847">
        <ele>400.8</ele>
        <time>2021-08-17T13:35:04Z</time>
      </trkpt>
      <trkpt lat="47.15597" lon="5.9585">
        <ele>400.8</ele>
        <time>2021-08-17T13:35:05Z</time>
      </trkpt>
      <trkpt lat="47.15595" lon="5.95852">
        <ele>401</ele>
        <time>2021-08-17T13:35:06Z</time>
      </trkpt>
      <trkpt lat="47.15592" lon="5.95857">
        <ele>401.2</ele>
        <time>2021-08-17T13:35:07Z</time>
      </trkpt>
      <trkpt lat="47.1559" lon="5.95862">
        <ele>401.6</ele>
        <time>2021-08-17T13:35:08Z</time>
      </trkpt>
      <trkpt lat="47.15591" lon="5.95865">
        <ele>401.6</ele>
        <time>2021-08-17T13:35:09Z</time>
      </trkpt>
      <trkpt lat="47.1559" lon="5.95869">
        <ele>402</ele>
        <time>2021-08-17T13:35:10Z</time>
      </trkpt>
      <trkpt lat="47.15591" lon="5.95872">
        <ele>402.2</ele>
        <time>2021-08-17T13:35:11Z</time>
      </trkpt>
      <trkpt lat="47.15592" lon="5.95876">
        <ele>402.4</ele>
        <time>2021-08-17T13:35:12Z</time>
      </trkpt>
      <trkpt lat="47.15593" lon="5.95881">
        <ele>402.8</ele>
        <time>2021-08-17T13:35:13Z</time>
      </trkpt>
      <trkpt lat="47.15596" lon="5.9589">
        <ele>403.2</ele>
        <time>2021-08-17T13:35:16Z</time>
      </trkpt>
      <trkpt lat="47.15598" lon="5.95902">
        <ele>403.8</ele>
        <time>2021-08-17T13:35:19Z</time>
      </trkpt>
      <trkpt lat="47.15598" lon="5.95906">
        <ele>404</ele>
        <time>2021-08-17T13:35:20Z</time>
      </trkpt>
      <trkpt lat="47.15597" lon="5.95911">
        <ele>404.6</ele>
        <time>2021-08-17T13:35:21Z</time>
      </trkpt>
      <trkpt lat="47.15596" lon="5.95913">
        <ele>404.8</ele>
        <time>2021-08-17T13:35:22Z</time>
      </trkpt>
      <trkpt lat="47.15597" lon="5.95915">
        <ele>405</ele>
        <time>2021-08-17T13:35:23Z</time>
      </trkpt>
      <trkpt lat="47.15598" lon="5.95917">
        <ele>405.2</ele>
        <time>2021-08-17T13:35:24Z</time>
      </trkpt>
      <trkpt lat="47.15599" lon="5.95919">
        <ele>405.4</ele>
        <time>2021-08-17T13:35:25Z</time>
      </trkpt>
      <trkpt lat="47.156" lon="5.95922">
        <ele>405.6</ele>
        <time>2021-08-17T13:35:26Z</time>
      </trkpt>
      <trkpt lat="47.156" lon="5.95924">
        <ele>405.6</ele>
        <time>2021-08-17T13:35:27Z</time>
      </trkpt>
      <trkpt lat="47.156" lon="5.95926">
        <ele>405.8</ele>
        <time>2021-08-17T13:35:28Z</time>
      </trkpt>
      <trkpt lat="47.156" lon="5.95928">
        <ele>406.2</ele>
        <time>2021-08-17T13:35:29Z</time>
      </trkpt>
      <trkpt lat="47.15601" lon="5.9593">
        <ele>406.6</ele>
        <time>2021-08-17T13:35:30Z</time>
      </trkpt>
      <trkpt lat="47.15601" lon="5.95932">
        <ele>407</ele>
        <time>2021-08-17T13:35:31Z</time>
      </trkpt>
      <trkpt lat="47.15601" lon="5.95934">
        <ele>407</ele>
        <time>2021-08-17T13:35:32Z</time>
      </trkpt>
      <trkpt lat="47.15601" lon="5.95938">
        <ele>407.2</ele>
        <time>2021-08-17T13:35:33Z</time>
      </trkpt>
      <trkpt lat="47.15601" lon="5.95941">
        <ele>407.4</ele>
        <time>2021-08-17T13:35:34Z</time>
      </trkpt>
      <trkpt lat="47.15602" lon="5.95944">
        <ele>407.6</ele>
        <time>2021-08-17T13:35:35Z</time>
      </trkpt>
      <trkpt lat="47.15602" lon="5.95948">
        <ele>407.6</ele>
        <time>2021-08-17T13:35:36Z</time>
      </trkpt>
      <trkpt lat="47.15603" lon="5.9595">
        <ele>407.8</ele>
        <time>2021-08-17T13:35:37Z</time>
      </trkpt>
      <trkpt lat="47.15603" lon="5.95953">
        <ele>407.8</ele>
        <time>2021-08-17T13:35:38Z</time>
      </trkpt>
      <trkpt lat="47.15604" lon="5.95956">
        <ele>408</ele>
        <time>2021-08-17T13:35:39Z</time>
      </trkpt>
      <trkpt lat="47.15604" lon="5.95959">
        <ele>408.2</ele>
        <time>2021-08-17T13:35:40Z</time>
      </trkpt>
      <trkpt lat="47.15605" lon="5.95961">
        <ele>408.2</ele>
        <time>2021-08-17T13:35:41Z</time>
      </trkpt>
      <trkpt lat="47.15605" lon="5.95963">
        <ele>408.6</ele>
        <time>2021-08-17T13:35:42Z</time>
      </trkpt>
      <trkpt lat="47.15606" lon="5.95966">
        <ele>408.6</ele>
        <time>2021-08-17T13:35:43Z</time>
      </trkpt>
      <trkpt lat="47.15605" lon="5.95968">
        <ele>409</ele>
        <time>2021-08-17T13:35:44Z</time>
      </trkpt>
      <trkpt lat="47.15605" lon="5.95971">
        <ele>409.2</ele>
        <time>2021-08-17T13:35:45Z</time>
      </trkpt>
      <trkpt lat="47.15605" lon="5.95975">
        <ele>409.4</ele>
        <time>2021-08-17T13:35:46Z</time>
      </trkpt>
      <trkpt lat="47.15606" lon="5.95978">
        <ele>409.4</ele>
        <time>2021-08-17T13:35:47Z</time>
      </trkpt>
      <trkpt lat="47.15606" lon="5.9598">
        <ele>409.8</ele>
        <time>2021-08-17T13:35:48Z</time>
      </trkpt>
      <trkpt lat="47.15607" lon="5.95983">
        <ele>410</ele>
        <time>2021-08-17T13:35:49Z</time>
      </trkpt>
      <trkpt lat="47.15608" lon="5.95987">
        <ele>410.2</ele>
        <time>2021-08-17T13:35:50Z</time>
      </trkpt>
      <trkpt lat="47.15608" lon="5.95992">
        <ele>410.2</ele>
        <time>2021-08-17T13:35:51Z</time>
      </trkpt>
      <trkpt lat="47.15608" lon="5.95995">
        <ele>410.4</ele>
        <time>2021-08-17T13:35:52Z</time>
      </trkpt>
      <trkpt lat="47.15607" lon="5.95998">
        <ele>410.6</ele>
        <time>2021-08-17T13:35:53Z</time>
      </trkpt>
      <trkpt lat="47.15606" lon="5.96001">
        <ele>410.8</ele>
        <time>2021-08-17T13:35:54Z</time>
      </trkpt>
      <trkpt lat="47.15606" lon="5.96004">
        <ele>411</ele>
        <time>2021-08-17T13:35:55Z</time>
      </trkpt>
      <trkpt lat="47.15606" lon="5.96007">
        <ele>411</ele>
        <time>2021-08-17T13:35:56Z</time>
      </trkpt>
      <trkpt lat="47.15606" lon="5.96009">
        <ele>411.2</ele>
        <time>2021-08-17T13:35:57Z</time>
      </trkpt>
      <trkpt lat="47.15605" lon="5.96013">
        <ele>411.4</ele>
        <time>2021-08-17T13:35:58Z</time>
      </trkpt>
      <trkpt lat="47.15605" lon="5.96017">
        <ele>411.6</ele>
        <time>2021-08-17T13:35:59Z</time>
      </trkpt>
      <trkpt lat="47.15606" lon="5.96022">
        <ele>411.8</ele>
        <time>2021-08-17T13:36:00Z</time>
      </trkpt>
      <trkpt lat="47.15606" lon="5.96025">
        <ele>411.8</ele>
        <time>2021-08-17T13:36:01Z</time>
      </trkpt>
      <trkpt lat="47.15605" lon="5.9603">
        <ele>412</ele>
        <time>2021-08-17T13:36:02Z</time>
      </trkpt>
      <trkpt lat="47.15605" lon="5.96032">
        <ele>412</ele>
        <time>2021-08-17T13:36:03Z</time>
      </trkpt>
      <trkpt lat="47.15605" lon="5.96035">
        <ele>412.2</ele>
        <time>2021-08-17T13:36:04Z</time>
      </trkpt>
      <trkpt lat="47.15604" lon="5.96039">
        <ele>412.4</ele>
        <time>2021-08-17T13:36:05Z</time>
      </trkpt>
      <trkpt lat="47.15603" lon="5.96043">
        <ele>412.6</ele>
        <time>2021-08-17T13:36:06Z</time>
      </trkpt>
      <trkpt lat="47.15603" lon="5.96047">
        <ele>412.6</ele>
        <time>2021-08-17T13:36:07Z</time>
      </trkpt>
      <trkpt lat="47.15603" lon="5.9605">
        <ele>412.6</ele>
        <time>2021-08-17T13:36:08Z</time>
      </trkpt>
      <trkpt lat="47.15601" lon="5.96053">
        <ele>412.8</ele>
        <time>2021-08-17T13:36:09Z</time>
      </trkpt>
      <trkpt lat="47.15601" lon="5.96056">
        <ele>413</ele>
        <time>2021-08-17T13:36:10Z</time>
      </trkpt>
      <trkpt lat="47.156" lon="5.96058">
        <ele>413.2</ele>
        <time>2021-08-17T13:36:11Z</time>
      </trkpt>
      <trkpt lat="47.156" lon="5.96061">
        <ele>413.4</ele>
        <time>2021-08-17T13:36:12Z</time>
      </trkpt>
      <trkpt lat="47.15599" lon="5.96064">
        <ele>413.4</ele>
        <time>2021-08-17T13:36:13Z</time>
      </trkpt>
      <trkpt lat="47.15599" lon="5.96066">
        <ele>413.6</ele>
        <time>2021-08-17T13:36:14Z</time>
      </trkpt>
      <trkpt lat="47.15597" lon="5.9607">
        <ele>413.6</ele>
        <time>2021-08-17T13:36:15Z</time>
      </trkpt>
      <trkpt lat="47.15596" lon="5.96073">
        <ele>413.8</ele>
        <time>2021-08-17T13:36:16Z</time>
      </trkpt>
      <trkpt lat="47.15595" lon="5.96074">
        <ele>413.8</ele>
        <time>2021-08-17T13:36:17Z</time>
      </trkpt>
      <trkpt lat="47.15594" lon="5.96076">
        <ele>413.8</ele>
        <time>2021-08-17T13:36:18Z</time>
      </trkpt>
      <trkpt lat="47.15593" lon="5.96078">
        <ele>414</ele>
        <time>2021-08-17T13:36:19Z</time>
      </trkpt>
      <trkpt lat="47.1559" lon="5.96082">
        <ele>413.8</ele>
        <time>2021-08-17T13:36:20Z</time>
      </trkpt>
      <trkpt lat="47.15589" lon="5.96084">
        <ele>413.8</ele>
        <time>2021-08-17T13:36:21Z</time>
      </trkpt>
      <trkpt lat="47.15588" lon="5.96087">
        <ele>413.8</ele>
        <time>2021-08-17T13:36:22Z</time>
      </trkpt>
      <trkpt lat="47.15587" lon="5.9609">
        <ele>413.8</ele>
        <time>2021-08-17T13:36:23Z</time>
      </trkpt>
      <trkpt lat="47.15586" lon="5.96093">
        <ele>414</ele>
        <time>2021-08-17T13:36:24Z</time>
      </trkpt>
      <trkpt lat="47.15584" lon="5.96096">
        <ele>414</ele>
        <time>2021-08-17T13:36:25Z</time>
      </trkpt>
      <trkpt lat="47.15583" lon="5.96097">
        <ele>414</ele>
        <time>2021-08-17T13:36:26Z</time>
      </trkpt>
      <trkpt lat="47.15581" lon="5.96099">
        <ele>414</ele>
        <time>2021-08-17T13:36:27Z</time>
      </trkpt>
      <trkpt lat="47.1558" lon="5.96102">
        <ele>414</ele>
        <time>2021-08-17T13:36:28Z</time>
      </trkpt>
      <trkpt lat="47.15579" lon="5.96105">
        <ele>414.2</ele>
        <time>2021-08-17T13:36:29Z</time>
      </trkpt>
      <trkpt lat="47.15578" lon="5.96108">
        <ele>414.2</ele>
        <time>2021-08-17T13:36:30Z</time>
      </trkpt>
      <trkpt lat="47.15573" lon="5.96117">
        <ele>414.2</ele>
        <time>2021-08-17T13:36:33Z</time>
      </trkpt>
      <trkpt lat="47.15572" lon="5.9612">
        <ele>414.4</ele>
        <time>2021-08-17T13:36:34Z</time>
      </trkpt>
      <trkpt lat="47.15571" lon="5.96122">
        <ele>414.6</ele>
        <time>2021-08-17T13:36:35Z</time>
      </trkpt>
      <trkpt lat="47.15569" lon="5.96125">
        <ele>414.8</ele>
        <time>2021-08-17T13:36:36Z</time>
      </trkpt>
      <trkpt lat="47.15567" lon="5.96128">
        <ele>415</ele>
        <time>2021-08-17T13:36:37Z</time>
      </trkpt>
      <trkpt lat="47.15565" lon="5.96131">
        <ele>415.2</ele>
        <time>2021-08-17T13:36:38Z</time>
      </trkpt>
      <trkpt lat="47.15555" lon="5.96156">
        <ele>416.2</ele>
        <time>2021-08-17T13:36:45Z</time>
      </trkpt>
      <trkpt lat="47.15553" lon="5.96161">
        <ele>416.4</ele>
        <time>2021-08-17T13:36:46Z</time>
      </trkpt>
      <trkpt lat="47.15551" lon="5.96166">
        <ele>416.4</ele>
        <time>2021-08-17T13:36:47Z</time>
      </trkpt>
      <trkpt lat="47.15549" lon="5.96171">
        <ele>416.6</ele>
        <time>2021-08-17T13:36:48Z</time>
      </trkpt>
      <trkpt lat="47.15546" lon="5.96177">
        <ele>416.6</ele>
        <time>2021-08-17T13:36:49Z</time>
      </trkpt>
      <trkpt lat="47.15545" lon="5.96181">
        <ele>416.8</ele>
        <time>2021-08-17T13:36:50Z</time>
      </trkpt>
      <trkpt lat="47.15543" lon="5.96185">
        <ele>417.2</ele>
        <time>2021-08-17T13:36:51Z</time>
      </trkpt>
      <trkpt lat="47.15541" lon="5.9619">
        <ele>417.2</ele>
        <time>2021-08-17T13:36:52Z</time>
      </trkpt>
      <trkpt lat="47.15539" lon="5.96193">
        <ele>417.8</ele>
        <time>2021-08-17T13:36:53Z</time>
      </trkpt>
      <trkpt lat="47.15537" lon="5.96198">
        <ele>418.6</ele>
        <time>2021-08-17T13:36:54Z</time>
      </trkpt>
      <trkpt lat="47.15536" lon="5.96201">
        <ele>418.8</ele>
        <time>2021-08-17T13:36:55Z</time>
      </trkpt>
      <trkpt lat="47.15534" lon="5.96204">
        <ele>419.4</ele>
        <time>2021-08-17T13:36:56Z</time>
      </trkpt>
      <trkpt lat="47.15534" lon="5.96206">
        <ele>419.4</ele>
        <time>2021-08-17T13:36:57Z</time>
      </trkpt>
      <trkpt lat="47.15532" lon="5.96211">
        <ele>419.8</ele>
        <time>2021-08-17T13:36:58Z</time>
      </trkpt>
      <trkpt lat="47.15532" lon="5.96213">
        <ele>420</ele>
        <time>2021-08-17T13:36:59Z</time>
      </trkpt>
      <trkpt lat="47.15532" lon="5.96215">
        <ele>420.4</ele>
        <time>2021-08-17T13:37:00Z</time>
      </trkpt>
      <trkpt lat="47.15531" lon="5.96217">
        <ele>420.4</ele>
        <time>2021-08-17T13:37:01Z</time>
      </trkpt>
      <trkpt lat="47.15529" lon="5.96221">
        <ele>420.8</ele>
        <time>2021-08-17T13:37:02Z</time>
      </trkpt>
      <trkpt lat="47.15528" lon="5.96222">
        <ele>421</ele>
        <time>2021-08-17T13:37:03Z</time>
      </trkpt>
      <trkpt lat="47.15528" lon="5.96224">
        <ele>421.2</ele>
        <time>2021-08-17T13:37:04Z</time>
      </trkpt>
      <trkpt lat="47.15528" lon="5.96227">
        <ele>421.4</ele>
        <time>2021-08-17T13:37:05Z</time>
      </trkpt>
      <trkpt lat="47.15527" lon="5.96229">
        <ele>421.4</ele>
        <time>2021-08-17T13:37:06Z</time>
      </trkpt>
      <trkpt lat="47.15527" lon="5.96231">
        <ele>421.4</ele>
        <time>2021-08-17T13:37:07Z</time>
      </trkpt>
      <trkpt lat="47.15527" lon="5.96232">
        <ele>421.4</ele>
        <time>2021-08-17T13:37:08Z</time>
      </trkpt>
      <trkpt lat="47.15527" lon="5.96234">
        <ele>421.6</ele>
        <time>2021-08-17T13:37:10Z</time>
      </trkpt>
      <trkpt lat="47.15528" lon="5.96236">
        <ele>421.6</ele>
        <time>2021-08-17T13:37:11Z</time>
      </trkpt>
      <trkpt lat="47.15528" lon="5.96238">
        <ele>421.8</ele>
        <time>2021-08-17T13:37:12Z</time>
      </trkpt>
      <trkpt lat="47.15528" lon="5.9624">
        <ele>421.8</ele>
        <time>2021-08-17T13:37:13Z</time>
      </trkpt>
      <trkpt lat="47.15528" lon="5.96241">
        <ele>421.8</ele>
        <time>2021-08-17T13:37:14Z</time>
      </trkpt>
      <trkpt lat="47.15527" lon="5.96242">
        <ele>421.8</ele>
        <time>2021-08-17T13:37:15Z</time>
      </trkpt>
      <trkpt lat="47.15525" lon="5.96245">
        <ele>421.8</ele>
        <time>2021-08-17T13:37:16Z</time>
      </trkpt>
      <trkpt lat="47.15523" lon="5.96247">
        <ele>421.8</ele>
        <time>2021-08-17T13:37:17Z</time>
      </trkpt>
      <trkpt lat="47.15522" lon="5.96249">
        <ele>421.6</ele>
        <time>2021-08-17T13:37:18Z</time>
      </trkpt>
      <trkpt lat="47.1552" lon="5.96251">
        <ele>421.6</ele>
        <time>2021-08-17T13:37:19Z</time>
      </trkpt>
      <trkpt lat="47.15519" lon="5.96253">
        <ele>421.6</ele>
        <time>2021-08-17T13:37:20Z</time>
      </trkpt>
      <trkpt lat="47.15518" lon="5.96256">
        <ele>421.2</ele>
        <time>2021-08-17T13:37:21Z</time>
      </trkpt>
      <trkpt lat="47.15517" lon="5.96258">
        <ele>421.2</ele>
        <time>2021-08-17T13:37:22Z</time>
      </trkpt>
      <trkpt lat="47.15517" lon="5.96261">
        <ele>421</ele>
        <time>2021-08-17T13:37:23Z</time>
      </trkpt>
      <trkpt lat="47.15516" lon="5.96264">
        <ele>420.8</ele>
        <time>2021-08-17T13:37:24Z</time>
      </trkpt>
      <trkpt lat="47.15516" lon="5.96267">
        <ele>420.6</ele>
        <time>2021-08-17T13:37:25Z</time>
      </trkpt>
      <trkpt lat="47.15515" lon="5.96268">
        <ele>420.6</ele>
        <time>2021-08-17T13:37:26Z</time>
      </trkpt>
      <trkpt lat="47.15514" lon="5.96274">
        <ele>420</ele>
        <time>2021-08-17T13:37:28Z</time>
      </trkpt>
      <trkpt lat="47.15514" lon="5.96277">
        <ele>419.8</ele>
        <time>2021-08-17T13:37:29Z</time>
      </trkpt>
      <trkpt lat="47.15513" lon="5.9628">
        <ele>419.6</ele>
        <time>2021-08-17T13:37:30Z</time>
      </trkpt>
      <trkpt lat="47.1551" lon="5.96288">
        <ele>419.2</ele>
        <time>2021-08-17T13:37:32Z</time>
      </trkpt>
      <trkpt lat="47.15508" lon="5.96292">
        <ele>419.2</ele>
        <time>2021-08-17T13:37:33Z</time>
      </trkpt>
      <trkpt lat="47.15505" lon="5.96297">
        <ele>419</ele>
        <time>2021-08-17T13:37:34Z</time>
      </trkpt>
      <trkpt lat="47.15503" lon="5.96302">
        <ele>418.8</ele>
        <time>2021-08-17T13:37:35Z</time>
      </trkpt>
      <trkpt lat="47.15501" lon="5.96308">
        <ele>418.4</ele>
        <time>2021-08-17T13:37:36Z</time>
      </trkpt>
      <trkpt lat="47.155" lon="5.96311">
        <ele>418.4</ele>
        <time>2021-08-17T13:37:37Z</time>
      </trkpt>
      <trkpt lat="47.15497" lon="5.96315">
        <ele>417.8</ele>
        <time>2021-08-17T13:37:38Z</time>
      </trkpt>
      <trkpt lat="47.15493" lon="5.9632">
        <ele>417.4</ele>
        <time>2021-08-17T13:37:39Z</time>
      </trkpt>
      <trkpt lat="47.15479" lon="5.96332">
        <ele>416.6</ele>
        <time>2021-08-17T13:37:42Z</time>
      </trkpt>
      <trkpt lat="47.15474" lon="5.96337">
        <ele>416.2</ele>
        <time>2021-08-17T13:37:43Z</time>
      </trkpt>
      <trkpt lat="47.15471" lon="5.96343">
        <ele>416.2</ele>
        <time>2021-08-17T13:37:44Z</time>
      </trkpt>
      <trkpt lat="47.1547" lon="5.96348">
        <ele>416</ele>
        <time>2021-08-17T13:37:45Z</time>
      </trkpt>
      <trkpt lat="47.15469" lon="5.96351">
        <ele>415.8</ele>
        <time>2021-08-17T13:37:46Z</time>
      </trkpt>
      <trkpt lat="47.15465" lon="5.96359">
        <ele>415.2</ele>
        <time>2021-08-17T13:37:48Z</time>
      </trkpt>
      <trkpt lat="47.1546" lon="5.96367">
        <ele>415</ele>
        <time>2021-08-17T13:37:50Z</time>
      </trkpt>
      <trkpt lat="47.15457" lon="5.96371">
        <ele>415</ele>
        <time>2021-08-17T13:37:51Z</time>
      </trkpt>
      <trkpt lat="47.15447" lon="5.96386">
        <ele>414</ele>
        <time>2021-08-17T13:37:54Z</time>
      </trkpt>
      <trkpt lat="47.15441" lon="5.96394">
        <ele>413.4</ele>
        <time>2021-08-17T13:37:56Z</time>
      </trkpt>
      <trkpt lat="47.15438" lon="5.96398">
        <ele>413.2</ele>
        <time>2021-08-17T13:37:57Z</time>
      </trkpt>
      <trkpt lat="47.15436" lon="5.964">
        <ele>413</ele>
        <time>2021-08-17T13:37:58Z</time>
      </trkpt>
      <trkpt lat="47.15433" lon="5.96403">
        <ele>412.8</ele>
        <time>2021-08-17T13:37:59Z</time>
      </trkpt>
      <trkpt lat="47.15431" lon="5.96406">
        <ele>412.6</ele>
        <time>2021-08-17T13:38:00Z</time>
      </trkpt>
      <trkpt lat="47.15429" lon="5.96408">
        <ele>412.6</ele>
        <time>2021-08-17T13:38:01Z</time>
      </trkpt>
      <trkpt lat="47.15428" lon="5.9641">
        <ele>412.6</ele>
        <time>2021-08-17T13:38:02Z</time>
      </trkpt>
      <trkpt lat="47.15426" lon="5.96412">
        <ele>412.6</ele>
        <time>2021-08-17T13:38:03Z</time>
      </trkpt>
      <trkpt lat="47.15425" lon="5.96415">
        <ele>412.6</ele>
        <time>2021-08-17T13:38:04Z</time>
      </trkpt>
      <trkpt lat="47.15423" lon="5.96417">
        <ele>412.4</ele>
        <time>2021-08-17T13:38:05Z</time>
      </trkpt>
      <trkpt lat="47.1542" lon="5.96423">
        <ele>412.4</ele>
        <time>2021-08-17T13:38:07Z</time>
      </trkpt>
      <trkpt lat="47.15414" lon="5.96434">
        <ele>412.6</ele>
        <time>2021-08-17T13:38:11Z</time>
      </trkpt>
      <trkpt lat="47.15412" lon="5.96437">
        <ele>412.6</ele>
        <time>2021-08-17T13:38:12Z</time>
      </trkpt>
      <trkpt lat="47.15408" lon="5.96444">
        <ele>412.6</ele>
        <time>2021-08-17T13:38:14Z</time>
      </trkpt>
      <trkpt lat="47.15401" lon="5.96462">
        <ele>412.6</ele>
        <time>2021-08-17T13:38:18Z</time>
      </trkpt>
      <trkpt lat="47.154" lon="5.96468">
        <ele>412.8</ele>
        <time>2021-08-17T13:38:19Z</time>
      </trkpt>
      <trkpt lat="47.15392" lon="5.965">
        <ele>412.6</ele>
        <time>2021-08-17T13:38:24Z</time>
      </trkpt>
      <trkpt lat="47.15378" lon="5.96534">
        <ele>411.8</ele>
        <time>2021-08-17T13:38:29Z</time>
      </trkpt>
      <trkpt lat="47.15374" lon="5.9654">
        <ele>411.6</ele>
        <time>2021-08-17T13:38:30Z</time>
      </trkpt>
      <trkpt lat="47.1537" lon="5.96545">
        <ele>411.6</ele>
        <time>2021-08-17T13:38:31Z</time>
      </trkpt>
      <trkpt lat="47.15368" lon="5.9655">
        <ele>411.4</ele>
        <time>2021-08-17T13:38:32Z</time>
      </trkpt>
      <trkpt lat="47.15359" lon="5.96575">
        <ele>411</ele>
        <time>2021-08-17T13:38:36Z</time>
      </trkpt>
      <trkpt lat="47.15359" lon="5.96581">
        <ele>410.8</ele>
        <time>2021-08-17T13:38:37Z</time>
      </trkpt>
      <trkpt lat="47.15359" lon="5.96587">
        <ele>410.6</ele>
        <time>2021-08-17T13:38:38Z</time>
      </trkpt>
      <trkpt lat="47.1536" lon="5.96592">
        <ele>410.4</ele>
        <time>2021-08-17T13:38:39Z</time>
      </trkpt>
      <trkpt lat="47.1536" lon="5.96596">
        <ele>410.4</ele>
        <time>2021-08-17T13:38:40Z</time>
      </trkpt>
      <trkpt lat="47.1536" lon="5.966">
        <ele>410.2</ele>
        <time>2021-08-17T13:38:41Z</time>
      </trkpt>
      <trkpt lat="47.1536" lon="5.96603">
        <ele>410.2</ele>
        <time>2021-08-17T13:38:42Z</time>
      </trkpt>
      <trkpt lat="47.1536" lon="5.96605">
        <ele>410</ele>
        <time>2021-08-17T13:38:43Z</time>
      </trkpt>
      <trkpt lat="47.15359" lon="5.96609">
        <ele>410.2</ele>
        <time>2021-08-17T13:38:44Z</time>
      </trkpt>
      <trkpt lat="47.1536" lon="5.96619">
        <ele>410.2</ele>
        <time>2021-08-17T13:38:47Z</time>
      </trkpt>
      <trkpt lat="47.15361" lon="5.96623">
        <ele>410.2</ele>
        <time>2021-08-17T13:38:48Z</time>
      </trkpt>
      <trkpt lat="47.1536" lon="5.96628">
        <ele>410.4</ele>
        <time>2021-08-17T13:38:49Z</time>
      </trkpt>
      <trkpt lat="47.15361" lon="5.96631">
        <ele>410.4</ele>
        <time>2021-08-17T13:38:50Z</time>
      </trkpt>
      <trkpt lat="47.15364" lon="5.96637">
        <ele>410.6</ele>
        <time>2021-08-17T13:38:52Z</time>
      </trkpt>
      <trkpt lat="47.15362" lon="5.96643">
        <ele>410.6</ele>
        <time>2021-08-17T13:38:54Z</time>
      </trkpt>
      <trkpt lat="47.15363" lon="5.96647">
        <ele>410.6</ele>
        <time>2021-08-17T13:38:55Z</time>
      </trkpt>
      <trkpt lat="47.15363" lon="5.96652">
        <ele>410.6</ele>
        <time>2021-08-17T13:38:56Z</time>
      </trkpt>
      <trkpt lat="47.15362" lon="5.96661">
        <ele>410.6</ele>
        <time>2021-08-17T13:38:59Z</time>
      </trkpt>
      <trkpt lat="47.15361" lon="5.96665">
        <ele>410.4</ele>
        <time>2021-08-17T13:39:00Z</time>
      </trkpt>
      <trkpt lat="47.15362" lon="5.96667">
        <ele>410.4</ele>
        <time>2021-08-17T13:39:01Z</time>
      </trkpt>
      <trkpt lat="47.15361" lon="5.9667">
        <ele>410.4</ele>
        <time>2021-08-17T13:39:02Z</time>
      </trkpt>
      <trkpt lat="47.15357" lon="5.96688">
        <ele>410.6</ele>
        <time>2021-08-17T13:39:08Z</time>
      </trkpt>
      <trkpt lat="47.15347" lon="5.96723">
        <ele>410.2</ele>
        <time>2021-08-17T13:39:15Z</time>
      </trkpt>
      <trkpt lat="47.15348" lon="5.96733">
        <ele>410</ele>
        <time>2021-08-17T13:39:16Z</time>
      </trkpt>
      <trkpt lat="47.15349" lon="5.96741">
        <ele>409.6</ele>
        <time>2021-08-17T13:39:17Z</time>
      </trkpt>
      <trkpt lat="47.1535" lon="5.96748">
        <ele>409.4</ele>
        <time>2021-08-17T13:39:18Z</time>
      </trkpt>
      <trkpt lat="47.15352" lon="5.96755">
        <ele>409.2</ele>
        <time>2021-08-17T13:39:19Z</time>
      </trkpt>
      <trkpt lat="47.15354" lon="5.9676">
        <ele>408.8</ele>
        <time>2021-08-17T13:39:20Z</time>
      </trkpt>
      <trkpt lat="47.15356" lon="5.96766">
        <ele>408.6</ele>
        <time>2021-08-17T13:39:21Z</time>
      </trkpt>
      <trkpt lat="47.15358" lon="5.9677">
        <ele>408.4</ele>
        <time>2021-08-17T13:39:22Z</time>
      </trkpt>
      <trkpt lat="47.15358" lon="5.96776">
        <ele>408.4</ele>
        <time>2021-08-17T13:39:23Z</time>
      </trkpt>
      <trkpt lat="47.15359" lon="5.96781">
        <ele>408.2</ele>
        <time>2021-08-17T13:39:24Z</time>
      </trkpt>
      <trkpt lat="47.15359" lon="5.96787">
        <ele>408.2</ele>
        <time>2021-08-17T13:39:25Z</time>
      </trkpt>
      <trkpt lat="47.15358" lon="5.96823">
        <ele>408.2</ele>
        <time>2021-08-17T13:39:30Z</time>
      </trkpt>
      <trkpt lat="47.15358" lon="5.96833">
        <ele>408</ele>
        <time>2021-08-17T13:39:31Z</time>
      </trkpt>
      <trkpt lat="47.15359" lon="5.96853">
        <ele>408</ele>
        <time>2021-08-17T13:39:33Z</time>
      </trkpt>
      <trkpt lat="47.15359" lon="5.96862">
        <ele>407.8</ele>
        <time>2021-08-17T13:39:34Z</time>
      </trkpt>
      <trkpt lat="47.15359" lon="5.9687">
        <ele>407.6</ele>
        <time>2021-08-17T13:39:35Z</time>
      </trkpt>
      <trkpt lat="47.15359" lon="5.96888">
        <ele>407.4</ele>
        <time>2021-08-17T13:39:37Z</time>
      </trkpt>
      <trkpt lat="47.15357" lon="5.96898">
        <ele>406.8</ele>
        <time>2021-08-17T13:39:38Z</time>
      </trkpt>
      <trkpt lat="47.15355" lon="5.96913">
        <ele>405.8</ele>
        <time>2021-08-17T13:39:40Z</time>
      </trkpt>
      <trkpt lat="47.15354" lon="5.96921">
        <ele>405.8</ele>
        <time>2021-08-17T13:39:41Z</time>
      </trkpt>
      <trkpt lat="47.15354" lon="5.9693">
        <ele>405.6</ele>
        <time>2021-08-17T13:39:42Z</time>
      </trkpt>
      <trkpt lat="47.15353" lon="5.96938">
        <ele>405.4</ele>
        <time>2021-08-17T13:39:43Z</time>
      </trkpt>
      <trkpt lat="47.15352" lon="5.96951">
        <ele>404.6</ele>
        <time>2021-08-17T13:39:45Z</time>
      </trkpt>
      <trkpt lat="47.15351" lon="5.96957">
        <ele>404.6</ele>
        <time>2021-08-17T13:39:46Z</time>
      </trkpt>
      <trkpt lat="47.15352" lon="5.96962">
        <ele>404</ele>
        <time>2021-08-17T13:39:47Z</time>
      </trkpt>
      <trkpt lat="47.15351" lon="5.96968">
        <ele>404</ele>
        <time>2021-08-17T13:39:48Z</time>
      </trkpt>
      <trkpt lat="47.1535" lon="5.96972">
        <ele>403.8</ele>
        <time>2021-08-17T13:39:49Z</time>
      </trkpt>
      <trkpt lat="47.1535" lon="5.96979">
        <ele>403.8</ele>
        <time>2021-08-17T13:39:50Z</time>
      </trkpt>
      <trkpt lat="47.15349" lon="5.96985">
        <ele>403.6</ele>
        <time>2021-08-17T13:39:51Z</time>
      </trkpt>
      <trkpt lat="47.15347" lon="5.97001">
        <ele>403.6</ele>
        <time>2021-08-17T13:39:54Z</time>
      </trkpt>
      <trkpt lat="47.15347" lon="5.97005">
        <ele>403.6</ele>
        <time>2021-08-17T13:39:55Z</time>
      </trkpt>
      <trkpt lat="47.15347" lon="5.97008">
        <ele>403.6</ele>
        <time>2021-08-17T13:39:56Z</time>
      </trkpt>
      <trkpt lat="47.15347" lon="5.97013">
        <ele>403.6</ele>
        <time>2021-08-17T13:39:57Z</time>
      </trkpt>
      <trkpt lat="47.15349" lon="5.97034">
        <ele>403.6</ele>
        <time>2021-08-17T13:40:00Z</time>
      </trkpt>
      <trkpt lat="47.15353" lon="5.97052">
        <ele>403.8</ele>
        <time>2021-08-17T13:40:04Z</time>
      </trkpt>
      <trkpt lat="47.15356" lon="5.97058">
        <ele>403.8</ele>
        <time>2021-08-17T13:40:06Z</time>
      </trkpt>
      <trkpt lat="47.15358" lon="5.97064">
        <ele>403.8</ele>
        <time>2021-08-17T13:40:08Z</time>
      </trkpt>
      <trkpt lat="47.15358" lon="5.97067">
        <ele>403.8</ele>
        <time>2021-08-17T13:40:09Z</time>
      </trkpt>
      <trkpt lat="47.15359" lon="5.9707">
        <ele>403.8</ele>
        <time>2021-08-17T13:40:10Z</time>
      </trkpt>
      <trkpt lat="47.15359" lon="5.97073">
        <ele>403.8</ele>
        <time>2021-08-17T13:40:11Z</time>
      </trkpt>
      <trkpt lat="47.1536" lon="5.97075">
        <ele>403.8</ele>
        <time>2021-08-17T13:40:12Z</time>
      </trkpt>
      <trkpt lat="47.15361" lon="5.97077">
        <ele>403.8</ele>
        <time>2021-08-17T13:40:13Z</time>
      </trkpt>
      <trkpt lat="47.15361" lon="5.9708">
        <ele>403.8</ele>
        <time>2021-08-17T13:40:14Z</time>
      </trkpt>
      <trkpt lat="47.15363" lon="5.97091">
        <ele>404.2</ele>
        <time>2021-08-17T13:40:17Z</time>
      </trkpt>
      <trkpt lat="47.15364" lon="5.97095">
        <ele>404.6</ele>
        <time>2021-08-17T13:40:18Z</time>
      </trkpt>
      <trkpt lat="47.15365" lon="5.97102">
        <ele>405</ele>
        <time>2021-08-17T13:40:20Z</time>
      </trkpt>
      <trkpt lat="47.15365" lon="5.97105">
        <ele>405</ele>
        <time>2021-08-17T13:40:21Z</time>
      </trkpt>
      <trkpt lat="47.15366" lon="5.97109">
        <ele>405.2</ele>
        <time>2021-08-17T13:40:22Z</time>
      </trkpt>
      <trkpt lat="47.15367" lon="5.97112">
        <ele>405.2</ele>
        <time>2021-08-17T13:40:23Z</time>
      </trkpt>
      <trkpt lat="47.15367" lon="5.97126">
        <ele>405.8</ele>
        <time>2021-08-17T13:40:26Z</time>
      </trkpt>
      <trkpt lat="47.15367" lon="5.97134">
        <ele>405.8</ele>
        <time>2021-08-17T13:40:28Z</time>
      </trkpt>
      <trkpt lat="47.15367" lon="5.97139">
        <ele>406.2</ele>
        <time>2021-08-17T13:40:29Z</time>
      </trkpt>
      <trkpt lat="47.15366" lon="5.9715">
        <ele>406.8</ele>
        <time>2021-08-17T13:40:32Z</time>
      </trkpt>
      <trkpt lat="47.15367" lon="5.97154">
        <ele>406.8</ele>
        <time>2021-08-17T13:40:33Z</time>
      </trkpt>
      <trkpt lat="47.15368" lon="5.97161">
        <ele>407.2</ele>
        <time>2021-08-17T13:40:35Z</time>
      </trkpt>
      <trkpt lat="47.15369" lon="5.97164">
        <ele>407.4</ele>
        <time>2021-08-17T13:40:36Z</time>
      </trkpt>
      <trkpt lat="47.15369" lon="5.97169">
        <ele>407.4</ele>
        <time>2021-08-17T13:40:37Z</time>
      </trkpt>
      <trkpt lat="47.15369" lon="5.97173">
        <ele>407.8</ele>
        <time>2021-08-17T13:40:38Z</time>
      </trkpt>
      <trkpt lat="47.1537" lon="5.97176">
        <ele>408</ele>
        <time>2021-08-17T13:40:39Z</time>
      </trkpt>
      <trkpt lat="47.1537" lon="5.9718">
        <ele>408.2</ele>
        <time>2021-08-17T13:40:40Z</time>
      </trkpt>
      <trkpt lat="47.15369" lon="5.97182">
        <ele>408.2</ele>
        <time>2021-08-17T13:40:41Z</time>
      </trkpt>
      <trkpt lat="47.15369" lon="5.97184">
        <ele>408.4</ele>
        <time>2021-08-17T13:40:42Z</time>
      </trkpt>
      <trkpt lat="47.1537" lon="5.97185">
        <ele>408.8</ele>
        <time>2021-08-17T13:40:43Z</time>
      </trkpt>
      <trkpt lat="47.1537" lon="5.97186">
        <ele>408.8</ele>
        <time>2021-08-17T13:40:44Z</time>
      </trkpt>
      <trkpt lat="47.1537" lon="5.97188">
        <ele>409.2</ele>
        <time>2021-08-17T13:42:30Z</time>
      </trkpt>
      <trkpt lat="47.15368" lon="5.97194">
        <ele>409.2</ele>
        <time>2021-08-17T13:42:33Z</time>
      </trkpt>
      <trkpt lat="47.15359" lon="5.97215">
        <ele>408.8</ele>
        <time>2021-08-17T13:42:39Z</time>
      </trkpt>
      <trkpt lat="47.15346" lon="5.97237">
        <ele>408</ele>
        <time>2021-08-17T13:42:43Z</time>
      </trkpt>
      <trkpt lat="47.15343" lon="5.97242">
        <ele>407.8</ele>
        <time>2021-08-17T13:42:44Z</time>
      </trkpt>
      <trkpt lat="47.15341" lon="5.97245">
        <ele>407.6</ele>
        <time>2021-08-17T13:42:45Z</time>
      </trkpt>
      <trkpt lat="47.15338" lon="5.97249">
        <ele>407.4</ele>
        <time>2021-08-17T13:42:46Z</time>
      </trkpt>
      <trkpt lat="47.15336" lon="5.97252">
        <ele>407.2</ele>
        <time>2021-08-17T13:42:47Z</time>
      </trkpt>
      <trkpt lat="47.15334" lon="5.97254">
        <ele>407.2</ele>
        <time>2021-08-17T13:42:48Z</time>
      </trkpt>
      <trkpt lat="47.15332" lon="5.97257">
        <ele>407.2</ele>
        <time>2021-08-17T13:42:49Z</time>
      </trkpt>
      <trkpt lat="47.1533" lon="5.97259">
        <ele>407.2</ele>
        <time>2021-08-17T13:42:50Z</time>
      </trkpt>
      <trkpt lat="47.15328" lon="5.97262">
        <ele>407.2</ele>
        <time>2021-08-17T13:42:51Z</time>
      </trkpt>
      <trkpt lat="47.15326" lon="5.97264">
        <ele>407.2</ele>
        <time>2021-08-17T13:42:52Z</time>
      </trkpt>
      <trkpt lat="47.15324" lon="5.97267">
        <ele>407.2</ele>
        <time>2021-08-17T13:42:54Z</time>
      </trkpt>
      <trkpt lat="47.15322" lon="5.97269">
        <ele>407.2</ele>
        <time>2021-08-17T13:42:55Z</time>
      </trkpt>
      <trkpt lat="47.15317" lon="5.9727">
        <ele>407.4</ele>
        <time>2021-08-17T13:42:57Z</time>
      </trkpt>
      <trkpt lat="47.15315" lon="5.9727">
        <ele>407.6</ele>
        <time>2021-08-17T13:42:58Z</time>
      </trkpt>
      <trkpt lat="47.15313" lon="5.97271">
        <ele>407.8</ele>
        <time>2021-08-17T13:42:59Z</time>
      </trkpt>
      <trkpt lat="47.15307" lon="5.97271">
        <ele>408</ele>
        <time>2021-08-17T13:43:01Z</time>
      </trkpt>
      <trkpt lat="47.1529" lon="5.97267">
        <ele>408.4</ele>
        <time>2021-08-17T13:43:07Z</time>
      </trkpt>
      <trkpt lat="47.15282" lon="5.97269">
        <ele>408.6</ele>
        <time>2021-08-17T13:43:10Z</time>
      </trkpt>
      <trkpt lat="47.1528" lon="5.97269">
        <ele>408.6</ele>
        <time>2021-08-17T13:43:11Z</time>
      </trkpt>
      <trkpt lat="47.15277" lon="5.9727">
        <ele>408.8</ele>
        <time>2021-08-17T13:43:12Z</time>
      </trkpt>
      <trkpt lat="47.15275" lon="5.97271">
        <ele>409</ele>
        <time>2021-08-17T13:43:13Z</time>
      </trkpt>
      <trkpt lat="47.15271" lon="5.97272">
        <ele>409</ele>
        <time>2021-08-17T13:43:14Z</time>
      </trkpt>
      <trkpt lat="47.15269" lon="5.97272">
        <ele>409</ele>
        <time>2021-08-17T13:43:15Z</time>
      </trkpt>
      <trkpt lat="47.15266" lon="5.97271">
        <ele>409.2</ele>
        <time>2021-08-17T13:43:16Z</time>
      </trkpt>
      <trkpt lat="47.15264" lon="5.9727">
        <ele>409.4</ele>
        <time>2021-08-17T13:43:17Z</time>
      </trkpt>
      <trkpt lat="47.15263" lon="5.9727">
        <ele>409.6</ele>
        <time>2021-08-17T13:43:18Z</time>
      </trkpt>
      <trkpt lat="47.15261" lon="5.9727">
        <ele>409.8</ele>
        <time>2021-08-17T13:43:19Z</time>
      </trkpt>
      <trkpt lat="47.15259" lon="5.97269">
        <ele>410</ele>
        <time>2021-08-17T13:43:20Z</time>
      </trkpt>
      <trkpt lat="47.15257" lon="5.97269">
        <ele>410.2</ele>
        <time>2021-08-17T13:43:21Z</time>
      </trkpt>
      <trkpt lat="47.15256" lon="5.9727">
        <ele>410.2</ele>
        <time>2021-08-17T13:43:22Z</time>
      </trkpt>
      <trkpt lat="47.15255" lon="5.97269">
        <ele>410.4</ele>
        <time>2021-08-17T13:43:23Z</time>
      </trkpt>
      <trkpt lat="47.15253" lon="5.97269">
        <ele>410.4</ele>
        <time>2021-08-17T13:43:24Z</time>
      </trkpt>
      <trkpt lat="47.15251" lon="5.97269">
        <ele>411</ele>
        <time>2021-08-17T13:43:25Z</time>
      </trkpt>
      <trkpt lat="47.15248" lon="5.97268">
        <ele>411.2</ele>
        <time>2021-08-17T13:43:27Z</time>
      </trkpt>
      <trkpt lat="47.15247" lon="5.97268">
        <ele>411.2</ele>
        <time>2021-08-17T13:43:28Z</time>
      </trkpt>
      <trkpt lat="47.15245" lon="5.97268">
        <ele>411.2</ele>
        <time>2021-08-17T13:43:29Z</time>
      </trkpt>
      <trkpt lat="47.15244" lon="5.97268">
        <ele>411.2</ele>
        <time>2021-08-17T13:43:30Z</time>
      </trkpt>
      <trkpt lat="47.15242" lon="5.97267">
        <ele>411.2</ele>
        <time>2021-08-17T13:43:31Z</time>
      </trkpt>
      <trkpt lat="47.1524" lon="5.97267">
        <ele>411.2</ele>
        <time>2021-08-17T13:43:32Z</time>
      </trkpt>
      <trkpt lat="47.15238" lon="5.97267">
        <ele>411.2</ele>
        <time>2021-08-17T13:43:33Z</time>
      </trkpt>
      <trkpt lat="47.15236" lon="5.97267">
        <ele>411.2</ele>
        <time>2021-08-17T13:43:34Z</time>
      </trkpt>
      <trkpt lat="47.15234" lon="5.97267">
        <ele>411.2</ele>
        <time>2021-08-17T13:43:35Z</time>
      </trkpt>
      <trkpt lat="47.15231" lon="5.97268">
        <ele>411.2</ele>
        <time>2021-08-17T13:43:36Z</time>
      </trkpt>
      <trkpt lat="47.15229" lon="5.97269">
        <ele>411.4</ele>
        <time>2021-08-17T13:43:37Z</time>
      </trkpt>
      <trkpt lat="47.15227" lon="5.9727">
        <ele>411.4</ele>
        <time>2021-08-17T13:43:38Z</time>
      </trkpt>
      <trkpt lat="47.15225" lon="5.97272">
        <ele>411.4</ele>
        <time>2021-08-17T13:43:39Z</time>
      </trkpt>
      <trkpt lat="47.15199" lon="5.97295">
        <ele>411.8</ele>
        <time>2021-08-17T13:43:48Z</time>
      </trkpt>
      <trkpt lat="47.15194" lon="5.97303">
        <ele>411.8</ele>
        <time>2021-08-17T13:43:51Z</time>
      </trkpt>
      <trkpt lat="47.15193" lon="5.97305">
        <ele>411.8</ele>
        <time>2021-08-17T13:43:52Z</time>
      </trkpt>
      <trkpt lat="47.15191" lon="5.97307">
        <ele>411.8</ele>
        <time>2021-08-17T13:43:53Z</time>
      </trkpt>
      <trkpt lat="47.15181" lon="5.97314">
        <ele>411.6</ele>
        <time>2021-08-17T13:43:55Z</time>
      </trkpt>
      <trkpt lat="47.15175" lon="5.97319">
        <ele>411.6</ele>
        <time>2021-08-17T13:43:56Z</time>
      </trkpt>
      <trkpt lat="47.15168" lon="5.97326">
        <ele>411.4</ele>
        <time>2021-08-17T13:43:57Z</time>
      </trkpt>
      <trkpt lat="47.15158" lon="5.97342">
        <ele>410.6</ele>
        <time>2021-08-17T13:43:59Z</time>
      </trkpt>
      <trkpt lat="47.15153" lon="5.9735">
        <ele>410.4</ele>
        <time>2021-08-17T13:44:00Z</time>
      </trkpt>
      <trkpt lat="47.15147" lon="5.97359">
        <ele>409.6</ele>
        <time>2021-08-17T13:44:01Z</time>
      </trkpt>
      <trkpt lat="47.15143" lon="5.97366">
        <ele>409.2</ele>
        <time>2021-08-17T13:44:02Z</time>
      </trkpt>
      <trkpt lat="47.15139" lon="5.97371">
        <ele>408.6</ele>
        <time>2021-08-17T13:44:03Z</time>
      </trkpt>
      <trkpt lat="47.15135" lon="5.97373">
        <ele>408</ele>
        <time>2021-08-17T13:44:04Z</time>
      </trkpt>
      <trkpt lat="47.1513" lon="5.97376">
        <ele>407.4</ele>
        <time>2021-08-17T13:44:05Z</time>
      </trkpt>
      <trkpt lat="47.15127" lon="5.97378">
        <ele>407</ele>
        <time>2021-08-17T13:44:06Z</time>
      </trkpt>
      <trkpt lat="47.15124" lon="5.97379">
        <ele>406.6</ele>
        <time>2021-08-17T13:44:07Z</time>
      </trkpt>
      <trkpt lat="47.15122" lon="5.97381">
        <ele>406.2</ele>
        <time>2021-08-17T13:44:08Z</time>
      </trkpt>
      <trkpt lat="47.15119" lon="5.97383">
        <ele>406.2</ele>
        <time>2021-08-17T13:44:09Z</time>
      </trkpt>
      <trkpt lat="47.15117" lon="5.97385">
        <ele>405.8</ele>
        <time>2021-08-17T13:44:10Z</time>
      </trkpt>
      <trkpt lat="47.15115" lon="5.97387">
        <ele>405.8</ele>
        <time>2021-08-17T13:44:11Z</time>
      </trkpt>
      <trkpt lat="47.15114" lon="5.9739">
        <ele>405.6</ele>
        <time>2021-08-17T13:44:12Z</time>
      </trkpt>
      <trkpt lat="47.15112" lon="5.97393">
        <ele>405.6</ele>
        <time>2021-08-17T13:44:13Z</time>
      </trkpt>
      <trkpt lat="47.15112" lon="5.97396">
        <ele>405.6</ele>
        <time>2021-08-17T13:44:14Z</time>
      </trkpt>
      <trkpt lat="47.15111" lon="5.97399">
        <ele>405.6</ele>
        <time>2021-08-17T13:44:15Z</time>
      </trkpt>
      <trkpt lat="47.1511" lon="5.97402">
        <ele>405.4</ele>
        <time>2021-08-17T13:44:16Z</time>
      </trkpt>
      <trkpt lat="47.1511" lon="5.97405">
        <ele>405.4</ele>
        <time>2021-08-17T13:44:17Z</time>
      </trkpt>
      <trkpt lat="47.15109" lon="5.97408">
        <ele>405.4</ele>
        <time>2021-08-17T13:44:18Z</time>
      </trkpt>
      <trkpt lat="47.15107" lon="5.97412">
        <ele>405.4</ele>
        <time>2021-08-17T13:44:19Z</time>
      </trkpt>
      <trkpt lat="47.15105" lon="5.97415">
        <ele>405.4</ele>
        <time>2021-08-17T13:44:20Z</time>
      </trkpt>
      <trkpt lat="47.15098" lon="5.97432">
        <ele>405.8</ele>
        <time>2021-08-17T13:44:24Z</time>
      </trkpt>
      <trkpt lat="47.15094" lon="5.97453">
        <ele>406.2</ele>
        <time>2021-08-17T13:44:28Z</time>
      </trkpt>
      <trkpt lat="47.15092" lon="5.97457">
        <ele>406.2</ele>
        <time>2021-08-17T13:44:29Z</time>
      </trkpt>
      <trkpt lat="47.15087" lon="5.97465">
        <ele>406.2</ele>
        <time>2021-08-17T13:44:31Z</time>
      </trkpt>
      <trkpt lat="47.15084" lon="5.9747">
        <ele>406.4</ele>
        <time>2021-08-17T13:44:32Z</time>
      </trkpt>
      <trkpt lat="47.15081" lon="5.97475">
        <ele>406.4</ele>
        <time>2021-08-17T13:44:33Z</time>
      </trkpt>
      <trkpt lat="47.15073" lon="5.97484">
        <ele>406</ele>
        <time>2021-08-17T13:44:35Z</time>
      </trkpt>
      <trkpt lat="47.15055" lon="5.97504">
        <ele>406</ele>
        <time>2021-08-17T13:44:40Z</time>
      </trkpt>
      <trkpt lat="47.15051" lon="5.97507">
        <ele>406</ele>
        <time>2021-08-17T13:44:41Z</time>
      </trkpt>
      <trkpt lat="47.15047" lon="5.97511">
        <ele>406</ele>
        <time>2021-08-17T13:44:42Z</time>
      </trkpt>
      <trkpt lat="47.15043" lon="5.97514">
        <ele>406</ele>
        <time>2021-08-17T13:44:43Z</time>
      </trkpt>
      <trkpt lat="47.15039" lon="5.97519">
        <ele>406</ele>
        <time>2021-08-17T13:44:44Z</time>
      </trkpt>
      <trkpt lat="47.15036" lon="5.97521">
        <ele>406</ele>
        <time>2021-08-17T13:44:45Z</time>
      </trkpt>
      <trkpt lat="47.15033" lon="5.97522">
        <ele>406</ele>
        <time>2021-08-17T13:44:46Z</time>
      </trkpt>
      <trkpt lat="47.15031" lon="5.97522">
        <ele>406</ele>
        <time>2021-08-17T13:44:47Z</time>
      </trkpt>
      <trkpt lat="47.15029" lon="5.97523">
        <ele>406.2</ele>
        <time>2021-08-17T13:44:48Z</time>
      </trkpt>
      <trkpt lat="47.15026" lon="5.97524">
        <ele>406.2</ele>
        <time>2021-08-17T13:44:49Z</time>
      </trkpt>
      <trkpt lat="47.15012" lon="5.97525">
        <ele>406.4</ele>
        <time>2021-08-17T13:44:53Z</time>
      </trkpt>
      <trkpt lat="47.14982" lon="5.97521">
        <ele>407.2</ele>
        <time>2021-08-17T13:45:02Z</time>
      </trkpt>
      <trkpt lat="47.14979" lon="5.9752">
        <ele>407.4</ele>
        <time>2021-08-17T13:45:03Z</time>
      </trkpt>
      <trkpt lat="47.14973" lon="5.97518">
        <ele>407.6</ele>
        <time>2021-08-17T13:45:05Z</time>
      </trkpt>
      <trkpt lat="47.1497" lon="5.97517">
        <ele>407.8</ele>
        <time>2021-08-17T13:45:06Z</time>
      </trkpt>
      <trkpt lat="47.14967" lon="5.97516">
        <ele>408</ele>
        <time>2021-08-17T13:45:07Z</time>
      </trkpt>
      <trkpt lat="47.14964" lon="5.97516">
        <ele>408.2</ele>
        <time>2021-08-17T13:45:08Z</time>
      </trkpt>
      <trkpt lat="47.14953" lon="5.97511">
        <ele>409</ele>
        <time>2021-08-17T13:45:11Z</time>
      </trkpt>
      <trkpt lat="47.1495" lon="5.9751">
        <ele>409</ele>
        <time>2021-08-17T13:45:12Z</time>
      </trkpt>
      <trkpt lat="47.14948" lon="5.97509">
        <ele>409.4</ele>
        <time>2021-08-17T13:45:13Z</time>
      </trkpt>
      <trkpt lat="47.14945" lon="5.97508">
        <ele>409.6</ele>
        <time>2021-08-17T13:45:14Z</time>
      </trkpt>
      <trkpt lat="47.14943" lon="5.97507">
        <ele>409.8</ele>
        <time>2021-08-17T13:45:15Z</time>
      </trkpt>
      <trkpt lat="47.14941" lon="5.97506">
        <ele>409.8</ele>
        <time>2021-08-17T13:45:16Z</time>
      </trkpt>
      <trkpt lat="47.14937" lon="5.97505">
        <ele>410.2</ele>
        <time>2021-08-17T13:45:17Z</time>
      </trkpt>
      <trkpt lat="47.14934" lon="5.97504">
        <ele>410.6</ele>
        <time>2021-08-17T13:45:18Z</time>
      </trkpt>
      <trkpt lat="47.1493" lon="5.97504">
        <ele>410.8</ele>
        <time>2021-08-17T13:45:19Z</time>
      </trkpt>
      <trkpt lat="47.14927" lon="5.97502">
        <ele>411.2</ele>
        <time>2021-08-17T13:45:20Z</time>
      </trkpt>
      <trkpt lat="47.14924" lon="5.97501">
        <ele>411.4</ele>
        <time>2021-08-17T13:45:21Z</time>
      </trkpt>
      <trkpt lat="47.14922" lon="5.975">
        <ele>411.8</ele>
        <time>2021-08-17T13:45:22Z</time>
      </trkpt>
      <trkpt lat="47.14919" lon="5.97499">
        <ele>411.8</ele>
        <time>2021-08-17T13:45:23Z</time>
      </trkpt>
      <trkpt lat="47.14916" lon="5.97497">
        <ele>412</ele>
        <time>2021-08-17T13:45:24Z</time>
      </trkpt>
      <trkpt lat="47.14914" lon="5.97495">
        <ele>412</ele>
        <time>2021-08-17T13:45:25Z</time>
      </trkpt>
      <trkpt lat="47.1491" lon="5.97493">
        <ele>412.2</ele>
        <time>2021-08-17T13:45:26Z</time>
      </trkpt>
      <trkpt lat="47.14907" lon="5.97493">
        <ele>412.6</ele>
        <time>2021-08-17T13:45:27Z</time>
      </trkpt>
      <trkpt lat="47.14904" lon="5.97492">
        <ele>412.6</ele>
        <time>2021-08-17T13:45:28Z</time>
      </trkpt>
      <trkpt lat="47.14902" lon="5.97491">
        <ele>412.8</ele>
        <time>2021-08-17T13:45:29Z</time>
      </trkpt>
      <trkpt lat="47.14899" lon="5.97489">
        <ele>412.8</ele>
        <time>2021-08-17T13:45:30Z</time>
      </trkpt>
      <trkpt lat="47.14897" lon="5.97487">
        <ele>413</ele>
        <time>2021-08-17T13:45:31Z</time>
      </trkpt>
      <trkpt lat="47.14894" lon="5.97486">
        <ele>413.2</ele>
        <time>2021-08-17T13:45:32Z</time>
      </trkpt>
      <trkpt lat="47.1489" lon="5.97484">
        <ele>413.2</ele>
        <time>2021-08-17T13:45:33Z</time>
      </trkpt>
      <trkpt lat="47.14886" lon="5.97482">
        <ele>413.2</ele>
        <time>2021-08-17T13:45:34Z</time>
      </trkpt>
      <trkpt lat="47.14883" lon="5.9748">
        <ele>413.2</ele>
        <time>2021-08-17T13:45:35Z</time>
      </trkpt>
      <trkpt lat="47.1488" lon="5.97478">
        <ele>413.2</ele>
        <time>2021-08-17T13:45:36Z</time>
      </trkpt>
      <trkpt lat="47.14877" lon="5.97476">
        <ele>413.2</ele>
        <time>2021-08-17T13:45:37Z</time>
      </trkpt>
      <trkpt lat="47.14874" lon="5.97475">
        <ele>413.4</ele>
        <time>2021-08-17T13:45:38Z</time>
      </trkpt>
      <trkpt lat="47.14871" lon="5.97473">
        <ele>413.4</ele>
        <time>2021-08-17T13:45:39Z</time>
      </trkpt>
      <trkpt lat="47.14867" lon="5.97472">
        <ele>413.4</ele>
        <time>2021-08-17T13:45:40Z</time>
      </trkpt>
      <trkpt lat="47.14864" lon="5.97471">
        <ele>413.4</ele>
        <time>2021-08-17T13:45:41Z</time>
      </trkpt>
      <trkpt lat="47.14861" lon="5.97471">
        <ele>413.4</ele>
        <time>2021-08-17T13:45:42Z</time>
      </trkpt>
      <trkpt lat="47.14858" lon="5.9747">
        <ele>413.4</ele>
        <time>2021-08-17T13:45:43Z</time>
      </trkpt>
      <trkpt lat="47.14855" lon="5.9747">
        <ele>413.4</ele>
        <time>2021-08-17T13:45:44Z</time>
      </trkpt>
      <trkpt lat="47.14853" lon="5.9747">
        <ele>413.4</ele>
        <time>2021-08-17T13:45:45Z</time>
      </trkpt>
      <trkpt lat="47.1485" lon="5.9747">
        <ele>413.6</ele>
        <time>2021-08-17T13:45:46Z</time>
      </trkpt>
      <trkpt lat="47.14848" lon="5.97469">
        <ele>413.6</ele>
        <time>2021-08-17T13:45:47Z</time>
      </trkpt>
      <trkpt lat="47.14845" lon="5.97469">
        <ele>413.6</ele>
        <time>2021-08-17T13:45:48Z</time>
      </trkpt>
      <trkpt lat="47.14843" lon="5.97468">
        <ele>413.6</ele>
        <time>2021-08-17T13:45:49Z</time>
      </trkpt>
      <trkpt lat="47.14839" lon="5.97466">
        <ele>413.6</ele>
        <time>2021-08-17T13:45:51Z</time>
      </trkpt>
      <trkpt lat="47.14837" lon="5.97466">
        <ele>413.6</ele>
        <time>2021-08-17T13:45:52Z</time>
      </trkpt>
      <trkpt lat="47.14835" lon="5.97465">
        <ele>413.6</ele>
        <time>2021-08-17T13:45:53Z</time>
      </trkpt>
      <trkpt lat="47.14833" lon="5.97464">
        <ele>413.6</ele>
        <time>2021-08-17T13:45:54Z</time>
      </trkpt>
      <trkpt lat="47.14832" lon="5.97463">
        <ele>413.6</ele>
        <time>2021-08-17T13:45:55Z</time>
      </trkpt>
      <trkpt lat="47.1483" lon="5.97462">
        <ele>413.6</ele>
        <time>2021-08-17T13:45:56Z</time>
      </trkpt>
      <trkpt lat="47.14829" lon="5.97462">
        <ele>413.6</ele>
        <time>2021-08-17T13:45:57Z</time>
      </trkpt>
      <trkpt lat="47.14828" lon="5.9746">
        <ele>413.6</ele>
        <time>2021-08-17T13:45:58Z</time>
      </trkpt>
      <trkpt lat="47.14827" lon="5.97459">
        <ele>413.6</ele>
        <time>2021-08-17T13:45:59Z</time>
      </trkpt>
      <trkpt lat="47.14826" lon="5.97457">
        <ele>413.6</ele>
        <time>2021-08-17T13:46:00Z</time>
      </trkpt>
      <trkpt lat="47.14824" lon="5.97456">
        <ele>413.6</ele>
        <time>2021-08-17T13:46:01Z</time>
      </trkpt>
      <trkpt lat="47.14823" lon="5.97455">
        <ele>413.6</ele>
        <time>2021-08-17T13:46:02Z</time>
      </trkpt>
      <trkpt lat="47.14822" lon="5.97454">
        <ele>413.6</ele>
        <time>2021-08-17T13:46:03Z</time>
      </trkpt>
      <trkpt lat="47.14811" lon="5.97448">
        <ele>413.4</ele>
        <time>2021-08-17T13:46:07Z</time>
      </trkpt>
      <trkpt lat="47.14787" lon="5.97441">
        <ele>413</ele>
        <time>2021-08-17T13:46:13Z</time>
      </trkpt>
      <trkpt lat="47.14769" lon="5.97436">
        <ele>412.4</ele>
        <time>2021-08-17T13:46:17Z</time>
      </trkpt>
      <trkpt lat="47.14756" lon="5.97428">
        <ele>412.2</ele>
        <time>2021-08-17T13:46:20Z</time>
      </trkpt>
      <trkpt lat="47.14741" lon="5.97416">
        <ele>411.8</ele>
        <time>2021-08-17T13:46:24Z</time>
      </trkpt>
      <trkpt lat="47.14738" lon="5.97412">
        <ele>411.6</ele>
        <time>2021-08-17T13:46:25Z</time>
      </trkpt>
      <trkpt lat="47.14732" lon="5.97405">
        <ele>411.6</ele>
        <time>2021-08-17T13:46:27Z</time>
      </trkpt>
      <trkpt lat="47.14728" lon="5.97402">
        <ele>411.4</ele>
        <time>2021-08-17T13:46:28Z</time>
      </trkpt>
      <trkpt lat="47.14725" lon="5.97399">
        <ele>411.4</ele>
        <time>2021-08-17T13:46:29Z</time>
      </trkpt>
      <trkpt lat="47.14722" lon="5.97396">
        <ele>411.4</ele>
        <time>2021-08-17T13:46:30Z</time>
      </trkpt>
      <trkpt lat="47.147" lon="5.97375">
        <ele>411</ele>
        <time>2021-08-17T13:46:35Z</time>
      </trkpt>
      <trkpt lat="47.14695" lon="5.9737">
        <ele>410.8</ele>
        <time>2021-08-17T13:46:36Z</time>
      </trkpt>
      <trkpt lat="47.14671" lon="5.97349">
        <ele>409.6</ele>
        <time>2021-08-17T13:46:40Z</time>
      </trkpt>
      <trkpt lat="47.14665" lon="5.97344">
        <ele>409</ele>
        <time>2021-08-17T13:46:41Z</time>
      </trkpt>
      <trkpt lat="47.14659" lon="5.9734">
        <ele>408.6</ele>
        <time>2021-08-17T13:46:42Z</time>
      </trkpt>
      <trkpt lat="47.14653" lon="5.97336">
        <ele>407.8</ele>
        <time>2021-08-17T13:46:43Z</time>
      </trkpt>
      <trkpt lat="47.14639" lon="5.97327">
        <ele>407.2</ele>
        <time>2021-08-17T13:46:45Z</time>
      </trkpt>
      <trkpt lat="47.14633" lon="5.97321">
        <ele>407</ele>
        <time>2021-08-17T13:46:46Z</time>
      </trkpt>
      <trkpt lat="47.14626" lon="5.97314">
        <ele>406.8</ele>
        <time>2021-08-17T13:46:47Z</time>
      </trkpt>
      <trkpt lat="47.14613" lon="5.973">
        <ele>405.4</ele>
        <time>2021-08-17T13:46:49Z</time>
      </trkpt>
      <trkpt lat="47.146" lon="5.97287">
        <ele>403.6</ele>
        <time>2021-08-17T13:46:51Z</time>
      </trkpt>
      <trkpt lat="47.14593" lon="5.97282">
        <ele>402.6</ele>
        <time>2021-08-17T13:46:52Z</time>
      </trkpt>
      <trkpt lat="47.14577" lon="5.97274">
        <ele>401</ele>
        <time>2021-08-17T13:46:54Z</time>
      </trkpt>
      <trkpt lat="47.14571" lon="5.97271">
        <ele>400.6</ele>
        <time>2021-08-17T13:46:55Z</time>
      </trkpt>
      <trkpt lat="47.14564" lon="5.9727">
        <ele>399.8</ele>
        <time>2021-08-17T13:46:56Z</time>
      </trkpt>
      <trkpt lat="47.14557" lon="5.9727">
        <ele>399.6</ele>
        <time>2021-08-17T13:46:57Z</time>
      </trkpt>
      <trkpt lat="47.14549" lon="5.97272">
        <ele>398.8</ele>
        <time>2021-08-17T13:46:58Z</time>
      </trkpt>
      <trkpt lat="47.14542" lon="5.97274">
        <ele>398</ele>
        <time>2021-08-17T13:46:59Z</time>
      </trkpt>
      <trkpt lat="47.14529" lon="5.97281">
        <ele>396.8</ele>
        <time>2021-08-17T13:47:01Z</time>
      </trkpt>
      <trkpt lat="47.14523" lon="5.97286">
        <ele>396.6</ele>
        <time>2021-08-17T13:47:02Z</time>
      </trkpt>
      <trkpt lat="47.14517" lon="5.97291">
        <ele>395.4</ele>
        <time>2021-08-17T13:47:03Z</time>
      </trkpt>
      <trkpt lat="47.14512" lon="5.97297">
        <ele>395</ele>
        <time>2021-08-17T13:47:04Z</time>
      </trkpt>
      <trkpt lat="47.14507" lon="5.97303">
        <ele>394.2</ele>
        <time>2021-08-17T13:47:05Z</time>
      </trkpt>
      <trkpt lat="47.14502" lon="5.97309">
        <ele>393.6</ele>
        <time>2021-08-17T13:47:06Z</time>
      </trkpt>
      <trkpt lat="47.14492" lon="5.97322">
        <ele>393</ele>
        <time>2021-08-17T13:47:08Z</time>
      </trkpt>
      <trkpt lat="47.14466" lon="5.97345">
        <ele>391.8</ele>
        <time>2021-08-17T13:47:12Z</time>
      </trkpt>
      <trkpt lat="47.14445" lon="5.97363">
        <ele>390.6</ele>
        <time>2021-08-17T13:47:15Z</time>
        <extensions>
          <visugpx:TrkExtension xmlns:visugpx="https://www.visugpx.com/editgpx/">
            <visugpx:node>2</visugpx:node>
            </visugpx:TrkExtension>
        </extensions>
      </trkpt>
      <trkpt lat="47.14456" lon="5.97353">
        <ele>377.5</ele>
      </trkpt>
      <trkpt lat="47.14453" lon="5.97334">
        <ele>376.6</ele>
      </trkpt>
      <trkpt lat="47.14452" lon="5.97285">
        <ele>375.3</ele>
        <extensions>
          <visugpx:TrkExtension xmlns:visugpx="https://www.visugpx.com/editgpx/">
            <visugpx:node>4</visugpx:node>
            </visugpx:TrkExtension>
        </extensions>
      </trkpt>
      <trkpt lat="47.14452" lon="5.9727">
        <ele>375.2</ele>
      </trkpt>
      <trkpt lat="47.14443" lon="5.97208">
        <ele>373.8</ele>
      </trkpt>
      <trkpt lat="47.14434" lon="5.97163">
        <ele>374.2</ele>
      </trkpt>
      <trkpt lat="47.14433" lon="5.9713">
        <ele>374.2</ele>
      </trkpt>
      <trkpt lat="47.14428" lon="5.97068">
        <ele>374.2</ele>
      </trkpt>
      <trkpt lat="47.1441" lon="5.97003">
        <ele>373.3</ele>
      </trkpt>
      <trkpt lat="47.14408" lon="5.96997">
        <ele>373.2</ele>
      </trkpt>
      <trkpt lat="47.14386" lon="5.96948">
        <ele>372.6</ele>
      </trkpt>
      <trkpt lat="47.14376" lon="5.96919">
        <ele>372.9</ele>
      </trkpt>
      <trkpt lat="47.14362" lon="5.96867">
        <ele>372.9</ele>
      </trkpt>
      <trkpt lat="47.14358" lon="5.96837">
        <ele>373.4</ele>
      </trkpt>
      <trkpt lat="47.14358" lon="5.96819">
        <ele>373.2</ele>
      </trkpt>
      <trkpt lat="47.14363" lon="5.96796">
        <ele>372.8</ele>
      </trkpt>
      <trkpt lat="47.14373" lon="5.96766">
        <ele>370.9</ele>
      </trkpt>
      <trkpt lat="47.14384" lon="5.96744">
        <ele>369.2</ele>
      </trkpt>
      <trkpt lat="47.1439" lon="5.96714">
        <ele>367.4</ele>
      </trkpt>
      <trkpt lat="47.1439" lon="5.96696">
        <ele>366.2</ele>
      </trkpt>
      <trkpt lat="47.14391" lon="5.96682">
        <ele>366</ele>
      </trkpt>
      <trkpt lat="47.14381" lon="5.96627">
        <ele>363.4</ele>
      </trkpt>
      <trkpt lat="47.14379" lon="5.96592">
        <ele>361.3</ele>
      </trkpt>
      <trkpt lat="47.14374" lon="5.96559">
        <ele>358.4</ele>
      </trkpt>
      <trkpt lat="47.14371" lon="5.96518">
        <ele>354.3</ele>
      </trkpt>
      <trkpt lat="47.14361" lon="5.96468">
        <ele>349.4</ele>
      </trkpt>
      <trkpt lat="47.14349" lon="5.96419">
        <ele>343.6</ele>
      </trkpt>
      <trkpt lat="47.14333" lon="5.96375">
        <ele>340.1</ele>
      </trkpt>
      <trkpt lat="47.14323" lon="5.96329">
        <ele>334.8</ele>
      </trkpt>
      <trkpt lat="47.14307" lon="5.96292">
        <ele>331.7</ele>
      </trkpt>
      <trkpt lat="47.14293" lon="5.96264">
        <ele>329.1</ele>
      </trkpt>
      <trkpt lat="47.14285" lon="5.96234">
        <ele>324.6</ele>
      </trkpt>
      <trkpt lat="47.14279" lon="5.96218">
        <ele>323.2</ele>
      </trkpt>
      <trkpt lat="47.1427" lon="5.96202">
        <ele>321.9</ele>
      </trkpt>
      <trkpt lat="47.14253" lon="5.96178">
        <ele>319.1</ele>
      </trkpt>
      <trkpt lat="47.14223" lon="5.96138">
        <ele>314.8</ele>
      </trkpt>
      <trkpt lat="47.14206" lon="5.9612">
        <ele>311.3</ele>
      </trkpt>
      <trkpt lat="47.14186" lon="5.96102">
        <ele>309</ele>
      </trkpt>
      <trkpt lat="47.14128" lon="5.96074">
        <ele>301.9</ele>
      </trkpt>
      <trkpt lat="47.14118" lon="5.96063">
        <ele>300.3</ele>
      </trkpt>
      <trkpt lat="47.14099" lon="5.96056">
        <ele>298.2</ele>
      </trkpt>
      <trkpt lat="47.14088" lon="5.96049">
        <ele>296.4</ele>
      </trkpt>
      <trkpt lat="47.14083" lon="5.96039">
        <ele>294.6</ele>
      </trkpt>
      <trkpt lat="47.14059" lon="5.96016">
        <ele>288.6</ele>
        <extensions>
          <visugpx:TrkExtension xmlns:visugpx="https://www.visugpx.com/editgpx/">
            <visugpx:node>8</visugpx:node>
            </visugpx:TrkExtension>
        </extensions>
      </trkpt>
      <trkpt lat="47.14053" lon="5.96013">
        <ele>287.6</ele>
        <extensions>
          <visugpx:TrkExtension xmlns:visugpx="https://www.visugpx.com/editgpx/">
            <visugpx:node>12</visugpx:node>
            </visugpx:TrkExtension>
        </extensions>
      </trkpt>
      <trkpt lat="47.14061" lon="5.96009">
        <ele>287.8</ele>
      </trkpt>
      <trkpt lat="47.14066" lon="5.96002">
        <ele>287.1</ele>
      </trkpt>
      <trkpt lat="47.14062" lon="5.95997">
        <ele>286.3</ele>
      </trkpt>
      <trkpt lat="47.14047" lon="5.95984">
        <ele>284.8</ele>
        <extensions>
          <visugpx:TrkExtension xmlns:visugpx="https://www.visugpx.com/editgpx/">
            <visugpx:node>13</visugpx:node>
            </visugpx:TrkExtension>
        </extensions>
      </trkpt>
      <trkpt lat="47.14025" lon="5.95964">
        <ele>282.2</ele>
      </trkpt>
      <trkpt lat="47.14021" lon="5.95955">
        <ele>281.4</ele>
      </trkpt>
      <trkpt lat="47.14032" lon="5.95953">
        <ele>281.9</ele>
        <extensions>
          <visugpx:TrkExtension xmlns:visugpx="https://www.visugpx.com/editgpx/">
            <visugpx:node>17</visugpx:node>
            </visugpx:TrkExtension>
        </extensions>
      </trkpt>
    </trkseg>
  </trk>
</gpx>